<?xml version="1.0"?>
<gpx version="1.0" creator="Ultra GPS Logger" xmlns:xsi="http://www.w3.org/2001/XMLSchema-instance" xmlns="http://www.topografix.com/GPX/1/0" xsi:schemaLocation="http://www.topografix.com/GPX/1/0 http://www.topografix.com/GPX/1/0/gpx.xsd">
<!-- segment: Khao_Yoi_Sunday_17 category: Car -->
<trk>
<name><![CDATA[Khao_Yoi_Sunday_17]]></name>
<trkseg>
<trkpt lat="13.25776" lon="99.78696"><ele>18</ele><time>2018-06-17T01:36:30Z</time></trkpt>
<trkpt lat="13.25779" lon="99.78702"><ele>14</ele><time>2018-06-17T01:36:38Z</time></trkpt>
<trkpt lat="13.25782" lon="99.78707"><ele>14</ele><time>2018-06-17T01:36:40Z</time></trkpt>
<trkpt lat="13.25783" lon="99.78716"><ele>13</ele><time>2018-06-17T01:36:42Z</time></trkpt>
<trkpt lat="13.25783" lon="99.78723"><ele>13</ele><time>2018-06-17T01:36:44Z</time></trkpt>
<trkpt lat="13.25780" lon="99.78728"><ele>13</ele><time>2018-06-17T01:36:46Z</time></trkpt>
<trkpt lat="13.25777" lon="99.78733"><ele>13</ele><time>2018-06-17T01:36:48Z</time></trkpt>
<trkpt lat="13.25771" lon="99.78737"><ele>13</ele><time>2018-06-17T01:36:50Z</time></trkpt>
<trkpt lat="13.25767" lon="99.78741"><ele>13</ele><time>2018-06-17T01:36:52Z</time></trkpt>
<trkpt lat="13.25762" lon="99.78745"><ele>14</ele><time>2018-06-17T01:36:54Z</time></trkpt>
<trkpt lat="13.25756" lon="99.78750"><ele>14</ele><time>2018-06-17T01:36:56Z</time></trkpt>
<trkpt lat="13.25750" lon="99.78755"><ele>14</ele><time>2018-06-17T01:36:58Z</time></trkpt>
<trkpt lat="13.25745" lon="99.78759"><ele>14</ele><time>2018-06-17T01:37:00Z</time></trkpt>
<trkpt lat="13.25739" lon="99.78762"><ele>15</ele><time>2018-06-17T01:37:02Z</time></trkpt>
<trkpt lat="13.25733" lon="99.78766"><ele>15</ele><time>2018-06-17T01:37:04Z</time></trkpt>
<trkpt lat="13.25728" lon="99.78768"><ele>15</ele><time>2018-06-17T01:37:06Z</time></trkpt>
<trkpt lat="13.25721" lon="99.78768"><ele>15</ele><time>2018-06-17T01:37:08Z</time></trkpt>
<trkpt lat="13.25716" lon="99.78768"><ele>15</ele><time>2018-06-17T01:37:09Z</time></trkpt>
<trkpt lat="13.25711" lon="99.78769"><ele>16</ele><time>2018-06-17T01:37:11Z</time></trkpt>
<trkpt lat="13.25705" lon="99.78772"><ele>16</ele><time>2018-06-17T01:37:13Z</time></trkpt>
<trkpt lat="13.25700" lon="99.78774"><ele>16</ele><time>2018-06-17T01:37:15Z</time></trkpt>
<trkpt lat="13.25695" lon="99.78775"><ele>16</ele><time>2018-06-17T01:37:17Z</time></trkpt>
<trkpt lat="13.25689" lon="99.78775"><ele>16</ele><time>2018-06-17T01:37:19Z</time></trkpt>
<trkpt lat="13.25683" lon="99.78775"><ele>16</ele><time>2018-06-17T01:37:21Z</time></trkpt>
<trkpt lat="13.25676" lon="99.78773"><ele>16</ele><time>2018-06-17T01:37:23Z</time></trkpt>
<trkpt lat="13.25671" lon="99.78770"><ele>16</ele><time>2018-06-17T01:37:25Z</time></trkpt>
<trkpt lat="13.25666" lon="99.78766"><ele>16</ele><time>2018-06-17T01:37:27Z</time></trkpt>
<trkpt lat="13.25661" lon="99.78762"><ele>16</ele><time>2018-06-17T01:37:30Z</time></trkpt>
<trkpt lat="13.25657" lon="99.78759"><ele>16</ele><time>2018-06-17T01:37:34Z</time></trkpt>
<trkpt lat="13.25653" lon="99.78756"><ele>18</ele><time>2018-06-17T01:37:49Z</time></trkpt>
<trkpt lat="13.25655" lon="99.78751"><ele>18</ele><time>2018-06-17T01:38:49Z</time></trkpt>
<trkpt lat="13.25659" lon="99.78746"><ele>16</ele><time>2018-06-17T01:38:52Z</time></trkpt>
<trkpt lat="13.25663" lon="99.78742"><ele>16</ele><time>2018-06-17T01:38:54Z</time></trkpt>
<trkpt lat="13.25666" lon="99.78738"><ele>17</ele><time>2018-06-17T01:38:56Z</time></trkpt>
<trkpt lat="13.25669" lon="99.78734"><ele>17</ele><time>2018-06-17T01:38:58Z</time></trkpt>
<trkpt lat="13.25673" lon="99.78729"><ele>16</ele><time>2018-06-17T01:39:00Z</time></trkpt>
<trkpt lat="13.25675" lon="99.78723"><ele>16</ele><time>2018-06-17T01:39:02Z</time></trkpt>
<trkpt lat="13.25675" lon="99.78718"><ele>16</ele><time>2018-06-17T01:39:04Z</time></trkpt>
<trkpt lat="13.25672" lon="99.78712"><ele>16</ele><time>2018-06-17T01:39:06Z</time></trkpt>
<trkpt lat="13.25667" lon="99.78706"><ele>16</ele><time>2018-06-17T01:39:08Z</time></trkpt>
<trkpt lat="13.25662" lon="99.78700"><ele>16</ele><time>2018-06-17T01:39:10Z</time></trkpt>
<trkpt lat="13.25657" lon="99.78697"><ele>16</ele><time>2018-06-17T01:39:12Z</time></trkpt>
<trkpt lat="13.25650" lon="99.78694"><ele>16</ele><time>2018-06-17T01:39:14Z</time></trkpt>
<trkpt lat="13.25642" lon="99.78692"><ele>15</ele><time>2018-06-17T01:39:16Z</time></trkpt>
<trkpt lat="13.25634" lon="99.78691"><ele>15</ele><time>2018-06-17T01:39:18Z</time></trkpt>
<trkpt lat="13.25629" lon="99.78691"><ele>15</ele><time>2018-06-17T01:39:19Z</time></trkpt>
<trkpt lat="13.25624" lon="99.78689"><ele>15</ele><time>2018-06-17T01:39:20Z</time></trkpt>
<trkpt lat="13.25619" lon="99.78688"><ele>15</ele><time>2018-06-17T01:39:21Z</time></trkpt>
<trkpt lat="13.25614" lon="99.78687"><ele>15</ele><time>2018-06-17T01:39:22Z</time></trkpt>
<trkpt lat="13.25609" lon="99.78685"><ele>14</ele><time>2018-06-17T01:39:23Z</time></trkpt>
<trkpt lat="13.25604" lon="99.78684"><ele>14</ele><time>2018-06-17T01:39:24Z</time></trkpt>
<trkpt lat="13.25599" lon="99.78682"><ele>14</ele><time>2018-06-17T01:39:25Z</time></trkpt>
<trkpt lat="13.25595" lon="99.78680"><ele>14</ele><time>2018-06-17T01:39:26Z</time></trkpt>
<trkpt lat="13.25590" lon="99.78678"><ele>14</ele><time>2018-06-17T01:39:27Z</time></trkpt>
<trkpt lat="13.25586" lon="99.78676"><ele>14</ele><time>2018-06-17T01:39:28Z</time></trkpt>
<trkpt lat="13.25582" lon="99.78674"><ele>14</ele><time>2018-06-17T01:39:29Z</time></trkpt>
<trkpt lat="13.25577" lon="99.78672"><ele>14</ele><time>2018-06-17T01:39:30Z</time></trkpt>
<trkpt lat="13.25573" lon="99.78670"><ele>14</ele><time>2018-06-17T01:39:31Z</time></trkpt>
<trkpt lat="13.25566" lon="99.78667"><ele>14</ele><time>2018-06-17T01:39:32Z</time></trkpt>
<trkpt lat="13.25561" lon="99.78666"><ele>14</ele><time>2018-06-17T01:39:33Z</time></trkpt>
<trkpt lat="13.25556" lon="99.78664"><ele>14</ele><time>2018-06-17T01:39:34Z</time></trkpt>
<trkpt lat="13.25552" lon="99.78661"><ele>14</ele><time>2018-06-17T01:39:35Z</time></trkpt>
<trkpt lat="13.25545" lon="99.78658"><ele>14</ele><time>2018-06-17T01:39:37Z</time></trkpt>
<trkpt lat="13.25541" lon="99.78656"><ele>13</ele><time>2018-06-17T01:39:38Z</time></trkpt>
<trkpt lat="13.25536" lon="99.78654"><ele>14</ele><time>2018-06-17T01:39:39Z</time></trkpt>
<trkpt lat="13.25530" lon="99.78651"><ele>14</ele><time>2018-06-17T01:39:40Z</time></trkpt>
<trkpt lat="13.25525" lon="99.78649"><ele>13</ele><time>2018-06-17T01:39:41Z</time></trkpt>
<trkpt lat="13.25521" lon="99.78647"><ele>13</ele><time>2018-06-17T01:39:42Z</time></trkpt>
<trkpt lat="13.25517" lon="99.78645"><ele>14</ele><time>2018-06-17T01:39:43Z</time></trkpt>
<trkpt lat="13.25511" lon="99.78643"><ele>12</ele><time>2018-06-17T01:39:45Z</time></trkpt>
<trkpt lat="13.25506" lon="99.78640"><ele>11</ele><time>2018-06-17T01:39:47Z</time></trkpt>
<trkpt lat="13.25504" lon="99.78634"><ele>11</ele><time>2018-06-17T01:39:49Z</time></trkpt>
<trkpt lat="13.25507" lon="99.78628"><ele>11</ele><time>2018-06-17T01:39:52Z</time></trkpt>
<trkpt lat="13.25509" lon="99.78624"><ele>10</ele><time>2018-06-17T01:39:54Z</time></trkpt>
<trkpt lat="13.25512" lon="99.78619"><ele>11</ele><time>2018-06-17T01:39:56Z</time></trkpt>
<trkpt lat="13.25515" lon="99.78614"><ele>11</ele><time>2018-06-17T01:39:58Z</time></trkpt>
<trkpt lat="13.25518" lon="99.78607"><ele>11</ele><time>2018-06-17T01:40:00Z</time></trkpt>
<trkpt lat="13.25521" lon="99.78601"><ele>11</ele><time>2018-06-17T01:40:02Z</time></trkpt>
<trkpt lat="13.25525" lon="99.78592"><ele>11</ele><time>2018-06-17T01:40:04Z</time></trkpt>
<trkpt lat="13.25528" lon="99.78586"><ele>11</ele><time>2018-06-17T01:40:06Z</time></trkpt>
<trkpt lat="13.25532" lon="99.78579"><ele>11</ele><time>2018-06-17T01:40:08Z</time></trkpt>
<trkpt lat="13.25535" lon="99.78573"><ele>11</ele><time>2018-06-17T01:40:10Z</time></trkpt>
<trkpt lat="13.25538" lon="99.78567"><ele>11</ele><time>2018-06-17T01:40:12Z</time></trkpt>
<trkpt lat="13.25541" lon="99.78561"><ele>11</ele><time>2018-06-17T01:40:14Z</time></trkpt>
<trkpt lat="13.25545" lon="99.78554"><ele>12</ele><time>2018-06-17T01:40:16Z</time></trkpt>
<trkpt lat="13.25548" lon="99.78547"><ele>12</ele><time>2018-06-17T01:40:18Z</time></trkpt>
<trkpt lat="13.25549" lon="99.78539"><ele>12</ele><time>2018-06-17T01:40:20Z</time></trkpt>
<trkpt lat="13.25550" lon="99.78531"><ele>12</ele><time>2018-06-17T01:40:22Z</time></trkpt>
<trkpt lat="13.25552" lon="99.78523"><ele>12</ele><time>2018-06-17T01:40:24Z</time></trkpt>
<trkpt lat="13.25553" lon="99.78515"><ele>12</ele><time>2018-06-17T01:40:26Z</time></trkpt>
<trkpt lat="13.25554" lon="99.78508"><ele>12</ele><time>2018-06-17T01:40:28Z</time></trkpt>
<trkpt lat="13.25555" lon="99.78500"><ele>12</ele><time>2018-06-17T01:40:30Z</time></trkpt>
<trkpt lat="13.25556" lon="99.78492"><ele>12</ele><time>2018-06-17T01:40:32Z</time></trkpt>
<trkpt lat="13.25558" lon="99.78485"><ele>12</ele><time>2018-06-17T01:40:34Z</time></trkpt>
<trkpt lat="13.25559" lon="99.78477"><ele>12</ele><time>2018-06-17T01:40:36Z</time></trkpt>
<trkpt lat="13.25560" lon="99.78469"><ele>12</ele><time>2018-06-17T01:40:38Z</time></trkpt>
<trkpt lat="13.25560" lon="99.78461"><ele>12</ele><time>2018-06-17T01:40:40Z</time></trkpt>
<trkpt lat="13.25562" lon="99.78453"><ele>12</ele><time>2018-06-17T01:40:42Z</time></trkpt>
<trkpt lat="13.25563" lon="99.78444"><ele>12</ele><time>2018-06-17T01:40:44Z</time></trkpt>
<trkpt lat="13.25564" lon="99.78435"><ele>13</ele><time>2018-06-17T01:40:46Z</time></trkpt>
<trkpt lat="13.25565" lon="99.78426"><ele>13</ele><time>2018-06-17T01:40:48Z</time></trkpt>
<trkpt lat="13.25567" lon="99.78418"><ele>13</ele><time>2018-06-17T01:40:50Z</time></trkpt>
<trkpt lat="13.25568" lon="99.78409"><ele>14</ele><time>2018-06-17T01:40:52Z</time></trkpt>
<trkpt lat="13.25568" lon="99.78404"><ele>14</ele><time>2018-06-17T01:40:53Z</time></trkpt>
<trkpt lat="13.25569" lon="99.78395"><ele>13</ele><time>2018-06-17T01:40:55Z</time></trkpt>
<trkpt lat="13.25569" lon="99.78387"><ele>14</ele><time>2018-06-17T01:40:57Z</time></trkpt>
<trkpt lat="13.25570" lon="99.78378"><ele>13</ele><time>2018-06-17T01:40:59Z</time></trkpt>
<trkpt lat="13.25571" lon="99.78369"><ele>13</ele><time>2018-06-17T01:41:01Z</time></trkpt>
<trkpt lat="13.25573" lon="99.78361"><ele>13</ele><time>2018-06-17T01:41:03Z</time></trkpt>
<trkpt lat="13.25576" lon="99.78352"><ele>13</ele><time>2018-06-17T01:41:05Z</time></trkpt>
<trkpt lat="13.25577" lon="99.78343"><ele>13</ele><time>2018-06-17T01:41:07Z</time></trkpt>
<trkpt lat="13.25580" lon="99.78335"><ele>14</ele><time>2018-06-17T01:41:09Z</time></trkpt>
<trkpt lat="13.25581" lon="99.78327"><ele>13</ele><time>2018-06-17T01:41:11Z</time></trkpt>
<trkpt lat="13.25583" lon="99.78319"><ele>13</ele><time>2018-06-17T01:41:13Z</time></trkpt>
<trkpt lat="13.25583" lon="99.78311"><ele>13</ele><time>2018-06-17T01:41:15Z</time></trkpt>
<trkpt lat="13.25583" lon="99.78303"><ele>13</ele><time>2018-06-17T01:41:17Z</time></trkpt>
<trkpt lat="13.25583" lon="99.78294"><ele>13</ele><time>2018-06-17T01:41:19Z</time></trkpt>
<trkpt lat="13.25584" lon="99.78286"><ele>13</ele><time>2018-06-17T01:41:21Z</time></trkpt>
<trkpt lat="13.25585" lon="99.78278"><ele>14</ele><time>2018-06-17T01:41:23Z</time></trkpt>
<trkpt lat="13.25584" lon="99.78271"><ele>13</ele><time>2018-06-17T01:41:25Z</time></trkpt>
<trkpt lat="13.25581" lon="99.78265"><ele>14</ele><time>2018-06-17T01:41:27Z</time></trkpt>
<trkpt lat="13.25577" lon="99.78261"><ele>13</ele><time>2018-06-17T01:41:29Z</time></trkpt>
<trkpt lat="13.25573" lon="99.78258"><ele>13</ele><time>2018-06-17T01:41:31Z</time></trkpt>
<trkpt lat="13.25567" lon="99.78254"><ele>13</ele><time>2018-06-17T01:41:34Z</time></trkpt>
<trkpt lat="13.25564" lon="99.78247"><ele>13</ele><time>2018-06-17T01:41:36Z</time></trkpt>
<trkpt lat="13.25564" lon="99.78240"><ele>13</ele><time>2018-06-17T01:41:38Z</time></trkpt>
<trkpt lat="13.25565" lon="99.78233"><ele>14</ele><time>2018-06-17T01:41:40Z</time></trkpt>
<trkpt lat="13.25566" lon="99.78226"><ele>14</ele><time>2018-06-17T01:41:42Z</time></trkpt>
<trkpt lat="13.25567" lon="99.78219"><ele>13</ele><time>2018-06-17T01:41:44Z</time></trkpt>
<trkpt lat="13.25567" lon="99.78211"><ele>13</ele><time>2018-06-17T01:41:46Z</time></trkpt>
<trkpt lat="13.25567" lon="99.78204"><ele>13</ele><time>2018-06-17T01:41:48Z</time></trkpt>
<trkpt lat="13.25567" lon="99.78198"><ele>13</ele><time>2018-06-17T01:41:50Z</time></trkpt>
<trkpt lat="13.25568" lon="99.78193"><ele>13</ele><time>2018-06-17T01:41:52Z</time></trkpt>
<trkpt lat="13.25570" lon="99.78188"><ele>13</ele><time>2018-06-17T01:41:54Z</time></trkpt>
<trkpt lat="13.25571" lon="99.78182"><ele>14</ele><time>2018-06-17T01:41:56Z</time></trkpt>
<trkpt lat="13.25572" lon="99.78177"><ele>14</ele><time>2018-06-17T01:41:58Z</time></trkpt>
<trkpt lat="13.25572" lon="99.78172"><ele>14</ele><time>2018-06-17T01:42:00Z</time></trkpt>
<trkpt lat="13.25572" lon="99.78167"><ele>14</ele><time>2018-06-17T01:42:02Z</time></trkpt>
<trkpt lat="13.25573" lon="99.78160"><ele>14</ele><time>2018-06-17T01:42:05Z</time></trkpt>
<trkpt lat="13.25574" lon="99.78155"><ele>15</ele><time>2018-06-17T01:42:07Z</time></trkpt>
<trkpt lat="13.25574" lon="99.78149"><ele>15</ele><time>2018-06-17T01:42:09Z</time></trkpt>
<trkpt lat="13.25573" lon="99.78144"><ele>15</ele><time>2018-06-17T01:42:11Z</time></trkpt>
<trkpt lat="13.25573" lon="99.78137"><ele>15</ele><time>2018-06-17T01:42:13Z</time></trkpt>
<trkpt lat="13.25573" lon="99.78131"><ele>15</ele><time>2018-06-17T01:42:15Z</time></trkpt>
<trkpt lat="13.25574" lon="99.78124"><ele>15</ele><time>2018-06-17T01:42:17Z</time></trkpt>
<trkpt lat="13.25575" lon="99.78117"><ele>15</ele><time>2018-06-17T01:42:19Z</time></trkpt>
<trkpt lat="13.25577" lon="99.78111"><ele>16</ele><time>2018-06-17T01:42:21Z</time></trkpt>
<trkpt lat="13.25579" lon="99.78105"><ele>16</ele><time>2018-06-17T01:42:23Z</time></trkpt>
<trkpt lat="13.25580" lon="99.78098"><ele>16</ele><time>2018-06-17T01:42:25Z</time></trkpt>
<trkpt lat="13.25581" lon="99.78093"><ele>16</ele><time>2018-06-17T01:42:27Z</time></trkpt>
<trkpt lat="13.25580" lon="99.78087"><ele>16</ele><time>2018-06-17T01:42:29Z</time></trkpt>
<trkpt lat="13.25579" lon="99.78082"><ele>16</ele><time>2018-06-17T01:42:31Z</time></trkpt>
<trkpt lat="13.25578" lon="99.78076"><ele>16</ele><time>2018-06-17T01:42:33Z</time></trkpt>
<trkpt lat="13.25578" lon="99.78071"><ele>16</ele><time>2018-06-17T01:42:35Z</time></trkpt>
<trkpt lat="13.25579" lon="99.78064"><ele>16</ele><time>2018-06-17T01:42:38Z</time></trkpt>
<trkpt lat="13.25581" lon="99.78058"><ele>16</ele><time>2018-06-17T01:42:41Z</time></trkpt>
<trkpt lat="13.25585" lon="99.78054"><ele>16</ele><time>2018-06-17T01:42:44Z</time></trkpt>
<trkpt lat="13.25589" lon="99.78048"><ele>16</ele><time>2018-06-17T01:42:47Z</time></trkpt>
<trkpt lat="13.25591" lon="99.78043"><ele>17</ele><time>2018-06-17T01:42:50Z</time></trkpt>
<trkpt lat="13.25592" lon="99.78038"><ele>17</ele><time>2018-06-17T01:42:54Z</time></trkpt>
<trkpt lat="13.25594" lon="99.78033"><ele>17</ele><time>2018-06-17T01:42:57Z</time></trkpt>
<trkpt lat="13.25597" lon="99.78025"><ele>18</ele><time>2018-06-17T01:43:00Z</time></trkpt>
<trkpt lat="13.25600" lon="99.78021"><ele>18</ele><time>2018-06-17T01:43:02Z</time></trkpt>
<trkpt lat="13.25602" lon="99.78016"><ele>18</ele><time>2018-06-17T01:43:04Z</time></trkpt>
<trkpt lat="13.25605" lon="99.78010"><ele>18</ele><time>2018-06-17T01:43:06Z</time></trkpt>
<trkpt lat="13.25606" lon="99.78005"><ele>18</ele><time>2018-06-17T01:43:08Z</time></trkpt>
<trkpt lat="13.25607" lon="99.78000"><ele>18</ele><time>2018-06-17T01:43:11Z</time></trkpt>
<trkpt lat="13.25608" lon="99.77995"><ele>18</ele><time>2018-06-17T01:43:13Z</time></trkpt>
<trkpt lat="13.25609" lon="99.77990"><ele>18</ele><time>2018-06-17T01:43:15Z</time></trkpt>
<trkpt lat="13.25610" lon="99.77984"><ele>18</ele><time>2018-06-17T01:43:17Z</time></trkpt>
<trkpt lat="13.25611" lon="99.77978"><ele>18</ele><time>2018-06-17T01:43:19Z</time></trkpt>
<trkpt lat="13.25612" lon="99.77973"><ele>18</ele><time>2018-06-17T01:43:21Z</time></trkpt>
<trkpt lat="13.25613" lon="99.77968"><ele>19</ele><time>2018-06-17T01:43:23Z</time></trkpt>
<trkpt lat="13.25615" lon="99.77963"><ele>19</ele><time>2018-06-17T01:43:25Z</time></trkpt>
<trkpt lat="13.25617" lon="99.77957"><ele>19</ele><time>2018-06-17T01:43:27Z</time></trkpt>
<trkpt lat="13.25618" lon="99.77952"><ele>19</ele><time>2018-06-17T01:43:29Z</time></trkpt>
<trkpt lat="13.25620" lon="99.77947"><ele>19</ele><time>2018-06-17T01:43:31Z</time></trkpt>
<trkpt lat="13.25622" lon="99.77942"><ele>19</ele><time>2018-06-17T01:43:33Z</time></trkpt>
<trkpt lat="13.25624" lon="99.77938"><ele>20</ele><time>2018-06-17T01:43:35Z</time></trkpt>
<trkpt lat="13.25627" lon="99.77933"><ele>20</ele><time>2018-06-17T01:43:37Z</time></trkpt>
<trkpt lat="13.25630" lon="99.77928"><ele>20</ele><time>2018-06-17T01:43:39Z</time></trkpt>
<trkpt lat="13.25633" lon="99.77923"><ele>20</ele><time>2018-06-17T01:43:41Z</time></trkpt>
<trkpt lat="13.25635" lon="99.77918"><ele>20</ele><time>2018-06-17T01:43:43Z</time></trkpt>
<trkpt lat="13.25636" lon="99.77912"><ele>20</ele><time>2018-06-17T01:43:45Z</time></trkpt>
<trkpt lat="13.25637" lon="99.77906"><ele>20</ele><time>2018-06-17T01:43:47Z</time></trkpt>
<trkpt lat="13.25638" lon="99.77899"><ele>20</ele><time>2018-06-17T01:43:49Z</time></trkpt>
<trkpt lat="13.25638" lon="99.77893"><ele>20</ele><time>2018-06-17T01:43:51Z</time></trkpt>
<trkpt lat="13.25638" lon="99.77887"><ele>20</ele><time>2018-06-17T01:43:53Z</time></trkpt>
<trkpt lat="13.25640" lon="99.77880"><ele>20</ele><time>2018-06-17T01:43:55Z</time></trkpt>
<trkpt lat="13.25644" lon="99.77875"><ele>20</ele><time>2018-06-17T01:43:57Z</time></trkpt>
<trkpt lat="13.25650" lon="99.77871"><ele>20</ele><time>2018-06-17T01:43:59Z</time></trkpt>
<trkpt lat="13.25653" lon="99.77865"><ele>20</ele><time>2018-06-17T01:44:01Z</time></trkpt>
<trkpt lat="13.25655" lon="99.77859"><ele>20</ele><time>2018-06-17T01:44:03Z</time></trkpt>
<trkpt lat="13.25655" lon="99.77851"><ele>20</ele><time>2018-06-17T01:44:05Z</time></trkpt>
<trkpt lat="13.25655" lon="99.77844"><ele>21</ele><time>2018-06-17T01:44:07Z</time></trkpt>
<trkpt lat="13.25656" lon="99.77836"><ele>21</ele><time>2018-06-17T01:44:09Z</time></trkpt>
<trkpt lat="13.25657" lon="99.77828"><ele>21</ele><time>2018-06-17T01:44:11Z</time></trkpt>
<trkpt lat="13.25658" lon="99.77822"><ele>21</ele><time>2018-06-17T01:44:13Z</time></trkpt>
<trkpt lat="13.25660" lon="99.77815"><ele>21</ele><time>2018-06-17T01:44:15Z</time></trkpt>
<trkpt lat="13.25661" lon="99.77809"><ele>21</ele><time>2018-06-17T01:44:17Z</time></trkpt>
<trkpt lat="13.25662" lon="99.77804"><ele>21</ele><time>2018-06-17T01:44:19Z</time></trkpt>
<trkpt lat="13.25662" lon="99.77798"><ele>21</ele><time>2018-06-17T01:44:21Z</time></trkpt>
<trkpt lat="13.25662" lon="99.77792"><ele>21</ele><time>2018-06-17T01:44:23Z</time></trkpt>
<trkpt lat="13.25662" lon="99.77787"><ele>21</ele><time>2018-06-17T01:44:25Z</time></trkpt>
<trkpt lat="13.25663" lon="99.77781"><ele>21</ele><time>2018-06-17T01:44:28Z</time></trkpt>
<trkpt lat="13.25664" lon="99.77775"><ele>20</ele><time>2018-06-17T01:44:31Z</time></trkpt>
<trkpt lat="13.25668" lon="99.77770"><ele>20</ele><time>2018-06-17T01:44:34Z</time></trkpt>
<trkpt lat="13.25671" lon="99.77764"><ele>21</ele><time>2018-06-17T01:44:37Z</time></trkpt>
<trkpt lat="13.25675" lon="99.77760"><ele>21</ele><time>2018-06-17T01:44:40Z</time></trkpt>
<trkpt lat="13.25679" lon="99.77757"><ele>24</ele><time>2018-06-17T01:45:35Z</time></trkpt>
<trkpt lat="13.25682" lon="99.77753"><ele>23</ele><time>2018-06-17T01:45:39Z</time></trkpt>
<trkpt lat="13.25685" lon="99.77748"><ele>23</ele><time>2018-06-17T01:45:41Z</time></trkpt>
<trkpt lat="13.25690" lon="99.77743"><ele>22</ele><time>2018-06-17T01:45:43Z</time></trkpt>
<trkpt lat="13.25694" lon="99.77738"><ele>22</ele><time>2018-06-17T01:45:45Z</time></trkpt>
<trkpt lat="13.25698" lon="99.77733"><ele>22</ele><time>2018-06-17T01:45:47Z</time></trkpt>
<trkpt lat="13.25701" lon="99.77729"><ele>22</ele><time>2018-06-17T01:45:49Z</time></trkpt>
<trkpt lat="13.25704" lon="99.77724"><ele>22</ele><time>2018-06-17T01:45:51Z</time></trkpt>
<trkpt lat="13.25708" lon="99.77719"><ele>22</ele><time>2018-06-17T01:45:53Z</time></trkpt>
<trkpt lat="13.25712" lon="99.77714"><ele>22</ele><time>2018-06-17T01:45:55Z</time></trkpt>
<trkpt lat="13.25716" lon="99.77708"><ele>22</ele><time>2018-06-17T01:45:57Z</time></trkpt>
<trkpt lat="13.25720" lon="99.77703"><ele>23</ele><time>2018-06-17T01:45:59Z</time></trkpt>
<trkpt lat="13.25724" lon="99.77698"><ele>23</ele><time>2018-06-17T01:46:01Z</time></trkpt>
<trkpt lat="13.25728" lon="99.77693"><ele>23</ele><time>2018-06-17T01:46:03Z</time></trkpt>
<trkpt lat="13.25732" lon="99.77689"><ele>23</ele><time>2018-06-17T01:46:05Z</time></trkpt>
<trkpt lat="13.25736" lon="99.77686"><ele>23</ele><time>2018-06-17T01:46:07Z</time></trkpt>
<trkpt lat="13.25739" lon="99.77683"><ele>22</ele><time>2018-06-17T01:46:11Z</time></trkpt>
<trkpt lat="13.25744" lon="99.77680"><ele>22</ele><time>2018-06-17T01:47:50Z</time></trkpt>
<trkpt lat="13.25747" lon="99.77675"><ele>22</ele><time>2018-06-17T01:47:54Z</time></trkpt>
<trkpt lat="13.25750" lon="99.77671"><ele>22</ele><time>2018-06-17T01:47:56Z</time></trkpt>
<trkpt lat="13.25754" lon="99.77666"><ele>22</ele><time>2018-06-17T01:47:58Z</time></trkpt>
<trkpt lat="13.25759" lon="99.77661"><ele>22</ele><time>2018-06-17T01:48:00Z</time></trkpt>
<trkpt lat="13.25764" lon="99.77656"><ele>22</ele><time>2018-06-17T01:48:02Z</time></trkpt>
<trkpt lat="13.25768" lon="99.77651"><ele>22</ele><time>2018-06-17T01:48:04Z</time></trkpt>
<trkpt lat="13.25773" lon="99.77646"><ele>22</ele><time>2018-06-17T01:48:06Z</time></trkpt>
<trkpt lat="13.25777" lon="99.77640"><ele>21</ele><time>2018-06-17T01:48:08Z</time></trkpt>
<trkpt lat="13.25781" lon="99.77635"><ele>22</ele><time>2018-06-17T01:48:10Z</time></trkpt>
<trkpt lat="13.25785" lon="99.77630"><ele>22</ele><time>2018-06-17T01:48:12Z</time></trkpt>
<trkpt lat="13.25790" lon="99.77625"><ele>22</ele><time>2018-06-17T01:48:14Z</time></trkpt>
<trkpt lat="13.25795" lon="99.77620"><ele>22</ele><time>2018-06-17T01:48:16Z</time></trkpt>
<trkpt lat="13.25800" lon="99.77615"><ele>22</ele><time>2018-06-17T01:48:18Z</time></trkpt>
<trkpt lat="13.25804" lon="99.77609"><ele>22</ele><time>2018-06-17T01:48:20Z</time></trkpt>
<trkpt lat="13.25808" lon="99.77603"><ele>22</ele><time>2018-06-17T01:48:22Z</time></trkpt>
<trkpt lat="13.25814" lon="99.77601"><ele>22</ele><time>2018-06-17T01:48:24Z</time></trkpt>
<trkpt lat="13.25820" lon="99.77598"><ele>21</ele><time>2018-06-17T01:48:26Z</time></trkpt>
<trkpt lat="13.25826" lon="99.77594"><ele>22</ele><time>2018-06-17T01:48:28Z</time></trkpt>
<trkpt lat="13.25833" lon="99.77590"><ele>22</ele><time>2018-06-17T01:48:30Z</time></trkpt>
<trkpt lat="13.25839" lon="99.77585"><ele>22</ele><time>2018-06-17T01:48:32Z</time></trkpt>
<trkpt lat="13.25845" lon="99.77581"><ele>22</ele><time>2018-06-17T01:48:34Z</time></trkpt>
<trkpt lat="13.25849" lon="99.77576"><ele>23</ele><time>2018-06-17T01:48:36Z</time></trkpt>
<trkpt lat="13.25848" lon="99.77570"><ele>22</ele><time>2018-06-17T01:48:39Z</time></trkpt>
<trkpt lat="13.25843" lon="99.77569"><ele>23</ele><time>2018-06-17T01:48:42Z</time></trkpt>
<trkpt lat="13.25837" lon="99.77569"><ele>23</ele><time>2018-06-17T01:48:58Z</time></trkpt>
<trkpt lat="13.25833" lon="99.77570"><ele>24</ele><time>2018-06-17T01:49:01Z</time></trkpt>
<trkpt lat="13.25828" lon="99.77571"><ele>24</ele><time>2018-06-17T01:49:04Z</time></trkpt>
<trkpt lat="13.25823" lon="99.77572"><ele>24</ele><time>2018-06-17T01:49:07Z</time></trkpt>
<trkpt lat="13.25818" lon="99.77573"><ele>25</ele><time>2018-06-17T01:49:10Z</time></trkpt>
<trkpt lat="13.25812" lon="99.77572"><ele>26</ele><time>2018-06-17T01:49:13Z</time></trkpt>
<trkpt lat="13.25807" lon="99.77571"><ele>26</ele><time>2018-06-17T01:49:15Z</time></trkpt>
<trkpt lat="13.25802" lon="99.77571"><ele>26</ele><time>2018-06-17T01:49:17Z</time></trkpt>
<trkpt lat="13.25797" lon="99.77571"><ele>26</ele><time>2018-06-17T01:49:19Z</time></trkpt>
<trkpt lat="13.25790" lon="99.77571"><ele>26</ele><time>2018-06-17T01:49:21Z</time></trkpt>
<trkpt lat="13.25783" lon="99.77571"><ele>27</ele><time>2018-06-17T01:49:23Z</time></trkpt>
<trkpt lat="13.25776" lon="99.77570"><ele>26</ele><time>2018-06-17T01:49:25Z</time></trkpt>
<trkpt lat="13.25769" lon="99.77570"><ele>26</ele><time>2018-06-17T01:49:27Z</time></trkpt>
<trkpt lat="13.25763" lon="99.77569"><ele>26</ele><time>2018-06-17T01:49:29Z</time></trkpt>
<trkpt lat="13.25756" lon="99.77568"><ele>27</ele><time>2018-06-17T01:49:31Z</time></trkpt>
<trkpt lat="13.25749" lon="99.77567"><ele>27</ele><time>2018-06-17T01:49:33Z</time></trkpt>
<trkpt lat="13.25743" lon="99.77565"><ele>27</ele><time>2018-06-17T01:49:35Z</time></trkpt>
<trkpt lat="13.25736" lon="99.77563"><ele>27</ele><time>2018-06-17T01:49:37Z</time></trkpt>
<trkpt lat="13.25729" lon="99.77560"><ele>27</ele><time>2018-06-17T01:49:39Z</time></trkpt>
<trkpt lat="13.25722" lon="99.77557"><ele>27</ele><time>2018-06-17T01:49:41Z</time></trkpt>
<trkpt lat="13.25715" lon="99.77554"><ele>27</ele><time>2018-06-17T01:49:43Z</time></trkpt>
<trkpt lat="13.25709" lon="99.77550"><ele>27</ele><time>2018-06-17T01:49:45Z</time></trkpt>
<trkpt lat="13.25702" lon="99.77546"><ele>27</ele><time>2018-06-17T01:49:47Z</time></trkpt>
<trkpt lat="13.25695" lon="99.77543"><ele>27</ele><time>2018-06-17T01:49:49Z</time></trkpt>
<trkpt lat="13.25688" lon="99.77540"><ele>27</ele><time>2018-06-17T01:49:51Z</time></trkpt>
<trkpt lat="13.25680" lon="99.77535"><ele>27</ele><time>2018-06-17T01:49:53Z</time></trkpt>
<trkpt lat="13.25673" lon="99.77531"><ele>27</ele><time>2018-06-17T01:49:55Z</time></trkpt>
<trkpt lat="13.25666" lon="99.77527"><ele>26</ele><time>2018-06-17T01:49:57Z</time></trkpt>
<trkpt lat="13.25662" lon="99.77525"><ele>27</ele><time>2018-06-17T01:49:59Z</time></trkpt>
<trkpt lat="13.25657" lon="99.77521"><ele>28</ele><time>2018-06-17T01:50:02Z</time></trkpt>
<trkpt lat="13.25652" lon="99.77517"><ele>27</ele><time>2018-06-17T01:50:05Z</time></trkpt>
<trkpt lat="13.25647" lon="99.77512"><ele>28</ele><time>2018-06-17T01:50:08Z</time></trkpt>
<trkpt lat="13.25642" lon="99.77508"><ele>28</ele><time>2018-06-17T01:50:11Z</time></trkpt>
<trkpt lat="13.25639" lon="99.77505"><ele>29</ele><time>2018-06-17T01:50:15Z</time></trkpt>
<trkpt lat="13.25635" lon="99.77501"><ele>28</ele><time>2018-06-17T01:50:47Z</time></trkpt>
<trkpt lat="13.25631" lon="99.77500"><ele>27</ele><time>2018-06-17T01:50:50Z</time></trkpt>
<trkpt lat="13.25625" lon="99.77498"><ele>27</ele><time>2018-06-17T01:50:53Z</time></trkpt>
<trkpt lat="13.25620" lon="99.77495"><ele>26</ele><time>2018-06-17T01:50:55Z</time></trkpt>
<trkpt lat="13.25616" lon="99.77491"><ele>26</ele><time>2018-06-17T01:50:57Z</time></trkpt>
<trkpt lat="13.25613" lon="99.77487"><ele>26</ele><time>2018-06-17T01:50:59Z</time></trkpt>
<trkpt lat="13.25610" lon="99.77482"><ele>27</ele><time>2018-06-17T01:51:01Z</time></trkpt>
<trkpt lat="13.25606" lon="99.77477"><ele>27</ele><time>2018-06-17T01:51:03Z</time></trkpt>
<trkpt lat="13.25601" lon="99.77473"><ele>26</ele><time>2018-06-17T01:51:05Z</time></trkpt>
<trkpt lat="13.25596" lon="99.77469"><ele>26</ele><time>2018-06-17T01:51:07Z</time></trkpt>
<trkpt lat="13.25591" lon="99.77467"><ele>27</ele><time>2018-06-17T01:51:09Z</time></trkpt>
<trkpt lat="13.25586" lon="99.77466"><ele>27</ele><time>2018-06-17T01:51:11Z</time></trkpt>
<trkpt lat="13.25581" lon="99.77468"><ele>26</ele><time>2018-06-17T01:51:13Z</time></trkpt>
<trkpt lat="13.25575" lon="99.77469"><ele>25</ele><time>2018-06-17T01:51:15Z</time></trkpt>
<trkpt lat="13.25570" lon="99.77472"><ele>25</ele><time>2018-06-17T01:51:17Z</time></trkpt>
<trkpt lat="13.25564" lon="99.77476"><ele>26</ele><time>2018-06-17T01:51:19Z</time></trkpt>
<trkpt lat="13.25559" lon="99.77482"><ele>26</ele><time>2018-06-17T01:51:21Z</time></trkpt>
<trkpt lat="13.25553" lon="99.77487"><ele>26</ele><time>2018-06-17T01:51:23Z</time></trkpt>
<trkpt lat="13.25548" lon="99.77491"><ele>26</ele><time>2018-06-17T01:51:25Z</time></trkpt>
<trkpt lat="13.25543" lon="99.77492"><ele>26</ele><time>2018-06-17T01:51:28Z</time></trkpt>
<trkpt lat="13.25536" lon="99.77491"><ele>25</ele><time>2018-06-17T01:51:31Z</time></trkpt>
<trkpt lat="13.25531" lon="99.77489"><ele>25</ele><time>2018-06-17T01:51:33Z</time></trkpt>
<trkpt lat="13.25526" lon="99.77488"><ele>26</ele><time>2018-06-17T01:51:35Z</time></trkpt>
<trkpt lat="13.25521" lon="99.77487"><ele>26</ele><time>2018-06-17T01:51:37Z</time></trkpt>
<trkpt lat="13.25514" lon="99.77487"><ele>27</ele><time>2018-06-17T01:51:39Z</time></trkpt>
<trkpt lat="13.25507" lon="99.77487"><ele>27</ele><time>2018-06-17T01:51:41Z</time></trkpt>
<trkpt lat="13.25500" lon="99.77488"><ele>28</ele><time>2018-06-17T01:51:43Z</time></trkpt>
<trkpt lat="13.25491" lon="99.77491"><ele>28</ele><time>2018-06-17T01:51:45Z</time></trkpt>
<trkpt lat="13.25483" lon="99.77494"><ele>28</ele><time>2018-06-17T01:51:47Z</time></trkpt>
<trkpt lat="13.25478" lon="99.77495"><ele>28</ele><time>2018-06-17T01:51:48Z</time></trkpt>
<trkpt lat="13.25474" lon="99.77497"><ele>29</ele><time>2018-06-17T01:51:49Z</time></trkpt>
<trkpt lat="13.25469" lon="99.77498"><ele>29</ele><time>2018-06-17T01:51:50Z</time></trkpt>
<trkpt lat="13.25465" lon="99.77500"><ele>29</ele><time>2018-06-17T01:51:51Z</time></trkpt>
<trkpt lat="13.25457" lon="99.77503"><ele>29</ele><time>2018-06-17T01:51:53Z</time></trkpt>
<trkpt lat="13.25450" lon="99.77506"><ele>29</ele><time>2018-06-17T01:51:55Z</time></trkpt>
<trkpt lat="13.25443" lon="99.77509"><ele>29</ele><time>2018-06-17T01:51:57Z</time></trkpt>
<trkpt lat="13.25438" lon="99.77513"><ele>29</ele><time>2018-06-17T01:51:59Z</time></trkpt>
<trkpt lat="13.25431" lon="99.77517"><ele>29</ele><time>2018-06-17T01:52:01Z</time></trkpt>
<trkpt lat="13.25425" lon="99.77521"><ele>29</ele><time>2018-06-17T01:52:03Z</time></trkpt>
<trkpt lat="13.25418" lon="99.77525"><ele>29</ele><time>2018-06-17T01:52:05Z</time></trkpt>
<trkpt lat="13.25412" lon="99.77529"><ele>29</ele><time>2018-06-17T01:52:07Z</time></trkpt>
<trkpt lat="13.25405" lon="99.77533"><ele>29</ele><time>2018-06-17T01:52:09Z</time></trkpt>
<trkpt lat="13.25398" lon="99.77537"><ele>29</ele><time>2018-06-17T01:52:11Z</time></trkpt>
<trkpt lat="13.25391" lon="99.77541"><ele>29</ele><time>2018-06-17T01:52:13Z</time></trkpt>
<trkpt lat="13.25384" lon="99.77544"><ele>29</ele><time>2018-06-17T01:52:15Z</time></trkpt>
<trkpt lat="13.25376" lon="99.77547"><ele>29</ele><time>2018-06-17T01:52:17Z</time></trkpt>
<trkpt lat="13.25368" lon="99.77550"><ele>29</ele><time>2018-06-17T01:52:19Z</time></trkpt>
<trkpt lat="13.25361" lon="99.77553"><ele>30</ele><time>2018-06-17T01:52:21Z</time></trkpt>
<trkpt lat="13.25354" lon="99.77556"><ele>30</ele><time>2018-06-17T01:52:23Z</time></trkpt>
<trkpt lat="13.25347" lon="99.77560"><ele>30</ele><time>2018-06-17T01:52:25Z</time></trkpt>
<trkpt lat="13.25341" lon="99.77563"><ele>30</ele><time>2018-06-17T01:52:27Z</time></trkpt>
<trkpt lat="13.25335" lon="99.77567"><ele>30</ele><time>2018-06-17T01:52:29Z</time></trkpt>
<trkpt lat="13.25329" lon="99.77570"><ele>29</ele><time>2018-06-17T01:52:31Z</time></trkpt>
<trkpt lat="13.25323" lon="99.77574"><ele>29</ele><time>2018-06-17T01:52:33Z</time></trkpt>
<trkpt lat="13.25318" lon="99.77578"><ele>29</ele><time>2018-06-17T01:52:35Z</time></trkpt>
<trkpt lat="13.25312" lon="99.77582"><ele>29</ele><time>2018-06-17T01:52:37Z</time></trkpt>
<trkpt lat="13.25306" lon="99.77585"><ele>28</ele><time>2018-06-17T01:52:39Z</time></trkpt>
<trkpt lat="13.25298" lon="99.77589"><ele>28</ele><time>2018-06-17T01:52:41Z</time></trkpt>
<trkpt lat="13.25290" lon="99.77592"><ele>28</ele><time>2018-06-17T01:52:43Z</time></trkpt>
<trkpt lat="13.25286" lon="99.77593"><ele>28</ele><time>2018-06-17T01:52:44Z</time></trkpt>
<trkpt lat="13.25281" lon="99.77595"><ele>28</ele><time>2018-06-17T01:52:45Z</time></trkpt>
<trkpt lat="13.25277" lon="99.77596"><ele>28</ele><time>2018-06-17T01:52:46Z</time></trkpt>
<trkpt lat="13.25269" lon="99.77599"><ele>28</ele><time>2018-06-17T01:52:48Z</time></trkpt>
<trkpt lat="13.25260" lon="99.77602"><ele>28</ele><time>2018-06-17T01:52:50Z</time></trkpt>
<trkpt lat="13.25252" lon="99.77605"><ele>28</ele><time>2018-06-17T01:52:52Z</time></trkpt>
<trkpt lat="13.25248" lon="99.77606"><ele>28</ele><time>2018-06-17T01:52:53Z</time></trkpt>
<trkpt lat="13.25243" lon="99.77607"><ele>28</ele><time>2018-06-17T01:52:54Z</time></trkpt>
<trkpt lat="13.25239" lon="99.77609"><ele>28</ele><time>2018-06-17T01:52:55Z</time></trkpt>
<trkpt lat="13.25234" lon="99.77610"><ele>27</ele><time>2018-06-17T01:52:56Z</time></trkpt>
<trkpt lat="13.25230" lon="99.77612"><ele>27</ele><time>2018-06-17T01:52:57Z</time></trkpt>
<trkpt lat="13.25225" lon="99.77613"><ele>27</ele><time>2018-06-17T01:52:58Z</time></trkpt>
<trkpt lat="13.25221" lon="99.77614"><ele>27</ele><time>2018-06-17T01:52:59Z</time></trkpt>
<trkpt lat="13.25216" lon="99.77615"><ele>27</ele><time>2018-06-17T01:53:00Z</time></trkpt>
<trkpt lat="13.25208" lon="99.77616"><ele>27</ele><time>2018-06-17T01:53:02Z</time></trkpt>
<trkpt lat="13.25200" lon="99.77616"><ele>26</ele><time>2018-06-17T01:53:04Z</time></trkpt>
<trkpt lat="13.25193" lon="99.77617"><ele>26</ele><time>2018-06-17T01:53:06Z</time></trkpt>
<trkpt lat="13.25185" lon="99.77616"><ele>26</ele><time>2018-06-17T01:53:08Z</time></trkpt>
<trkpt lat="13.25178" lon="99.77616"><ele>26</ele><time>2018-06-17T01:53:10Z</time></trkpt>
<trkpt lat="13.25171" lon="99.77615"><ele>27</ele><time>2018-06-17T01:53:12Z</time></trkpt>
<trkpt lat="13.25164" lon="99.77616"><ele>27</ele><time>2018-06-17T01:53:14Z</time></trkpt>
<trkpt lat="13.25158" lon="99.77617"><ele>27</ele><time>2018-06-17T01:53:16Z</time></trkpt>
<trkpt lat="13.25151" lon="99.77618"><ele>27</ele><time>2018-06-17T01:53:18Z</time></trkpt>
<trkpt lat="13.25145" lon="99.77618"><ele>27</ele><time>2018-06-17T01:53:20Z</time></trkpt>
<trkpt lat="13.25137" lon="99.77619"><ele>27</ele><time>2018-06-17T01:53:22Z</time></trkpt>
<trkpt lat="13.25129" lon="99.77620"><ele>27</ele><time>2018-06-17T01:53:24Z</time></trkpt>
<trkpt lat="13.25123" lon="99.77620"><ele>26</ele><time>2018-06-17T01:53:26Z</time></trkpt>
<trkpt lat="13.25117" lon="99.77618"><ele>26</ele><time>2018-06-17T01:53:28Z</time></trkpt>
<trkpt lat="13.25111" lon="99.77615"><ele>26</ele><time>2018-06-17T01:53:30Z</time></trkpt>
<trkpt lat="13.25105" lon="99.77611"><ele>25</ele><time>2018-06-17T01:53:32Z</time></trkpt>
<trkpt lat="13.25099" lon="99.77608"><ele>25</ele><time>2018-06-17T01:53:34Z</time></trkpt>
<trkpt lat="13.25092" lon="99.77605"><ele>25</ele><time>2018-06-17T01:53:36Z</time></trkpt>
<trkpt lat="13.25085" lon="99.77604"><ele>26</ele><time>2018-06-17T01:53:38Z</time></trkpt>
<trkpt lat="13.25078" lon="99.77604"><ele>26</ele><time>2018-06-17T01:53:40Z</time></trkpt>
<trkpt lat="13.25071" lon="99.77605"><ele>26</ele><time>2018-06-17T01:53:42Z</time></trkpt>
<trkpt lat="13.25062" lon="99.77606"><ele>27</ele><time>2018-06-17T01:53:44Z</time></trkpt>
<trkpt lat="13.25057" lon="99.77606"><ele>27</ele><time>2018-06-17T01:53:45Z</time></trkpt>
<trkpt lat="13.25053" lon="99.77606"><ele>27</ele><time>2018-06-17T01:53:46Z</time></trkpt>
<trkpt lat="13.25047" lon="99.77606"><ele>27</ele><time>2018-06-17T01:53:47Z</time></trkpt>
<trkpt lat="13.25042" lon="99.77606"><ele>27</ele><time>2018-06-17T01:53:48Z</time></trkpt>
<trkpt lat="13.25036" lon="99.77605"><ele>27</ele><time>2018-06-17T01:53:49Z</time></trkpt>
<trkpt lat="13.25031" lon="99.77604"><ele>27</ele><time>2018-06-17T01:53:50Z</time></trkpt>
<trkpt lat="13.25025" lon="99.77603"><ele>27</ele><time>2018-06-17T01:53:51Z</time></trkpt>
<trkpt lat="13.25020" lon="99.77601"><ele>27</ele><time>2018-06-17T01:53:52Z</time></trkpt>
<trkpt lat="13.25015" lon="99.77600"><ele>27</ele><time>2018-06-17T01:53:53Z</time></trkpt>
<trkpt lat="13.25010" lon="99.77598"><ele>27</ele><time>2018-06-17T01:53:54Z</time></trkpt>
<trkpt lat="13.25005" lon="99.77596"><ele>27</ele><time>2018-06-17T01:53:55Z</time></trkpt>
<trkpt lat="13.25000" lon="99.77594"><ele>27</ele><time>2018-06-17T01:53:56Z</time></trkpt>
<trkpt lat="13.24995" lon="99.77592"><ele>27</ele><time>2018-06-17T01:53:57Z</time></trkpt>
<trkpt lat="13.24991" lon="99.77590"><ele>27</ele><time>2018-06-17T01:53:58Z</time></trkpt>
<trkpt lat="13.24987" lon="99.77587"><ele>28</ele><time>2018-06-17T01:53:59Z</time></trkpt>
<trkpt lat="13.24983" lon="99.77584"><ele>27</ele><time>2018-06-17T01:54:00Z</time></trkpt>
<trkpt lat="13.24979" lon="99.77581"><ele>27</ele><time>2018-06-17T01:54:01Z</time></trkpt>
<trkpt lat="13.24975" lon="99.77578"><ele>27</ele><time>2018-06-17T01:54:02Z</time></trkpt>
<trkpt lat="13.24971" lon="99.77575"><ele>27</ele><time>2018-06-17T01:54:03Z</time></trkpt>
<trkpt lat="13.24967" lon="99.77572"><ele>26</ele><time>2018-06-17T01:54:04Z</time></trkpt>
<trkpt lat="13.24962" lon="99.77569"><ele>26</ele><time>2018-06-17T01:54:05Z</time></trkpt>
<trkpt lat="13.24958" lon="99.77567"><ele>26</ele><time>2018-06-17T01:54:06Z</time></trkpt>
<trkpt lat="13.24953" lon="99.77566"><ele>26</ele><time>2018-06-17T01:54:07Z</time></trkpt>
<trkpt lat="13.24949" lon="99.77564"><ele>26</ele><time>2018-06-17T01:54:08Z</time></trkpt>
<trkpt lat="13.24944" lon="99.77563"><ele>26</ele><time>2018-06-17T01:54:09Z</time></trkpt>
<trkpt lat="13.24940" lon="99.77562"><ele>26</ele><time>2018-06-17T01:54:10Z</time></trkpt>
<trkpt lat="13.24935" lon="99.77561"><ele>26</ele><time>2018-06-17T01:54:11Z</time></trkpt>
<trkpt lat="13.24931" lon="99.77560"><ele>27</ele><time>2018-06-17T01:54:12Z</time></trkpt>
<trkpt lat="13.24922" lon="99.77558"><ele>27</ele><time>2018-06-17T01:54:14Z</time></trkpt>
<trkpt lat="13.24918" lon="99.77557"><ele>27</ele><time>2018-06-17T01:54:15Z</time></trkpt>
<trkpt lat="13.24913" lon="99.77555"><ele>27</ele><time>2018-06-17T01:54:16Z</time></trkpt>
<trkpt lat="13.24909" lon="99.77554"><ele>27</ele><time>2018-06-17T01:54:17Z</time></trkpt>
<trkpt lat="13.24904" lon="99.77553"><ele>27</ele><time>2018-06-17T01:54:18Z</time></trkpt>
<trkpt lat="13.24900" lon="99.77552"><ele>27</ele><time>2018-06-17T01:54:19Z</time></trkpt>
<trkpt lat="13.24895" lon="99.77550"><ele>27</ele><time>2018-06-17T01:54:20Z</time></trkpt>
<trkpt lat="13.24890" lon="99.77549"><ele>27</ele><time>2018-06-17T01:54:21Z</time></trkpt>
<trkpt lat="13.24886" lon="99.77548"><ele>27</ele><time>2018-06-17T01:54:22Z</time></trkpt>
<trkpt lat="13.24881" lon="99.77548"><ele>27</ele><time>2018-06-17T01:54:23Z</time></trkpt>
<trkpt lat="13.24876" lon="99.77547"><ele>28</ele><time>2018-06-17T01:54:24Z</time></trkpt>
<trkpt lat="13.24867" lon="99.77546"><ele>28</ele><time>2018-06-17T01:54:26Z</time></trkpt>
<trkpt lat="13.24859" lon="99.77545"><ele>28</ele><time>2018-06-17T01:54:28Z</time></trkpt>
<trkpt lat="13.24854" lon="99.77544"><ele>28</ele><time>2018-06-17T01:54:29Z</time></trkpt>
<trkpt lat="13.24850" lon="99.77544"><ele>28</ele><time>2018-06-17T01:54:30Z</time></trkpt>
<trkpt lat="13.24845" lon="99.77543"><ele>28</ele><time>2018-06-17T01:54:31Z</time></trkpt>
<trkpt lat="13.24841" lon="99.77543"><ele>28</ele><time>2018-06-17T01:54:32Z</time></trkpt>
<trkpt lat="13.24836" lon="99.77542"><ele>28</ele><time>2018-06-17T01:54:33Z</time></trkpt>
<trkpt lat="13.24831" lon="99.77541"><ele>28</ele><time>2018-06-17T01:54:34Z</time></trkpt>
<trkpt lat="13.24827" lon="99.77541"><ele>28</ele><time>2018-06-17T01:54:35Z</time></trkpt>
<trkpt lat="13.24822" lon="99.77540"><ele>28</ele><time>2018-06-17T01:54:36Z</time></trkpt>
<trkpt lat="13.24817" lon="99.77539"><ele>28</ele><time>2018-06-17T01:54:37Z</time></trkpt>
<trkpt lat="13.24812" lon="99.77539"><ele>28</ele><time>2018-06-17T01:54:38Z</time></trkpt>
<trkpt lat="13.24807" lon="99.77538"><ele>28</ele><time>2018-06-17T01:54:39Z</time></trkpt>
<trkpt lat="13.24802" lon="99.77538"><ele>28</ele><time>2018-06-17T01:54:40Z</time></trkpt>
<trkpt lat="13.24797" lon="99.77538"><ele>28</ele><time>2018-06-17T01:54:41Z</time></trkpt>
<trkpt lat="13.24791" lon="99.77538"><ele>28</ele><time>2018-06-17T01:54:42Z</time></trkpt>
<trkpt lat="13.24786" lon="99.77538"><ele>28</ele><time>2018-06-17T01:54:43Z</time></trkpt>
<trkpt lat="13.24781" lon="99.77538"><ele>27</ele><time>2018-06-17T01:54:44Z</time></trkpt>
<trkpt lat="13.24775" lon="99.77538"><ele>27</ele><time>2018-06-17T01:54:45Z</time></trkpt>
<trkpt lat="13.24770" lon="99.77537"><ele>27</ele><time>2018-06-17T01:54:46Z</time></trkpt>
<trkpt lat="13.24765" lon="99.77536"><ele>28</ele><time>2018-06-17T01:54:47Z</time></trkpt>
<trkpt lat="13.24759" lon="99.77535"><ele>28</ele><time>2018-06-17T01:54:48Z</time></trkpt>
<trkpt lat="13.24754" lon="99.77534"><ele>28</ele><time>2018-06-17T01:54:49Z</time></trkpt>
<trkpt lat="13.24748" lon="99.77533"><ele>28</ele><time>2018-06-17T01:54:50Z</time></trkpt>
<trkpt lat="13.24743" lon="99.77532"><ele>27</ele><time>2018-06-17T01:54:51Z</time></trkpt>
<trkpt lat="13.24738" lon="99.77531"><ele>28</ele><time>2018-06-17T01:54:52Z</time></trkpt>
<trkpt lat="13.24730" lon="99.77529"><ele>27</ele><time>2018-06-17T01:54:54Z</time></trkpt>
<trkpt lat="13.24723" lon="99.77526"><ele>27</ele><time>2018-06-17T01:54:56Z</time></trkpt>
<trkpt lat="13.24717" lon="99.77524"><ele>27</ele><time>2018-06-17T01:54:58Z</time></trkpt>
<trkpt lat="13.24713" lon="99.77522"><ele>28</ele><time>2018-06-17T01:55:01Z</time></trkpt>
<trkpt lat="13.24710" lon="99.77526"><ele>26</ele><time>2018-06-17T01:55:15Z</time></trkpt>
<trkpt lat="13.24706" lon="99.77529"><ele>26</ele><time>2018-06-17T01:55:17Z</time></trkpt>
<trkpt lat="13.24701" lon="99.77532"><ele>26</ele><time>2018-06-17T01:55:19Z</time></trkpt>
<trkpt lat="13.24695" lon="99.77535"><ele>25</ele><time>2018-06-17T01:55:21Z</time></trkpt>
<trkpt lat="13.24688" lon="99.77538"><ele>25</ele><time>2018-06-17T01:55:23Z</time></trkpt>
<trkpt lat="13.24681" lon="99.77542"><ele>26</ele><time>2018-06-17T01:55:25Z</time></trkpt>
<trkpt lat="13.24672" lon="99.77543"><ele>26</ele><time>2018-06-17T01:55:27Z</time></trkpt>
<trkpt lat="13.24665" lon="99.77545"><ele>26</ele><time>2018-06-17T01:55:29Z</time></trkpt>
<trkpt lat="13.24659" lon="99.77549"><ele>26</ele><time>2018-06-17T01:55:31Z</time></trkpt>
<trkpt lat="13.24655" lon="99.77555"><ele>26</ele><time>2018-06-17T01:55:33Z</time></trkpt>
<trkpt lat="13.24655" lon="99.77564"><ele>25</ele><time>2018-06-17T01:55:35Z</time></trkpt>
<trkpt lat="13.24655" lon="99.77569"><ele>25</ele><time>2018-06-17T01:55:36Z</time></trkpt>
<trkpt lat="13.24656" lon="99.77574"><ele>24</ele><time>2018-06-17T01:55:37Z</time></trkpt>
<trkpt lat="13.24656" lon="99.77579"><ele>24</ele><time>2018-06-17T01:55:38Z</time></trkpt>
<trkpt lat="13.24656" lon="99.77585"><ele>24</ele><time>2018-06-17T01:55:39Z</time></trkpt>
<trkpt lat="13.24657" lon="99.77590"><ele>23</ele><time>2018-06-17T01:55:40Z</time></trkpt>
<trkpt lat="13.24657" lon="99.77595"><ele>23</ele><time>2018-06-17T01:55:41Z</time></trkpt>
<trkpt lat="13.24658" lon="99.77601"><ele>23</ele><time>2018-06-17T01:55:42Z</time></trkpt>
<trkpt lat="13.24659" lon="99.77606"><ele>23</ele><time>2018-06-17T01:55:43Z</time></trkpt>
<trkpt lat="13.24660" lon="99.77611"><ele>23</ele><time>2018-06-17T01:55:44Z</time></trkpt>
<trkpt lat="13.24661" lon="99.77616"><ele>23</ele><time>2018-06-17T01:55:45Z</time></trkpt>
<trkpt lat="13.24662" lon="99.77622"><ele>22</ele><time>2018-06-17T01:55:46Z</time></trkpt>
<trkpt lat="13.24663" lon="99.77627"><ele>22</ele><time>2018-06-17T01:55:47Z</time></trkpt>
<trkpt lat="13.24664" lon="99.77632"><ele>22</ele><time>2018-06-17T01:55:48Z</time></trkpt>
<trkpt lat="13.24665" lon="99.77638"><ele>22</ele><time>2018-06-17T01:55:49Z</time></trkpt>
<trkpt lat="13.24666" lon="99.77643"><ele>22</ele><time>2018-06-17T01:55:50Z</time></trkpt>
<trkpt lat="13.24663" lon="99.77652"><ele>21</ele><time>2018-06-17T01:55:52Z</time></trkpt>
<trkpt lat="13.24659" lon="99.77658"><ele>21</ele><time>2018-06-17T01:55:54Z</time></trkpt>
<trkpt lat="13.24654" lon="99.77665"><ele>21</ele><time>2018-06-17T01:55:56Z</time></trkpt>
<trkpt lat="13.24651" lon="99.77672"><ele>21</ele><time>2018-06-17T01:55:58Z</time></trkpt>
<trkpt lat="13.24651" lon="99.77681"><ele>21</ele><time>2018-06-17T01:56:00Z</time></trkpt>
<trkpt lat="13.24651" lon="99.77685"><ele>21</ele><time>2018-06-17T01:56:01Z</time></trkpt>
<trkpt lat="13.24652" lon="99.77690"><ele>21</ele><time>2018-06-17T01:56:02Z</time></trkpt>
<trkpt lat="13.24651" lon="99.77695"><ele>21</ele><time>2018-06-17T01:56:03Z</time></trkpt>
<trkpt lat="13.24651" lon="99.77700"><ele>20</ele><time>2018-06-17T01:56:04Z</time></trkpt>
<trkpt lat="13.24651" lon="99.77705"><ele>20</ele><time>2018-06-17T01:56:05Z</time></trkpt>
<trkpt lat="13.24654" lon="99.77711"><ele>18</ele><time>2018-06-17T01:56:07Z</time></trkpt>
<trkpt lat="13.24661" lon="99.77716"><ele>18</ele><time>2018-06-17T01:56:09Z</time></trkpt>
<trkpt lat="13.24669" lon="99.77719"><ele>18</ele><time>2018-06-17T01:56:11Z</time></trkpt>
<trkpt lat="13.24674" lon="99.77721"><ele>18</ele><time>2018-06-17T01:56:12Z</time></trkpt>
<trkpt lat="13.24678" lon="99.77723"><ele>17</ele><time>2018-06-17T01:56:13Z</time></trkpt>
<trkpt lat="13.24685" lon="99.77727"><ele>18</ele><time>2018-06-17T01:56:15Z</time></trkpt>
<trkpt lat="13.24688" lon="99.77733"><ele>18</ele><time>2018-06-17T01:56:17Z</time></trkpt>
<trkpt lat="13.24689" lon="99.77740"><ele>18</ele><time>2018-06-17T01:56:19Z</time></trkpt>
<trkpt lat="13.24689" lon="99.77747"><ele>18</ele><time>2018-06-17T01:56:21Z</time></trkpt>
<trkpt lat="13.24690" lon="99.77756"><ele>19</ele><time>2018-06-17T01:56:23Z</time></trkpt>
<trkpt lat="13.24690" lon="99.77766"><ele>19</ele><time>2018-06-17T01:56:25Z</time></trkpt>
<trkpt lat="13.24690" lon="99.77770"><ele>19</ele><time>2018-06-17T01:56:26Z</time></trkpt>
<trkpt lat="13.24691" lon="99.77775"><ele>18</ele><time>2018-06-17T01:56:27Z</time></trkpt>
<trkpt lat="13.24691" lon="99.77780"><ele>18</ele><time>2018-06-17T01:56:28Z</time></trkpt>
<trkpt lat="13.24692" lon="99.77785"><ele>18</ele><time>2018-06-17T01:56:29Z</time></trkpt>
<trkpt lat="13.24693" lon="99.77790"><ele>18</ele><time>2018-06-17T01:56:30Z</time></trkpt>
<trkpt lat="13.24694" lon="99.77794"><ele>18</ele><time>2018-06-17T01:56:31Z</time></trkpt>
<trkpt lat="13.24695" lon="99.77799"><ele>18</ele><time>2018-06-17T01:56:32Z</time></trkpt>
<trkpt lat="13.24697" lon="99.77808"><ele>18</ele><time>2018-06-17T01:56:34Z</time></trkpt>
<trkpt lat="13.24697" lon="99.77817"><ele>17</ele><time>2018-06-17T01:56:36Z</time></trkpt>
<trkpt lat="13.24698" lon="99.77825"><ele>17</ele><time>2018-06-17T01:56:38Z</time></trkpt>
<trkpt lat="13.24701" lon="99.77832"><ele>17</ele><time>2018-06-17T01:56:40Z</time></trkpt>
<trkpt lat="13.24704" lon="99.77839"><ele>17</ele><time>2018-06-17T01:56:42Z</time></trkpt>
<trkpt lat="13.24705" lon="99.77847"><ele>17</ele><time>2018-06-17T01:56:44Z</time></trkpt>
<trkpt lat="13.24704" lon="99.77855"><ele>17</ele><time>2018-06-17T01:56:46Z</time></trkpt>
<trkpt lat="13.24704" lon="99.77864"><ele>16</ele><time>2018-06-17T01:56:48Z</time></trkpt>
<trkpt lat="13.24704" lon="99.77868"><ele>16</ele><time>2018-06-17T01:56:49Z</time></trkpt>
<trkpt lat="13.24704" lon="99.77873"><ele>16</ele><time>2018-06-17T01:56:50Z</time></trkpt>
<trkpt lat="13.24704" lon="99.77878"><ele>16</ele><time>2018-06-17T01:56:51Z</time></trkpt>
<trkpt lat="13.24704" lon="99.77882"><ele>16</ele><time>2018-06-17T01:56:52Z</time></trkpt>
<trkpt lat="13.24703" lon="99.77887"><ele>17</ele><time>2018-06-17T01:56:53Z</time></trkpt>
<trkpt lat="13.24702" lon="99.77892"><ele>17</ele><time>2018-06-17T01:56:54Z</time></trkpt>
<trkpt lat="13.24701" lon="99.77896"><ele>16</ele><time>2018-06-17T01:56:55Z</time></trkpt>
<trkpt lat="13.24700" lon="99.77901"><ele>16</ele><time>2018-06-17T01:56:56Z</time></trkpt>
<trkpt lat="13.24699" lon="99.77906"><ele>16</ele><time>2018-06-17T01:56:57Z</time></trkpt>
<trkpt lat="13.24699" lon="99.77910"><ele>16</ele><time>2018-06-17T01:56:58Z</time></trkpt>
<trkpt lat="13.24698" lon="99.77916"><ele>16</ele><time>2018-06-17T01:56:59Z</time></trkpt>
<trkpt lat="13.24697" lon="99.77921"><ele>16</ele><time>2018-06-17T01:57:00Z</time></trkpt>
<trkpt lat="13.24697" lon="99.77926"><ele>16</ele><time>2018-06-17T01:57:01Z</time></trkpt>
<trkpt lat="13.24696" lon="99.77932"><ele>16</ele><time>2018-06-17T01:57:02Z</time></trkpt>
<trkpt lat="13.24695" lon="99.77937"><ele>16</ele><time>2018-06-17T01:57:03Z</time></trkpt>
<trkpt lat="13.24693" lon="99.77942"><ele>16</ele><time>2018-06-17T01:57:04Z</time></trkpt>
<trkpt lat="13.24691" lon="99.77948"><ele>15</ele><time>2018-06-17T01:57:05Z</time></trkpt>
<trkpt lat="13.24688" lon="99.77953"><ele>15</ele><time>2018-06-17T01:57:06Z</time></trkpt>
<trkpt lat="13.24684" lon="99.77957"><ele>16</ele><time>2018-06-17T01:57:07Z</time></trkpt>
<trkpt lat="13.24680" lon="99.77961"><ele>16</ele><time>2018-06-17T01:57:08Z</time></trkpt>
<trkpt lat="13.24676" lon="99.77965"><ele>16</ele><time>2018-06-17T01:57:09Z</time></trkpt>
<trkpt lat="13.24671" lon="99.77968"><ele>15</ele><time>2018-06-17T01:57:10Z</time></trkpt>
<trkpt lat="13.24668" lon="99.77970"><ele>15</ele><time>2018-06-17T01:57:11Z</time></trkpt>
<trkpt lat="13.24660" lon="99.77975"><ele>15</ele><time>2018-06-17T01:57:13Z</time></trkpt>
<trkpt lat="13.24654" lon="99.77978"><ele>15</ele><time>2018-06-17T01:57:15Z</time></trkpt>
<trkpt lat="13.24646" lon="99.77982"><ele>15</ele><time>2018-06-17T01:57:17Z</time></trkpt>
<trkpt lat="13.24639" lon="99.77985"><ele>15</ele><time>2018-06-17T01:57:19Z</time></trkpt>
<trkpt lat="13.24632" lon="99.77987"><ele>15</ele><time>2018-06-17T01:57:21Z</time></trkpt>
<trkpt lat="13.24626" lon="99.77989"><ele>15</ele><time>2018-06-17T01:57:23Z</time></trkpt>
<trkpt lat="13.24621" lon="99.77990"><ele>15</ele><time>2018-06-17T01:57:25Z</time></trkpt>
<trkpt lat="13.24616" lon="99.77992"><ele>15</ele><time>2018-06-17T02:00:00Z</time></trkpt>
<trkpt lat="13.24612" lon="99.77993"><ele>15</ele><time>2018-06-17T02:00:03Z</time></trkpt>
<trkpt lat="13.24605" lon="99.77995"><ele>16</ele><time>2018-06-17T02:00:06Z</time></trkpt>
<trkpt lat="13.24601" lon="99.77996"><ele>16</ele><time>2018-06-17T02:00:08Z</time></trkpt>
<trkpt lat="13.24595" lon="99.77998"><ele>16</ele><time>2018-06-17T02:00:10Z</time></trkpt>
<trkpt lat="13.24589" lon="99.78000"><ele>16</ele><time>2018-06-17T02:00:13Z</time></trkpt>
<trkpt lat="13.24584" lon="99.78000"><ele>15</ele><time>2018-06-17T02:00:15Z</time></trkpt>
<trkpt lat="13.24579" lon="99.78000"><ele>15</ele><time>2018-06-17T02:00:17Z</time></trkpt>
<trkpt lat="13.24573" lon="99.78000"><ele>15</ele><time>2018-06-17T02:00:19Z</time></trkpt>
<trkpt lat="13.24566" lon="99.78002"><ele>15</ele><time>2018-06-17T02:00:21Z</time></trkpt>
<trkpt lat="13.24560" lon="99.78006"><ele>15</ele><time>2018-06-17T02:00:23Z</time></trkpt>
<trkpt lat="13.24556" lon="99.78010"><ele>15</ele><time>2018-06-17T02:00:25Z</time></trkpt>
<trkpt lat="13.24552" lon="99.78015"><ele>15</ele><time>2018-06-17T02:00:27Z</time></trkpt>
<trkpt lat="13.24549" lon="99.78023"><ele>15</ele><time>2018-06-17T02:00:29Z</time></trkpt>
<trkpt lat="13.24545" lon="99.78030"><ele>15</ele><time>2018-06-17T02:00:31Z</time></trkpt>
<trkpt lat="13.24541" lon="99.78038"><ele>15</ele><time>2018-06-17T02:00:33Z</time></trkpt>
<trkpt lat="13.24537" lon="99.78046"><ele>15</ele><time>2018-06-17T02:00:35Z</time></trkpt>
<trkpt lat="13.24535" lon="99.78050"><ele>15</ele><time>2018-06-17T02:00:36Z</time></trkpt>
<trkpt lat="13.24533" lon="99.78055"><ele>15</ele><time>2018-06-17T02:00:37Z</time></trkpt>
<trkpt lat="13.24531" lon="99.78059"><ele>15</ele><time>2018-06-17T02:00:38Z</time></trkpt>
<trkpt lat="13.24529" lon="99.78063"><ele>15</ele><time>2018-06-17T02:00:39Z</time></trkpt>
<trkpt lat="13.24527" lon="99.78068"><ele>15</ele><time>2018-06-17T02:00:40Z</time></trkpt>
<trkpt lat="13.24524" lon="99.78075"><ele>15</ele><time>2018-06-17T02:00:41Z</time></trkpt>
<trkpt lat="13.24523" lon="99.78080"><ele>15</ele><time>2018-06-17T02:00:42Z</time></trkpt>
<trkpt lat="13.24521" lon="99.78085"><ele>15</ele><time>2018-06-17T02:00:43Z</time></trkpt>
<trkpt lat="13.24519" lon="99.78089"><ele>15</ele><time>2018-06-17T02:00:44Z</time></trkpt>
<trkpt lat="13.24517" lon="99.78094"><ele>15</ele><time>2018-06-17T02:00:45Z</time></trkpt>
<trkpt lat="13.24516" lon="99.78099"><ele>15</ele><time>2018-06-17T02:00:46Z</time></trkpt>
<trkpt lat="13.24514" lon="99.78104"><ele>15</ele><time>2018-06-17T02:00:47Z</time></trkpt>
<trkpt lat="13.24512" lon="99.78108"><ele>15</ele><time>2018-06-17T02:00:48Z</time></trkpt>
<trkpt lat="13.24511" lon="99.78113"><ele>15</ele><time>2018-06-17T02:00:49Z</time></trkpt>
<trkpt lat="13.24509" lon="99.78118"><ele>15</ele><time>2018-06-17T02:00:50Z</time></trkpt>
<trkpt lat="13.24508" lon="99.78123"><ele>15</ele><time>2018-06-17T02:00:51Z</time></trkpt>
<trkpt lat="13.24506" lon="99.78128"><ele>15</ele><time>2018-06-17T02:00:52Z</time></trkpt>
<trkpt lat="13.24505" lon="99.78133"><ele>15</ele><time>2018-06-17T02:00:53Z</time></trkpt>
<trkpt lat="13.24503" lon="99.78138"><ele>15</ele><time>2018-06-17T02:00:54Z</time></trkpt>
<trkpt lat="13.24502" lon="99.78143"><ele>15</ele><time>2018-06-17T02:00:55Z</time></trkpt>
<trkpt lat="13.24500" lon="99.78148"><ele>15</ele><time>2018-06-17T02:00:56Z</time></trkpt>
<trkpt lat="13.24499" lon="99.78153"><ele>14</ele><time>2018-06-17T02:00:57Z</time></trkpt>
<trkpt lat="13.24497" lon="99.78158"><ele>14</ele><time>2018-06-17T02:00:58Z</time></trkpt>
<trkpt lat="13.24496" lon="99.78163"><ele>14</ele><time>2018-06-17T02:00:59Z</time></trkpt>
<trkpt lat="13.24495" lon="99.78168"><ele>14</ele><time>2018-06-17T02:01:00Z</time></trkpt>
<trkpt lat="13.24492" lon="99.78175"><ele>14</ele><time>2018-06-17T02:01:02Z</time></trkpt>
<trkpt lat="13.24491" lon="99.78180"><ele>14</ele><time>2018-06-17T02:01:03Z</time></trkpt>
<trkpt lat="13.24490" lon="99.78185"><ele>14</ele><time>2018-06-17T02:01:04Z</time></trkpt>
<trkpt lat="13.24488" lon="99.78190"><ele>14</ele><time>2018-06-17T02:01:05Z</time></trkpt>
<trkpt lat="13.24487" lon="99.78196"><ele>14</ele><time>2018-06-17T02:01:06Z</time></trkpt>
<trkpt lat="13.24486" lon="99.78201"><ele>14</ele><time>2018-06-17T02:01:07Z</time></trkpt>
<trkpt lat="13.24485" lon="99.78206"><ele>14</ele><time>2018-06-17T02:01:08Z</time></trkpt>
<trkpt lat="13.24483" lon="99.78214"><ele>14</ele><time>2018-06-17T02:01:09Z</time></trkpt>
<trkpt lat="13.24482" lon="99.78220"><ele>14</ele><time>2018-06-17T02:01:10Z</time></trkpt>
<trkpt lat="13.24481" lon="99.78226"><ele>14</ele><time>2018-06-17T02:01:11Z</time></trkpt>
<trkpt lat="13.24481" lon="99.78231"><ele>14</ele><time>2018-06-17T02:01:12Z</time></trkpt>
<trkpt lat="13.24480" lon="99.78237"><ele>14</ele><time>2018-06-17T02:01:13Z</time></trkpt>
<trkpt lat="13.24479" lon="99.78242"><ele>14</ele><time>2018-06-17T02:01:14Z</time></trkpt>
<trkpt lat="13.24478" lon="99.78248"><ele>14</ele><time>2018-06-17T02:01:15Z</time></trkpt>
<trkpt lat="13.24477" lon="99.78254"><ele>14</ele><time>2018-06-17T02:01:16Z</time></trkpt>
<trkpt lat="13.24477" lon="99.78262"><ele>14</ele><time>2018-06-17T02:01:18Z</time></trkpt>
<trkpt lat="13.24476" lon="99.78267"><ele>14</ele><time>2018-06-17T02:01:19Z</time></trkpt>
<trkpt lat="13.24476" lon="99.78272"><ele>13</ele><time>2018-06-17T02:01:20Z</time></trkpt>
<trkpt lat="13.24477" lon="99.78277"><ele>13</ele><time>2018-06-17T02:01:21Z</time></trkpt>
<trkpt lat="13.24477" lon="99.78283"><ele>13</ele><time>2018-06-17T02:01:22Z</time></trkpt>
<trkpt lat="13.24477" lon="99.78288"><ele>13</ele><time>2018-06-17T02:01:23Z</time></trkpt>
<trkpt lat="13.24477" lon="99.78294"><ele>13</ele><time>2018-06-17T02:01:24Z</time></trkpt>
<trkpt lat="13.24477" lon="99.78302"><ele>13</ele><time>2018-06-17T02:01:25Z</time></trkpt>
<trkpt lat="13.24477" lon="99.78308"><ele>13</ele><time>2018-06-17T02:01:26Z</time></trkpt>
<trkpt lat="13.24477" lon="99.78314"><ele>13</ele><time>2018-06-17T02:01:27Z</time></trkpt>
<trkpt lat="13.24477" lon="99.78320"><ele>12</ele><time>2018-06-17T02:01:28Z</time></trkpt>
<trkpt lat="13.24477" lon="99.78325"><ele>12</ele><time>2018-06-17T02:01:29Z</time></trkpt>
<trkpt lat="13.24477" lon="99.78331"><ele>12</ele><time>2018-06-17T02:01:30Z</time></trkpt>
<trkpt lat="13.24477" lon="99.78336"><ele>12</ele><time>2018-06-17T02:01:31Z</time></trkpt>
<trkpt lat="13.24477" lon="99.78342"><ele>12</ele><time>2018-06-17T02:01:32Z</time></trkpt>
<trkpt lat="13.24477" lon="99.78347"><ele>12</ele><time>2018-06-17T02:01:33Z</time></trkpt>
<trkpt lat="13.24477" lon="99.78353"><ele>12</ele><time>2018-06-17T02:01:34Z</time></trkpt>
<trkpt lat="13.24477" lon="99.78358"><ele>12</ele><time>2018-06-17T02:01:35Z</time></trkpt>
<trkpt lat="13.24477" lon="99.78364"><ele>12</ele><time>2018-06-17T02:01:36Z</time></trkpt>
<trkpt lat="13.24476" lon="99.78373"><ele>12</ele><time>2018-06-17T02:01:38Z</time></trkpt>
<trkpt lat="13.24476" lon="99.78379"><ele>12</ele><time>2018-06-17T02:01:39Z</time></trkpt>
<trkpt lat="13.24476" lon="99.78385"><ele>12</ele><time>2018-06-17T02:01:40Z</time></trkpt>
<trkpt lat="13.24476" lon="99.78391"><ele>11</ele><time>2018-06-17T02:01:41Z</time></trkpt>
<trkpt lat="13.24476" lon="99.78397"><ele>12</ele><time>2018-06-17T02:01:42Z</time></trkpt>
<trkpt lat="13.24477" lon="99.78404"><ele>12</ele><time>2018-06-17T02:01:43Z</time></trkpt>
<trkpt lat="13.24477" lon="99.78410"><ele>12</ele><time>2018-06-17T02:01:44Z</time></trkpt>
<trkpt lat="13.24476" lon="99.78417"><ele>12</ele><time>2018-06-17T02:01:45Z</time></trkpt>
<trkpt lat="13.24476" lon="99.78423"><ele>13</ele><time>2018-06-17T02:01:46Z</time></trkpt>
<trkpt lat="13.24476" lon="99.78429"><ele>13</ele><time>2018-06-17T02:01:47Z</time></trkpt>
<trkpt lat="13.24475" lon="99.78436"><ele>14</ele><time>2018-06-17T02:01:48Z</time></trkpt>
<trkpt lat="13.24475" lon="99.78442"><ele>14</ele><time>2018-06-17T02:01:49Z</time></trkpt>
<trkpt lat="13.24475" lon="99.78448"><ele>14</ele><time>2018-06-17T02:01:50Z</time></trkpt>
<trkpt lat="13.24474" lon="99.78454"><ele>15</ele><time>2018-06-17T02:01:51Z</time></trkpt>
<trkpt lat="13.24474" lon="99.78460"><ele>15</ele><time>2018-06-17T02:01:52Z</time></trkpt>
<trkpt lat="13.24474" lon="99.78466"><ele>15</ele><time>2018-06-17T02:01:53Z</time></trkpt>
<trkpt lat="13.24474" lon="99.78472"><ele>15</ele><time>2018-06-17T02:01:54Z</time></trkpt>
<trkpt lat="13.24473" lon="99.78477"><ele>15</ele><time>2018-06-17T02:01:55Z</time></trkpt>
<trkpt lat="13.24473" lon="99.78483"><ele>15</ele><time>2018-06-17T02:01:56Z</time></trkpt>
<trkpt lat="13.24473" lon="99.78492"><ele>14</ele><time>2018-06-17T02:01:57Z</time></trkpt>
<trkpt lat="13.24472" lon="99.78499"><ele>14</ele><time>2018-06-17T02:01:58Z</time></trkpt>
<trkpt lat="13.24472" lon="99.78505"><ele>14</ele><time>2018-06-17T02:01:59Z</time></trkpt>
<trkpt lat="13.24471" lon="99.78510"><ele>15</ele><time>2018-06-17T02:02:00Z</time></trkpt>
<trkpt lat="13.24470" lon="99.78516"><ele>15</ele><time>2018-06-17T02:02:01Z</time></trkpt>
<trkpt lat="13.24469" lon="99.78521"><ele>15</ele><time>2018-06-17T02:02:02Z</time></trkpt>
<trkpt lat="13.24467" lon="99.78527"><ele>16</ele><time>2018-06-17T02:02:04Z</time></trkpt>
<trkpt lat="13.24461" lon="99.78534"><ele>16</ele><time>2018-06-17T02:02:06Z</time></trkpt>
<trkpt lat="13.24458" lon="99.78537"><ele>16</ele><time>2018-06-17T02:02:07Z</time></trkpt>
<trkpt lat="13.24454" lon="99.78540"><ele>16</ele><time>2018-06-17T02:02:08Z</time></trkpt>
<trkpt lat="13.24449" lon="99.78543"><ele>16</ele><time>2018-06-17T02:02:09Z</time></trkpt>
<trkpt lat="13.24445" lon="99.78545"><ele>16</ele><time>2018-06-17T02:02:10Z</time></trkpt>
<trkpt lat="13.24440" lon="99.78547"><ele>16</ele><time>2018-06-17T02:02:11Z</time></trkpt>
<trkpt lat="13.24436" lon="99.78549"><ele>16</ele><time>2018-06-17T02:02:12Z</time></trkpt>
<trkpt lat="13.24431" lon="99.78551"><ele>17</ele><time>2018-06-17T02:02:13Z</time></trkpt>
<trkpt lat="13.24426" lon="99.78553"><ele>17</ele><time>2018-06-17T02:02:14Z</time></trkpt>
<trkpt lat="13.24421" lon="99.78554"><ele>17</ele><time>2018-06-17T02:02:15Z</time></trkpt>
<trkpt lat="13.24416" lon="99.78556"><ele>17</ele><time>2018-06-17T02:02:16Z</time></trkpt>
<trkpt lat="13.24411" lon="99.78558"><ele>17</ele><time>2018-06-17T02:02:17Z</time></trkpt>
<trkpt lat="13.24407" lon="99.78560"><ele>17</ele><time>2018-06-17T02:02:18Z</time></trkpt>
<trkpt lat="13.24402" lon="99.78561"><ele>17</ele><time>2018-06-17T02:02:19Z</time></trkpt>
<trkpt lat="13.24397" lon="99.78563"><ele>17</ele><time>2018-06-17T02:02:20Z</time></trkpt>
<trkpt lat="13.24392" lon="99.78565"><ele>17</ele><time>2018-06-17T02:02:21Z</time></trkpt>
<trkpt lat="13.24388" lon="99.78567"><ele>17</ele><time>2018-06-17T02:02:22Z</time></trkpt>
<trkpt lat="13.24381" lon="99.78570"><ele>17</ele><time>2018-06-17T02:02:23Z</time></trkpt>
<trkpt lat="13.24376" lon="99.78572"><ele>17</ele><time>2018-06-17T02:02:24Z</time></trkpt>
<trkpt lat="13.24371" lon="99.78574"><ele>17</ele><time>2018-06-17T02:02:25Z</time></trkpt>
<trkpt lat="13.24366" lon="99.78576"><ele>17</ele><time>2018-06-17T02:02:26Z</time></trkpt>
<trkpt lat="13.24362" lon="99.78578"><ele>17</ele><time>2018-06-17T02:02:27Z</time></trkpt>
<trkpt lat="13.24357" lon="99.78580"><ele>17</ele><time>2018-06-17T02:02:28Z</time></trkpt>
<trkpt lat="13.24353" lon="99.78583"><ele>17</ele><time>2018-06-17T02:02:29Z</time></trkpt>
<trkpt lat="13.24348" lon="99.78585"><ele>17</ele><time>2018-06-17T02:02:30Z</time></trkpt>
<trkpt lat="13.24343" lon="99.78587"><ele>17</ele><time>2018-06-17T02:02:31Z</time></trkpt>
<trkpt lat="13.24338" lon="99.78589"><ele>17</ele><time>2018-06-17T02:02:32Z</time></trkpt>
<trkpt lat="13.24333" lon="99.78591"><ele>17</ele><time>2018-06-17T02:02:33Z</time></trkpt>
<trkpt lat="13.24329" lon="99.78593"><ele>17</ele><time>2018-06-17T02:02:34Z</time></trkpt>
<trkpt lat="13.24324" lon="99.78594"><ele>17</ele><time>2018-06-17T02:02:35Z</time></trkpt>
<trkpt lat="13.24320" lon="99.78596"><ele>17</ele><time>2018-06-17T02:02:36Z</time></trkpt>
<trkpt lat="13.24315" lon="99.78597"><ele>17</ele><time>2018-06-17T02:02:37Z</time></trkpt>
<trkpt lat="13.24311" lon="99.78599"><ele>17</ele><time>2018-06-17T02:02:38Z</time></trkpt>
<trkpt lat="13.24304" lon="99.78601"><ele>17</ele><time>2018-06-17T02:02:40Z</time></trkpt>
<trkpt lat="13.24296" lon="99.78604"><ele>17</ele><time>2018-06-17T02:02:42Z</time></trkpt>
<trkpt lat="13.24288" lon="99.78606"><ele>17</ele><time>2018-06-17T02:02:44Z</time></trkpt>
<trkpt lat="13.24280" lon="99.78609"><ele>17</ele><time>2018-06-17T02:02:46Z</time></trkpt>
<trkpt lat="13.24273" lon="99.78612"><ele>17</ele><time>2018-06-17T02:02:48Z</time></trkpt>
<trkpt lat="13.24264" lon="99.78615"><ele>17</ele><time>2018-06-17T02:02:50Z</time></trkpt>
<trkpt lat="13.24256" lon="99.78617"><ele>17</ele><time>2018-06-17T02:02:52Z</time></trkpt>
<trkpt lat="13.24251" lon="99.78618"><ele>17</ele><time>2018-06-17T02:02:53Z</time></trkpt>
<trkpt lat="13.24247" lon="99.78619"><ele>17</ele><time>2018-06-17T02:02:54Z</time></trkpt>
<trkpt lat="13.24242" lon="99.78620"><ele>17</ele><time>2018-06-17T02:02:55Z</time></trkpt>
<trkpt lat="13.24238" lon="99.78621"><ele>17</ele><time>2018-06-17T02:02:56Z</time></trkpt>
<trkpt lat="13.24233" lon="99.78622"><ele>17</ele><time>2018-06-17T02:02:57Z</time></trkpt>
<trkpt lat="13.24228" lon="99.78623"><ele>17</ele><time>2018-06-17T02:02:58Z</time></trkpt>
<trkpt lat="13.24223" lon="99.78623"><ele>17</ele><time>2018-06-17T02:02:59Z</time></trkpt>
<trkpt lat="13.24219" lon="99.78624"><ele>17</ele><time>2018-06-17T02:03:00Z</time></trkpt>
<trkpt lat="13.24214" lon="99.78625"><ele>17</ele><time>2018-06-17T02:03:01Z</time></trkpt>
<trkpt lat="13.24209" lon="99.78626"><ele>17</ele><time>2018-06-17T02:03:02Z</time></trkpt>
<trkpt lat="13.24205" lon="99.78627"><ele>16</ele><time>2018-06-17T02:03:03Z</time></trkpt>
<trkpt lat="13.24197" lon="99.78627"><ele>16</ele><time>2018-06-17T02:03:05Z</time></trkpt>
<trkpt lat="13.24192" lon="99.78628"><ele>16</ele><time>2018-06-17T02:03:07Z</time></trkpt>
<trkpt lat="13.24188" lon="99.78629"><ele>16</ele><time>2018-06-17T02:03:09Z</time></trkpt>
<trkpt lat="13.24182" lon="99.78629"><ele>16</ele><time>2018-06-17T02:03:11Z</time></trkpt>
<trkpt lat="13.24177" lon="99.78629"><ele>16</ele><time>2018-06-17T02:03:13Z</time></trkpt>
<trkpt lat="13.24170" lon="99.78630"><ele>16</ele><time>2018-06-17T02:03:15Z</time></trkpt>
<trkpt lat="13.24162" lon="99.78630"><ele>16</ele><time>2018-06-17T02:03:17Z</time></trkpt>
<trkpt lat="13.24155" lon="99.78631"><ele>15</ele><time>2018-06-17T02:03:19Z</time></trkpt>
<trkpt lat="13.24146" lon="99.78633"><ele>16</ele><time>2018-06-17T02:03:21Z</time></trkpt>
<trkpt lat="13.24138" lon="99.78634"><ele>16</ele><time>2018-06-17T02:03:23Z</time></trkpt>
<trkpt lat="13.24130" lon="99.78635"><ele>17</ele><time>2018-06-17T02:03:25Z</time></trkpt>
<trkpt lat="13.24124" lon="99.78637"><ele>16</ele><time>2018-06-17T02:03:27Z</time></trkpt>
<trkpt lat="13.24118" lon="99.78638"><ele>16</ele><time>2018-06-17T02:03:29Z</time></trkpt>
<trkpt lat="13.24112" lon="99.78640"><ele>16</ele><time>2018-06-17T02:03:31Z</time></trkpt>
<trkpt lat="13.24106" lon="99.78641"><ele>16</ele><time>2018-06-17T02:03:33Z</time></trkpt>
<trkpt lat="13.24101" lon="99.78644"><ele>16</ele><time>2018-06-17T02:03:35Z</time></trkpt>
<trkpt lat="13.24098" lon="99.78647"><ele>16</ele><time>2018-06-17T02:03:37Z</time></trkpt>
<trkpt lat="13.24095" lon="99.78653"><ele>16</ele><time>2018-06-17T02:03:40Z</time></trkpt>
<trkpt lat="13.24093" lon="99.78658"><ele>15</ele><time>2018-06-17T02:03:42Z</time></trkpt>
<trkpt lat="13.24093" lon="99.78664"><ele>15</ele><time>2018-06-17T02:03:44Z</time></trkpt>
<trkpt lat="13.24092" lon="99.78670"><ele>15</ele><time>2018-06-17T02:03:46Z</time></trkpt>
<trkpt lat="13.24092" lon="99.78676"><ele>14</ele><time>2018-06-17T02:03:48Z</time></trkpt>
<trkpt lat="13.24091" lon="99.78683"><ele>14</ele><time>2018-06-17T02:03:50Z</time></trkpt>
<trkpt lat="13.24090" lon="99.78688"><ele>14</ele><time>2018-06-17T02:03:52Z</time></trkpt>
<trkpt lat="13.24090" lon="99.78693"><ele>13</ele><time>2018-06-17T02:03:54Z</time></trkpt>
<trkpt lat="13.24090" lon="99.78700"><ele>13</ele><time>2018-06-17T02:03:57Z</time></trkpt>
<trkpt lat="13.24090" lon="99.78705"><ele>13</ele><time>2018-06-17T02:03:59Z</time></trkpt>
<trkpt lat="13.24091" lon="99.78710"><ele>12</ele><time>2018-06-17T02:04:01Z</time></trkpt>
<trkpt lat="13.24091" lon="99.78715"><ele>12</ele><time>2018-06-17T02:04:03Z</time></trkpt>
<trkpt lat="13.24092" lon="99.78722"><ele>12</ele><time>2018-06-17T02:04:06Z</time></trkpt>
<trkpt lat="13.24097" lon="99.78726"><ele>11</ele><time>2018-06-17T02:04:09Z</time></trkpt>
<trkpt lat="13.24102" lon="99.78730"><ele>11</ele><time>2018-06-17T02:04:11Z</time></trkpt>
<trkpt lat="13.24107" lon="99.78731"><ele>12</ele><time>2018-06-17T02:04:13Z</time></trkpt>
<trkpt lat="13.24112" lon="99.78732"><ele>12</ele><time>2018-06-17T02:04:15Z</time></trkpt>
<trkpt lat="13.24117" lon="99.78732"><ele>12</ele><time>2018-06-17T02:04:17Z</time></trkpt>
<trkpt lat="13.24122" lon="99.78730"><ele>13</ele><time>2018-06-17T02:04:19Z</time></trkpt>
<trkpt lat="13.24127" lon="99.78727"><ele>12</ele><time>2018-06-17T02:04:21Z</time></trkpt>
<trkpt lat="13.24135" lon="99.78724"><ele>11</ele><time>2018-06-17T02:04:23Z</time></trkpt>
<trkpt lat="13.24142" lon="99.78723"><ele>11</ele><time>2018-06-17T02:04:25Z</time></trkpt>
<trkpt lat="13.24147" lon="99.78722"><ele>12</ele><time>2018-06-17T02:04:28Z</time></trkpt>
<trkpt lat="13.24150" lon="99.78726"><ele>12</ele><time>2018-06-17T02:04:46Z</time></trkpt>
<trkpt lat="13.24151" lon="99.78733"><ele>13</ele><time>2018-06-17T02:04:49Z</time></trkpt>
<trkpt lat="13.24151" lon="99.78740"><ele>13</ele><time>2018-06-17T02:04:51Z</time></trkpt>
<trkpt lat="13.24152" lon="99.78746"><ele>13</ele><time>2018-06-17T02:04:53Z</time></trkpt>
<trkpt lat="13.24152" lon="99.78752"><ele>13</ele><time>2018-06-17T02:04:55Z</time></trkpt>
<trkpt lat="13.24152" lon="99.78759"><ele>13</ele><time>2018-06-17T02:04:57Z</time></trkpt>
<trkpt lat="13.24153" lon="99.78765"><ele>13</ele><time>2018-06-17T02:04:59Z</time></trkpt>
<trkpt lat="13.24153" lon="99.78772"><ele>12</ele><time>2018-06-17T02:05:01Z</time></trkpt>
<trkpt lat="13.24153" lon="99.78779"><ele>13</ele><time>2018-06-17T02:05:03Z</time></trkpt>
<trkpt lat="13.24153" lon="99.78786"><ele>13</ele><time>2018-06-17T02:05:05Z</time></trkpt>
<trkpt lat="13.24153" lon="99.78793"><ele>13</ele><time>2018-06-17T02:05:07Z</time></trkpt>
<trkpt lat="13.24153" lon="99.78800"><ele>13</ele><time>2018-06-17T02:05:09Z</time></trkpt>
<trkpt lat="13.24153" lon="99.78806"><ele>13</ele><time>2018-06-17T02:05:11Z</time></trkpt>
<trkpt lat="13.24153" lon="99.78813"><ele>13</ele><time>2018-06-17T02:05:13Z</time></trkpt>
<trkpt lat="13.24152" lon="99.78820"><ele>13</ele><time>2018-06-17T02:05:15Z</time></trkpt>
<trkpt lat="13.24152" lon="99.78826"><ele>13</ele><time>2018-06-17T02:05:17Z</time></trkpt>
<trkpt lat="13.24151" lon="99.78833"><ele>13</ele><time>2018-06-17T02:05:19Z</time></trkpt>
<trkpt lat="13.24150" lon="99.78839"><ele>13</ele><time>2018-06-17T02:05:21Z</time></trkpt>
<trkpt lat="13.24150" lon="99.78846"><ele>13</ele><time>2018-06-17T02:05:23Z</time></trkpt>
<trkpt lat="13.24149" lon="99.78852"><ele>13</ele><time>2018-06-17T02:05:25Z</time></trkpt>
<trkpt lat="13.24149" lon="99.78858"><ele>14</ele><time>2018-06-17T02:05:27Z</time></trkpt>
<trkpt lat="13.24148" lon="99.78863"><ele>14</ele><time>2018-06-17T02:05:29Z</time></trkpt>
<trkpt lat="13.24149" lon="99.78869"><ele>14</ele><time>2018-06-17T02:05:31Z</time></trkpt>
<trkpt lat="13.24149" lon="99.78875"><ele>14</ele><time>2018-06-17T02:05:33Z</time></trkpt>
<trkpt lat="13.24148" lon="99.78881"><ele>14</ele><time>2018-06-17T02:05:35Z</time></trkpt>
<trkpt lat="13.24148" lon="99.78887"><ele>14</ele><time>2018-06-17T02:05:37Z</time></trkpt>
<trkpt lat="13.24147" lon="99.78892"><ele>14</ele><time>2018-06-17T02:05:39Z</time></trkpt>
<trkpt lat="13.24147" lon="99.78897"><ele>14</ele><time>2018-06-17T02:05:41Z</time></trkpt>
<trkpt lat="13.24147" lon="99.78903"><ele>14</ele><time>2018-06-17T02:05:44Z</time></trkpt>
<trkpt lat="13.24148" lon="99.78909"><ele>15</ele><time>2018-06-17T02:05:47Z</time></trkpt>
<trkpt lat="13.24149" lon="99.78914"><ele>15</ele><time>2018-06-17T02:05:51Z</time></trkpt>
<trkpt lat="13.24153" lon="99.78914"><ele>14</ele><time>2018-06-17T02:07:01Z</time></trkpt>
<trkpt lat="13.24159" lon="99.78915"><ele>14</ele><time>2018-06-17T02:07:04Z</time></trkpt>
<trkpt lat="13.24164" lon="99.78916"><ele>13</ele><time>2018-06-17T02:07:06Z</time></trkpt>
<trkpt lat="13.24169" lon="99.78917"><ele>13</ele><time>2018-06-17T02:07:08Z</time></trkpt>
<trkpt lat="13.24175" lon="99.78919"><ele>13</ele><time>2018-06-17T02:07:10Z</time></trkpt>
<trkpt lat="13.24179" lon="99.78920"><ele>13</ele><time>2018-06-17T02:07:12Z</time></trkpt>
<trkpt lat="13.24185" lon="99.78922"><ele>13</ele><time>2018-06-17T02:07:14Z</time></trkpt>
<trkpt lat="13.24191" lon="99.78923"><ele>12</ele><time>2018-06-17T02:07:16Z</time></trkpt>
<trkpt lat="13.24197" lon="99.78925"><ele>12</ele><time>2018-06-17T02:07:18Z</time></trkpt>
<trkpt lat="13.24203" lon="99.78926"><ele>12</ele><time>2018-06-17T02:07:20Z</time></trkpt>
<trkpt lat="13.24209" lon="99.78927"><ele>12</ele><time>2018-06-17T02:07:22Z</time></trkpt>
<trkpt lat="13.24216" lon="99.78928"><ele>12</ele><time>2018-06-17T02:07:24Z</time></trkpt>
<trkpt lat="13.24220" lon="99.78929"><ele>12</ele><time>2018-06-17T02:07:26Z</time></trkpt>
<trkpt lat="13.24225" lon="99.78931"><ele>12</ele><time>2018-06-17T02:07:29Z</time></trkpt>
<trkpt lat="13.24229" lon="99.78934"><ele>12</ele><time>2018-06-17T02:08:47Z</time></trkpt>
<trkpt lat="13.24233" lon="99.78937"><ele>13</ele><time>2018-06-17T02:11:27Z</time></trkpt>
<trkpt lat="13.24236" lon="99.78940"><ele>4</ele><time>2018-06-17T02:14:42Z</time></trkpt>
<trkpt lat="13.24241" lon="99.78942"><ele>5</ele><time>2018-06-17T02:14:53Z</time></trkpt>
<trkpt lat="13.24245" lon="99.78944"><ele>6</ele><time>2018-06-17T02:14:57Z</time></trkpt>
<trkpt lat="13.24248" lon="99.78948"><ele>6</ele><time>2018-06-17T02:15:03Z</time></trkpt>
<trkpt lat="13.24248" lon="99.78956"><ele>7</ele><time>2018-06-17T02:15:06Z</time></trkpt>
<trkpt lat="13.24249" lon="99.78962"><ele>7</ele><time>2018-06-17T02:15:08Z</time></trkpt>
<trkpt lat="13.24247" lon="99.78969"><ele>7</ele><time>2018-06-17T02:15:10Z</time></trkpt>
<trkpt lat="13.24243" lon="99.78973"><ele>8</ele><time>2018-06-17T02:15:12Z</time></trkpt>
<trkpt lat="13.24238" lon="99.78975"><ele>8</ele><time>2018-06-17T02:15:14Z</time></trkpt>
<trkpt lat="13.24232" lon="99.78978"><ele>8</ele><time>2018-06-17T02:15:16Z</time></trkpt>
<trkpt lat="13.24226" lon="99.78980"><ele>8</ele><time>2018-06-17T02:15:18Z</time></trkpt>
<trkpt lat="13.24220" lon="99.78983"><ele>9</ele><time>2018-06-17T02:15:20Z</time></trkpt>
<trkpt lat="13.24215" lon="99.78989"><ele>9</ele><time>2018-06-17T02:15:22Z</time></trkpt>
<trkpt lat="13.24211" lon="99.78996"><ele>9</ele><time>2018-06-17T02:15:24Z</time></trkpt>
<trkpt lat="13.24209" lon="99.79004"><ele>10</ele><time>2018-06-17T02:15:26Z</time></trkpt>
<trkpt lat="13.24208" lon="99.79012"><ele>9</ele><time>2018-06-17T02:15:28Z</time></trkpt>
<trkpt lat="13.24208" lon="99.79021"><ele>10</ele><time>2018-06-17T02:15:30Z</time></trkpt>
<trkpt lat="13.24208" lon="99.79029"><ele>10</ele><time>2018-06-17T02:15:32Z</time></trkpt>
<trkpt lat="13.24209" lon="99.79033"><ele>9</ele><time>2018-06-17T02:15:35Z</time></trkpt>
<trkpt lat="13.24210" lon="99.79038"><ele>10</ele><time>2018-06-17T02:19:26Z</time></trkpt>
<trkpt lat="13.24211" lon="99.79044"><ele>10</ele><time>2018-06-17T02:19:29Z</time></trkpt>
<trkpt lat="13.24211" lon="99.79051"><ele>10</ele><time>2018-06-17T02:19:31Z</time></trkpt>
<trkpt lat="13.24211" lon="99.79058"><ele>10</ele><time>2018-06-17T02:19:33Z</time></trkpt>
<trkpt lat="13.24212" lon="99.79067"><ele>10</ele><time>2018-06-17T02:19:35Z</time></trkpt>
<trkpt lat="13.24214" lon="99.79076"><ele>10</ele><time>2018-06-17T02:19:37Z</time></trkpt>
<trkpt lat="13.24215" lon="99.79081"><ele>10</ele><time>2018-06-17T02:19:38Z</time></trkpt>
<trkpt lat="13.24215" lon="99.79086"><ele>10</ele><time>2018-06-17T02:19:39Z</time></trkpt>
<trkpt lat="13.24216" lon="99.79091"><ele>10</ele><time>2018-06-17T02:19:40Z</time></trkpt>
<trkpt lat="13.24216" lon="99.79096"><ele>11</ele><time>2018-06-17T02:19:41Z</time></trkpt>
<trkpt lat="13.24217" lon="99.79101"><ele>10</ele><time>2018-06-17T02:19:42Z</time></trkpt>
<trkpt lat="13.24218" lon="99.79107"><ele>11</ele><time>2018-06-17T02:19:43Z</time></trkpt>
<trkpt lat="13.24220" lon="99.79111"><ele>10</ele><time>2018-06-17T02:19:44Z</time></trkpt>
<trkpt lat="13.24224" lon="99.79117"><ele>10</ele><time>2018-06-17T02:19:45Z</time></trkpt>
<trkpt lat="13.24227" lon="99.79120"><ele>10</ele><time>2018-06-17T02:19:46Z</time></trkpt>
<trkpt lat="13.24231" lon="99.79123"><ele>10</ele><time>2018-06-17T02:19:47Z</time></trkpt>
<trkpt lat="13.24236" lon="99.79126"><ele>10</ele><time>2018-06-17T02:19:48Z</time></trkpt>
<trkpt lat="13.24240" lon="99.79129"><ele>10</ele><time>2018-06-17T02:19:49Z</time></trkpt>
<trkpt lat="13.24245" lon="99.79132"><ele>10</ele><time>2018-06-17T02:19:50Z</time></trkpt>
<trkpt lat="13.24250" lon="99.79135"><ele>10</ele><time>2018-06-17T02:19:51Z</time></trkpt>
<trkpt lat="13.24254" lon="99.79139"><ele>10</ele><time>2018-06-17T02:19:52Z</time></trkpt>
<trkpt lat="13.24258" lon="99.79143"><ele>10</ele><time>2018-06-17T02:19:53Z</time></trkpt>
<trkpt lat="13.24262" lon="99.79147"><ele>10</ele><time>2018-06-17T02:19:54Z</time></trkpt>
<trkpt lat="13.24266" lon="99.79151"><ele>10</ele><time>2018-06-17T02:19:55Z</time></trkpt>
<trkpt lat="13.24269" lon="99.79155"><ele>10</ele><time>2018-06-17T02:19:56Z</time></trkpt>
<trkpt lat="13.24270" lon="99.79161"><ele>10</ele><time>2018-06-17T02:19:59Z</time></trkpt>
<trkpt lat="13.24270" lon="99.79167"><ele>10</ele><time>2018-06-17T02:20:01Z</time></trkpt>
<trkpt lat="13.24270" lon="99.79174"><ele>10</ele><time>2018-06-17T02:20:03Z</time></trkpt>
<trkpt lat="13.24269" lon="99.79182"><ele>10</ele><time>2018-06-17T02:20:05Z</time></trkpt>
<trkpt lat="13.24268" lon="99.79187"><ele>10</ele><time>2018-06-17T02:20:06Z</time></trkpt>
<trkpt lat="13.24267" lon="99.79191"><ele>10</ele><time>2018-06-17T02:20:07Z</time></trkpt>
<trkpt lat="13.24266" lon="99.79196"><ele>9</ele><time>2018-06-17T02:20:08Z</time></trkpt>
<trkpt lat="13.24265" lon="99.79201"><ele>9</ele><time>2018-06-17T02:20:09Z</time></trkpt>
<trkpt lat="13.24264" lon="99.79206"><ele>9</ele><time>2018-06-17T02:20:10Z</time></trkpt>
<trkpt lat="13.24263" lon="99.79212"><ele>9</ele><time>2018-06-17T02:20:11Z</time></trkpt>
<trkpt lat="13.24262" lon="99.79217"><ele>9</ele><time>2018-06-17T02:20:12Z</time></trkpt>
<trkpt lat="13.24261" lon="99.79222"><ele>9</ele><time>2018-06-17T02:20:13Z</time></trkpt>
<trkpt lat="13.24260" lon="99.79226"><ele>9</ele><time>2018-06-17T02:20:14Z</time></trkpt>
<trkpt lat="13.24259" lon="99.79231"><ele>9</ele><time>2018-06-17T02:20:15Z</time></trkpt>
<trkpt lat="13.24257" lon="99.79236"><ele>9</ele><time>2018-06-17T02:20:16Z</time></trkpt>
<trkpt lat="13.24256" lon="99.79240"><ele>9</ele><time>2018-06-17T02:20:17Z</time></trkpt>
<trkpt lat="13.24254" lon="99.79245"><ele>9</ele><time>2018-06-17T02:20:18Z</time></trkpt>
<trkpt lat="13.24251" lon="99.79249"><ele>9</ele><time>2018-06-17T02:20:19Z</time></trkpt>
<trkpt lat="13.24249" lon="99.79253"><ele>9</ele><time>2018-06-17T02:20:20Z</time></trkpt>
<trkpt lat="13.24246" lon="99.79256"><ele>9</ele><time>2018-06-17T02:20:21Z</time></trkpt>
<trkpt lat="13.24243" lon="99.79260"><ele>9</ele><time>2018-06-17T02:20:22Z</time></trkpt>
<trkpt lat="13.24239" lon="99.79263"><ele>9</ele><time>2018-06-17T02:20:23Z</time></trkpt>
<trkpt lat="13.24232" lon="99.79268"><ele>9</ele><time>2018-06-17T02:20:25Z</time></trkpt>
<trkpt lat="13.24225" lon="99.79271"><ele>9</ele><time>2018-06-17T02:20:27Z</time></trkpt>
<trkpt lat="13.24219" lon="99.79273"><ele>9</ele><time>2018-06-17T02:20:29Z</time></trkpt>
<trkpt lat="13.24213" lon="99.79275"><ele>9</ele><time>2018-06-17T02:20:31Z</time></trkpt>
<trkpt lat="13.24208" lon="99.79279"><ele>9</ele><time>2018-06-17T02:20:33Z</time></trkpt>
<trkpt lat="13.24202" lon="99.79282"><ele>9</ele><time>2018-06-17T02:20:35Z</time></trkpt>
<trkpt lat="13.24197" lon="99.79284"><ele>9</ele><time>2018-06-17T02:20:37Z</time></trkpt>
<trkpt lat="13.24192" lon="99.79286"><ele>9</ele><time>2018-06-17T02:20:39Z</time></trkpt>
<trkpt lat="13.24187" lon="99.79285"><ele>8</ele><time>2018-06-17T02:20:41Z</time></trkpt>
<trkpt lat="13.24181" lon="99.79283"><ele>8</ele><time>2018-06-17T02:20:43Z</time></trkpt>
<trkpt lat="13.24175" lon="99.79281"><ele>8</ele><time>2018-06-17T02:20:45Z</time></trkpt>
<trkpt lat="13.24169" lon="99.79278"><ele>8</ele><time>2018-06-17T02:20:47Z</time></trkpt>
<trkpt lat="13.24162" lon="99.79276"><ele>8</ele><time>2018-06-17T02:20:49Z</time></trkpt>
<trkpt lat="13.24155" lon="99.79273"><ele>8</ele><time>2018-06-17T02:20:51Z</time></trkpt>
<trkpt lat="13.24148" lon="99.79271"><ele>8</ele><time>2018-06-17T02:20:53Z</time></trkpt>
<trkpt lat="13.24142" lon="99.79268"><ele>8</ele><time>2018-06-17T02:20:55Z</time></trkpt>
<trkpt lat="13.24135" lon="99.79266"><ele>8</ele><time>2018-06-17T02:20:57Z</time></trkpt>
<trkpt lat="13.24129" lon="99.79265"><ele>8</ele><time>2018-06-17T02:20:59Z</time></trkpt>
<trkpt lat="13.24122" lon="99.79265"><ele>9</ele><time>2018-06-17T02:21:01Z</time></trkpt>
<trkpt lat="13.24117" lon="99.79266"><ele>9</ele><time>2018-06-17T02:21:03Z</time></trkpt>
<trkpt lat="13.24113" lon="99.79270"><ele>9</ele><time>2018-06-17T02:21:07Z</time></trkpt>
<trkpt lat="13.24109" lon="99.79273"><ele>9</ele><time>2018-06-17T02:21:31Z</time></trkpt>
<trkpt lat="13.24105" lon="99.79274"><ele>10</ele><time>2018-06-17T02:23:41Z</time></trkpt>
<trkpt lat="13.24100" lon="99.79275"><ele>9</ele><time>2018-06-17T02:23:49Z</time></trkpt>
<trkpt lat="13.24096" lon="99.79278"><ele>10</ele><time>2018-06-17T02:24:15Z</time></trkpt>
<trkpt lat="13.24092" lon="99.79281"><ele>10</ele><time>2018-06-17T02:24:23Z</time></trkpt>
<trkpt lat="13.24088" lon="99.79285"><ele>9</ele><time>2018-06-17T02:24:28Z</time></trkpt>
<trkpt lat="13.24086" lon="99.79290"><ele>9</ele><time>2018-06-17T02:24:33Z</time></trkpt>
<trkpt lat="13.24086" lon="99.79295"><ele>9</ele><time>2018-06-17T02:24:36Z</time></trkpt>
<trkpt lat="13.24085" lon="99.79300"><ele>8</ele><time>2018-06-17T02:24:39Z</time></trkpt>
<trkpt lat="13.24084" lon="99.79307"><ele>8</ele><time>2018-06-17T02:24:42Z</time></trkpt>
<trkpt lat="13.24084" lon="99.79313"><ele>8</ele><time>2018-06-17T02:24:45Z</time></trkpt>
<trkpt lat="13.24083" lon="99.79318"><ele>8</ele><time>2018-06-17T02:24:48Z</time></trkpt>
<trkpt lat="13.24083" lon="99.79324"><ele>7</ele><time>2018-06-17T02:24:51Z</time></trkpt>
<trkpt lat="13.24085" lon="99.79329"><ele>7</ele><time>2018-06-17T02:24:54Z</time></trkpt>
<trkpt lat="13.24087" lon="99.79334"><ele>7</ele><time>2018-06-17T02:24:58Z</time></trkpt>
<trkpt lat="13.24089" lon="99.79339"><ele>6</ele><time>2018-06-17T02:25:01Z</time></trkpt>
<trkpt lat="13.24093" lon="99.79343"><ele>6</ele><time>2018-06-17T02:25:04Z</time></trkpt>
<trkpt lat="13.24094" lon="99.79349"><ele>7</ele><time>2018-06-17T02:25:07Z</time></trkpt>
<trkpt lat="13.24097" lon="99.79354"><ele>6</ele><time>2018-06-17T02:25:10Z</time></trkpt>
<trkpt lat="13.24098" lon="99.79360"><ele>5</ele><time>2018-06-17T02:25:13Z</time></trkpt>
<trkpt lat="13.24094" lon="99.79365"><ele>5</ele><time>2018-06-17T02:25:16Z</time></trkpt>
<trkpt lat="13.24089" lon="99.79369"><ele>6</ele><time>2018-06-17T02:25:19Z</time></trkpt>
<trkpt lat="13.24085" lon="99.79374"><ele>6</ele><time>2018-06-17T02:25:22Z</time></trkpt>
<trkpt lat="13.24084" lon="99.79379"><ele>7</ele><time>2018-06-17T02:25:25Z</time></trkpt>
<trkpt lat="13.24082" lon="99.79385"><ele>6</ele><time>2018-06-17T02:25:28Z</time></trkpt>
<trkpt lat="13.24078" lon="99.79389"><ele>6</ele><time>2018-06-17T02:25:31Z</time></trkpt>
<trkpt lat="13.24074" lon="99.79392"><ele>6</ele><time>2018-06-17T02:25:34Z</time></trkpt>
<trkpt lat="13.24070" lon="99.79394"><ele>7</ele><time>2018-06-17T02:25:42Z</time></trkpt>
<trkpt lat="13.24067" lon="99.79398"><ele>9</ele><time>2018-06-17T02:26:37Z</time></trkpt>
<trkpt lat="13.24063" lon="99.79400"><ele>10</ele><time>2018-06-17T02:27:05Z</time></trkpt>
<trkpt lat="13.24058" lon="99.79399"><ele>9</ele><time>2018-06-17T02:28:27Z</time></trkpt>
<trkpt lat="13.24052" lon="99.79399"><ele>9</ele><time>2018-06-17T02:28:30Z</time></trkpt>
<trkpt lat="13.24046" lon="99.79399"><ele>8</ele><time>2018-06-17T02:28:33Z</time></trkpt>
<trkpt lat="13.24040" lon="99.79398"><ele>8</ele><time>2018-06-17T02:28:36Z</time></trkpt>
<trkpt lat="13.24035" lon="99.79400"><ele>9</ele><time>2018-06-17T02:28:38Z</time></trkpt>
<trkpt lat="13.24028" lon="99.79401"><ele>9</ele><time>2018-06-17T02:28:40Z</time></trkpt>
<trkpt lat="13.24021" lon="99.79403"><ele>9</ele><time>2018-06-17T02:28:42Z</time></trkpt>
<trkpt lat="13.24014" lon="99.79405"><ele>9</ele><time>2018-06-17T02:28:44Z</time></trkpt>
<trkpt lat="13.24006" lon="99.79407"><ele>9</ele><time>2018-06-17T02:28:46Z</time></trkpt>
<trkpt lat="13.24001" lon="99.79409"><ele>9</ele><time>2018-06-17T02:28:47Z</time></trkpt>
<trkpt lat="13.23997" lon="99.79411"><ele>9</ele><time>2018-06-17T02:28:48Z</time></trkpt>
<trkpt lat="13.23993" lon="99.79412"><ele>9</ele><time>2018-06-17T02:28:49Z</time></trkpt>
<trkpt lat="13.23984" lon="99.79415"><ele>9</ele><time>2018-06-17T02:28:51Z</time></trkpt>
<trkpt lat="13.23976" lon="99.79416"><ele>9</ele><time>2018-06-17T02:28:53Z</time></trkpt>
<trkpt lat="13.23971" lon="99.79417"><ele>9</ele><time>2018-06-17T02:28:54Z</time></trkpt>
<trkpt lat="13.23967" lon="99.79418"><ele>9</ele><time>2018-06-17T02:28:55Z</time></trkpt>
<trkpt lat="13.23962" lon="99.79419"><ele>9</ele><time>2018-06-17T02:28:56Z</time></trkpt>
<trkpt lat="13.23957" lon="99.79420"><ele>9</ele><time>2018-06-17T02:28:57Z</time></trkpt>
<trkpt lat="13.23952" lon="99.79421"><ele>9</ele><time>2018-06-17T02:28:58Z</time></trkpt>
<trkpt lat="13.23948" lon="99.79422"><ele>9</ele><time>2018-06-17T02:28:59Z</time></trkpt>
<trkpt lat="13.23943" lon="99.79423"><ele>9</ele><time>2018-06-17T02:29:00Z</time></trkpt>
<trkpt lat="13.23935" lon="99.79425"><ele>9</ele><time>2018-06-17T02:29:02Z</time></trkpt>
<trkpt lat="13.23927" lon="99.79427"><ele>9</ele><time>2018-06-17T02:29:04Z</time></trkpt>
<trkpt lat="13.23919" lon="99.79429"><ele>9</ele><time>2018-06-17T02:29:06Z</time></trkpt>
<trkpt lat="13.23911" lon="99.79432"><ele>9</ele><time>2018-06-17T02:29:08Z</time></trkpt>
<trkpt lat="13.23905" lon="99.79434"><ele>9</ele><time>2018-06-17T02:29:09Z</time></trkpt>
<trkpt lat="13.23900" lon="99.79440"><ele>9</ele><time>2018-06-17T02:29:11Z</time></trkpt>
<trkpt lat="13.23898" lon="99.79445"><ele>9</ele><time>2018-06-17T02:29:13Z</time></trkpt>
<trkpt lat="13.23896" lon="99.79451"><ele>9</ele><time>2018-06-17T02:29:15Z</time></trkpt>
<trkpt lat="13.23894" lon="99.79458"><ele>9</ele><time>2018-06-17T02:29:17Z</time></trkpt>
<trkpt lat="13.23893" lon="99.79465"><ele>9</ele><time>2018-06-17T02:29:19Z</time></trkpt>
<trkpt lat="13.23893" lon="99.79473"><ele>9</ele><time>2018-06-17T02:29:21Z</time></trkpt>
<trkpt lat="13.23893" lon="99.79481"><ele>9</ele><time>2018-06-17T02:29:23Z</time></trkpt>
<trkpt lat="13.23894" lon="99.79489"><ele>9</ele><time>2018-06-17T02:29:25Z</time></trkpt>
<trkpt lat="13.23894" lon="99.79498"><ele>9</ele><time>2018-06-17T02:29:27Z</time></trkpt>
<trkpt lat="13.23895" lon="99.79507"><ele>9</ele><time>2018-06-17T02:29:29Z</time></trkpt>
<trkpt lat="13.23895" lon="99.79511"><ele>9</ele><time>2018-06-17T02:29:30Z</time></trkpt>
<trkpt lat="13.23895" lon="99.79521"><ele>9</ele><time>2018-06-17T02:29:32Z</time></trkpt>
<trkpt lat="13.23893" lon="99.79530"><ele>9</ele><time>2018-06-17T02:29:34Z</time></trkpt>
<trkpt lat="13.23890" lon="99.79537"><ele>9</ele><time>2018-06-17T02:29:36Z</time></trkpt>
<trkpt lat="13.23886" lon="99.79544"><ele>9</ele><time>2018-06-17T02:29:38Z</time></trkpt>
<trkpt lat="13.23880" lon="99.79548"><ele>8</ele><time>2018-06-17T02:29:40Z</time></trkpt>
<trkpt lat="13.23874" lon="99.79550"><ele>9</ele><time>2018-06-17T02:29:42Z</time></trkpt>
<trkpt lat="13.23868" lon="99.79550"><ele>8</ele><time>2018-06-17T02:29:44Z</time></trkpt>
<trkpt lat="13.23862" lon="99.79550"><ele>8</ele><time>2018-06-17T02:29:46Z</time></trkpt>
<trkpt lat="13.23857" lon="99.79549"><ele>8</ele><time>2018-06-17T02:29:48Z</time></trkpt>
<trkpt lat="13.23852" lon="99.79549"><ele>7</ele><time>2018-06-17T02:29:50Z</time></trkpt>
<trkpt lat="13.23847" lon="99.79548"><ele>7</ele><time>2018-06-17T02:29:52Z</time></trkpt>
<trkpt lat="13.23842" lon="99.79546"><ele>7</ele><time>2018-06-17T02:29:54Z</time></trkpt>
<trkpt lat="13.23836" lon="99.79544"><ele>7</ele><time>2018-06-17T02:29:56Z</time></trkpt>
<trkpt lat="13.23831" lon="99.79543"><ele>7</ele><time>2018-06-17T02:29:58Z</time></trkpt>
<trkpt lat="13.23826" lon="99.79542"><ele>7</ele><time>2018-06-17T02:30:00Z</time></trkpt>
<trkpt lat="13.23820" lon="99.79542"><ele>7</ele><time>2018-06-17T02:30:02Z</time></trkpt>
<trkpt lat="13.23814" lon="99.79543"><ele>7</ele><time>2018-06-17T02:30:04Z</time></trkpt>
<trkpt lat="13.23807" lon="99.79543"><ele>7</ele><time>2018-06-17T02:30:06Z</time></trkpt>
<trkpt lat="13.23802" lon="99.79544"><ele>7</ele><time>2018-06-17T02:30:08Z</time></trkpt>
<trkpt lat="13.23797" lon="99.79543"><ele>7</ele><time>2018-06-17T02:30:10Z</time></trkpt>
<trkpt lat="13.23791" lon="99.79543"><ele>8</ele><time>2018-06-17T02:30:13Z</time></trkpt>
<trkpt lat="13.23786" lon="99.79544"><ele>7</ele><time>2018-06-17T02:30:15Z</time></trkpt>
<trkpt lat="13.23781" lon="99.79544"><ele>8</ele><time>2018-06-17T02:30:17Z</time></trkpt>
<trkpt lat="13.23774" lon="99.79544"><ele>8</ele><time>2018-06-17T02:30:19Z</time></trkpt>
<trkpt lat="13.23769" lon="99.79545"><ele>8</ele><time>2018-06-17T02:30:21Z</time></trkpt>
<trkpt lat="13.23763" lon="99.79546"><ele>8</ele><time>2018-06-17T02:30:23Z</time></trkpt>
<trkpt lat="13.23758" lon="99.79546"><ele>8</ele><time>2018-06-17T02:30:25Z</time></trkpt>
<trkpt lat="13.23753" lon="99.79547"><ele>8</ele><time>2018-06-17T02:30:27Z</time></trkpt>
<trkpt lat="13.23748" lon="99.79549"><ele>8</ele><time>2018-06-17T02:30:29Z</time></trkpt>
<trkpt lat="13.23744" lon="99.79552"><ele>8</ele><time>2018-06-17T02:30:31Z</time></trkpt>
<trkpt lat="13.23742" lon="99.79556"><ele>9</ele><time>2018-06-17T02:30:33Z</time></trkpt>
<trkpt lat="13.23739" lon="99.79561"><ele>9</ele><time>2018-06-17T02:30:35Z</time></trkpt>
<trkpt lat="13.23735" lon="99.79566"><ele>9</ele><time>2018-06-17T02:30:37Z</time></trkpt>
<trkpt lat="13.23732" lon="99.79570"><ele>9</ele><time>2018-06-17T02:30:39Z</time></trkpt>
<trkpt lat="13.23729" lon="99.79576"><ele>9</ele><time>2018-06-17T02:30:41Z</time></trkpt>
<trkpt lat="13.23725" lon="99.79581"><ele>9</ele><time>2018-06-17T02:30:43Z</time></trkpt>
<trkpt lat="13.23721" lon="99.79585"><ele>8</ele><time>2018-06-17T02:30:45Z</time></trkpt>
<trkpt lat="13.23715" lon="99.79586"><ele>9</ele><time>2018-06-17T02:30:47Z</time></trkpt>
<trkpt lat="13.23709" lon="99.79586"><ele>9</ele><time>2018-06-17T02:30:49Z</time></trkpt>
<trkpt lat="13.23702" lon="99.79586"><ele>9</ele><time>2018-06-17T02:30:51Z</time></trkpt>
<trkpt lat="13.23697" lon="99.79587"><ele>9</ele><time>2018-06-17T02:30:53Z</time></trkpt>
<trkpt lat="13.23693" lon="99.79592"><ele>8</ele><time>2018-06-17T02:30:56Z</time></trkpt>
<trkpt lat="13.23691" lon="99.79597"><ele>8</ele><time>2018-06-17T02:30:58Z</time></trkpt>
<trkpt lat="13.23690" lon="99.79603"><ele>9</ele><time>2018-06-17T02:31:00Z</time></trkpt>
<trkpt lat="13.23689" lon="99.79609"><ele>8</ele><time>2018-06-17T02:31:02Z</time></trkpt>
<trkpt lat="13.23687" lon="99.79617"><ele>8</ele><time>2018-06-17T02:31:04Z</time></trkpt>
<trkpt lat="13.23685" lon="99.79625"><ele>8</ele><time>2018-06-17T02:31:06Z</time></trkpt>
<trkpt lat="13.23683" lon="99.79633"><ele>8</ele><time>2018-06-17T02:31:08Z</time></trkpt>
<trkpt lat="13.23680" lon="99.79640"><ele>7</ele><time>2018-06-17T02:31:10Z</time></trkpt>
<trkpt lat="13.23675" lon="99.79645"><ele>7</ele><time>2018-06-17T02:31:12Z</time></trkpt>
<trkpt lat="13.23669" lon="99.79647"><ele>7</ele><time>2018-06-17T02:31:14Z</time></trkpt>
<trkpt lat="13.23661" lon="99.79647"><ele>7</ele><time>2018-06-17T02:31:16Z</time></trkpt>
<trkpt lat="13.23653" lon="99.79647"><ele>7</ele><time>2018-06-17T02:31:18Z</time></trkpt>
<trkpt lat="13.23645" lon="99.79647"><ele>7</ele><time>2018-06-17T02:31:20Z</time></trkpt>
<trkpt lat="13.23636" lon="99.79647"><ele>7</ele><time>2018-06-17T02:31:22Z</time></trkpt>
<trkpt lat="13.23628" lon="99.79646"><ele>7</ele><time>2018-06-17T02:31:24Z</time></trkpt>
<trkpt lat="13.23619" lon="99.79646"><ele>7</ele><time>2018-06-17T02:31:26Z</time></trkpt>
<trkpt lat="13.23610" lon="99.79646"><ele>7</ele><time>2018-06-17T02:31:28Z</time></trkpt>
<trkpt lat="13.23606" lon="99.79646"><ele>7</ele><time>2018-06-17T02:31:29Z</time></trkpt>
<trkpt lat="13.23601" lon="99.79646"><ele>7</ele><time>2018-06-17T02:31:30Z</time></trkpt>
<trkpt lat="13.23592" lon="99.79646"><ele>7</ele><time>2018-06-17T02:31:32Z</time></trkpt>
<trkpt lat="13.23588" lon="99.79646"><ele>7</ele><time>2018-06-17T02:31:33Z</time></trkpt>
<trkpt lat="13.23579" lon="99.79645"><ele>7</ele><time>2018-06-17T02:31:35Z</time></trkpt>
<trkpt lat="13.23570" lon="99.79644"><ele>7</ele><time>2018-06-17T02:31:37Z</time></trkpt>
<trkpt lat="13.23562" lon="99.79643"><ele>6</ele><time>2018-06-17T02:31:39Z</time></trkpt>
<trkpt lat="13.23555" lon="99.79641"><ele>6</ele><time>2018-06-17T02:31:41Z</time></trkpt>
<trkpt lat="13.23549" lon="99.79638"><ele>6</ele><time>2018-06-17T02:31:43Z</time></trkpt>
<trkpt lat="13.23541" lon="99.79635"><ele>6</ele><time>2018-06-17T02:31:45Z</time></trkpt>
<trkpt lat="13.23533" lon="99.79633"><ele>6</ele><time>2018-06-17T02:31:47Z</time></trkpt>
<trkpt lat="13.23525" lon="99.79632"><ele>6</ele><time>2018-06-17T02:31:49Z</time></trkpt>
<trkpt lat="13.23517" lon="99.79631"><ele>7</ele><time>2018-06-17T02:31:51Z</time></trkpt>
<trkpt lat="13.23509" lon="99.79631"><ele>7</ele><time>2018-06-17T02:31:53Z</time></trkpt>
<trkpt lat="13.23502" lon="99.79633"><ele>7</ele><time>2018-06-17T02:31:55Z</time></trkpt>
<trkpt lat="13.23496" lon="99.79637"><ele>7</ele><time>2018-06-17T02:31:57Z</time></trkpt>
<trkpt lat="13.23492" lon="99.79643"><ele>6</ele><time>2018-06-17T02:31:59Z</time></trkpt>
<trkpt lat="13.23490" lon="99.79649"><ele>5</ele><time>2018-06-17T02:32:01Z</time></trkpt>
<trkpt lat="13.23488" lon="99.79656"><ele>5</ele><time>2018-06-17T02:32:03Z</time></trkpt>
<trkpt lat="13.23485" lon="99.79661"><ele>5</ele><time>2018-06-17T02:32:05Z</time></trkpt>
<trkpt lat="13.23480" lon="99.79666"><ele>5</ele><time>2018-06-17T02:32:07Z</time></trkpt>
<trkpt lat="13.23473" lon="99.79670"><ele>5</ele><time>2018-06-17T02:32:09Z</time></trkpt>
<trkpt lat="13.23469" lon="99.79673"><ele>5</ele><time>2018-06-17T02:32:10Z</time></trkpt>
<trkpt lat="13.23464" lon="99.79675"><ele>5</ele><time>2018-06-17T02:32:11Z</time></trkpt>
<trkpt lat="13.23459" lon="99.79677"><ele>6</ele><time>2018-06-17T02:32:12Z</time></trkpt>
<trkpt lat="13.23454" lon="99.79678"><ele>5</ele><time>2018-06-17T02:32:13Z</time></trkpt>
<trkpt lat="13.23449" lon="99.79680"><ele>6</ele><time>2018-06-17T02:32:14Z</time></trkpt>
<trkpt lat="13.23445" lon="99.79682"><ele>6</ele><time>2018-06-17T02:32:15Z</time></trkpt>
<trkpt lat="13.23440" lon="99.79685"><ele>6</ele><time>2018-06-17T02:32:16Z</time></trkpt>
<trkpt lat="13.23437" lon="99.79687"><ele>6</ele><time>2018-06-17T02:32:17Z</time></trkpt>
<trkpt lat="13.23430" lon="99.79693"><ele>6</ele><time>2018-06-17T02:32:19Z</time></trkpt>
<trkpt lat="13.23425" lon="99.79699"><ele>6</ele><time>2018-06-17T02:32:21Z</time></trkpt>
<trkpt lat="13.23421" lon="99.79705"><ele>6</ele><time>2018-06-17T02:32:23Z</time></trkpt>
<trkpt lat="13.23418" lon="99.79710"><ele>6</ele><time>2018-06-17T02:32:25Z</time></trkpt>
<trkpt lat="13.23415" lon="99.79715"><ele>6</ele><time>2018-06-17T02:32:27Z</time></trkpt>
<trkpt lat="13.23412" lon="99.79720"><ele>6</ele><time>2018-06-17T02:32:30Z</time></trkpt>
<trkpt lat="13.23414" lon="99.79715"><ele>6</ele><time>2018-06-17T02:32:46Z</time></trkpt>
<trkpt lat="13.23417" lon="99.79710"><ele>6</ele><time>2018-06-17T02:32:48Z</time></trkpt>
<trkpt lat="13.23420" lon="99.79705"><ele>6</ele><time>2018-06-17T02:32:50Z</time></trkpt>
<trkpt lat="13.23423" lon="99.79700"><ele>7</ele><time>2018-06-17T02:32:52Z</time></trkpt>
<trkpt lat="13.23421" lon="99.79694"><ele>6</ele><time>2018-06-17T02:32:55Z</time></trkpt>
<trkpt lat="13.23416" lon="99.79693"><ele>6</ele><time>2018-06-17T02:32:58Z</time></trkpt>
<trkpt lat="13.23411" lon="99.79694"><ele>6</ele><time>2018-06-17T02:33:00Z</time></trkpt>
<trkpt lat="13.23406" lon="99.79695"><ele>6</ele><time>2018-06-17T02:33:02Z</time></trkpt>
<trkpt lat="13.23400" lon="99.79695"><ele>6</ele><time>2018-06-17T02:33:04Z</time></trkpt>
<trkpt lat="13.23393" lon="99.79695"><ele>6</ele><time>2018-06-17T02:33:07Z</time></trkpt>
<trkpt lat="13.23387" lon="99.79693"><ele>6</ele><time>2018-06-17T02:33:10Z</time></trkpt>
<trkpt lat="13.23384" lon="99.79698"><ele>6</ele><time>2018-06-17T02:33:30Z</time></trkpt>
<trkpt lat="13.23380" lon="99.79702"><ele>5</ele><time>2018-06-17T02:33:33Z</time></trkpt>
<trkpt lat="13.23376" lon="99.79705"><ele>6</ele><time>2018-06-17T02:33:35Z</time></trkpt>
<trkpt lat="13.23373" lon="99.79709"><ele>5</ele><time>2018-06-17T02:33:37Z</time></trkpt>
<trkpt lat="13.23369" lon="99.79715"><ele>5</ele><time>2018-06-17T02:33:39Z</time></trkpt>
<trkpt lat="13.23365" lon="99.79722"><ele>6</ele><time>2018-06-17T02:33:41Z</time></trkpt>
<trkpt lat="13.23363" lon="99.79729"><ele>5</ele><time>2018-06-17T02:33:43Z</time></trkpt>
<trkpt lat="13.23364" lon="99.79735"><ele>4</ele><time>2018-06-17T02:33:45Z</time></trkpt>
<trkpt lat="13.23365" lon="99.79742"><ele>4</ele><time>2018-06-17T02:33:47Z</time></trkpt>
<trkpt lat="13.23366" lon="99.79748"><ele>5</ele><time>2018-06-17T02:33:49Z</time></trkpt>
<trkpt lat="13.23368" lon="99.79754"><ele>4</ele><time>2018-06-17T02:33:51Z</time></trkpt>
<trkpt lat="13.23369" lon="99.79759"><ele>4</ele><time>2018-06-17T02:33:53Z</time></trkpt>
<trkpt lat="13.23369" lon="99.79765"><ele>3</ele><time>2018-06-17T02:33:56Z</time></trkpt>
<trkpt lat="13.23366" lon="99.79770"><ele>3</ele><time>2018-06-17T02:34:00Z</time></trkpt>
<trkpt lat="13.23362" lon="99.79775"><ele>2</ele><time>2018-06-17T02:34:03Z</time></trkpt>
<trkpt lat="13.23359" lon="99.79779"><ele>2</ele><time>2018-06-17T02:34:05Z</time></trkpt>
<trkpt lat="13.23356" lon="99.79783"><ele>2</ele><time>2018-06-17T02:34:07Z</time></trkpt>
<trkpt lat="13.23352" lon="99.79787"><ele>2</ele><time>2018-06-17T02:34:09Z</time></trkpt>
<trkpt lat="13.23348" lon="99.79791"><ele>3</ele><time>2018-06-17T02:34:12Z</time></trkpt>
<trkpt lat="13.23344" lon="99.79795"><ele>2</ele><time>2018-06-17T02:34:16Z</time></trkpt>
<trkpt lat="13.23340" lon="99.79798"><ele>2</ele><time>2018-06-17T02:34:36Z</time></trkpt>
<trkpt lat="13.23337" lon="99.79801"><ele>1</ele><time>2018-06-17T02:34:39Z</time></trkpt>
<trkpt lat="13.23333" lon="99.79806"><ele>1</ele><time>2018-06-17T02:34:42Z</time></trkpt>
<trkpt lat="13.23327" lon="99.79810"><ele>1</ele><time>2018-06-17T02:34:45Z</time></trkpt>
<trkpt lat="13.23324" lon="99.79814"><ele>1</ele><time>2018-06-17T02:34:47Z</time></trkpt>
<trkpt lat="13.23322" lon="99.79818"><ele>1</ele><time>2018-06-17T02:34:49Z</time></trkpt>
<trkpt lat="13.23319" lon="99.79824"><ele>1</ele><time>2018-06-17T02:34:52Z</time></trkpt>
<trkpt lat="13.23317" lon="99.79829"><ele>1</ele><time>2018-06-17T02:34:55Z</time></trkpt>
<trkpt lat="13.23316" lon="99.79834"><ele>2</ele><time>2018-06-17T02:35:02Z</time></trkpt>
<trkpt lat="13.23315" lon="99.79838"><ele>3</ele><time>2018-06-17T02:36:17Z</time></trkpt>
<trkpt lat="13.23314" lon="99.79843"><ele>2</ele><time>2018-06-17T02:37:20Z</time></trkpt>
<trkpt lat="13.23315" lon="99.79848"><ele>2</ele><time>2018-06-17T02:37:31Z</time></trkpt>
<trkpt lat="13.23316" lon="99.79852"><ele>2</ele><time>2018-06-17T02:37:44Z</time></trkpt>
<trkpt lat="13.23318" lon="99.79856"><ele>3</ele><time>2018-06-17T02:38:26Z</time></trkpt>
<trkpt lat="13.23320" lon="99.79861"><ele>4</ele><time>2018-06-17T02:39:24Z</time></trkpt>
<trkpt lat="13.23323" lon="99.79864"><ele>3</ele><time>2018-06-17T02:39:53Z</time></trkpt>
<trkpt lat="13.23327" lon="99.79867"><ele>3</ele><time>2018-06-17T02:39:59Z</time></trkpt>
<trkpt lat="13.23331" lon="99.79872"><ele>3</ele><time>2018-06-17T02:40:02Z</time></trkpt>
<trkpt lat="13.23333" lon="99.79876"><ele>4</ele><time>2018-06-17T02:40:12Z</time></trkpt>
<trkpt lat="13.23336" lon="99.79880"><ele>3</ele><time>2018-06-17T02:41:00Z</time></trkpt>
<trkpt lat="13.23339" lon="99.79884"><ele>3</ele><time>2018-06-17T02:41:03Z</time></trkpt>
<trkpt lat="13.23341" lon="99.79889"><ele>4</ele><time>2018-06-17T02:41:09Z</time></trkpt>
<trkpt lat="13.23342" lon="99.79893"><ele>3</ele><time>2018-06-17T02:41:23Z</time></trkpt>
<trkpt lat="13.23345" lon="99.79898"><ele>3</ele><time>2018-06-17T02:41:50Z</time></trkpt>
<trkpt lat="13.23348" lon="99.79902"><ele>3</ele><time>2018-06-17T02:41:53Z</time></trkpt>
<trkpt lat="13.23353" lon="99.79905"><ele>2</ele><time>2018-06-17T02:41:56Z</time></trkpt>
<trkpt lat="13.23357" lon="99.79906"><ele>3</ele><time>2018-06-17T02:41:59Z</time></trkpt>
<trkpt lat="13.23362" lon="99.79905"><ele>2</ele><time>2018-06-17T02:42:02Z</time></trkpt>
<trkpt lat="13.23368" lon="99.79904"><ele>3</ele><time>2018-06-17T02:42:05Z</time></trkpt>
<trkpt lat="13.23373" lon="99.79903"><ele>3</ele><time>2018-06-17T02:42:09Z</time></trkpt>
<trkpt lat="13.23378" lon="99.79903"><ele>3</ele><time>2018-06-17T02:42:13Z</time></trkpt>
<trkpt lat="13.23384" lon="99.79904"><ele>3</ele><time>2018-06-17T02:42:15Z</time></trkpt>
<trkpt lat="13.23390" lon="99.79905"><ele>3</ele><time>2018-06-17T02:42:18Z</time></trkpt>
<trkpt lat="13.23396" lon="99.79908"><ele>2</ele><time>2018-06-17T02:42:21Z</time></trkpt>
<trkpt lat="13.23399" lon="99.79911"><ele>3</ele><time>2018-06-17T02:42:23Z</time></trkpt>
<trkpt lat="13.23402" lon="99.79915"><ele>4</ele><time>2018-06-17T02:42:25Z</time></trkpt>
<trkpt lat="13.23405" lon="99.79920"><ele>4</ele><time>2018-06-17T02:42:28Z</time></trkpt>
<trkpt lat="13.23406" lon="99.79925"><ele>5</ele><time>2018-06-17T02:42:31Z</time></trkpt>
<trkpt lat="13.23407" lon="99.79931"><ele>5</ele><time>2018-06-17T02:42:34Z</time></trkpt>
<trkpt lat="13.23407" lon="99.79937"><ele>5</ele><time>2018-06-17T02:42:37Z</time></trkpt>
<trkpt lat="13.23407" lon="99.79944"><ele>5</ele><time>2018-06-17T02:42:40Z</time></trkpt>
<trkpt lat="13.23407" lon="99.79949"><ele>5</ele><time>2018-06-17T02:42:42Z</time></trkpt>
<trkpt lat="13.23408" lon="99.79956"><ele>6</ele><time>2018-06-17T02:42:45Z</time></trkpt>
<trkpt lat="13.23408" lon="99.79962"><ele>6</ele><time>2018-06-17T02:42:48Z</time></trkpt>
<trkpt lat="13.23409" lon="99.79968"><ele>6</ele><time>2018-06-17T02:42:51Z</time></trkpt>
<trkpt lat="13.23411" lon="99.79974"><ele>6</ele><time>2018-06-17T02:42:54Z</time></trkpt>
<trkpt lat="13.23413" lon="99.79980"><ele>6</ele><time>2018-06-17T02:42:57Z</time></trkpt>
<trkpt lat="13.23417" lon="99.79985"><ele>7</ele><time>2018-06-17T02:43:00Z</time></trkpt>
<trkpt lat="13.23422" lon="99.79988"><ele>7</ele><time>2018-06-17T02:43:03Z</time></trkpt>
<trkpt lat="13.23426" lon="99.79993"><ele>7</ele><time>2018-06-17T02:43:06Z</time></trkpt>
<trkpt lat="13.23427" lon="99.79998"><ele>7</ele><time>2018-06-17T02:43:10Z</time></trkpt>
<trkpt lat="13.23426" lon="99.80003"><ele>7</ele><time>2018-06-17T02:43:14Z</time></trkpt>
<trkpt lat="13.23422" lon="99.80006"><ele>6</ele><time>2018-06-17T02:43:19Z</time></trkpt>
<trkpt lat="13.23419" lon="99.80010"><ele>6</ele><time>2018-06-17T02:43:22Z</time></trkpt>
<trkpt lat="13.23416" lon="99.80015"><ele>6</ele><time>2018-06-17T02:43:25Z</time></trkpt>
<trkpt lat="13.23416" lon="99.80021"><ele>5</ele><time>2018-06-17T02:43:28Z</time></trkpt>
<trkpt lat="13.23417" lon="99.80025"><ele>5</ele><time>2018-06-17T02:43:30Z</time></trkpt>
<trkpt lat="13.23418" lon="99.80031"><ele>5</ele><time>2018-06-17T02:43:32Z</time></trkpt>
<trkpt lat="13.23419" lon="99.80037"><ele>5</ele><time>2018-06-17T02:43:34Z</time></trkpt>
<trkpt lat="13.23420" lon="99.80044"><ele>6</ele><time>2018-06-17T02:43:36Z</time></trkpt>
<trkpt lat="13.23422" lon="99.80049"><ele>6</ele><time>2018-06-17T02:43:38Z</time></trkpt>
<trkpt lat="13.23427" lon="99.80053"><ele>6</ele><time>2018-06-17T02:43:41Z</time></trkpt>
<trkpt lat="13.23431" lon="99.80055"><ele>6</ele><time>2018-06-17T02:43:43Z</time></trkpt>
<trkpt lat="13.23435" lon="99.80060"><ele>7</ele><time>2018-06-17T02:43:46Z</time></trkpt>
<trkpt lat="13.23436" lon="99.80066"><ele>7</ele><time>2018-06-17T02:43:49Z</time></trkpt>
<trkpt lat="13.23432" lon="99.80069"><ele>6</ele><time>2018-06-17T02:43:56Z</time></trkpt>
<trkpt lat="13.23427" lon="99.80068"><ele>6</ele><time>2018-06-17T02:43:59Z</time></trkpt>
<trkpt lat="13.23421" lon="99.80066"><ele>6</ele><time>2018-06-17T02:44:02Z</time></trkpt>
<trkpt lat="13.23416" lon="99.80065"><ele>6</ele><time>2018-06-17T02:44:04Z</time></trkpt>
<trkpt lat="13.23411" lon="99.80064"><ele>6</ele><time>2018-06-17T02:44:06Z</time></trkpt>
<trkpt lat="13.23406" lon="99.80062"><ele>6</ele><time>2018-06-17T02:44:08Z</time></trkpt>
<trkpt lat="13.23402" lon="99.80060"><ele>6</ele><time>2018-06-17T02:44:10Z</time></trkpt>
<trkpt lat="13.23397" lon="99.80057"><ele>6</ele><time>2018-06-17T02:44:13Z</time></trkpt>
<trkpt lat="13.23392" lon="99.80055"><ele>5</ele><time>2018-06-17T02:44:16Z</time></trkpt>
<trkpt lat="13.23386" lon="99.80053"><ele>5</ele><time>2018-06-17T02:44:19Z</time></trkpt>
<trkpt lat="13.23381" lon="99.80052"><ele>6</ele><time>2018-06-17T02:44:22Z</time></trkpt>
<trkpt lat="13.23376" lon="99.80051"><ele>6</ele><time>2018-06-17T02:44:26Z</time></trkpt>
<trkpt lat="13.23373" lon="99.80055"><ele>6</ele><time>2018-06-17T02:44:31Z</time></trkpt>
<trkpt lat="13.23370" lon="99.80059"><ele>5</ele><time>2018-06-17T02:44:35Z</time></trkpt>
<trkpt lat="13.23366" lon="99.80061"><ele>5</ele><time>2018-06-17T02:44:38Z</time></trkpt>
<trkpt lat="13.23361" lon="99.80064"><ele>5</ele><time>2018-06-17T02:44:41Z</time></trkpt>
<trkpt lat="13.23357" lon="99.80068"><ele>5</ele><time>2018-06-17T02:44:45Z</time></trkpt>
<trkpt lat="13.23352" lon="99.80072"><ele>5</ele><time>2018-06-17T02:44:48Z</time></trkpt>
<trkpt lat="13.23347" lon="99.80074"><ele>5</ele><time>2018-06-17T02:44:51Z</time></trkpt>
<trkpt lat="13.23343" lon="99.80073"><ele>4</ele><time>2018-06-17T02:44:54Z</time></trkpt>
<trkpt lat="13.23338" lon="99.80071"><ele>5</ele><time>2018-06-17T02:44:57Z</time></trkpt>
<trkpt lat="13.23332" lon="99.80070"><ele>5</ele><time>2018-06-17T02:45:00Z</time></trkpt>
<trkpt lat="13.23327" lon="99.80070"><ele>5</ele><time>2018-06-17T02:45:02Z</time></trkpt>
<trkpt lat="13.23322" lon="99.80071"><ele>5</ele><time>2018-06-17T02:45:04Z</time></trkpt>
<trkpt lat="13.23318" lon="99.80072"><ele>5</ele><time>2018-06-17T02:45:06Z</time></trkpt>
<trkpt lat="13.23313" lon="99.80074"><ele>5</ele><time>2018-06-17T02:45:08Z</time></trkpt>
<trkpt lat="13.23308" lon="99.80076"><ele>5</ele><time>2018-06-17T02:45:10Z</time></trkpt>
<trkpt lat="13.23303" lon="99.80079"><ele>5</ele><time>2018-06-17T02:45:13Z</time></trkpt>
<trkpt lat="13.23300" lon="99.80086"><ele>5</ele><time>2018-06-17T02:45:16Z</time></trkpt>
<trkpt lat="13.23297" lon="99.80091"><ele>5</ele><time>2018-06-17T02:45:18Z</time></trkpt>
<trkpt lat="13.23294" lon="99.80095"><ele>4</ele><time>2018-06-17T02:45:20Z</time></trkpt>
<trkpt lat="13.23289" lon="99.80098"><ele>4</ele><time>2018-06-17T02:45:22Z</time></trkpt>
<trkpt lat="13.23284" lon="99.80102"><ele>4</ele><time>2018-06-17T02:45:24Z</time></trkpt>
<trkpt lat="13.23280" lon="99.80107"><ele>4</ele><time>2018-06-17T02:45:26Z</time></trkpt>
<trkpt lat="13.23276" lon="99.80112"><ele>4</ele><time>2018-06-17T02:45:28Z</time></trkpt>
<trkpt lat="13.23272" lon="99.80116"><ele>4</ele><time>2018-06-17T02:45:30Z</time></trkpt>
<trkpt lat="13.23268" lon="99.80121"><ele>4</ele><time>2018-06-17T02:45:33Z</time></trkpt>
<trkpt lat="13.23268" lon="99.80126"><ele>5</ele><time>2018-06-17T02:45:38Z</time></trkpt>
<trkpt lat="13.23269" lon="99.80131"><ele>5</ele><time>2018-06-17T02:45:44Z</time></trkpt>
<trkpt lat="13.23264" lon="99.80130"><ele>5</ele><time>2018-06-17T02:45:53Z</time></trkpt>
<trkpt lat="13.23262" lon="99.80135"><ele>6</ele><time>2018-06-17T02:45:56Z</time></trkpt>
<trkpt lat="13.23257" lon="99.80139"><ele>5</ele><time>2018-06-17T02:45:59Z</time></trkpt>
<trkpt lat="13.23254" lon="99.80143"><ele>5</ele><time>2018-06-17T02:46:01Z</time></trkpt>
<trkpt lat="13.23251" lon="99.80146"><ele>5</ele><time>2018-06-17T02:46:03Z</time></trkpt>
<trkpt lat="13.23246" lon="99.80150"><ele>5</ele><time>2018-06-17T02:46:06Z</time></trkpt>
<trkpt lat="13.23242" lon="99.80153"><ele>5</ele><time>2018-06-17T02:46:38Z</time></trkpt>
<trkpt lat="13.23247" lon="99.80150"><ele>5</ele><time>2018-06-17T02:46:57Z</time></trkpt>
<trkpt lat="13.23248" lon="99.80145"><ele>5</ele><time>2018-06-17T02:47:00Z</time></trkpt>
<trkpt lat="13.23243" lon="99.80142"><ele>5</ele><time>2018-06-17T02:47:03Z</time></trkpt>
<trkpt lat="13.23239" lon="99.80139"><ele>5</ele><time>2018-06-17T02:47:05Z</time></trkpt>
<trkpt lat="13.23236" lon="99.80135"><ele>5</ele><time>2018-06-17T02:47:07Z</time></trkpt>
<trkpt lat="13.23233" lon="99.80131"><ele>5</ele><time>2018-06-17T02:47:09Z</time></trkpt>
<trkpt lat="13.23230" lon="99.80127"><ele>5</ele><time>2018-06-17T02:47:11Z</time></trkpt>
<trkpt lat="13.23226" lon="99.80124"><ele>5</ele><time>2018-06-17T02:47:14Z</time></trkpt>
<trkpt lat="13.23221" lon="99.80123"><ele>5</ele><time>2018-06-17T02:47:16Z</time></trkpt>
<trkpt lat="13.23216" lon="99.80123"><ele>5</ele><time>2018-06-17T02:47:18Z</time></trkpt>
<trkpt lat="13.23211" lon="99.80124"><ele>5</ele><time>2018-06-17T02:47:20Z</time></trkpt>
<trkpt lat="13.23206" lon="99.80124"><ele>5</ele><time>2018-06-17T02:47:22Z</time></trkpt>
<trkpt lat="13.23198" lon="99.80123"><ele>5</ele><time>2018-06-17T02:47:24Z</time></trkpt>
<trkpt lat="13.23193" lon="99.80122"><ele>6</ele><time>2018-06-17T02:47:26Z</time></trkpt>
<trkpt lat="13.23188" lon="99.80122"><ele>5</ele><time>2018-06-17T02:47:54Z</time></trkpt>
<trkpt lat="13.23183" lon="99.80121"><ele>4</ele><time>2018-06-17T02:48:09Z</time></trkpt>
<trkpt lat="13.23178" lon="99.80120"><ele>4</ele><time>2018-06-17T02:48:13Z</time></trkpt>
<trkpt lat="13.23172" lon="99.80118"><ele>3</ele><time>2018-06-17T02:48:17Z</time></trkpt>
<trkpt lat="13.23167" lon="99.80115"><ele>3</ele><time>2018-06-17T02:48:21Z</time></trkpt>
<trkpt lat="13.23163" lon="99.80113"><ele>3</ele><time>2018-06-17T02:48:24Z</time></trkpt>
<trkpt lat="13.23157" lon="99.80111"><ele>3</ele><time>2018-06-17T02:48:27Z</time></trkpt>
<trkpt lat="13.23151" lon="99.80108"><ele>3</ele><time>2018-06-17T02:48:30Z</time></trkpt>
<trkpt lat="13.23147" lon="99.80106"><ele>3</ele><time>2018-06-17T02:48:33Z</time></trkpt>
<trkpt lat="13.23143" lon="99.80104"><ele>3</ele><time>2018-06-17T02:48:40Z</time></trkpt>
<trkpt lat="13.23138" lon="99.80104"><ele>4</ele><time>2018-06-17T02:48:50Z</time></trkpt>
<trkpt lat="13.23133" lon="99.80103"><ele>4</ele><time>2018-06-17T02:48:56Z</time></trkpt>
<trkpt lat="13.23128" lon="99.80100"><ele>4</ele><time>2018-06-17T02:49:01Z</time></trkpt>
<trkpt lat="13.23123" lon="99.80099"><ele>5</ele><time>2018-06-17T02:49:34Z</time></trkpt>
<trkpt lat="13.23119" lon="99.80095"><ele>5</ele><time>2018-06-17T02:49:39Z</time></trkpt>
<trkpt lat="13.23116" lon="99.80091"><ele>5</ele><time>2018-06-17T02:49:49Z</time></trkpt>
<trkpt lat="13.23112" lon="99.80090"><ele>5</ele><time>2018-06-17T02:50:15Z</time></trkpt>
<trkpt lat="13.23106" lon="99.80090"><ele>5</ele><time>2018-06-17T02:50:37Z</time></trkpt>
<trkpt lat="13.23102" lon="99.80089"><ele>5</ele><time>2018-06-17T02:50:52Z</time></trkpt>
<trkpt lat="13.23097" lon="99.80086"><ele>4</ele><time>2018-06-17T02:50:57Z</time></trkpt>
<trkpt lat="13.23091" lon="99.80083"><ele>4</ele><time>2018-06-17T02:51:00Z</time></trkpt>
<trkpt lat="13.23087" lon="99.80081"><ele>5</ele><time>2018-06-17T02:51:02Z</time></trkpt>
<trkpt lat="13.23082" lon="99.80077"><ele>4</ele><time>2018-06-17T02:51:05Z</time></trkpt>
<trkpt lat="13.23076" lon="99.80075"><ele>4</ele><time>2018-06-17T02:51:08Z</time></trkpt>
<trkpt lat="13.23071" lon="99.80079"><ele>4</ele><time>2018-06-17T02:51:12Z</time></trkpt>
<trkpt lat="13.23069" lon="99.80085"><ele>3</ele><time>2018-06-17T02:51:15Z</time></trkpt>
<trkpt lat="13.23067" lon="99.80090"><ele>3</ele><time>2018-06-17T02:51:17Z</time></trkpt>
<trkpt lat="13.23066" lon="99.80095"><ele>3</ele><time>2018-06-17T02:51:19Z</time></trkpt>
<trkpt lat="13.23064" lon="99.80099"><ele>3</ele><time>2018-06-17T02:51:21Z</time></trkpt>
<trkpt lat="13.23063" lon="99.80104"><ele>3</ele><time>2018-06-17T02:51:23Z</time></trkpt>
<trkpt lat="13.23061" lon="99.80110"><ele>3</ele><time>2018-06-17T02:51:26Z</time></trkpt>
<trkpt lat="13.23059" lon="99.80115"><ele>4</ele><time>2018-06-17T02:51:40Z</time></trkpt>
<trkpt lat="13.23056" lon="99.80119"><ele>4</ele><time>2018-06-17T02:51:43Z</time></trkpt>
<trkpt lat="13.23054" lon="99.80124"><ele>3</ele><time>2018-06-17T02:51:45Z</time></trkpt>
<trkpt lat="13.23051" lon="99.80129"><ele>3</ele><time>2018-06-17T02:51:47Z</time></trkpt>
<trkpt lat="13.23047" lon="99.80135"><ele>4</ele><time>2018-06-17T02:51:49Z</time></trkpt>
<trkpt lat="13.23044" lon="99.80143"><ele>4</ele><time>2018-06-17T02:51:51Z</time></trkpt>
<trkpt lat="13.23042" lon="99.80150"><ele>4</ele><time>2018-06-17T02:51:53Z</time></trkpt>
<trkpt lat="13.23039" lon="99.80158"><ele>4</ele><time>2018-06-17T02:51:55Z</time></trkpt>
<trkpt lat="13.23035" lon="99.80165"><ele>4</ele><time>2018-06-17T02:51:57Z</time></trkpt>
<trkpt lat="13.23030" lon="99.80171"><ele>4</ele><time>2018-06-17T02:51:59Z</time></trkpt>
<trkpt lat="13.23024" lon="99.80175"><ele>3</ele><time>2018-06-17T02:52:01Z</time></trkpt>
<trkpt lat="13.23018" lon="99.80179"><ele>4</ele><time>2018-06-17T02:52:03Z</time></trkpt>
<trkpt lat="13.23013" lon="99.80182"><ele>4</ele><time>2018-06-17T02:52:05Z</time></trkpt>
<trkpt lat="13.23007" lon="99.80186"><ele>3</ele><time>2018-06-17T02:52:07Z</time></trkpt>
<trkpt lat="13.23000" lon="99.80187"><ele>3</ele><time>2018-06-17T02:52:09Z</time></trkpt>
<trkpt lat="13.22994" lon="99.80187"><ele>3</ele><time>2018-06-17T02:52:11Z</time></trkpt>
<trkpt lat="13.22987" lon="99.80190"><ele>3</ele><time>2018-06-17T02:52:13Z</time></trkpt>
<trkpt lat="13.22983" lon="99.80194"><ele>4</ele><time>2018-06-17T02:52:15Z</time></trkpt>
<trkpt lat="13.22985" lon="99.80200"><ele>2</ele><time>2018-06-17T02:52:18Z</time></trkpt>
<trkpt lat="13.22989" lon="99.80204"><ele>1</ele><time>2018-06-17T02:52:20Z</time></trkpt>
<trkpt lat="13.22993" lon="99.80207"><ele>1</ele><time>2018-06-17T02:52:22Z</time></trkpt>
<trkpt lat="13.22998" lon="99.80212"><ele>0</ele><time>2018-06-17T02:52:24Z</time></trkpt>
<trkpt lat="13.23002" lon="99.80217"><ele>0</ele><time>2018-06-17T02:52:26Z</time></trkpt>
<trkpt lat="13.23005" lon="99.80222"><ele>-0</ele><time>2018-06-17T02:52:28Z</time></trkpt>
<trkpt lat="13.23009" lon="99.80225"><ele>-1</ele><time>2018-06-17T02:52:30Z</time></trkpt>
<trkpt lat="13.23013" lon="99.80229"><ele>-1</ele><time>2018-06-17T02:52:32Z</time></trkpt>
<trkpt lat="13.23018" lon="99.80231"><ele>-1</ele><time>2018-06-17T02:52:34Z</time></trkpt>
<trkpt lat="13.23023" lon="99.80233"><ele>-1</ele><time>2018-06-17T02:52:36Z</time></trkpt>
<trkpt lat="13.23029" lon="99.80235"><ele>-2</ele><time>2018-06-17T02:52:38Z</time></trkpt>
<trkpt lat="13.23035" lon="99.80237"><ele>-2</ele><time>2018-06-17T02:52:40Z</time></trkpt>
<trkpt lat="13.23042" lon="99.80240"><ele>-2</ele><time>2018-06-17T02:52:42Z</time></trkpt>
<trkpt lat="13.23050" lon="99.80243"><ele>-2</ele><time>2018-06-17T02:52:44Z</time></trkpt>
<trkpt lat="13.23057" lon="99.80247"><ele>-2</ele><time>2018-06-17T02:52:46Z</time></trkpt>
<trkpt lat="13.23063" lon="99.80250"><ele>-2</ele><time>2018-06-17T02:52:48Z</time></trkpt>
<trkpt lat="13.23069" lon="99.80252"><ele>-2</ele><time>2018-06-17T02:52:50Z</time></trkpt>
<trkpt lat="13.23075" lon="99.80252"><ele>-2</ele><time>2018-06-17T02:52:52Z</time></trkpt>
<trkpt lat="13.23082" lon="99.80252"><ele>-2</ele><time>2018-06-17T02:52:54Z</time></trkpt>
<trkpt lat="13.23090" lon="99.80252"><ele>-1</ele><time>2018-06-17T02:52:56Z</time></trkpt>
<trkpt lat="13.23097" lon="99.80252"><ele>-2</ele><time>2018-06-17T02:52:58Z</time></trkpt>
<trkpt lat="13.23104" lon="99.80252"><ele>-2</ele><time>2018-06-17T02:53:00Z</time></trkpt>
<trkpt lat="13.23111" lon="99.80253"><ele>-2</ele><time>2018-06-17T02:53:02Z</time></trkpt>
<trkpt lat="13.23118" lon="99.80256"><ele>-2</ele><time>2018-06-17T02:53:04Z</time></trkpt>
<trkpt lat="13.23125" lon="99.80260"><ele>-2</ele><time>2018-06-17T02:53:06Z</time></trkpt>
<trkpt lat="13.23132" lon="99.80262"><ele>-2</ele><time>2018-06-17T02:53:08Z</time></trkpt>
<trkpt lat="13.23139" lon="99.80264"><ele>-2</ele><time>2018-06-17T02:53:10Z</time></trkpt>
<trkpt lat="13.23146" lon="99.80266"><ele>-2</ele><time>2018-06-17T02:53:12Z</time></trkpt>
<trkpt lat="13.23153" lon="99.80266"><ele>-2</ele><time>2018-06-17T02:53:14Z</time></trkpt>
<trkpt lat="13.23159" lon="99.80267"><ele>-2</ele><time>2018-06-17T02:53:16Z</time></trkpt>
<trkpt lat="13.23167" lon="99.80268"><ele>-2</ele><time>2018-06-17T02:53:18Z</time></trkpt>
<trkpt lat="13.23175" lon="99.80269"><ele>-2</ele><time>2018-06-17T02:53:20Z</time></trkpt>
<trkpt lat="13.23183" lon="99.80269"><ele>-2</ele><time>2018-06-17T02:53:22Z</time></trkpt>
<trkpt lat="13.23191" lon="99.80269"><ele>-1</ele><time>2018-06-17T02:53:24Z</time></trkpt>
<trkpt lat="13.23198" lon="99.80267"><ele>-1</ele><time>2018-06-17T02:53:26Z</time></trkpt>
<trkpt lat="13.23206" lon="99.80265"><ele>-0</ele><time>2018-06-17T02:53:28Z</time></trkpt>
<trkpt lat="13.23214" lon="99.80263"><ele>0</ele><time>2018-06-17T02:53:30Z</time></trkpt>
<trkpt lat="13.23221" lon="99.80262"><ele>0</ele><time>2018-06-17T02:53:32Z</time></trkpt>
<trkpt lat="13.23228" lon="99.80260"><ele>0</ele><time>2018-06-17T02:53:34Z</time></trkpt>
<trkpt lat="13.23233" lon="99.80260"><ele>0</ele><time>2018-06-17T02:53:36Z</time></trkpt>
<trkpt lat="13.23232" lon="99.80254"><ele>1</ele><time>2018-06-17T02:53:48Z</time></trkpt>
<trkpt lat="13.23232" lon="99.80249"><ele>1</ele><time>2018-06-17T02:53:51Z</time></trkpt>
<trkpt lat="13.23236" lon="99.80247"><ele>2</ele><time>2018-06-17T02:53:55Z</time></trkpt>
<trkpt lat="13.23241" lon="99.80249"><ele>2</ele><time>2018-06-17T02:53:58Z</time></trkpt>
<trkpt lat="13.23245" lon="99.80252"><ele>2</ele><time>2018-06-17T02:54:13Z</time></trkpt>
<trkpt lat="13.23246" lon="99.80259"><ele>3</ele><time>2018-06-17T02:54:17Z</time></trkpt>
<trkpt lat="13.23247" lon="99.80263"><ele>3</ele><time>2018-06-17T02:54:19Z</time></trkpt>
<trkpt lat="13.23249" lon="99.80269"><ele>3</ele><time>2018-06-17T02:54:22Z</time></trkpt>
<trkpt lat="13.23250" lon="99.80274"><ele>3</ele><time>2018-06-17T02:54:25Z</time></trkpt>
<trkpt lat="13.23252" lon="99.80278"><ele>4</ele><time>2018-06-17T02:54:28Z</time></trkpt>
<trkpt lat="13.23255" lon="99.80283"><ele>4</ele><time>2018-06-17T02:54:31Z</time></trkpt>
<trkpt lat="13.23259" lon="99.80288"><ele>4</ele><time>2018-06-17T02:54:34Z</time></trkpt>
<trkpt lat="13.23263" lon="99.80294"><ele>4</ele><time>2018-06-17T02:54:37Z</time></trkpt>
<trkpt lat="13.23266" lon="99.80299"><ele>4</ele><time>2018-06-17T02:54:40Z</time></trkpt>
<trkpt lat="13.23267" lon="99.80304"><ele>4</ele><time>2018-06-17T02:54:43Z</time></trkpt>
<trkpt lat="13.23267" lon="99.80310"><ele>4</ele><time>2018-06-17T02:54:46Z</time></trkpt>
<trkpt lat="13.23268" lon="99.80316"><ele>4</ele><time>2018-06-17T02:54:48Z</time></trkpt>
<trkpt lat="13.23268" lon="99.80321"><ele>4</ele><time>2018-06-17T02:54:50Z</time></trkpt>
<trkpt lat="13.23269" lon="99.80325"><ele>4</ele><time>2018-06-17T02:54:52Z</time></trkpt>
<trkpt lat="13.23271" lon="99.80332"><ele>4</ele><time>2018-06-17T02:54:55Z</time></trkpt>
<trkpt lat="13.23271" lon="99.80337"><ele>4</ele><time>2018-06-17T02:54:58Z</time></trkpt>
<trkpt lat="13.23272" lon="99.80343"><ele>4</ele><time>2018-06-17T02:55:02Z</time></trkpt>
<trkpt lat="13.23271" lon="99.80347"><ele>4</ele><time>2018-06-17T02:55:07Z</time></trkpt>
<trkpt lat="13.23269" lon="99.80351"><ele>3</ele><time>2018-06-17T02:55:13Z</time></trkpt>
<trkpt lat="13.23267" lon="99.80357"><ele>3</ele><time>2018-06-17T02:55:17Z</time></trkpt>
<trkpt lat="13.23266" lon="99.80362"><ele>3</ele><time>2018-06-17T02:55:20Z</time></trkpt>
<trkpt lat="13.23267" lon="99.80368"><ele>3</ele><time>2018-06-17T02:55:23Z</time></trkpt>
<trkpt lat="13.23266" lon="99.80374"><ele>3</ele><time>2018-06-17T02:55:26Z</time></trkpt>
<trkpt lat="13.23267" lon="99.80380"><ele>3</ele><time>2018-06-17T02:55:29Z</time></trkpt>
<trkpt lat="13.23267" lon="99.80386"><ele>3</ele><time>2018-06-17T02:55:32Z</time></trkpt>
<trkpt lat="13.23268" lon="99.80391"><ele>3</ele><time>2018-06-17T02:55:35Z</time></trkpt>
<trkpt lat="13.23271" lon="99.80396"><ele>4</ele><time>2018-06-17T02:55:38Z</time></trkpt>
<trkpt lat="13.23274" lon="99.80400"><ele>3</ele><time>2018-06-17T02:55:41Z</time></trkpt>
<trkpt lat="13.23276" lon="99.80404"><ele>3</ele><time>2018-06-17T02:55:44Z</time></trkpt>
<trkpt lat="13.23278" lon="99.80411"><ele>3</ele><time>2018-06-17T02:55:47Z</time></trkpt>
<trkpt lat="13.23279" lon="99.80416"><ele>3</ele><time>2018-06-17T02:55:49Z</time></trkpt>
<trkpt lat="13.23278" lon="99.80421"><ele>4</ele><time>2018-06-17T02:55:51Z</time></trkpt>
<trkpt lat="13.23277" lon="99.80427"><ele>4</ele><time>2018-06-17T02:55:53Z</time></trkpt>
<trkpt lat="13.23276" lon="99.80433"><ele>3</ele><time>2018-06-17T02:55:56Z</time></trkpt>
<trkpt lat="13.23277" lon="99.80440"><ele>4</ele><time>2018-06-17T02:55:59Z</time></trkpt>
<trkpt lat="13.23281" lon="99.80442"><ele>4</ele><time>2018-06-17T02:56:02Z</time></trkpt>
<trkpt lat="13.23287" lon="99.80445"><ele>3</ele><time>2018-06-17T02:56:05Z</time></trkpt>
<trkpt lat="13.23293" lon="99.80445"><ele>3</ele><time>2018-06-17T02:56:08Z</time></trkpt>
<trkpt lat="13.23300" lon="99.80446"><ele>4</ele><time>2018-06-17T02:56:11Z</time></trkpt>
<trkpt lat="13.23304" lon="99.80447"><ele>4</ele><time>2018-06-17T02:56:13Z</time></trkpt>
<trkpt lat="13.23310" lon="99.80450"><ele>3</ele><time>2018-06-17T02:56:16Z</time></trkpt>
<trkpt lat="13.23314" lon="99.80453"><ele>3</ele><time>2018-06-17T02:56:18Z</time></trkpt>
<trkpt lat="13.23318" lon="99.80457"><ele>3</ele><time>2018-06-17T02:56:20Z</time></trkpt>
<trkpt lat="13.23322" lon="99.80460"><ele>4</ele><time>2018-06-17T02:56:22Z</time></trkpt>
<trkpt lat="13.23324" lon="99.80464"><ele>4</ele><time>2018-06-17T02:56:24Z</time></trkpt>
<trkpt lat="13.23325" lon="99.80469"><ele>4</ele><time>2018-06-17T02:56:26Z</time></trkpt>
<trkpt lat="13.23324" lon="99.80474"><ele>4</ele><time>2018-06-17T02:56:28Z</time></trkpt>
<trkpt lat="13.23324" lon="99.80480"><ele>4</ele><time>2018-06-17T02:56:30Z</time></trkpt>
<trkpt lat="13.23323" lon="99.80485"><ele>4</ele><time>2018-06-17T02:56:32Z</time></trkpt>
<trkpt lat="13.23322" lon="99.80491"><ele>4</ele><time>2018-06-17T02:56:34Z</time></trkpt>
<trkpt lat="13.23322" lon="99.80496"><ele>3</ele><time>2018-06-17T02:56:36Z</time></trkpt>
<trkpt lat="13.23321" lon="99.80502"><ele>3</ele><time>2018-06-17T02:56:38Z</time></trkpt>
<trkpt lat="13.23321" lon="99.80507"><ele>3</ele><time>2018-06-17T02:56:40Z</time></trkpt>
<trkpt lat="13.23322" lon="99.80511"><ele>2</ele><time>2018-06-17T02:56:42Z</time></trkpt>
<trkpt lat="13.23323" lon="99.80517"><ele>2</ele><time>2018-06-17T02:56:45Z</time></trkpt>
<trkpt lat="13.23326" lon="99.80522"><ele>0</ele><time>2018-06-17T02:56:48Z</time></trkpt>
<trkpt lat="13.23329" lon="99.80526"><ele>-0</ele><time>2018-06-17T02:56:50Z</time></trkpt>
<trkpt lat="13.23332" lon="99.80530"><ele>0</ele><time>2018-06-17T02:56:52Z</time></trkpt>
<trkpt lat="13.23334" lon="99.80534"><ele>1</ele><time>2018-06-17T02:56:56Z</time></trkpt>
<trkpt lat="13.23336" lon="99.80538"><ele>1</ele><time>2018-06-17T02:57:08Z</time></trkpt>
<trkpt lat="13.23342" lon="99.80541"><ele>1</ele><time>2018-06-17T02:57:13Z</time></trkpt>
<trkpt lat="13.23347" lon="99.80542"><ele>0</ele><time>2018-06-17T02:57:16Z</time></trkpt>
<trkpt lat="13.23352" lon="99.80544"><ele>0</ele><time>2018-06-17T02:57:19Z</time></trkpt>
<trkpt lat="13.23358" lon="99.80545"><ele>1</ele><time>2018-06-17T02:57:30Z</time></trkpt>
<trkpt lat="13.23364" lon="99.80547"><ele>-0</ele><time>2018-06-17T02:57:33Z</time></trkpt>
<trkpt lat="13.23370" lon="99.80548"><ele>-0</ele><time>2018-06-17T02:57:35Z</time></trkpt>
<trkpt lat="13.23375" lon="99.80550"><ele>-1</ele><time>2018-06-17T02:57:37Z</time></trkpt>
<trkpt lat="13.23380" lon="99.80551"><ele>-1</ele><time>2018-06-17T02:57:39Z</time></trkpt>
<trkpt lat="13.23385" lon="99.80550"><ele>-1</ele><time>2018-06-17T02:57:41Z</time></trkpt>
<trkpt lat="13.23390" lon="99.80548"><ele>-1</ele><time>2018-06-17T02:57:43Z</time></trkpt>
<trkpt lat="13.23395" lon="99.80548"><ele>-0</ele><time>2018-06-17T02:57:45Z</time></trkpt>
<trkpt lat="13.23402" lon="99.80548"><ele>-1</ele><time>2018-06-17T02:57:48Z</time></trkpt>
<trkpt lat="13.23407" lon="99.80549"><ele>-1</ele><time>2018-06-17T02:57:50Z</time></trkpt>
<trkpt lat="13.23413" lon="99.80549"><ele>-1</ele><time>2018-06-17T02:57:52Z</time></trkpt>
<trkpt lat="13.23418" lon="99.80549"><ele>-1</ele><time>2018-06-17T02:57:54Z</time></trkpt>
<trkpt lat="13.23424" lon="99.80549"><ele>-1</ele><time>2018-06-17T02:57:56Z</time></trkpt>
<trkpt lat="13.23430" lon="99.80550"><ele>-0</ele><time>2018-06-17T02:57:58Z</time></trkpt>
<trkpt lat="13.23436" lon="99.80550"><ele>-0</ele><time>2018-06-17T02:58:00Z</time></trkpt>
<trkpt lat="13.23442" lon="99.80551"><ele>-0</ele><time>2018-06-17T02:58:02Z</time></trkpt>
<trkpt lat="13.23448" lon="99.80551"><ele>0</ele><time>2018-06-17T02:58:04Z</time></trkpt>
<trkpt lat="13.23454" lon="99.80552"><ele>0</ele><time>2018-06-17T02:58:06Z</time></trkpt>
<trkpt lat="13.23460" lon="99.80553"><ele>0</ele><time>2018-06-17T02:58:08Z</time></trkpt>
<trkpt lat="13.23466" lon="99.80554"><ele>0</ele><time>2018-06-17T02:58:10Z</time></trkpt>
<trkpt lat="13.23471" lon="99.80556"><ele>1</ele><time>2018-06-17T02:58:12Z</time></trkpt>
<trkpt lat="13.23477" lon="99.80557"><ele>1</ele><time>2018-06-17T02:58:14Z</time></trkpt>
<trkpt lat="13.23482" lon="99.80558"><ele>1</ele><time>2018-06-17T02:58:16Z</time></trkpt>
<trkpt lat="13.23488" lon="99.80558"><ele>1</ele><time>2018-06-17T02:58:18Z</time></trkpt>
<trkpt lat="13.23494" lon="99.80557"><ele>1</ele><time>2018-06-17T02:58:20Z</time></trkpt>
<trkpt lat="13.23499" lon="99.80557"><ele>1</ele><time>2018-06-17T02:58:22Z</time></trkpt>
<trkpt lat="13.23506" lon="99.80557"><ele>1</ele><time>2018-06-17T02:58:24Z</time></trkpt>
<trkpt lat="13.23512" lon="99.80558"><ele>1</ele><time>2018-06-17T02:58:26Z</time></trkpt>
<trkpt lat="13.23518" lon="99.80558"><ele>1</ele><time>2018-06-17T02:58:28Z</time></trkpt>
<trkpt lat="13.23525" lon="99.80558"><ele>1</ele><time>2018-06-17T02:58:30Z</time></trkpt>
<trkpt lat="13.23531" lon="99.80558"><ele>1</ele><time>2018-06-17T02:58:32Z</time></trkpt>
<trkpt lat="13.23537" lon="99.80559"><ele>1</ele><time>2018-06-17T02:58:34Z</time></trkpt>
<trkpt lat="13.23542" lon="99.80562"><ele>2</ele><time>2018-06-17T02:58:36Z</time></trkpt>
<trkpt lat="13.23548" lon="99.80564"><ele>2</ele><time>2018-06-17T02:58:38Z</time></trkpt>
<trkpt lat="13.23554" lon="99.80567"><ele>2</ele><time>2018-06-17T02:58:40Z</time></trkpt>
<trkpt lat="13.23560" lon="99.80567"><ele>2</ele><time>2018-06-17T02:58:42Z</time></trkpt>
<trkpt lat="13.23566" lon="99.80567"><ele>2</ele><time>2018-06-17T02:58:44Z</time></trkpt>
<trkpt lat="13.23571" lon="99.80567"><ele>2</ele><time>2018-06-17T02:58:46Z</time></trkpt>
<trkpt lat="13.23575" lon="99.80567"><ele>2</ele><time>2018-06-17T02:58:48Z</time></trkpt>
<trkpt lat="13.23582" lon="99.80569"><ele>3</ele><time>2018-06-17T02:58:51Z</time></trkpt>
<trkpt lat="13.23586" lon="99.80567"><ele>3</ele><time>2018-06-17T02:58:53Z</time></trkpt>
<trkpt lat="13.23591" lon="99.80565"><ele>3</ele><time>2018-06-17T02:58:55Z</time></trkpt>
<trkpt lat="13.23596" lon="99.80563"><ele>3</ele><time>2018-06-17T02:58:57Z</time></trkpt>
<trkpt lat="13.23602" lon="99.80560"><ele>3</ele><time>2018-06-17T02:58:59Z</time></trkpt>
<trkpt lat="13.23608" lon="99.80558"><ele>3</ele><time>2018-06-17T02:59:01Z</time></trkpt>
<trkpt lat="13.23614" lon="99.80557"><ele>3</ele><time>2018-06-17T02:59:03Z</time></trkpt>
<trkpt lat="13.23620" lon="99.80557"><ele>3</ele><time>2018-06-17T02:59:05Z</time></trkpt>
<trkpt lat="13.23626" lon="99.80559"><ele>3</ele><time>2018-06-17T02:59:07Z</time></trkpt>
<trkpt lat="13.23631" lon="99.80562"><ele>3</ele><time>2018-06-17T02:59:09Z</time></trkpt>
<trkpt lat="13.23637" lon="99.80564"><ele>3</ele><time>2018-06-17T02:59:11Z</time></trkpt>
<trkpt lat="13.23642" lon="99.80567"><ele>4</ele><time>2018-06-17T02:59:13Z</time></trkpt>
<trkpt lat="13.23647" lon="99.80569"><ele>3</ele><time>2018-06-17T02:59:15Z</time></trkpt>
<trkpt lat="13.23653" lon="99.80570"><ele>3</ele><time>2018-06-17T02:59:17Z</time></trkpt>
<trkpt lat="13.23659" lon="99.80571"><ele>4</ele><time>2018-06-17T02:59:19Z</time></trkpt>
<trkpt lat="13.23665" lon="99.80572"><ele>4</ele><time>2018-06-17T02:59:21Z</time></trkpt>
<trkpt lat="13.23671" lon="99.80573"><ele>4</ele><time>2018-06-17T02:59:23Z</time></trkpt>
<trkpt lat="13.23677" lon="99.80573"><ele>4</ele><time>2018-06-17T02:59:25Z</time></trkpt>
<trkpt lat="13.23683" lon="99.80575"><ele>4</ele><time>2018-06-17T02:59:27Z</time></trkpt>
<trkpt lat="13.23688" lon="99.80578"><ele>4</ele><time>2018-06-17T02:59:29Z</time></trkpt>
<trkpt lat="13.23694" lon="99.80582"><ele>4</ele><time>2018-06-17T02:59:31Z</time></trkpt>
<trkpt lat="13.23700" lon="99.80585"><ele>4</ele><time>2018-06-17T02:59:33Z</time></trkpt>
<trkpt lat="13.23706" lon="99.80589"><ele>4</ele><time>2018-06-17T02:59:35Z</time></trkpt>
<trkpt lat="13.23712" lon="99.80592"><ele>4</ele><time>2018-06-17T02:59:37Z</time></trkpt>
<trkpt lat="13.23719" lon="99.80594"><ele>4</ele><time>2018-06-17T02:59:39Z</time></trkpt>
<trkpt lat="13.23726" lon="99.80596"><ele>4</ele><time>2018-06-17T02:59:41Z</time></trkpt>
<trkpt lat="13.23733" lon="99.80598"><ele>4</ele><time>2018-06-17T02:59:43Z</time></trkpt>
<trkpt lat="13.23740" lon="99.80600"><ele>4</ele><time>2018-06-17T02:59:45Z</time></trkpt>
<trkpt lat="13.23746" lon="99.80602"><ele>4</ele><time>2018-06-17T02:59:47Z</time></trkpt>
<trkpt lat="13.23752" lon="99.80605"><ele>5</ele><time>2018-06-17T02:59:49Z</time></trkpt>
<trkpt lat="13.23757" lon="99.80607"><ele>5</ele><time>2018-06-17T02:59:51Z</time></trkpt>
<trkpt lat="13.23762" lon="99.80610"><ele>5</ele><time>2018-06-17T02:59:53Z</time></trkpt>
<trkpt lat="13.23767" lon="99.80613"><ele>4</ele><time>2018-06-17T02:59:55Z</time></trkpt>
<trkpt lat="13.23771" lon="99.80614"><ele>4</ele><time>2018-06-17T02:59:57Z</time></trkpt>
<trkpt lat="13.23777" lon="99.80616"><ele>4</ele><time>2018-06-17T02:59:59Z</time></trkpt>
<trkpt lat="13.23782" lon="99.80618"><ele>5</ele><time>2018-06-17T03:00:01Z</time></trkpt>
<trkpt lat="13.23787" lon="99.80621"><ele>5</ele><time>2018-06-17T03:00:03Z</time></trkpt>
<trkpt lat="13.23793" lon="99.80624"><ele>5</ele><time>2018-06-17T03:00:05Z</time></trkpt>
<trkpt lat="13.23799" lon="99.80626"><ele>4</ele><time>2018-06-17T03:00:07Z</time></trkpt>
<trkpt lat="13.23805" lon="99.80627"><ele>5</ele><time>2018-06-17T03:00:09Z</time></trkpt>
<trkpt lat="13.23810" lon="99.80630"><ele>5</ele><time>2018-06-17T03:00:11Z</time></trkpt>
<trkpt lat="13.23815" lon="99.80636"><ele>5</ele><time>2018-06-17T03:00:13Z</time></trkpt>
<trkpt lat="13.23820" lon="99.80641"><ele>5</ele><time>2018-06-17T03:00:15Z</time></trkpt>
<trkpt lat="13.23825" lon="99.80646"><ele>5</ele><time>2018-06-17T03:00:17Z</time></trkpt>
<trkpt lat="13.23828" lon="99.80652"><ele>4</ele><time>2018-06-17T03:00:19Z</time></trkpt>
<trkpt lat="13.23832" lon="99.80656"><ele>5</ele><time>2018-06-17T03:00:21Z</time></trkpt>
<trkpt lat="13.23837" lon="99.80660"><ele>4</ele><time>2018-06-17T03:00:23Z</time></trkpt>
<trkpt lat="13.23843" lon="99.80665"><ele>4</ele><time>2018-06-17T03:00:25Z</time></trkpt>
<trkpt lat="13.23849" lon="99.80666"><ele>5</ele><time>2018-06-17T03:00:27Z</time></trkpt>
<trkpt lat="13.23856" lon="99.80666"><ele>5</ele><time>2018-06-17T03:00:29Z</time></trkpt>
<trkpt lat="13.23863" lon="99.80665"><ele>5</ele><time>2018-06-17T03:00:31Z</time></trkpt>
<trkpt lat="13.23870" lon="99.80665"><ele>5</ele><time>2018-06-17T03:00:33Z</time></trkpt>
<trkpt lat="13.23877" lon="99.80666"><ele>4</ele><time>2018-06-17T03:00:35Z</time></trkpt>
<trkpt lat="13.23884" lon="99.80666"><ele>4</ele><time>2018-06-17T03:00:37Z</time></trkpt>
<trkpt lat="13.23891" lon="99.80663"><ele>5</ele><time>2018-06-17T03:00:39Z</time></trkpt>
<trkpt lat="13.23895" lon="99.80659"><ele>4</ele><time>2018-06-17T03:00:41Z</time></trkpt>
<trkpt lat="13.23897" lon="99.80652"><ele>5</ele><time>2018-06-17T03:00:43Z</time></trkpt>
<trkpt lat="13.23898" lon="99.80645"><ele>4</ele><time>2018-06-17T03:00:45Z</time></trkpt>
<trkpt lat="13.23898" lon="99.80637"><ele>4</ele><time>2018-06-17T03:00:47Z</time></trkpt>
<trkpt lat="13.23897" lon="99.80629"><ele>4</ele><time>2018-06-17T03:00:49Z</time></trkpt>
<trkpt lat="13.23897" lon="99.80622"><ele>4</ele><time>2018-06-17T03:00:51Z</time></trkpt>
<trkpt lat="13.23897" lon="99.80614"><ele>4</ele><time>2018-06-17T03:00:53Z</time></trkpt>
<trkpt lat="13.23897" lon="99.80607"><ele>4</ele><time>2018-06-17T03:00:55Z</time></trkpt>
<trkpt lat="13.23897" lon="99.80602"><ele>4</ele><time>2018-06-17T03:00:57Z</time></trkpt>
<trkpt lat="13.23901" lon="99.80599"><ele>4</ele><time>2018-06-17T03:01:07Z</time></trkpt>
<trkpt lat="13.23905" lon="99.80597"><ele>4</ele><time>2018-06-17T03:01:12Z</time></trkpt>
<trkpt lat="13.23909" lon="99.80594"><ele>4</ele><time>2018-06-17T03:01:16Z</time></trkpt>
<trkpt lat="13.23914" lon="99.80591"><ele>4</ele><time>2018-06-17T03:01:20Z</time></trkpt>
<trkpt lat="13.23916" lon="99.80587"><ele>2</ele><time>2018-06-17T03:01:27Z</time></trkpt>
<trkpt lat="13.23913" lon="99.80583"><ele>2</ele><time>2018-06-17T03:01:33Z</time></trkpt>
<trkpt lat="13.23911" lon="99.80578"><ele>2</ele><time>2018-06-17T03:01:38Z</time></trkpt>
<trkpt lat="13.23908" lon="99.80575"><ele>3</ele><time>2018-06-17T03:03:53Z</time></trkpt>
<trkpt lat="13.23903" lon="99.80575"><ele>-7</ele><time>2018-06-17T03:08:25Z</time></trkpt>
<trkpt lat="13.23906" lon="99.80569"><ele>-15</ele><time>2018-06-17T03:14:37Z</time></trkpt>
<trkpt lat="13.23907" lon="99.80562"><ele>-14</ele><time>2018-06-17T03:14:39Z</time></trkpt>
<trkpt lat="13.23908" lon="99.80555"><ele>-13</ele><time>2018-06-17T03:14:41Z</time></trkpt>
<trkpt lat="13.23909" lon="99.80548"><ele>-12</ele><time>2018-06-17T03:14:43Z</time></trkpt>
<trkpt lat="13.23909" lon="99.80541"><ele>-11</ele><time>2018-06-17T03:14:45Z</time></trkpt>
<trkpt lat="13.23910" lon="99.80533"><ele>-10</ele><time>2018-06-17T03:14:47Z</time></trkpt>
<trkpt lat="13.23910" lon="99.80525"><ele>-9</ele><time>2018-06-17T03:14:49Z</time></trkpt>
<trkpt lat="13.23910" lon="99.80517"><ele>-8</ele><time>2018-06-17T03:14:51Z</time></trkpt>
<trkpt lat="13.23910" lon="99.80509"><ele>-8</ele><time>2018-06-17T03:14:53Z</time></trkpt>
<trkpt lat="13.23910" lon="99.80501"><ele>-7</ele><time>2018-06-17T03:14:55Z</time></trkpt>
<trkpt lat="13.23910" lon="99.80492"><ele>-6</ele><time>2018-06-17T03:14:57Z</time></trkpt>
<trkpt lat="13.23911" lon="99.80484"><ele>-5</ele><time>2018-06-17T03:14:59Z</time></trkpt>
<trkpt lat="13.23911" lon="99.80475"><ele>-5</ele><time>2018-06-17T03:15:01Z</time></trkpt>
<trkpt lat="13.23911" lon="99.80466"><ele>-4</ele><time>2018-06-17T03:15:03Z</time></trkpt>
<trkpt lat="13.23911" lon="99.80458"><ele>-4</ele><time>2018-06-17T03:15:05Z</time></trkpt>
<trkpt lat="13.23911" lon="99.80449"><ele>-3</ele><time>2018-06-17T03:15:07Z</time></trkpt>
<trkpt lat="13.23911" lon="99.80440"><ele>-3</ele><time>2018-06-17T03:15:09Z</time></trkpt>
<trkpt lat="13.23911" lon="99.80431"><ele>-3</ele><time>2018-06-17T03:15:11Z</time></trkpt>
<trkpt lat="13.23911" lon="99.80422"><ele>-2</ele><time>2018-06-17T03:15:13Z</time></trkpt>
<trkpt lat="13.23911" lon="99.80413"><ele>-2</ele><time>2018-06-17T03:15:15Z</time></trkpt>
<trkpt lat="13.23911" lon="99.80409"><ele>-2</ele><time>2018-06-17T03:15:16Z</time></trkpt>
<trkpt lat="13.23911" lon="99.80399"><ele>-1</ele><time>2018-06-17T03:15:18Z</time></trkpt>
<trkpt lat="13.23911" lon="99.80391"><ele>-1</ele><time>2018-06-17T03:15:20Z</time></trkpt>
<trkpt lat="13.23911" lon="99.80382"><ele>-1</ele><time>2018-06-17T03:15:22Z</time></trkpt>
<trkpt lat="13.23911" lon="99.80373"><ele>-0</ele><time>2018-06-17T03:15:24Z</time></trkpt>
<trkpt lat="13.23911" lon="99.80364"><ele>0</ele><time>2018-06-17T03:15:26Z</time></trkpt>
<trkpt lat="13.23911" lon="99.80355"><ele>0</ele><time>2018-06-17T03:15:28Z</time></trkpt>
<trkpt lat="13.23910" lon="99.80350"><ele>1</ele><time>2018-06-17T03:15:29Z</time></trkpt>
<trkpt lat="13.23910" lon="99.80346"><ele>1</ele><time>2018-06-17T03:15:30Z</time></trkpt>
<trkpt lat="13.23910" lon="99.80341"><ele>1</ele><time>2018-06-17T03:15:31Z</time></trkpt>
<trkpt lat="13.23910" lon="99.80336"><ele>1</ele><time>2018-06-17T03:15:32Z</time></trkpt>
<trkpt lat="13.23910" lon="99.80327"><ele>1</ele><time>2018-06-17T03:15:34Z</time></trkpt>
<trkpt lat="13.23910" lon="99.80319"><ele>2</ele><time>2018-06-17T03:15:36Z</time></trkpt>
<trkpt lat="13.23909" lon="99.80311"><ele>2</ele><time>2018-06-17T03:15:38Z</time></trkpt>
<trkpt lat="13.23909" lon="99.80305"><ele>2</ele><time>2018-06-17T03:15:40Z</time></trkpt>
<trkpt lat="13.23910" lon="99.80298"><ele>2</ele><time>2018-06-17T03:15:42Z</time></trkpt>
<trkpt lat="13.23912" lon="99.80292"><ele>2</ele><time>2018-06-17T03:15:44Z</time></trkpt>
<trkpt lat="13.23913" lon="99.80285"><ele>2</ele><time>2018-06-17T03:15:46Z</time></trkpt>
<trkpt lat="13.23916" lon="99.80279"><ele>3</ele><time>2018-06-17T03:15:48Z</time></trkpt>
<trkpt lat="13.23922" lon="99.80275"><ele>3</ele><time>2018-06-17T03:15:50Z</time></trkpt>
<trkpt lat="13.23928" lon="99.80272"><ele>3</ele><time>2018-06-17T03:15:52Z</time></trkpt>
<trkpt lat="13.23935" lon="99.80271"><ele>3</ele><time>2018-06-17T03:15:54Z</time></trkpt>
<trkpt lat="13.23943" lon="99.80269"><ele>3</ele><time>2018-06-17T03:15:56Z</time></trkpt>
<trkpt lat="13.23952" lon="99.80267"><ele>3</ele><time>2018-06-17T03:15:58Z</time></trkpt>
<trkpt lat="13.23957" lon="99.80267"><ele>3</ele><time>2018-06-17T03:15:59Z</time></trkpt>
<trkpt lat="13.23961" lon="99.80267"><ele>3</ele><time>2018-06-17T03:16:00Z</time></trkpt>
<trkpt lat="13.23966" lon="99.80268"><ele>3</ele><time>2018-06-17T03:16:01Z</time></trkpt>
<trkpt lat="13.23971" lon="99.80268"><ele>3</ele><time>2018-06-17T03:16:02Z</time></trkpt>
<trkpt lat="13.23975" lon="99.80269"><ele>3</ele><time>2018-06-17T03:16:03Z</time></trkpt>
<trkpt lat="13.23984" lon="99.80268"><ele>3</ele><time>2018-06-17T03:16:05Z</time></trkpt>
<trkpt lat="13.23992" lon="99.80263"><ele>3</ele><time>2018-06-17T03:16:07Z</time></trkpt>
<trkpt lat="13.24000" lon="99.80260"><ele>3</ele><time>2018-06-17T03:16:09Z</time></trkpt>
<trkpt lat="13.24008" lon="99.80256"><ele>3</ele><time>2018-06-17T03:16:11Z</time></trkpt>
<trkpt lat="13.24016" lon="99.80255"><ele>3</ele><time>2018-06-17T03:16:13Z</time></trkpt>
<trkpt lat="13.24024" lon="99.80252"><ele>3</ele><time>2018-06-17T03:16:15Z</time></trkpt>
<trkpt lat="13.24032" lon="99.80249"><ele>4</ele><time>2018-06-17T03:16:17Z</time></trkpt>
<trkpt lat="13.24039" lon="99.80246"><ele>3</ele><time>2018-06-17T03:16:19Z</time></trkpt>
<trkpt lat="13.24046" lon="99.80243"><ele>4</ele><time>2018-06-17T03:16:21Z</time></trkpt>
<trkpt lat="13.24051" lon="99.80239"><ele>3</ele><time>2018-06-17T03:16:23Z</time></trkpt>
<trkpt lat="13.24054" lon="99.80234"><ele>4</ele><time>2018-06-17T03:16:25Z</time></trkpt>
<trkpt lat="13.24055" lon="99.80229"><ele>4</ele><time>2018-06-17T03:16:27Z</time></trkpt>
<trkpt lat="13.24056" lon="99.80224"><ele>4</ele><time>2018-06-17T03:16:30Z</time></trkpt>
<trkpt lat="13.24056" lon="99.80220"><ele>4</ele><time>2018-06-17T03:16:41Z</time></trkpt>
<trkpt lat="13.24053" lon="99.80215"><ele>4</ele><time>2018-06-17T03:17:00Z</time></trkpt>
<trkpt lat="13.24054" lon="99.80210"><ele>3</ele><time>2018-06-17T03:17:05Z</time></trkpt>
<trkpt lat="13.24055" lon="99.80205"><ele>3</ele><time>2018-06-17T03:17:09Z</time></trkpt>
<trkpt lat="13.24061" lon="99.80205"><ele>3</ele><time>2018-06-17T03:17:15Z</time></trkpt>
<trkpt lat="13.24068" lon="99.80204"><ele>2</ele><time>2018-06-17T03:17:18Z</time></trkpt>
<trkpt lat="13.24072" lon="99.80201"><ele>3</ele><time>2018-06-17T03:17:20Z</time></trkpt>
<trkpt lat="13.24074" lon="99.80197"><ele>3</ele><time>2018-06-17T03:17:22Z</time></trkpt>
<trkpt lat="13.24076" lon="99.80193"><ele>3</ele><time>2018-06-17T03:17:24Z</time></trkpt>
<trkpt lat="13.24079" lon="99.80188"><ele>2</ele><time>2018-06-17T03:17:26Z</time></trkpt>
<trkpt lat="13.24081" lon="99.80181"><ele>2</ele><time>2018-06-17T03:17:28Z</time></trkpt>
<trkpt lat="13.24083" lon="99.80177"><ele>2</ele><time>2018-06-17T03:17:30Z</time></trkpt>
<trkpt lat="13.24084" lon="99.80172"><ele>2</ele><time>2018-06-17T03:17:32Z</time></trkpt>
<trkpt lat="13.24083" lon="99.80166"><ele>2</ele><time>2018-06-17T03:17:35Z</time></trkpt>
<trkpt lat="13.24081" lon="99.80159"><ele>3</ele><time>2018-06-17T03:17:38Z</time></trkpt>
<trkpt lat="13.24080" lon="99.80152"><ele>2</ele><time>2018-06-17T03:17:41Z</time></trkpt>
<trkpt lat="13.24080" lon="99.80147"><ele>2</ele><time>2018-06-17T03:17:43Z</time></trkpt>
<trkpt lat="13.24082" lon="99.80141"><ele>2</ele><time>2018-06-17T03:17:46Z</time></trkpt>
<trkpt lat="13.24085" lon="99.80135"><ele>2</ele><time>2018-06-17T03:17:49Z</time></trkpt>
<trkpt lat="13.24089" lon="99.80131"><ele>2</ele><time>2018-06-17T03:17:52Z</time></trkpt>
<trkpt lat="13.24092" lon="99.80127"><ele>3</ele><time>2018-06-17T03:17:54Z</time></trkpt>
<trkpt lat="13.24096" lon="99.80123"><ele>2</ele><time>2018-06-17T03:17:57Z</time></trkpt>
<trkpt lat="13.24100" lon="99.80119"><ele>2</ele><time>2018-06-17T03:18:00Z</time></trkpt>
<trkpt lat="13.24103" lon="99.80114"><ele>2</ele><time>2018-06-17T03:18:03Z</time></trkpt>
<trkpt lat="13.24107" lon="99.80108"><ele>2</ele><time>2018-06-17T03:18:06Z</time></trkpt>
<trkpt lat="13.24110" lon="99.80104"><ele>3</ele><time>2018-06-17T03:18:09Z</time></trkpt>
<trkpt lat="13.24112" lon="99.80100"><ele>4</ele><time>2018-06-17T03:18:12Z</time></trkpt>
<trkpt lat="13.24111" lon="99.80095"><ele>5</ele><time>2018-06-17T03:18:22Z</time></trkpt>
<trkpt lat="13.24108" lon="99.80091"><ele>5</ele><time>2018-06-17T03:18:25Z</time></trkpt>
<trkpt lat="13.24105" lon="99.80087"><ele>5</ele><time>2018-06-17T03:18:27Z</time></trkpt>
<trkpt lat="13.24101" lon="99.80082"><ele>5</ele><time>2018-06-17T03:18:30Z</time></trkpt>
<trkpt lat="13.24099" lon="99.80078"><ele>5</ele><time>2018-06-17T03:18:33Z</time></trkpt>
<trkpt lat="13.24099" lon="99.80073"><ele>5</ele><time>2018-06-17T03:18:37Z</time></trkpt>
<trkpt lat="13.24100" lon="99.80068"><ele>6</ele><time>2018-06-17T03:18:41Z</time></trkpt>
<trkpt lat="13.24102" lon="99.80063"><ele>6</ele><time>2018-06-17T03:18:45Z</time></trkpt>
<trkpt lat="13.24103" lon="99.80057"><ele>6</ele><time>2018-06-17T03:18:49Z</time></trkpt>
<trkpt lat="13.24105" lon="99.80052"><ele>6</ele><time>2018-06-17T03:18:52Z</time></trkpt>
<trkpt lat="13.24106" lon="99.80046"><ele>6</ele><time>2018-06-17T03:18:56Z</time></trkpt>
<trkpt lat="13.24107" lon="99.80040"><ele>6</ele><time>2018-06-17T03:19:00Z</time></trkpt>
<trkpt lat="13.24111" lon="99.80036"><ele>6</ele><time>2018-06-17T03:19:03Z</time></trkpt>
<trkpt lat="13.24109" lon="99.80041"><ele>6</ele><time>2018-06-17T03:19:30Z</time></trkpt>
<trkpt lat="13.24105" lon="99.80045"><ele>5</ele><time>2018-06-17T03:19:34Z</time></trkpt>
<trkpt lat="13.24100" lon="99.80045"><ele>6</ele><time>2018-06-17T03:20:13Z</time></trkpt>
<trkpt lat="13.24096" lon="99.80042"><ele>6</ele><time>2018-06-17T03:20:17Z</time></trkpt>
<trkpt lat="13.24094" lon="99.80037"><ele>6</ele><time>2018-06-17T03:20:20Z</time></trkpt>
<trkpt lat="13.24091" lon="99.80033"><ele>6</ele><time>2018-06-17T03:20:24Z</time></trkpt>
<trkpt lat="13.24088" lon="99.80029"><ele>5</ele><time>2018-06-17T03:20:49Z</time></trkpt>
<trkpt lat="13.24084" lon="99.80027"><ele>6</ele><time>2018-06-17T03:20:54Z</time></trkpt>
<trkpt lat="13.24082" lon="99.80023"><ele>7</ele><time>2018-06-17T03:22:12Z</time></trkpt>
<trkpt lat="13.24080" lon="99.80018"><ele>7</ele><time>2018-06-17T03:22:36Z</time></trkpt>
<trkpt lat="13.24079" lon="99.80013"><ele>7</ele><time>2018-06-17T03:22:39Z</time></trkpt>
<trkpt lat="13.24076" lon="99.80009"><ele>8</ele><time>2018-06-17T03:22:56Z</time></trkpt>
<trkpt lat="13.24071" lon="99.80006"><ele>8</ele><time>2018-06-17T03:23:00Z</time></trkpt>
<trkpt lat="13.24069" lon="99.80002"><ele>8</ele><time>2018-06-17T03:23:05Z</time></trkpt>
<trkpt lat="13.24069" lon="99.79997"><ele>8</ele><time>2018-06-17T03:23:09Z</time></trkpt>
<trkpt lat="13.24067" lon="99.79992"><ele>8</ele><time>2018-06-17T03:23:12Z</time></trkpt>
<trkpt lat="13.24063" lon="99.79987"><ele>8</ele><time>2018-06-17T03:23:15Z</time></trkpt>
<trkpt lat="13.24061" lon="99.79982"><ele>8</ele><time>2018-06-17T03:23:18Z</time></trkpt>
<trkpt lat="13.24059" lon="99.79977"><ele>8</ele><time>2018-06-17T03:23:21Z</time></trkpt>
<trkpt lat="13.24060" lon="99.79971"><ele>7</ele><time>2018-06-17T03:23:24Z</time></trkpt>
<trkpt lat="13.24062" lon="99.79966"><ele>7</ele><time>2018-06-17T03:23:26Z</time></trkpt>
<trkpt lat="13.24065" lon="99.79962"><ele>6</ele><time>2018-06-17T03:23:28Z</time></trkpt>
<trkpt lat="13.24070" lon="99.79959"><ele>7</ele><time>2018-06-17T03:23:30Z</time></trkpt>
<trkpt lat="13.24076" lon="99.79959"><ele>7</ele><time>2018-06-17T03:23:32Z</time></trkpt>
<trkpt lat="13.24080" lon="99.79958"><ele>7</ele><time>2018-06-17T03:23:34Z</time></trkpt>
<trkpt lat="13.24084" lon="99.79953"><ele>8</ele><time>2018-06-17T03:23:37Z</time></trkpt>
<trkpt lat="13.24086" lon="99.79949"><ele>8</ele><time>2018-06-17T03:23:39Z</time></trkpt>
<trkpt lat="13.24090" lon="99.79945"><ele>8</ele><time>2018-06-17T03:23:41Z</time></trkpt>
<trkpt lat="13.24095" lon="99.79942"><ele>8</ele><time>2018-06-17T03:23:43Z</time></trkpt>
<trkpt lat="13.24099" lon="99.79940"><ele>7</ele><time>2018-06-17T03:23:45Z</time></trkpt>
<trkpt lat="13.24105" lon="99.79937"><ele>7</ele><time>2018-06-17T03:23:48Z</time></trkpt>
<trkpt lat="13.24109" lon="99.79935"><ele>7</ele><time>2018-06-17T03:23:50Z</time></trkpt>
<trkpt lat="13.24114" lon="99.79933"><ele>7</ele><time>2018-06-17T03:23:52Z</time></trkpt>
<trkpt lat="13.24118" lon="99.79932"><ele>7</ele><time>2018-06-17T03:23:54Z</time></trkpt>
<trkpt lat="13.24123" lon="99.79930"><ele>8</ele><time>2018-06-17T03:23:56Z</time></trkpt>
<trkpt lat="13.24127" lon="99.79927"><ele>8</ele><time>2018-06-17T03:23:58Z</time></trkpt>
<trkpt lat="13.24131" lon="99.79924"><ele>7</ele><time>2018-06-17T03:24:00Z</time></trkpt>
<trkpt lat="13.24136" lon="99.79923"><ele>8</ele><time>2018-06-17T03:24:02Z</time></trkpt>
<trkpt lat="13.24140" lon="99.79923"><ele>8</ele><time>2018-06-17T03:24:04Z</time></trkpt>
<trkpt lat="13.24145" lon="99.79923"><ele>8</ele><time>2018-06-17T03:24:06Z</time></trkpt>
<trkpt lat="13.24151" lon="99.79926"><ele>8</ele><time>2018-06-17T03:24:09Z</time></trkpt>
<trkpt lat="13.24156" lon="99.79927"><ele>8</ele><time>2018-06-17T03:24:12Z</time></trkpt>
<trkpt lat="13.24161" lon="99.79927"><ele>8</ele><time>2018-06-17T03:24:15Z</time></trkpt>
<trkpt lat="13.24167" lon="99.79928"><ele>8</ele><time>2018-06-17T03:24:18Z</time></trkpt>
<trkpt lat="13.24173" lon="99.79928"><ele>8</ele><time>2018-06-17T03:24:21Z</time></trkpt>
<trkpt lat="13.24178" lon="99.79926"><ele>9</ele><time>2018-06-17T03:24:24Z</time></trkpt>
<trkpt lat="13.24182" lon="99.79922"><ele>8</ele><time>2018-06-17T03:24:27Z</time></trkpt>
<trkpt lat="13.24187" lon="99.79917"><ele>8</ele><time>2018-06-17T03:24:30Z</time></trkpt>
<trkpt lat="13.24188" lon="99.79912"><ele>9</ele><time>2018-06-17T03:24:32Z</time></trkpt>
<trkpt lat="13.24190" lon="99.79907"><ele>9</ele><time>2018-06-17T03:24:34Z</time></trkpt>
<trkpt lat="13.24191" lon="99.79901"><ele>9</ele><time>2018-06-17T03:24:36Z</time></trkpt>
<trkpt lat="13.24193" lon="99.79896"><ele>9</ele><time>2018-06-17T03:24:38Z</time></trkpt>
<trkpt lat="13.24194" lon="99.79889"><ele>9</ele><time>2018-06-17T03:24:40Z</time></trkpt>
<trkpt lat="13.24196" lon="99.79883"><ele>8</ele><time>2018-06-17T03:24:42Z</time></trkpt>
<trkpt lat="13.24199" lon="99.79878"><ele>7</ele><time>2018-06-17T03:24:44Z</time></trkpt>
<trkpt lat="13.24203" lon="99.79875"><ele>6</ele><time>2018-06-17T03:24:46Z</time></trkpt>
<trkpt lat="13.24208" lon="99.79874"><ele>7</ele><time>2018-06-17T03:24:48Z</time></trkpt>
<trkpt lat="13.24213" lon="99.79875"><ele>8</ele><time>2018-06-17T03:24:50Z</time></trkpt>
<trkpt lat="13.24219" lon="99.79878"><ele>7</ele><time>2018-06-17T03:24:52Z</time></trkpt>
<trkpt lat="13.24224" lon="99.79882"><ele>7</ele><time>2018-06-17T03:24:54Z</time></trkpt>
<trkpt lat="13.24229" lon="99.79886"><ele>7</ele><time>2018-06-17T03:24:56Z</time></trkpt>
<trkpt lat="13.24234" lon="99.79889"><ele>7</ele><time>2018-06-17T03:24:58Z</time></trkpt>
<trkpt lat="13.24239" lon="99.79890"><ele>6</ele><time>2018-06-17T03:25:00Z</time></trkpt>
<trkpt lat="13.24244" lon="99.79890"><ele>6</ele><time>2018-06-17T03:25:02Z</time></trkpt>
<trkpt lat="13.24249" lon="99.79891"><ele>6</ele><time>2018-06-17T03:25:04Z</time></trkpt>
<trkpt lat="13.24254" lon="99.79892"><ele>6</ele><time>2018-06-17T03:25:06Z</time></trkpt>
<trkpt lat="13.24259" lon="99.79892"><ele>6</ele><time>2018-06-17T03:25:08Z</time></trkpt>
<trkpt lat="13.24264" lon="99.79891"><ele>7</ele><time>2018-06-17T03:25:10Z</time></trkpt>
<trkpt lat="13.24268" lon="99.79893"><ele>7</ele><time>2018-06-17T03:25:13Z</time></trkpt>
<trkpt lat="13.24273" lon="99.79895"><ele>7</ele><time>2018-06-17T03:25:16Z</time></trkpt>
<trkpt lat="13.24279" lon="99.79894"><ele>7</ele><time>2018-06-17T03:25:19Z</time></trkpt>
<trkpt lat="13.24284" lon="99.79892"><ele>6</ele><time>2018-06-17T03:25:21Z</time></trkpt>
<trkpt lat="13.24289" lon="99.79890"><ele>6</ele><time>2018-06-17T03:25:23Z</time></trkpt>
<trkpt lat="13.24297" lon="99.79889"><ele>5</ele><time>2018-06-17T03:25:25Z</time></trkpt>
<trkpt lat="13.24303" lon="99.79887"><ele>6</ele><time>2018-06-17T03:25:27Z</time></trkpt>
<trkpt lat="13.24307" lon="99.79885"><ele>6</ele><time>2018-06-17T03:25:29Z</time></trkpt>
<trkpt lat="13.24314" lon="99.79883"><ele>7</ele><time>2018-06-17T03:25:32Z</time></trkpt>
<trkpt lat="13.24320" lon="99.79883"><ele>7</ele><time>2018-06-17T03:25:34Z</time></trkpt>
<trkpt lat="13.24325" lon="99.79884"><ele>7</ele><time>2018-06-17T03:25:36Z</time></trkpt>
<trkpt lat="13.24331" lon="99.79885"><ele>6</ele><time>2018-06-17T03:25:38Z</time></trkpt>
<trkpt lat="13.24337" lon="99.79887"><ele>6</ele><time>2018-06-17T03:25:40Z</time></trkpt>
<trkpt lat="13.24343" lon="99.79888"><ele>6</ele><time>2018-06-17T03:25:42Z</time></trkpt>
<trkpt lat="13.24348" lon="99.79886"><ele>6</ele><time>2018-06-17T03:25:45Z</time></trkpt>
<trkpt lat="13.24353" lon="99.79882"><ele>7</ele><time>2018-06-17T03:25:49Z</time></trkpt>
<trkpt lat="13.24358" lon="99.79880"><ele>7</ele><time>2018-06-17T03:25:52Z</time></trkpt>
<trkpt lat="13.24365" lon="99.79879"><ele>7</ele><time>2018-06-17T03:25:55Z</time></trkpt>
<trkpt lat="13.24370" lon="99.79881"><ele>7</ele><time>2018-06-17T03:25:57Z</time></trkpt>
<trkpt lat="13.24375" lon="99.79883"><ele>7</ele><time>2018-06-17T03:25:59Z</time></trkpt>
<trkpt lat="13.24383" lon="99.79885"><ele>7</ele><time>2018-06-17T03:26:01Z</time></trkpt>
<trkpt lat="13.24390" lon="99.79885"><ele>8</ele><time>2018-06-17T03:26:03Z</time></trkpt>
<trkpt lat="13.24397" lon="99.79884"><ele>8</ele><time>2018-06-17T03:26:05Z</time></trkpt>
<trkpt lat="13.24404" lon="99.79883"><ele>8</ele><time>2018-06-17T03:26:07Z</time></trkpt>
<trkpt lat="13.24412" lon="99.79882"><ele>8</ele><time>2018-06-17T03:26:09Z</time></trkpt>
<trkpt lat="13.24420" lon="99.79881"><ele>8</ele><time>2018-06-17T03:26:11Z</time></trkpt>
<trkpt lat="13.24427" lon="99.79881"><ele>8</ele><time>2018-06-17T03:26:13Z</time></trkpt>
<trkpt lat="13.24433" lon="99.79882"><ele>7</ele><time>2018-06-17T03:26:15Z</time></trkpt>
<trkpt lat="13.24437" lon="99.79881"><ele>9</ele><time>2018-06-17T03:26:52Z</time></trkpt>
<trkpt lat="13.24442" lon="99.79878"><ele>9</ele><time>2018-06-17T03:26:56Z</time></trkpt>
<trkpt lat="13.24443" lon="99.79872"><ele>9</ele><time>2018-06-17T03:26:59Z</time></trkpt>
<trkpt lat="13.24443" lon="99.79867"><ele>9</ele><time>2018-06-17T03:27:01Z</time></trkpt>
<trkpt lat="13.24443" lon="99.79862"><ele>9</ele><time>2018-06-17T03:27:03Z</time></trkpt>
<trkpt lat="13.24443" lon="99.79857"><ele>9</ele><time>2018-06-17T03:27:05Z</time></trkpt>
<trkpt lat="13.24445" lon="99.79851"><ele>9</ele><time>2018-06-17T03:27:08Z</time></trkpt>
<trkpt lat="13.24446" lon="99.79846"><ele>9</ele><time>2018-06-17T03:27:10Z</time></trkpt>
<trkpt lat="13.24447" lon="99.79841"><ele>9</ele><time>2018-06-17T03:27:13Z</time></trkpt>
<trkpt lat="13.24448" lon="99.79836"><ele>9</ele><time>2018-06-17T03:27:20Z</time></trkpt>
<trkpt lat="13.24448" lon="99.79831"><ele>10</ele><time>2018-06-17T03:27:26Z</time></trkpt>
<trkpt lat="13.24449" lon="99.79826"><ele>10</ele><time>2018-06-17T03:27:30Z</time></trkpt>
<trkpt lat="13.24449" lon="99.79821"><ele>10</ele><time>2018-06-17T03:27:33Z</time></trkpt>
<trkpt lat="13.24450" lon="99.79816"><ele>10</ele><time>2018-06-17T03:27:36Z</time></trkpt>
<trkpt lat="13.24451" lon="99.79810"><ele>10</ele><time>2018-06-17T03:27:39Z</time></trkpt>
<trkpt lat="13.24451" lon="99.79805"><ele>10</ele><time>2018-06-17T03:27:41Z</time></trkpt>
<trkpt lat="13.24451" lon="99.79798"><ele>10</ele><time>2018-06-17T03:27:44Z</time></trkpt>
<trkpt lat="13.24451" lon="99.79794"><ele>9</ele><time>2018-06-17T03:27:46Z</time></trkpt>
<trkpt lat="13.24452" lon="99.79789"><ele>9</ele><time>2018-06-17T03:27:48Z</time></trkpt>
<trkpt lat="13.24452" lon="99.79783"><ele>9</ele><time>2018-06-17T03:27:50Z</time></trkpt>
<trkpt lat="13.24451" lon="99.79776"><ele>9</ele><time>2018-06-17T03:27:52Z</time></trkpt>
<trkpt lat="13.24451" lon="99.79768"><ele>9</ele><time>2018-06-17T03:27:54Z</time></trkpt>
<trkpt lat="13.24452" lon="99.79761"><ele>8</ele><time>2018-06-17T03:27:56Z</time></trkpt>
<trkpt lat="13.24453" lon="99.79756"><ele>8</ele><time>2018-06-17T03:27:58Z</time></trkpt>
<trkpt lat="13.24458" lon="99.79753"><ele>7</ele><time>2018-06-17T03:28:00Z</time></trkpt>
<trkpt lat="13.24462" lon="99.79755"><ele>8</ele><time>2018-06-17T03:28:02Z</time></trkpt>
<trkpt lat="13.24465" lon="99.79760"><ele>9</ele><time>2018-06-17T03:28:04Z</time></trkpt>
<trkpt lat="13.24467" lon="99.79766"><ele>9</ele><time>2018-06-17T03:28:06Z</time></trkpt>
<trkpt lat="13.24468" lon="99.79771"><ele>9</ele><time>2018-06-17T03:28:08Z</time></trkpt>
<trkpt lat="13.24468" lon="99.79776"><ele>8</ele><time>2018-06-17T03:28:10Z</time></trkpt>
<trkpt lat="13.24471" lon="99.79780"><ele>8</ele><time>2018-06-17T03:28:14Z</time></trkpt>
<trkpt lat="13.24475" lon="99.79777"><ele>7</ele><time>2018-06-17T03:28:18Z</time></trkpt>
<trkpt lat="13.24482" lon="99.79775"><ele>6</ele><time>2018-06-17T03:28:21Z</time></trkpt>
<trkpt lat="13.24487" lon="99.79775"><ele>6</ele><time>2018-06-17T03:28:23Z</time></trkpt>
<trkpt lat="13.24492" lon="99.79777"><ele>6</ele><time>2018-06-17T03:28:25Z</time></trkpt>
<trkpt lat="13.24497" lon="99.79779"><ele>7</ele><time>2018-06-17T03:28:27Z</time></trkpt>
<trkpt lat="13.24502" lon="99.79781"><ele>6</ele><time>2018-06-17T03:28:29Z</time></trkpt>
<trkpt lat="13.24507" lon="99.79783"><ele>6</ele><time>2018-06-17T03:28:31Z</time></trkpt>
<trkpt lat="13.24513" lon="99.79787"><ele>6</ele><time>2018-06-17T03:28:33Z</time></trkpt>
<trkpt lat="13.24519" lon="99.79790"><ele>6</ele><time>2018-06-17T03:28:35Z</time></trkpt>
<trkpt lat="13.24523" lon="99.79796"><ele>6</ele><time>2018-06-17T03:28:37Z</time></trkpt>
<trkpt lat="13.24525" lon="99.79802"><ele>6</ele><time>2018-06-17T03:28:39Z</time></trkpt>
<trkpt lat="13.24523" lon="99.79809"><ele>6</ele><time>2018-06-17T03:28:41Z</time></trkpt>
<trkpt lat="13.24524" lon="99.79815"><ele>5</ele><time>2018-06-17T03:28:43Z</time></trkpt>
<trkpt lat="13.24526" lon="99.79821"><ele>6</ele><time>2018-06-17T03:28:45Z</time></trkpt>
<trkpt lat="13.24530" lon="99.79827"><ele>6</ele><time>2018-06-17T03:28:47Z</time></trkpt>
<trkpt lat="13.24534" lon="99.79834"><ele>6</ele><time>2018-06-17T03:28:49Z</time></trkpt>
<trkpt lat="13.24536" lon="99.79838"><ele>5</ele><time>2018-06-17T03:28:50Z</time></trkpt>
<trkpt lat="13.24541" lon="99.79846"><ele>5</ele><time>2018-06-17T03:28:52Z</time></trkpt>
<trkpt lat="13.24543" lon="99.79852"><ele>4</ele><time>2018-06-17T03:28:54Z</time></trkpt>
<trkpt lat="13.24544" lon="99.79858"><ele>4</ele><time>2018-06-17T03:28:56Z</time></trkpt>
<trkpt lat="13.24547" lon="99.79864"><ele>5</ele><time>2018-06-17T03:28:58Z</time></trkpt>
<trkpt lat="13.24552" lon="99.79870"><ele>6</ele><time>2018-06-17T03:29:00Z</time></trkpt>
<trkpt lat="13.24557" lon="99.79875"><ele>5</ele><time>2018-06-17T03:29:02Z</time></trkpt>
<trkpt lat="13.24561" lon="99.79879"><ele>4</ele><time>2018-06-17T03:29:04Z</time></trkpt>
<trkpt lat="13.24565" lon="99.79884"><ele>4</ele><time>2018-06-17T03:29:07Z</time></trkpt>
<trkpt lat="13.24567" lon="99.79889"><ele>5</ele><time>2018-06-17T03:29:10Z</time></trkpt>
<trkpt lat="13.24570" lon="99.79894"><ele>5</ele><time>2018-06-17T03:29:13Z</time></trkpt>
<trkpt lat="13.24572" lon="99.79899"><ele>5</ele><time>2018-06-17T03:29:16Z</time></trkpt>
<trkpt lat="13.24575" lon="99.79904"><ele>6</ele><time>2018-06-17T03:29:19Z</time></trkpt>
<trkpt lat="13.24579" lon="99.79906"><ele>6</ele><time>2018-06-17T03:29:23Z</time></trkpt>
<trkpt lat="13.24584" lon="99.79907"><ele>6</ele><time>2018-06-17T03:29:32Z</time></trkpt>
<trkpt lat="13.24589" lon="99.79911"><ele>6</ele><time>2018-06-17T03:29:35Z</time></trkpt>
<trkpt lat="13.24593" lon="99.79915"><ele>6</ele><time>2018-06-17T03:29:37Z</time></trkpt>
<trkpt lat="13.24597" lon="99.79920"><ele>7</ele><time>2018-06-17T03:29:39Z</time></trkpt>
<trkpt lat="13.24602" lon="99.79925"><ele>6</ele><time>2018-06-17T03:29:41Z</time></trkpt>
<trkpt lat="13.24608" lon="99.79930"><ele>7</ele><time>2018-06-17T03:29:43Z</time></trkpt>
<trkpt lat="13.24613" lon="99.79935"><ele>7</ele><time>2018-06-17T03:29:45Z</time></trkpt>
<trkpt lat="13.24618" lon="99.79939"><ele>6</ele><time>2018-06-17T03:29:47Z</time></trkpt>
<trkpt lat="13.24623" lon="99.79942"><ele>7</ele><time>2018-06-17T03:29:49Z</time></trkpt>
<trkpt lat="13.24623" lon="99.79948"><ele>7</ele><time>2018-06-17T03:29:52Z</time></trkpt>
<trkpt lat="13.24621" lon="99.79954"><ele>7</ele><time>2018-06-17T03:29:54Z</time></trkpt>
<trkpt lat="13.24621" lon="99.79962"><ele>7</ele><time>2018-06-17T03:29:56Z</time></trkpt>
<trkpt lat="13.24619" lon="99.79970"><ele>7</ele><time>2018-06-17T03:29:58Z</time></trkpt>
<trkpt lat="13.24617" lon="99.79977"><ele>7</ele><time>2018-06-17T03:30:00Z</time></trkpt>
<trkpt lat="13.24612" lon="99.79984"><ele>7</ele><time>2018-06-17T03:30:02Z</time></trkpt>
<trkpt lat="13.24607" lon="99.79988"><ele>7</ele><time>2018-06-17T03:30:04Z</time></trkpt>
<trkpt lat="13.24602" lon="99.79990"><ele>7</ele><time>2018-06-17T03:30:06Z</time></trkpt>
<trkpt lat="13.24596" lon="99.79992"><ele>7</ele><time>2018-06-17T03:30:08Z</time></trkpt>
<trkpt lat="13.24589" lon="99.79992"><ele>7</ele><time>2018-06-17T03:30:10Z</time></trkpt>
<trkpt lat="13.24583" lon="99.79992"><ele>7</ele><time>2018-06-17T03:30:12Z</time></trkpt>
<trkpt lat="13.24579" lon="99.79995"><ele>7</ele><time>2018-06-17T03:30:14Z</time></trkpt>
<trkpt lat="13.24576" lon="99.80001"><ele>7</ele><time>2018-06-17T03:30:16Z</time></trkpt>
<trkpt lat="13.24572" lon="99.80006"><ele>6</ele><time>2018-06-17T03:30:18Z</time></trkpt>
<trkpt lat="13.24569" lon="99.80010"><ele>6</ele><time>2018-06-17T03:30:20Z</time></trkpt>
<trkpt lat="13.24565" lon="99.80014"><ele>6</ele><time>2018-06-17T03:30:22Z</time></trkpt>
<trkpt lat="13.24561" lon="99.80018"><ele>6</ele><time>2018-06-17T03:30:24Z</time></trkpt>
<trkpt lat="13.24555" lon="99.80023"><ele>5</ele><time>2018-06-17T03:30:26Z</time></trkpt>
<trkpt lat="13.24551" lon="99.80029"><ele>4</ele><time>2018-06-17T03:30:28Z</time></trkpt>
<trkpt lat="13.24550" lon="99.80036"><ele>5</ele><time>2018-06-17T03:30:30Z</time></trkpt>
<trkpt lat="13.24550" lon="99.80043"><ele>5</ele><time>2018-06-17T03:30:32Z</time></trkpt>
<trkpt lat="13.24550" lon="99.80048"><ele>5</ele><time>2018-06-17T03:30:34Z</time></trkpt>
<trkpt lat="13.24550" lon="99.80055"><ele>5</ele><time>2018-06-17T03:30:36Z</time></trkpt>
<trkpt lat="13.24548" lon="99.80064"><ele>6</ele><time>2018-06-17T03:30:38Z</time></trkpt>
<trkpt lat="13.24546" lon="99.80072"><ele>6</ele><time>2018-06-17T03:30:40Z</time></trkpt>
<trkpt lat="13.24542" lon="99.80077"><ele>5</ele><time>2018-06-17T03:30:42Z</time></trkpt>
<trkpt lat="13.24537" lon="99.80081"><ele>5</ele><time>2018-06-17T03:30:44Z</time></trkpt>
<trkpt lat="13.24532" lon="99.80082"><ele>6</ele><time>2018-06-17T03:30:46Z</time></trkpt>
<trkpt lat="13.24527" lon="99.80083"><ele>6</ele><time>2018-06-17T03:30:48Z</time></trkpt>
<trkpt lat="13.24522" lon="99.80085"><ele>6</ele><time>2018-06-17T03:30:50Z</time></trkpt>
<trkpt lat="13.24519" lon="99.80090"><ele>7</ele><time>2018-06-17T03:30:52Z</time></trkpt>
<trkpt lat="13.24519" lon="99.80095"><ele>7</ele><time>2018-06-17T03:30:54Z</time></trkpt>
<trkpt lat="13.24519" lon="99.80102"><ele>7</ele><time>2018-06-17T03:30:56Z</time></trkpt>
<trkpt lat="13.24516" lon="99.80105"><ele>7</ele><time>2018-06-17T03:31:02Z</time></trkpt>
<trkpt lat="13.24517" lon="99.80111"><ele>8</ele><time>2018-06-17T03:31:31Z</time></trkpt>
<trkpt lat="13.24520" lon="99.80116"><ele>8</ele><time>2018-06-17T03:31:34Z</time></trkpt>
<trkpt lat="13.24520" lon="99.80122"><ele>7</ele><time>2018-06-17T03:31:37Z</time></trkpt>
<trkpt lat="13.24519" lon="99.80127"><ele>7</ele><time>2018-06-17T03:31:39Z</time></trkpt>
<trkpt lat="13.24517" lon="99.80134"><ele>7</ele><time>2018-06-17T03:31:41Z</time></trkpt>
<trkpt lat="13.24513" lon="99.80142"><ele>6</ele><time>2018-06-17T03:31:43Z</time></trkpt>
<trkpt lat="13.24509" lon="99.80150"><ele>6</ele><time>2018-06-17T03:31:45Z</time></trkpt>
<trkpt lat="13.24505" lon="99.80158"><ele>6</ele><time>2018-06-17T03:31:47Z</time></trkpt>
<trkpt lat="13.24503" lon="99.80162"><ele>6</ele><time>2018-06-17T03:31:48Z</time></trkpt>
<trkpt lat="13.24501" lon="99.80166"><ele>6</ele><time>2018-06-17T03:31:49Z</time></trkpt>
<trkpt lat="13.24499" lon="99.80171"><ele>5</ele><time>2018-06-17T03:31:50Z</time></trkpt>
<trkpt lat="13.24497" lon="99.80175"><ele>6</ele><time>2018-06-17T03:31:51Z</time></trkpt>
<trkpt lat="13.24494" lon="99.80182"><ele>5</ele><time>2018-06-17T03:31:53Z</time></trkpt>
<trkpt lat="13.24488" lon="99.80186"><ele>5</ele><time>2018-06-17T03:31:55Z</time></trkpt>
<trkpt lat="13.24482" lon="99.80190"><ele>5</ele><time>2018-06-17T03:31:57Z</time></trkpt>
<trkpt lat="13.24478" lon="99.80197"><ele>5</ele><time>2018-06-17T03:31:59Z</time></trkpt>
<trkpt lat="13.24476" lon="99.80201"><ele>5</ele><time>2018-06-17T03:32:00Z</time></trkpt>
<trkpt lat="13.24474" lon="99.80206"><ele>5</ele><time>2018-06-17T03:32:01Z</time></trkpt>
<trkpt lat="13.24473" lon="99.80214"><ele>5</ele><time>2018-06-17T03:32:03Z</time></trkpt>
<trkpt lat="13.24472" lon="99.80223"><ele>5</ele><time>2018-06-17T03:32:05Z</time></trkpt>
<trkpt lat="13.24472" lon="99.80230"><ele>5</ele><time>2018-06-17T03:32:07Z</time></trkpt>
<trkpt lat="13.24472" lon="99.80238"><ele>5</ele><time>2018-06-17T03:32:09Z</time></trkpt>
<trkpt lat="13.24472" lon="99.80246"><ele>5</ele><time>2018-06-17T03:32:11Z</time></trkpt>
<trkpt lat="13.24471" lon="99.80254"><ele>6</ele><time>2018-06-17T03:32:13Z</time></trkpt>
<trkpt lat="13.24469" lon="99.80262"><ele>6</ele><time>2018-06-17T03:32:15Z</time></trkpt>
<trkpt lat="13.24467" lon="99.80269"><ele>6</ele><time>2018-06-17T03:32:17Z</time></trkpt>
<trkpt lat="13.24464" lon="99.80277"><ele>6</ele><time>2018-06-17T03:32:19Z</time></trkpt>
<trkpt lat="13.24462" lon="99.80284"><ele>6</ele><time>2018-06-17T03:32:21Z</time></trkpt>
<trkpt lat="13.24459" lon="99.80292"><ele>6</ele><time>2018-06-17T03:32:23Z</time></trkpt>
<trkpt lat="13.24456" lon="99.80300"><ele>6</ele><time>2018-06-17T03:32:25Z</time></trkpt>
<trkpt lat="13.24455" lon="99.80305"><ele>6</ele><time>2018-06-17T03:32:26Z</time></trkpt>
<trkpt lat="13.24453" lon="99.80309"><ele>7</ele><time>2018-06-17T03:32:27Z</time></trkpt>
<trkpt lat="13.24451" lon="99.80314"><ele>6</ele><time>2018-06-17T03:32:28Z</time></trkpt>
<trkpt lat="13.24449" lon="99.80318"><ele>6</ele><time>2018-06-17T03:32:29Z</time></trkpt>
<trkpt lat="13.24447" lon="99.80323"><ele>6</ele><time>2018-06-17T03:32:30Z</time></trkpt>
<trkpt lat="13.24445" lon="99.80327"><ele>6</ele><time>2018-06-17T03:32:31Z</time></trkpt>
<trkpt lat="13.24442" lon="99.80331"><ele>6</ele><time>2018-06-17T03:32:32Z</time></trkpt>
<trkpt lat="13.24440" lon="99.80336"><ele>6</ele><time>2018-06-17T03:32:33Z</time></trkpt>
<trkpt lat="13.24438" lon="99.80340"><ele>6</ele><time>2018-06-17T03:32:34Z</time></trkpt>
<trkpt lat="13.24436" lon="99.80347"><ele>6</ele><time>2018-06-17T03:32:36Z</time></trkpt>
<trkpt lat="13.24438" lon="99.80352"><ele>6</ele><time>2018-06-17T03:32:38Z</time></trkpt>
<trkpt lat="13.24438" lon="99.80359"><ele>6</ele><time>2018-06-17T03:32:40Z</time></trkpt>
<trkpt lat="13.24438" lon="99.80366"><ele>5</ele><time>2018-06-17T03:32:42Z</time></trkpt>
<trkpt lat="13.24441" lon="99.80372"><ele>5</ele><time>2018-06-17T03:32:44Z</time></trkpt>
<trkpt lat="13.24446" lon="99.80376"><ele>5</ele><time>2018-06-17T03:32:46Z</time></trkpt>
<trkpt lat="13.24453" lon="99.80380"><ele>5</ele><time>2018-06-17T03:32:48Z</time></trkpt>
<trkpt lat="13.24459" lon="99.80382"><ele>4</ele><time>2018-06-17T03:32:50Z</time></trkpt>
<trkpt lat="13.24466" lon="99.80380"><ele>5</ele><time>2018-06-17T03:32:52Z</time></trkpt>
<trkpt lat="13.24472" lon="99.80377"><ele>4</ele><time>2018-06-17T03:32:54Z</time></trkpt>
<trkpt lat="13.24479" lon="99.80374"><ele>5</ele><time>2018-06-17T03:32:56Z</time></trkpt>
<trkpt lat="13.24486" lon="99.80371"><ele>5</ele><time>2018-06-17T03:32:58Z</time></trkpt>
<trkpt lat="13.24494" lon="99.80368"><ele>5</ele><time>2018-06-17T03:33:00Z</time></trkpt>
<trkpt lat="13.24502" lon="99.80363"><ele>5</ele><time>2018-06-17T03:33:02Z</time></trkpt>
<trkpt lat="13.24509" lon="99.80359"><ele>4</ele><time>2018-06-17T03:33:04Z</time></trkpt>
<trkpt lat="13.24517" lon="99.80356"><ele>4</ele><time>2018-06-17T03:33:06Z</time></trkpt>
<trkpt lat="13.24525" lon="99.80353"><ele>4</ele><time>2018-06-17T03:33:08Z</time></trkpt>
<trkpt lat="13.24530" lon="99.80352"><ele>4</ele><time>2018-06-17T03:33:09Z</time></trkpt>
<trkpt lat="13.24538" lon="99.80351"><ele>5</ele><time>2018-06-17T03:33:11Z</time></trkpt>
<trkpt lat="13.24546" lon="99.80351"><ele>5</ele><time>2018-06-17T03:33:13Z</time></trkpt>
<trkpt lat="13.24555" lon="99.80353"><ele>5</ele><time>2018-06-17T03:33:15Z</time></trkpt>
<trkpt lat="13.24562" lon="99.80355"><ele>5</ele><time>2018-06-17T03:33:17Z</time></trkpt>
<trkpt lat="13.24568" lon="99.80357"><ele>5</ele><time>2018-06-17T03:33:19Z</time></trkpt>
<trkpt lat="13.24576" lon="99.80358"><ele>5</ele><time>2018-06-17T03:33:21Z</time></trkpt>
<trkpt lat="13.24585" lon="99.80357"><ele>5</ele><time>2018-06-17T03:33:23Z</time></trkpt>
<trkpt lat="13.24593" lon="99.80355"><ele>5</ele><time>2018-06-17T03:33:25Z</time></trkpt>
<trkpt lat="13.24600" lon="99.80354"><ele>5</ele><time>2018-06-17T03:33:27Z</time></trkpt>
<trkpt lat="13.24608" lon="99.80353"><ele>5</ele><time>2018-06-17T03:33:29Z</time></trkpt>
<trkpt lat="13.24617" lon="99.80351"><ele>5</ele><time>2018-06-17T03:33:31Z</time></trkpt>
<trkpt lat="13.24625" lon="99.80350"><ele>5</ele><time>2018-06-17T03:33:33Z</time></trkpt>
<trkpt lat="13.24634" lon="99.80351"><ele>4</ele><time>2018-06-17T03:33:35Z</time></trkpt>
<trkpt lat="13.24641" lon="99.80352"><ele>4</ele><time>2018-06-17T03:33:37Z</time></trkpt>
<trkpt lat="13.24645" lon="99.80348"><ele>5</ele><time>2018-06-17T03:33:40Z</time></trkpt>
<trkpt lat="13.24644" lon="99.80343"><ele>5</ele><time>2018-06-17T03:33:42Z</time></trkpt>
<trkpt lat="13.24643" lon="99.80337"><ele>4</ele><time>2018-06-17T03:33:44Z</time></trkpt>
<trkpt lat="13.24642" lon="99.80331"><ele>5</ele><time>2018-06-17T03:33:46Z</time></trkpt>
<trkpt lat="13.24640" lon="99.80325"><ele>4</ele><time>2018-06-17T03:33:48Z</time></trkpt>
<trkpt lat="13.24638" lon="99.80320"><ele>4</ele><time>2018-06-17T03:33:50Z</time></trkpt>
<trkpt lat="13.24637" lon="99.80315"><ele>4</ele><time>2018-06-17T03:33:52Z</time></trkpt>
<trkpt lat="13.24637" lon="99.80309"><ele>3</ele><time>2018-06-17T03:33:54Z</time></trkpt>
<trkpt lat="13.24640" lon="99.80305"><ele>4</ele><time>2018-06-17T03:33:57Z</time></trkpt>
<trkpt lat="13.24641" lon="99.80300"><ele>7</ele><time>2018-06-17T03:34:59Z</time></trkpt>
<trkpt lat="13.24646" lon="99.80298"><ele>7</ele><time>2018-06-17T03:36:18Z</time></trkpt>
<trkpt lat="13.24652" lon="99.80297"><ele>7</ele><time>2018-06-17T03:36:21Z</time></trkpt>
<trkpt lat="13.24657" lon="99.80297"><ele>8</ele><time>2018-06-17T03:36:23Z</time></trkpt>
<trkpt lat="13.24662" lon="99.80296"><ele>7</ele><time>2018-06-17T03:36:25Z</time></trkpt>
<trkpt lat="13.24668" lon="99.80296"><ele>7</ele><time>2018-06-17T03:36:27Z</time></trkpt>
<trkpt lat="13.24673" lon="99.80295"><ele>7</ele><time>2018-06-17T03:36:29Z</time></trkpt>
<trkpt lat="13.24678" lon="99.80295"><ele>6</ele><time>2018-06-17T03:36:31Z</time></trkpt>
<trkpt lat="13.24683" lon="99.80296"><ele>5</ele><time>2018-06-17T03:36:37Z</time></trkpt>
<trkpt lat="13.24689" lon="99.80296"><ele>4</ele><time>2018-06-17T03:36:45Z</time></trkpt>
<trkpt lat="13.24695" lon="99.80297"><ele>3</ele><time>2018-06-17T03:36:48Z</time></trkpt>
<trkpt lat="13.24700" lon="99.80299"><ele>3</ele><time>2018-06-17T03:36:51Z</time></trkpt>
<trkpt lat="13.24705" lon="99.80299"><ele>3</ele><time>2018-06-17T03:36:55Z</time></trkpt>
<trkpt lat="13.24710" lon="99.80297"><ele>3</ele><time>2018-06-17T03:36:58Z</time></trkpt>
<trkpt lat="13.24717" lon="99.80295"><ele>3</ele><time>2018-06-17T03:37:01Z</time></trkpt>
<trkpt lat="13.24722" lon="99.80294"><ele>3</ele><time>2018-06-17T03:37:03Z</time></trkpt>
<trkpt lat="13.24726" lon="99.80293"><ele>3</ele><time>2018-06-17T03:37:05Z</time></trkpt>
<trkpt lat="13.24732" lon="99.80291"><ele>3</ele><time>2018-06-17T03:37:08Z</time></trkpt>
<trkpt lat="13.24736" lon="99.80289"><ele>4</ele><time>2018-06-17T03:37:33Z</time></trkpt>
<trkpt lat="13.24741" lon="99.80287"><ele>4</ele><time>2018-06-17T03:37:37Z</time></trkpt>
<trkpt lat="13.24745" lon="99.80285"><ele>5</ele><time>2018-06-17T03:37:40Z</time></trkpt>
<trkpt lat="13.24751" lon="99.80285"><ele>4</ele><time>2018-06-17T03:37:43Z</time></trkpt>
<trkpt lat="13.24757" lon="99.80287"><ele>4</ele><time>2018-06-17T03:37:46Z</time></trkpt>
<trkpt lat="13.24763" lon="99.80287"><ele>4</ele><time>2018-06-17T03:37:49Z</time></trkpt>
<trkpt lat="13.24768" lon="99.80285"><ele>4</ele><time>2018-06-17T03:37:52Z</time></trkpt>
<trkpt lat="13.24772" lon="99.80282"><ele>5</ele><time>2018-06-17T03:37:56Z</time></trkpt>
<trkpt lat="13.24776" lon="99.80279"><ele>5</ele><time>2018-06-17T03:37:59Z</time></trkpt>
<trkpt lat="13.24779" lon="99.80274"><ele>5</ele><time>2018-06-17T03:38:02Z</time></trkpt>
<trkpt lat="13.24784" lon="99.80271"><ele>5</ele><time>2018-06-17T03:38:04Z</time></trkpt>
<trkpt lat="13.24789" lon="99.80268"><ele>5</ele><time>2018-06-17T03:38:06Z</time></trkpt>
<trkpt lat="13.24794" lon="99.80265"><ele>5</ele><time>2018-06-17T03:38:08Z</time></trkpt>
<trkpt lat="13.24799" lon="99.80263"><ele>5</ele><time>2018-06-17T03:38:10Z</time></trkpt>
<trkpt lat="13.24803" lon="99.80260"><ele>5</ele><time>2018-06-17T03:38:12Z</time></trkpt>
<trkpt lat="13.24807" lon="99.80255"><ele>6</ele><time>2018-06-17T03:38:14Z</time></trkpt>
<trkpt lat="13.24810" lon="99.80251"><ele>6</ele><time>2018-06-17T03:38:16Z</time></trkpt>
<trkpt lat="13.24811" lon="99.80246"><ele>6</ele><time>2018-06-17T03:38:19Z</time></trkpt>
<trkpt lat="13.24810" lon="99.80241"><ele>5</ele><time>2018-06-17T03:38:22Z</time></trkpt>
<trkpt lat="13.24810" lon="99.80235"><ele>5</ele><time>2018-06-17T03:38:25Z</time></trkpt>
<trkpt lat="13.24809" lon="99.80230"><ele>5</ele><time>2018-06-17T03:38:28Z</time></trkpt>
<trkpt lat="13.24812" lon="99.80224"><ele>5</ele><time>2018-06-17T03:38:31Z</time></trkpt>
<trkpt lat="13.24816" lon="99.80220"><ele>5</ele><time>2018-06-17T03:38:33Z</time></trkpt>
<trkpt lat="13.24820" lon="99.80217"><ele>6</ele><time>2018-06-17T03:38:35Z</time></trkpt>
<trkpt lat="13.24824" lon="99.80214"><ele>6</ele><time>2018-06-17T03:38:37Z</time></trkpt>
<trkpt lat="13.24828" lon="99.80208"><ele>6</ele><time>2018-06-17T03:38:40Z</time></trkpt>
<trkpt lat="13.24831" lon="99.80203"><ele>6</ele><time>2018-06-17T03:38:42Z</time></trkpt>
<trkpt lat="13.24833" lon="99.80198"><ele>6</ele><time>2018-06-17T03:38:44Z</time></trkpt>
<trkpt lat="13.24836" lon="99.80194"><ele>6</ele><time>2018-06-17T03:38:46Z</time></trkpt>
<trkpt lat="13.24839" lon="99.80190"><ele>6</ele><time>2018-06-17T03:38:48Z</time></trkpt>
<trkpt lat="13.24842" lon="99.80185"><ele>7</ele><time>2018-06-17T03:38:50Z</time></trkpt>
<trkpt lat="13.24845" lon="99.80181"><ele>7</ele><time>2018-06-17T03:38:52Z</time></trkpt>
<trkpt lat="13.24849" lon="99.80178"><ele>7</ele><time>2018-06-17T03:38:54Z</time></trkpt>
<trkpt lat="13.24854" lon="99.80174"><ele>7</ele><time>2018-06-17T03:38:56Z</time></trkpt>
<trkpt lat="13.24858" lon="99.80171"><ele>7</ele><time>2018-06-17T03:38:58Z</time></trkpt>
<trkpt lat="13.24864" lon="99.80167"><ele>7</ele><time>2018-06-17T03:39:01Z</time></trkpt>
<trkpt lat="13.24869" lon="99.80165"><ele>7</ele><time>2018-06-17T03:39:03Z</time></trkpt>
<trkpt lat="13.24873" lon="99.80166"><ele>7</ele><time>2018-06-17T03:39:05Z</time></trkpt>
<trkpt lat="13.24878" lon="99.80168"><ele>8</ele><time>2018-06-17T03:39:07Z</time></trkpt>
<trkpt lat="13.24883" lon="99.80170"><ele>7</ele><time>2018-06-17T03:39:09Z</time></trkpt>
<trkpt lat="13.24888" lon="99.80173"><ele>8</ele><time>2018-06-17T03:39:11Z</time></trkpt>
<trkpt lat="13.24894" lon="99.80176"><ele>8</ele><time>2018-06-17T03:39:13Z</time></trkpt>
<trkpt lat="13.24900" lon="99.80177"><ele>8</ele><time>2018-06-17T03:39:15Z</time></trkpt>
<trkpt lat="13.24905" lon="99.80180"><ele>7</ele><time>2018-06-17T03:39:17Z</time></trkpt>
<trkpt lat="13.24910" lon="99.80183"><ele>6</ele><time>2018-06-17T03:39:19Z</time></trkpt>
<trkpt lat="13.24916" lon="99.80184"><ele>7</ele><time>2018-06-17T03:39:21Z</time></trkpt>
<trkpt lat="13.24922" lon="99.80187"><ele>7</ele><time>2018-06-17T03:39:23Z</time></trkpt>
<trkpt lat="13.24929" lon="99.80191"><ele>6</ele><time>2018-06-17T03:39:25Z</time></trkpt>
<trkpt lat="13.24935" lon="99.80194"><ele>6</ele><time>2018-06-17T03:39:27Z</time></trkpt>
<trkpt lat="13.24941" lon="99.80195"><ele>6</ele><time>2018-06-17T03:39:29Z</time></trkpt>
<trkpt lat="13.24946" lon="99.80197"><ele>7</ele><time>2018-06-17T03:39:31Z</time></trkpt>
<trkpt lat="13.24950" lon="99.80198"><ele>7</ele><time>2018-06-17T03:39:35Z</time></trkpt>
<trkpt lat="13.24954" lon="99.80200"><ele>7</ele><time>2018-06-17T03:39:47Z</time></trkpt>
<trkpt lat="13.24960" lon="99.80200"><ele>7</ele><time>2018-06-17T03:39:50Z</time></trkpt>
<trkpt lat="13.24965" lon="99.80199"><ele>6</ele><time>2018-06-17T03:39:52Z</time></trkpt>
<trkpt lat="13.24968" lon="99.80196"><ele>7</ele><time>2018-06-17T03:39:54Z</time></trkpt>
<trkpt lat="13.24970" lon="99.80191"><ele>7</ele><time>2018-06-17T03:39:56Z</time></trkpt>
<trkpt lat="13.24970" lon="99.80184"><ele>8</ele><time>2018-06-17T03:39:59Z</time></trkpt>
<trkpt lat="13.24970" lon="99.80179"><ele>8</ele><time>2018-06-17T03:40:01Z</time></trkpt>
<trkpt lat="13.24970" lon="99.80174"><ele>8</ele><time>2018-06-17T03:40:03Z</time></trkpt>
<trkpt lat="13.24970" lon="99.80169"><ele>8</ele><time>2018-06-17T03:40:05Z</time></trkpt>
<trkpt lat="13.24971" lon="99.80163"><ele>8</ele><time>2018-06-17T03:40:07Z</time></trkpt>
<trkpt lat="13.24972" lon="99.80157"><ele>8</ele><time>2018-06-17T03:40:09Z</time></trkpt>
<trkpt lat="13.24973" lon="99.80152"><ele>8</ele><time>2018-06-17T03:40:11Z</time></trkpt>
<trkpt lat="13.24974" lon="99.80146"><ele>9</ele><time>2018-06-17T03:40:13Z</time></trkpt>
<trkpt lat="13.24974" lon="99.80141"><ele>9</ele><time>2018-06-17T03:40:15Z</time></trkpt>
<trkpt lat="13.24975" lon="99.80135"><ele>9</ele><time>2018-06-17T03:40:18Z</time></trkpt>
<trkpt lat="13.24974" lon="99.80130"><ele>10</ele><time>2018-06-17T03:40:21Z</time></trkpt>
<trkpt lat="13.24975" lon="99.80124"><ele>10</ele><time>2018-06-17T03:40:24Z</time></trkpt>
<trkpt lat="13.24975" lon="99.80117"><ele>10</ele><time>2018-06-17T03:40:27Z</time></trkpt>
<trkpt lat="13.24977" lon="99.80113"><ele>10</ele><time>2018-06-17T03:40:29Z</time></trkpt>
<trkpt lat="13.24978" lon="99.80106"><ele>10</ele><time>2018-06-17T03:40:32Z</time></trkpt>
<trkpt lat="13.24979" lon="99.80101"><ele>10</ele><time>2018-06-17T03:40:34Z</time></trkpt>
<trkpt lat="13.24980" lon="99.80096"><ele>10</ele><time>2018-06-17T03:40:36Z</time></trkpt>
<trkpt lat="13.24982" lon="99.80091"><ele>10</ele><time>2018-06-17T03:40:38Z</time></trkpt>
<trkpt lat="13.24984" lon="99.80086"><ele>10</ele><time>2018-06-17T03:40:41Z</time></trkpt>
<trkpt lat="13.24987" lon="99.80081"><ele>10</ele><time>2018-06-17T03:40:45Z</time></trkpt>
<trkpt lat="13.24990" lon="99.80077"><ele>11</ele><time>2018-06-17T03:40:52Z</time></trkpt>
<trkpt lat="13.24994" lon="99.80074"><ele>11</ele><time>2018-06-17T03:42:32Z</time></trkpt>
<trkpt lat="13.24999" lon="99.80072"><ele>11</ele><time>2018-06-17T03:42:35Z</time></trkpt>
<trkpt lat="13.25006" lon="99.80071"><ele>11</ele><time>2018-06-17T03:42:38Z</time></trkpt>
<trkpt lat="13.25010" lon="99.80072"><ele>10</ele><time>2018-06-17T03:42:40Z</time></trkpt>
<trkpt lat="13.25015" lon="99.80074"><ele>11</ele><time>2018-06-17T03:42:42Z</time></trkpt>
<trkpt lat="13.25021" lon="99.80077"><ele>10</ele><time>2018-06-17T03:42:44Z</time></trkpt>
<trkpt lat="13.25026" lon="99.80078"><ele>11</ele><time>2018-06-17T03:42:46Z</time></trkpt>
<trkpt lat="13.25031" lon="99.80080"><ele>11</ele><time>2018-06-17T03:42:48Z</time></trkpt>
<trkpt lat="13.25036" lon="99.80082"><ele>10</ele><time>2018-06-17T03:42:51Z</time></trkpt>
<trkpt lat="13.25040" lon="99.80083"><ele>13</ele><time>2018-06-17T03:44:02Z</time></trkpt>
<trkpt lat="13.25045" lon="99.80084"><ele>13</ele><time>2018-06-17T03:44:06Z</time></trkpt>
<trkpt lat="13.25050" lon="99.80083"><ele>13</ele><time>2018-06-17T03:44:10Z</time></trkpt>
<trkpt lat="13.25054" lon="99.80084"><ele>12</ele><time>2018-06-17T03:44:28Z</time></trkpt>
<trkpt lat="13.25059" lon="99.80087"><ele>11</ele><time>2018-06-17T03:44:32Z</time></trkpt>
<trkpt lat="13.25065" lon="99.80087"><ele>11</ele><time>2018-06-17T03:44:36Z</time></trkpt>
<trkpt lat="13.25070" lon="99.80088"><ele>10</ele><time>2018-06-17T03:44:40Z</time></trkpt>
<trkpt lat="13.25075" lon="99.80090"><ele>10</ele><time>2018-06-17T03:44:44Z</time></trkpt>
<trkpt lat="13.25080" lon="99.80092"><ele>10</ele><time>2018-06-17T03:44:47Z</time></trkpt>
<trkpt lat="13.25082" lon="99.80096"><ele>10</ele><time>2018-06-17T03:44:50Z</time></trkpt>
<trkpt lat="13.25081" lon="99.80103"><ele>10</ele><time>2018-06-17T03:44:53Z</time></trkpt>
<trkpt lat="13.25083" lon="99.80108"><ele>10</ele><time>2018-06-17T03:44:56Z</time></trkpt>
<trkpt lat="13.25087" lon="99.80110"><ele>9</ele><time>2018-06-17T03:44:59Z</time></trkpt>
<trkpt lat="13.25093" lon="99.80110"><ele>10</ele><time>2018-06-17T03:45:02Z</time></trkpt>
<trkpt lat="13.25098" lon="99.80110"><ele>10</ele><time>2018-06-17T03:45:05Z</time></trkpt>
<trkpt lat="13.25103" lon="99.80109"><ele>11</ele><time>2018-06-17T03:45:07Z</time></trkpt>
<trkpt lat="13.25109" lon="99.80108"><ele>11</ele><time>2018-06-17T03:45:09Z</time></trkpt>
<trkpt lat="13.25115" lon="99.80107"><ele>11</ele><time>2018-06-17T03:45:11Z</time></trkpt>
<trkpt lat="13.25120" lon="99.80106"><ele>10</ele><time>2018-06-17T03:45:13Z</time></trkpt>
<trkpt lat="13.25125" lon="99.80110"><ele>10</ele><time>2018-06-17T03:45:16Z</time></trkpt>
<trkpt lat="13.25127" lon="99.80115"><ele>10</ele><time>2018-06-17T03:45:18Z</time></trkpt>
<trkpt lat="13.25128" lon="99.80121"><ele>10</ele><time>2018-06-17T03:45:20Z</time></trkpt>
<trkpt lat="13.25130" lon="99.80126"><ele>10</ele><time>2018-06-17T03:45:22Z</time></trkpt>
<trkpt lat="13.25131" lon="99.80132"><ele>9</ele><time>2018-06-17T03:45:24Z</time></trkpt>
<trkpt lat="13.25131" lon="99.80137"><ele>9</ele><time>2018-06-17T03:45:26Z</time></trkpt>
<trkpt lat="13.25130" lon="99.80143"><ele>9</ele><time>2018-06-17T03:45:28Z</time></trkpt>
<trkpt lat="13.25130" lon="99.80148"><ele>9</ele><time>2018-06-17T03:45:30Z</time></trkpt>
<trkpt lat="13.25130" lon="99.80153"><ele>9</ele><time>2018-06-17T03:45:32Z</time></trkpt>
<trkpt lat="13.25131" lon="99.80159"><ele>9</ele><time>2018-06-17T03:45:35Z</time></trkpt>
<trkpt lat="13.25137" lon="99.80159"><ele>7</ele><time>2018-06-17T03:45:39Z</time></trkpt>
<trkpt lat="13.25141" lon="99.80157"><ele>7</ele><time>2018-06-17T03:45:41Z</time></trkpt>
<trkpt lat="13.25147" lon="99.80156"><ele>7</ele><time>2018-06-17T03:45:43Z</time></trkpt>
<trkpt lat="13.25152" lon="99.80154"><ele>7</ele><time>2018-06-17T03:45:45Z</time></trkpt>
<trkpt lat="13.25157" lon="99.80153"><ele>8</ele><time>2018-06-17T03:45:47Z</time></trkpt>
<trkpt lat="13.25163" lon="99.80152"><ele>8</ele><time>2018-06-17T03:45:49Z</time></trkpt>
<trkpt lat="13.25167" lon="99.80152"><ele>9</ele><time>2018-06-17T03:45:52Z</time></trkpt>
<trkpt lat="13.25165" lon="99.80158"><ele>8</ele><time>2018-06-17T03:45:55Z</time></trkpt>
<trkpt lat="13.25162" lon="99.80164"><ele>8</ele><time>2018-06-17T03:45:57Z</time></trkpt>
<trkpt lat="13.25159" lon="99.80172"><ele>8</ele><time>2018-06-17T03:45:59Z</time></trkpt>
<trkpt lat="13.25156" lon="99.80180"><ele>9</ele><time>2018-06-17T03:46:01Z</time></trkpt>
<trkpt lat="13.25156" lon="99.80186"><ele>8</ele><time>2018-06-17T03:46:03Z</time></trkpt>
<trkpt lat="13.25160" lon="99.80188"><ele>8</ele><time>2018-06-17T03:46:05Z</time></trkpt>
<trkpt lat="13.25165" lon="99.80187"><ele>8</ele><time>2018-06-17T03:46:07Z</time></trkpt>
<trkpt lat="13.25170" lon="99.80184"><ele>9</ele><time>2018-06-17T03:46:09Z</time></trkpt>
<trkpt lat="13.25177" lon="99.80181"><ele>9</ele><time>2018-06-17T03:46:11Z</time></trkpt>
<trkpt lat="13.25182" lon="99.80178"><ele>9</ele><time>2018-06-17T03:46:13Z</time></trkpt>
<trkpt lat="13.25187" lon="99.80176"><ele>9</ele><time>2018-06-17T03:46:15Z</time></trkpt>
<trkpt lat="13.25192" lon="99.80174"><ele>9</ele><time>2018-06-17T03:46:17Z</time></trkpt>
<trkpt lat="13.25198" lon="99.80172"><ele>9</ele><time>2018-06-17T03:46:20Z</time></trkpt>
<trkpt lat="13.25202" lon="99.80170"><ele>10</ele><time>2018-06-17T03:46:22Z</time></trkpt>
<trkpt lat="13.25208" lon="99.80167"><ele>10</ele><time>2018-06-17T03:46:25Z</time></trkpt>
<trkpt lat="13.25214" lon="99.80165"><ele>10</ele><time>2018-06-17T03:46:28Z</time></trkpt>
<trkpt lat="13.25220" lon="99.80162"><ele>10</ele><time>2018-06-17T03:46:31Z</time></trkpt>
<trkpt lat="13.25226" lon="99.80159"><ele>10</ele><time>2018-06-17T03:46:34Z</time></trkpt>
<trkpt lat="13.25232" lon="99.80157"><ele>10</ele><time>2018-06-17T03:46:37Z</time></trkpt>
<trkpt lat="13.25238" lon="99.80155"><ele>10</ele><time>2018-06-17T03:46:40Z</time></trkpt>
<trkpt lat="13.25244" lon="99.80152"><ele>10</ele><time>2018-06-17T03:46:43Z</time></trkpt>
<trkpt lat="13.25250" lon="99.80150"><ele>11</ele><time>2018-06-17T03:46:46Z</time></trkpt>
<trkpt lat="13.25255" lon="99.80148"><ele>11</ele><time>2018-06-17T03:46:49Z</time></trkpt>
<trkpt lat="13.25261" lon="99.80147"><ele>10</ele><time>2018-06-17T03:46:52Z</time></trkpt>
<trkpt lat="13.25264" lon="99.80150"><ele>10</ele><time>2018-06-17T03:46:56Z</time></trkpt>
<trkpt lat="13.25270" lon="99.80153"><ele>10</ele><time>2018-06-17T03:46:59Z</time></trkpt>
<trkpt lat="13.25274" lon="99.80156"><ele>11</ele><time>2018-06-17T03:47:02Z</time></trkpt>
<trkpt lat="13.25280" lon="99.80159"><ele>11</ele><time>2018-06-17T03:47:05Z</time></trkpt>
<trkpt lat="13.25283" lon="99.80162"><ele>11</ele><time>2018-06-17T03:47:07Z</time></trkpt>
<trkpt lat="13.25287" lon="99.80165"><ele>11</ele><time>2018-06-17T03:47:09Z</time></trkpt>
<trkpt lat="13.25291" lon="99.80168"><ele>12</ele><time>2018-06-17T03:47:11Z</time></trkpt>
<trkpt lat="13.25294" lon="99.80171"><ele>12</ele><time>2018-06-17T03:47:13Z</time></trkpt>
<trkpt lat="13.25298" lon="99.80174"><ele>12</ele><time>2018-06-17T03:47:15Z</time></trkpt>
<trkpt lat="13.25304" lon="99.80178"><ele>12</ele><time>2018-06-17T03:47:18Z</time></trkpt>
<trkpt lat="13.25309" lon="99.80182"><ele>13</ele><time>2018-06-17T03:47:21Z</time></trkpt>
<trkpt lat="13.25315" lon="99.80186"><ele>13</ele><time>2018-06-17T03:47:24Z</time></trkpt>
<trkpt lat="13.25320" lon="99.80189"><ele>14</ele><time>2018-06-17T03:47:27Z</time></trkpt>
<trkpt lat="13.25326" lon="99.80192"><ele>13</ele><time>2018-06-17T03:47:30Z</time></trkpt>
<trkpt lat="13.25330" lon="99.80195"><ele>13</ele><time>2018-06-17T03:47:32Z</time></trkpt>
<trkpt lat="13.25334" lon="99.80197"><ele>13</ele><time>2018-06-17T03:47:34Z</time></trkpt>
<trkpt lat="13.25339" lon="99.80199"><ele>13</ele><time>2018-06-17T03:47:36Z</time></trkpt>
<trkpt lat="13.25342" lon="99.80201"><ele>13</ele><time>2018-06-17T03:47:38Z</time></trkpt>
<trkpt lat="13.25348" lon="99.80205"><ele>13</ele><time>2018-06-17T03:47:41Z</time></trkpt>
<trkpt lat="13.25353" lon="99.80209"><ele>14</ele><time>2018-06-17T03:47:44Z</time></trkpt>
<trkpt lat="13.25357" lon="99.80213"><ele>14</ele><time>2018-06-17T03:47:47Z</time></trkpt>
<trkpt lat="13.25362" lon="99.80218"><ele>14</ele><time>2018-06-17T03:47:50Z</time></trkpt>
<trkpt lat="13.25366" lon="99.80221"><ele>14</ele><time>2018-06-17T03:47:52Z</time></trkpt>
<trkpt lat="13.25370" lon="99.80224"><ele>14</ele><time>2018-06-17T03:47:54Z</time></trkpt>
<trkpt lat="13.25373" lon="99.80228"><ele>14</ele><time>2018-06-17T03:47:56Z</time></trkpt>
<trkpt lat="13.25378" lon="99.80230"><ele>14</ele><time>2018-06-17T03:47:58Z</time></trkpt>
<trkpt lat="13.25383" lon="99.80234"><ele>14</ele><time>2018-06-17T03:48:01Z</time></trkpt>
<trkpt lat="13.25388" lon="99.80236"><ele>14</ele><time>2018-06-17T03:48:03Z</time></trkpt>
<trkpt lat="13.25394" lon="99.80238"><ele>14</ele><time>2018-06-17T03:48:06Z</time></trkpt>
<trkpt lat="13.25400" lon="99.80241"><ele>14</ele><time>2018-06-17T03:48:09Z</time></trkpt>
<trkpt lat="13.25404" lon="99.80242"><ele>14</ele><time>2018-06-17T03:48:11Z</time></trkpt>
<trkpt lat="13.25410" lon="99.80245"><ele>14</ele><time>2018-06-17T03:48:14Z</time></trkpt>
<trkpt lat="13.25413" lon="99.80250"><ele>15</ele><time>2018-06-17T03:48:18Z</time></trkpt>
<trkpt lat="13.25415" lon="99.80256"><ele>16</ele><time>2018-06-17T03:48:22Z</time></trkpt>
<trkpt lat="13.25415" lon="99.80261"><ele>16</ele><time>2018-06-17T03:48:25Z</time></trkpt>
<trkpt lat="13.25415" lon="99.80266"><ele>15</ele><time>2018-06-17T03:48:27Z</time></trkpt>
<trkpt lat="13.25415" lon="99.80272"><ele>15</ele><time>2018-06-17T03:48:29Z</time></trkpt>
<trkpt lat="13.25416" lon="99.80277"><ele>15</ele><time>2018-06-17T03:48:31Z</time></trkpt>
<trkpt lat="13.25416" lon="99.80283"><ele>15</ele><time>2018-06-17T03:48:33Z</time></trkpt>
<trkpt lat="13.25415" lon="99.80288"><ele>16</ele><time>2018-06-17T03:48:35Z</time></trkpt>
<trkpt lat="13.25415" lon="99.80295"><ele>15</ele><time>2018-06-17T03:48:38Z</time></trkpt>
<trkpt lat="13.25414" lon="99.80299"><ele>16</ele><time>2018-06-17T03:49:02Z</time></trkpt>
<trkpt lat="13.25415" lon="99.80305"><ele>16</ele><time>2018-06-17T03:49:06Z</time></trkpt>
<trkpt lat="13.25415" lon="99.80310"><ele>16</ele><time>2018-06-17T03:49:08Z</time></trkpt>
<trkpt lat="13.25414" lon="99.80316"><ele>16</ele><time>2018-06-17T03:49:10Z</time></trkpt>
<trkpt lat="13.25414" lon="99.80323"><ele>16</ele><time>2018-06-17T03:49:12Z</time></trkpt>
<trkpt lat="13.25414" lon="99.80331"><ele>17</ele><time>2018-06-17T03:49:14Z</time></trkpt>
<trkpt lat="13.25412" lon="99.80340"><ele>16</ele><time>2018-06-17T03:49:16Z</time></trkpt>
<trkpt lat="13.25411" lon="99.80348"><ele>16</ele><time>2018-06-17T03:49:18Z</time></trkpt>
<trkpt lat="13.25411" lon="99.80356"><ele>16</ele><time>2018-06-17T03:49:20Z</time></trkpt>
<trkpt lat="13.25411" lon="99.80363"><ele>15</ele><time>2018-06-17T03:49:22Z</time></trkpt>
<trkpt lat="13.25412" lon="99.80370"><ele>15</ele><time>2018-06-17T03:49:24Z</time></trkpt>
<trkpt lat="13.25413" lon="99.80376"><ele>16</ele><time>2018-06-17T03:49:26Z</time></trkpt>
<trkpt lat="13.25414" lon="99.80383"><ele>15</ele><time>2018-06-17T03:49:28Z</time></trkpt>
<trkpt lat="13.25416" lon="99.80391"><ele>15</ele><time>2018-06-17T03:49:30Z</time></trkpt>
<trkpt lat="13.25417" lon="99.80399"><ele>15</ele><time>2018-06-17T03:49:32Z</time></trkpt>
<trkpt lat="13.25418" lon="99.80408"><ele>16</ele><time>2018-06-17T03:49:34Z</time></trkpt>
<trkpt lat="13.25417" lon="99.80418"><ele>16</ele><time>2018-06-17T03:49:36Z</time></trkpt>
<trkpt lat="13.25417" lon="99.80423"><ele>16</ele><time>2018-06-17T03:49:37Z</time></trkpt>
<trkpt lat="13.25416" lon="99.80428"><ele>16</ele><time>2018-06-17T03:49:38Z</time></trkpt>
<trkpt lat="13.25415" lon="99.80433"><ele>17</ele><time>2018-06-17T03:49:39Z</time></trkpt>
<trkpt lat="13.25414" lon="99.80439"><ele>16</ele><time>2018-06-17T03:49:40Z</time></trkpt>
<trkpt lat="13.25413" lon="99.80444"><ele>17</ele><time>2018-06-17T03:49:41Z</time></trkpt>
<trkpt lat="13.25411" lon="99.80449"><ele>17</ele><time>2018-06-17T03:49:42Z</time></trkpt>
<trkpt lat="13.25410" lon="99.80454"><ele>17</ele><time>2018-06-17T03:49:43Z</time></trkpt>
<trkpt lat="13.25409" lon="99.80460"><ele>17</ele><time>2018-06-17T03:49:44Z</time></trkpt>
<trkpt lat="13.25410" lon="99.80465"><ele>16</ele><time>2018-06-17T03:49:45Z</time></trkpt>
<trkpt lat="13.25413" lon="99.80469"><ele>16</ele><time>2018-06-17T03:49:46Z</time></trkpt>
<trkpt lat="13.25417" lon="99.80472"><ele>16</ele><time>2018-06-17T03:49:47Z</time></trkpt>
<trkpt lat="13.25422" lon="99.80475"><ele>15</ele><time>2018-06-17T03:49:48Z</time></trkpt>
<trkpt lat="13.25427" lon="99.80477"><ele>16</ele><time>2018-06-17T03:49:49Z</time></trkpt>
<trkpt lat="13.25433" lon="99.80479"><ele>16</ele><time>2018-06-17T03:49:50Z</time></trkpt>
<trkpt lat="13.25439" lon="99.80482"><ele>16</ele><time>2018-06-17T03:49:51Z</time></trkpt>
<trkpt lat="13.25445" lon="99.80484"><ele>16</ele><time>2018-06-17T03:49:52Z</time></trkpt>
<trkpt lat="13.25451" lon="99.80486"><ele>16</ele><time>2018-06-17T03:49:53Z</time></trkpt>
<trkpt lat="13.25457" lon="99.80488"><ele>15</ele><time>2018-06-17T03:49:54Z</time></trkpt>
<trkpt lat="13.25463" lon="99.80491"><ele>15</ele><time>2018-06-17T03:49:55Z</time></trkpt>
<trkpt lat="13.25469" lon="99.80493"><ele>15</ele><time>2018-06-17T03:49:56Z</time></trkpt>
<trkpt lat="13.25475" lon="99.80495"><ele>15</ele><time>2018-06-17T03:49:57Z</time></trkpt>
<trkpt lat="13.25480" lon="99.80497"><ele>15</ele><time>2018-06-17T03:49:58Z</time></trkpt>
<trkpt lat="13.25486" lon="99.80498"><ele>15</ele><time>2018-06-17T03:49:59Z</time></trkpt>
<trkpt lat="13.25491" lon="99.80500"><ele>15</ele><time>2018-06-17T03:50:00Z</time></trkpt>
<trkpt lat="13.25496" lon="99.80502"><ele>15</ele><time>2018-06-17T03:50:01Z</time></trkpt>
<trkpt lat="13.25501" lon="99.80503"><ele>15</ele><time>2018-06-17T03:50:02Z</time></trkpt>
<trkpt lat="13.25506" lon="99.80505"><ele>15</ele><time>2018-06-17T03:50:03Z</time></trkpt>
<trkpt lat="13.25511" lon="99.80506"><ele>14</ele><time>2018-06-17T03:50:04Z</time></trkpt>
<trkpt lat="13.25516" lon="99.80506"><ele>14</ele><time>2018-06-17T03:50:05Z</time></trkpt>
<trkpt lat="13.25520" lon="99.80503"><ele>14</ele><time>2018-06-17T03:50:06Z</time></trkpt>
<trkpt lat="13.25525" lon="99.80496"><ele>14</ele><time>2018-06-17T03:50:08Z</time></trkpt>
<trkpt lat="13.25527" lon="99.80491"><ele>14</ele><time>2018-06-17T03:50:09Z</time></trkpt>
<trkpt lat="13.25530" lon="99.80485"><ele>14</ele><time>2018-06-17T03:50:10Z</time></trkpt>
<trkpt lat="13.25533" lon="99.80481"><ele>14</ele><time>2018-06-17T03:50:11Z</time></trkpt>
<trkpt lat="13.25535" lon="99.80477"><ele>14</ele><time>2018-06-17T03:50:12Z</time></trkpt>
<trkpt lat="13.25537" lon="99.80473"><ele>14</ele><time>2018-06-17T03:50:13Z</time></trkpt>
<trkpt lat="13.25539" lon="99.80468"><ele>15</ele><time>2018-06-17T03:50:14Z</time></trkpt>
<trkpt lat="13.25543" lon="99.80461"><ele>15</ele><time>2018-06-17T03:50:16Z</time></trkpt>
<trkpt lat="13.25547" lon="99.80454"><ele>15</ele><time>2018-06-17T03:50:18Z</time></trkpt>
<trkpt lat="13.25551" lon="99.80448"><ele>15</ele><time>2018-06-17T03:50:20Z</time></trkpt>
<trkpt lat="13.25553" lon="99.80442"><ele>16</ele><time>2018-06-17T03:50:22Z</time></trkpt>
<trkpt lat="13.25555" lon="99.80436"><ele>16</ele><time>2018-06-17T03:50:24Z</time></trkpt>
<trkpt lat="13.25558" lon="99.80431"><ele>16</ele><time>2018-06-17T03:50:26Z</time></trkpt>
<trkpt lat="13.25561" lon="99.80425"><ele>16</ele><time>2018-06-17T03:50:28Z</time></trkpt>
<trkpt lat="13.25564" lon="99.80420"><ele>16</ele><time>2018-06-17T03:50:30Z</time></trkpt>
<trkpt lat="13.25567" lon="99.80414"><ele>17</ele><time>2018-06-17T03:50:32Z</time></trkpt>
<trkpt lat="13.25570" lon="99.80409"><ele>16</ele><time>2018-06-17T03:50:34Z</time></trkpt>
<trkpt lat="13.25572" lon="99.80404"><ele>18</ele><time>2018-06-17T03:50:36Z</time></trkpt>
<trkpt lat="13.25573" lon="99.80398"><ele>19</ele><time>2018-06-17T03:50:38Z</time></trkpt>
<trkpt lat="13.25574" lon="99.80392"><ele>19</ele><time>2018-06-17T03:50:40Z</time></trkpt>
<trkpt lat="13.25575" lon="99.80386"><ele>19</ele><time>2018-06-17T03:50:42Z</time></trkpt>
<trkpt lat="13.25575" lon="99.80379"><ele>19</ele><time>2018-06-17T03:50:44Z</time></trkpt>
<trkpt lat="13.25576" lon="99.80373"><ele>19</ele><time>2018-06-17T03:50:46Z</time></trkpt>
<trkpt lat="13.25576" lon="99.80368"><ele>19</ele><time>2018-06-17T03:50:48Z</time></trkpt>
<trkpt lat="13.25577" lon="99.80362"><ele>18</ele><time>2018-06-17T03:50:50Z</time></trkpt>
<trkpt lat="13.25577" lon="99.80357"><ele>18</ele><time>2018-06-17T03:50:52Z</time></trkpt>
<trkpt lat="13.25577" lon="99.80352"><ele>19</ele><time>2018-06-17T03:50:54Z</time></trkpt>
<trkpt lat="13.25576" lon="99.80346"><ele>19</ele><time>2018-06-17T03:50:57Z</time></trkpt>
<trkpt lat="13.25578" lon="99.80340"><ele>18</ele><time>2018-06-17T03:51:00Z</time></trkpt>
<trkpt lat="13.25582" lon="99.80336"><ele>18</ele><time>2018-06-17T03:51:02Z</time></trkpt>
<trkpt lat="13.25587" lon="99.80333"><ele>18</ele><time>2018-06-17T03:51:04Z</time></trkpt>
<trkpt lat="13.25592" lon="99.80330"><ele>18</ele><time>2018-06-17T03:51:06Z</time></trkpt>
<trkpt lat="13.25597" lon="99.80327"><ele>18</ele><time>2018-06-17T03:51:08Z</time></trkpt>
<trkpt lat="13.25602" lon="99.80323"><ele>18</ele><time>2018-06-17T03:51:10Z</time></trkpt>
<trkpt lat="13.25606" lon="99.80320"><ele>18</ele><time>2018-06-17T03:51:12Z</time></trkpt>
<trkpt lat="13.25611" lon="99.80318"><ele>18</ele><time>2018-06-17T03:51:14Z</time></trkpt>
<trkpt lat="13.25617" lon="99.80317"><ele>18</ele><time>2018-06-17T03:51:16Z</time></trkpt>
<trkpt lat="13.25623" lon="99.80317"><ele>18</ele><time>2018-06-17T03:51:18Z</time></trkpt>
<trkpt lat="13.25629" lon="99.80317"><ele>18</ele><time>2018-06-17T03:51:20Z</time></trkpt>
<trkpt lat="13.25635" lon="99.80316"><ele>19</ele><time>2018-06-17T03:51:22Z</time></trkpt>
<trkpt lat="13.25641" lon="99.80316"><ele>19</ele><time>2018-06-17T03:51:24Z</time></trkpt>
<trkpt lat="13.25647" lon="99.80315"><ele>19</ele><time>2018-06-17T03:51:26Z</time></trkpt>
<trkpt lat="13.25653" lon="99.80314"><ele>19</ele><time>2018-06-17T03:51:28Z</time></trkpt>
<trkpt lat="13.25658" lon="99.80314"><ele>19</ele><time>2018-06-17T03:51:30Z</time></trkpt>
<trkpt lat="13.25663" lon="99.80313"><ele>19</ele><time>2018-06-17T03:51:32Z</time></trkpt>
<trkpt lat="13.25669" lon="99.80313"><ele>20</ele><time>2018-06-17T03:51:34Z</time></trkpt>
<trkpt lat="13.25676" lon="99.80312"><ele>20</ele><time>2018-06-17T03:51:36Z</time></trkpt>
<trkpt lat="13.25682" lon="99.80312"><ele>20</ele><time>2018-06-17T03:51:38Z</time></trkpt>
<trkpt lat="13.25688" lon="99.80311"><ele>20</ele><time>2018-06-17T03:51:40Z</time></trkpt>
<trkpt lat="13.25695" lon="99.80310"><ele>21</ele><time>2018-06-17T03:51:42Z</time></trkpt>
<trkpt lat="13.25701" lon="99.80311"><ele>21</ele><time>2018-06-17T03:51:44Z</time></trkpt>
<trkpt lat="13.25707" lon="99.80311"><ele>21</ele><time>2018-06-17T03:51:46Z</time></trkpt>
<trkpt lat="13.25713" lon="99.80311"><ele>21</ele><time>2018-06-17T03:51:48Z</time></trkpt>
<trkpt lat="13.25720" lon="99.80312"><ele>22</ele><time>2018-06-17T03:51:50Z</time></trkpt>
<trkpt lat="13.25726" lon="99.80313"><ele>22</ele><time>2018-06-17T03:51:52Z</time></trkpt>
<trkpt lat="13.25732" lon="99.80314"><ele>22</ele><time>2018-06-17T03:51:54Z</time></trkpt>
<trkpt lat="13.25738" lon="99.80315"><ele>22</ele><time>2018-06-17T03:51:56Z</time></trkpt>
<trkpt lat="13.25745" lon="99.80313"><ele>22</ele><time>2018-06-17T03:51:58Z</time></trkpt>
<trkpt lat="13.25751" lon="99.80314"><ele>22</ele><time>2018-06-17T03:52:00Z</time></trkpt>
<trkpt lat="13.25759" lon="99.80315"><ele>22</ele><time>2018-06-17T03:52:02Z</time></trkpt>
<trkpt lat="13.25765" lon="99.80316"><ele>22</ele><time>2018-06-17T03:52:04Z</time></trkpt>
<trkpt lat="13.25770" lon="99.80318"><ele>22</ele><time>2018-06-17T03:52:06Z</time></trkpt>
<trkpt lat="13.25776" lon="99.80319"><ele>23</ele><time>2018-06-17T03:52:08Z</time></trkpt>
<trkpt lat="13.25781" lon="99.80322"><ele>22</ele><time>2018-06-17T03:52:10Z</time></trkpt>
<trkpt lat="13.25786" lon="99.80323"><ele>22</ele><time>2018-06-17T03:52:12Z</time></trkpt>
<trkpt lat="13.25791" lon="99.80322"><ele>24</ele><time>2018-06-17T03:52:16Z</time></trkpt>
<trkpt lat="13.25792" lon="99.80317"><ele>25</ele><time>2018-06-17T03:52:20Z</time></trkpt>
<trkpt lat="13.25791" lon="99.80312"><ele>25</ele><time>2018-06-17T03:52:23Z</time></trkpt>
<trkpt lat="13.25792" lon="99.80306"><ele>25</ele><time>2018-06-17T03:52:26Z</time></trkpt>
<trkpt lat="13.25793" lon="99.80301"><ele>25</ele><time>2018-06-17T03:52:28Z</time></trkpt>
<trkpt lat="13.25795" lon="99.80295"><ele>25</ele><time>2018-06-17T03:52:31Z</time></trkpt>
<trkpt lat="13.25796" lon="99.80291"><ele>26</ele><time>2018-06-17T03:52:33Z</time></trkpt>
<trkpt lat="13.25798" lon="99.80286"><ele>26</ele><time>2018-06-17T03:52:35Z</time></trkpt>
<trkpt lat="13.25799" lon="99.80281"><ele>27</ele><time>2018-06-17T03:52:38Z</time></trkpt>
<trkpt lat="13.25801" lon="99.80277"><ele>27</ele><time>2018-06-17T03:52:41Z</time></trkpt>
<trkpt lat="13.25805" lon="99.80274"><ele>27</ele><time>2018-06-17T03:52:44Z</time></trkpt>
<trkpt lat="13.25810" lon="99.80272"><ele>34</ele><time>2018-06-17T03:54:28Z</time></trkpt>
<trkpt lat="13.25815" lon="99.80268"><ele>32</ele><time>2018-06-17T03:54:30Z</time></trkpt>
<trkpt lat="13.25821" lon="99.80266"><ele>32</ele><time>2018-06-17T03:54:32Z</time></trkpt>
<trkpt lat="13.25827" lon="99.80264"><ele>32</ele><time>2018-06-17T03:54:34Z</time></trkpt>
<trkpt lat="13.25835" lon="99.80261"><ele>31</ele><time>2018-06-17T03:54:36Z</time></trkpt>
<trkpt lat="13.25843" lon="99.80259"><ele>30</ele><time>2018-06-17T03:54:38Z</time></trkpt>
<trkpt lat="13.25850" lon="99.80255"><ele>29</ele><time>2018-06-17T03:54:40Z</time></trkpt>
<trkpt lat="13.25856" lon="99.80251"><ele>29</ele><time>2018-06-17T03:54:42Z</time></trkpt>
<trkpt lat="13.25863" lon="99.80246"><ele>28</ele><time>2018-06-17T03:54:44Z</time></trkpt>
<trkpt lat="13.25869" lon="99.80239"><ele>28</ele><time>2018-06-17T03:54:46Z</time></trkpt>
<trkpt lat="13.25871" lon="99.80234"><ele>28</ele><time>2018-06-17T03:54:47Z</time></trkpt>
<trkpt lat="13.25873" lon="99.80230"><ele>29</ele><time>2018-06-17T03:54:48Z</time></trkpt>
<trkpt lat="13.25876" lon="99.80224"><ele>29</ele><time>2018-06-17T03:54:49Z</time></trkpt>
<trkpt lat="13.25877" lon="99.80219"><ele>29</ele><time>2018-06-17T03:54:50Z</time></trkpt>
<trkpt lat="13.25879" lon="99.80213"><ele>29</ele><time>2018-06-17T03:54:51Z</time></trkpt>
<trkpt lat="13.25880" lon="99.80207"><ele>29</ele><time>2018-06-17T03:54:52Z</time></trkpt>
<trkpt lat="13.25881" lon="99.80201"><ele>30</ele><time>2018-06-17T03:54:53Z</time></trkpt>
<trkpt lat="13.25880" lon="99.80196"><ele>29</ele><time>2018-06-17T03:54:54Z</time></trkpt>
<trkpt lat="13.25880" lon="99.80191"><ele>29</ele><time>2018-06-17T03:54:55Z</time></trkpt>
<trkpt lat="13.25879" lon="99.80185"><ele>29</ele><time>2018-06-17T03:54:56Z</time></trkpt>
<trkpt lat="13.25879" lon="99.80180"><ele>29</ele><time>2018-06-17T03:54:57Z</time></trkpt>
<trkpt lat="13.25879" lon="99.80175"><ele>29</ele><time>2018-06-17T03:54:58Z</time></trkpt>
<trkpt lat="13.25879" lon="99.80170"><ele>29</ele><time>2018-06-17T03:54:59Z</time></trkpt>
<trkpt lat="13.25880" lon="99.80161"><ele>29</ele><time>2018-06-17T03:55:01Z</time></trkpt>
<trkpt lat="13.25882" lon="99.80153"><ele>29</ele><time>2018-06-17T03:55:03Z</time></trkpt>
<trkpt lat="13.25885" lon="99.80145"><ele>30</ele><time>2018-06-17T03:55:05Z</time></trkpt>
<trkpt lat="13.25886" lon="99.80138"><ele>30</ele><time>2018-06-17T03:55:07Z</time></trkpt>
<trkpt lat="13.25885" lon="99.80134"><ele>29</ele><time>2018-06-17T03:55:09Z</time></trkpt>
<trkpt lat="13.25884" lon="99.80128"><ele>29</ele><time>2018-06-17T03:55:20Z</time></trkpt>
<trkpt lat="13.25884" lon="99.80122"><ele>29</ele><time>2018-06-17T03:55:22Z</time></trkpt>
<trkpt lat="13.25885" lon="99.80114"><ele>29</ele><time>2018-06-17T03:55:24Z</time></trkpt>
<trkpt lat="13.25887" lon="99.80105"><ele>29</ele><time>2018-06-17T03:55:26Z</time></trkpt>
<trkpt lat="13.25889" lon="99.80101"><ele>29</ele><time>2018-06-17T03:55:27Z</time></trkpt>
<trkpt lat="13.25892" lon="99.80093"><ele>29</ele><time>2018-06-17T03:55:29Z</time></trkpt>
<trkpt lat="13.25895" lon="99.80086"><ele>29</ele><time>2018-06-17T03:55:31Z</time></trkpt>
<trkpt lat="13.25897" lon="99.80079"><ele>29</ele><time>2018-06-17T03:55:33Z</time></trkpt>
<trkpt lat="13.25899" lon="99.80075"><ele>29</ele><time>2018-06-17T03:55:34Z</time></trkpt>
<trkpt lat="13.25900" lon="99.80068"><ele>29</ele><time>2018-06-17T03:55:36Z</time></trkpt>
<trkpt lat="13.25902" lon="99.80061"><ele>28</ele><time>2018-06-17T03:55:38Z</time></trkpt>
<trkpt lat="13.25905" lon="99.80052"><ele>28</ele><time>2018-06-17T03:55:40Z</time></trkpt>
<trkpt lat="13.25907" lon="99.80047"><ele>28</ele><time>2018-06-17T03:55:41Z</time></trkpt>
<trkpt lat="13.25909" lon="99.80042"><ele>28</ele><time>2018-06-17T03:55:42Z</time></trkpt>
<trkpt lat="13.25912" lon="99.80037"><ele>28</ele><time>2018-06-17T03:55:43Z</time></trkpt>
<trkpt lat="13.25915" lon="99.80033"><ele>28</ele><time>2018-06-17T03:55:44Z</time></trkpt>
<trkpt lat="13.25919" lon="99.80029"><ele>28</ele><time>2018-06-17T03:55:45Z</time></trkpt>
<trkpt lat="13.25923" lon="99.80025"><ele>28</ele><time>2018-06-17T03:55:46Z</time></trkpt>
<trkpt lat="13.25927" lon="99.80021"><ele>28</ele><time>2018-06-17T03:55:47Z</time></trkpt>
<trkpt lat="13.25931" lon="99.80017"><ele>28</ele><time>2018-06-17T03:55:48Z</time></trkpt>
<trkpt lat="13.25935" lon="99.80013"><ele>28</ele><time>2018-06-17T03:55:49Z</time></trkpt>
<trkpt lat="13.25939" lon="99.80008"><ele>28</ele><time>2018-06-17T03:55:50Z</time></trkpt>
<trkpt lat="13.25942" lon="99.80004"><ele>27</ele><time>2018-06-17T03:55:51Z</time></trkpt>
<trkpt lat="13.25945" lon="99.79999"><ele>27</ele><time>2018-06-17T03:55:52Z</time></trkpt>
<trkpt lat="13.25948" lon="99.79995"><ele>27</ele><time>2018-06-17T03:55:53Z</time></trkpt>
<trkpt lat="13.25950" lon="99.79990"><ele>27</ele><time>2018-06-17T03:55:54Z</time></trkpt>
<trkpt lat="13.25953" lon="99.79986"><ele>27</ele><time>2018-06-17T03:55:55Z</time></trkpt>
<trkpt lat="13.25956" lon="99.79982"><ele>28</ele><time>2018-06-17T03:55:56Z</time></trkpt>
<trkpt lat="13.25960" lon="99.79978"><ele>27</ele><time>2018-06-17T03:55:57Z</time></trkpt>
<trkpt lat="13.25963" lon="99.79973"><ele>27</ele><time>2018-06-17T03:55:58Z</time></trkpt>
<trkpt lat="13.25966" lon="99.79969"><ele>27</ele><time>2018-06-17T03:55:59Z</time></trkpt>
<trkpt lat="13.25969" lon="99.79964"><ele>27</ele><time>2018-06-17T03:56:00Z</time></trkpt>
<trkpt lat="13.25972" lon="99.79960"><ele>27</ele><time>2018-06-17T03:56:01Z</time></trkpt>
<trkpt lat="13.25975" lon="99.79955"><ele>27</ele><time>2018-06-17T03:56:02Z</time></trkpt>
<trkpt lat="13.25978" lon="99.79951"><ele>27</ele><time>2018-06-17T03:56:03Z</time></trkpt>
<trkpt lat="13.25982" lon="99.79946"><ele>27</ele><time>2018-06-17T03:56:04Z</time></trkpt>
<trkpt lat="13.25985" lon="99.79942"><ele>28</ele><time>2018-06-17T03:56:05Z</time></trkpt>
<trkpt lat="13.25988" lon="99.79938"><ele>28</ele><time>2018-06-17T03:56:06Z</time></trkpt>
<trkpt lat="13.25996" lon="99.79936"><ele>27</ele><time>2018-06-17T03:56:08Z</time></trkpt>
<trkpt lat="13.26003" lon="99.79937"><ele>27</ele><time>2018-06-17T03:56:10Z</time></trkpt>
<trkpt lat="13.26009" lon="99.79939"><ele>27</ele><time>2018-06-17T03:56:12Z</time></trkpt>
<trkpt lat="13.26015" lon="99.79940"><ele>27</ele><time>2018-06-17T03:56:14Z</time></trkpt>
<trkpt lat="13.26021" lon="99.79939"><ele>26</ele><time>2018-06-17T03:56:16Z</time></trkpt>
<trkpt lat="13.26027" lon="99.79939"><ele>26</ele><time>2018-06-17T03:56:18Z</time></trkpt>
<trkpt lat="13.26034" lon="99.79941"><ele>25</ele><time>2018-06-17T03:56:20Z</time></trkpt>
<trkpt lat="13.26040" lon="99.79944"><ele>25</ele><time>2018-06-17T03:56:22Z</time></trkpt>
<trkpt lat="13.26046" lon="99.79948"><ele>25</ele><time>2018-06-17T03:56:24Z</time></trkpt>
<trkpt lat="13.26051" lon="99.79952"><ele>25</ele><time>2018-06-17T03:56:26Z</time></trkpt>
<trkpt lat="13.26056" lon="99.79956"><ele>26</ele><time>2018-06-17T03:56:28Z</time></trkpt>
<trkpt lat="13.26058" lon="99.79960"><ele>26</ele><time>2018-06-17T03:56:30Z</time></trkpt>
<trkpt lat="13.26062" lon="99.79965"><ele>26</ele><time>2018-06-17T03:56:33Z</time></trkpt>
<trkpt lat="13.26067" lon="99.79966"><ele>28</ele><time>2018-06-17T03:56:51Z</time></trkpt>
<trkpt lat="13.26073" lon="99.79967"><ele>28</ele><time>2018-06-17T03:56:56Z</time></trkpt>
<trkpt lat="13.26078" lon="99.79970"><ele>28</ele><time>2018-06-17T03:56:59Z</time></trkpt>
<trkpt lat="13.26082" lon="99.79972"><ele>28</ele><time>2018-06-17T03:57:01Z</time></trkpt>
<trkpt lat="13.26087" lon="99.79974"><ele>27</ele><time>2018-06-17T03:57:04Z</time></trkpt>
<trkpt lat="13.26092" lon="99.79973"><ele>26</ele><time>2018-06-17T03:57:07Z</time></trkpt>
<trkpt lat="13.26098" lon="99.79972"><ele>26</ele><time>2018-06-17T03:57:10Z</time></trkpt>
<trkpt lat="13.26104" lon="99.79972"><ele>27</ele><time>2018-06-17T03:57:13Z</time></trkpt>
<trkpt lat="13.26108" lon="99.79972"><ele>30</ele><time>2018-06-17T03:58:04Z</time></trkpt>
<trkpt lat="13.26113" lon="99.79969"><ele>30</ele><time>2018-06-17T03:58:12Z</time></trkpt>
<trkpt lat="13.26117" lon="99.79967"><ele>30</ele><time>2018-06-17T03:58:16Z</time></trkpt>
<trkpt lat="13.26122" lon="99.79968"><ele>27</ele><time>2018-06-17T03:59:01Z</time></trkpt>
<trkpt lat="13.26124" lon="99.79963"><ele>25</ele><time>2018-06-17T03:59:39Z</time></trkpt>
<trkpt lat="13.26123" lon="99.79958"><ele>24</ele><time>2018-06-17T03:59:42Z</time></trkpt>
<trkpt lat="13.26123" lon="99.79952"><ele>25</ele><time>2018-06-17T03:59:46Z</time></trkpt>
<trkpt lat="13.26123" lon="99.79946"><ele>25</ele><time>2018-06-17T03:59:49Z</time></trkpt>
<trkpt lat="13.26128" lon="99.79941"><ele>26</ele><time>2018-06-17T03:59:52Z</time></trkpt>
<trkpt lat="13.26133" lon="99.79939"><ele>25</ele><time>2018-06-17T03:59:54Z</time></trkpt>
<trkpt lat="13.26138" lon="99.79937"><ele>25</ele><time>2018-06-17T03:59:56Z</time></trkpt>
<trkpt lat="13.26142" lon="99.79935"><ele>25</ele><time>2018-06-17T03:59:58Z</time></trkpt>
<trkpt lat="13.26147" lon="99.79933"><ele>25</ele><time>2018-06-17T04:00:00Z</time></trkpt>
<trkpt lat="13.26153" lon="99.79931"><ele>25</ele><time>2018-06-17T04:00:03Z</time></trkpt>
<trkpt lat="13.26155" lon="99.79926"><ele>25</ele><time>2018-06-17T04:00:07Z</time></trkpt>
<trkpt lat="13.26153" lon="99.79920"><ele>25</ele><time>2018-06-17T04:00:10Z</time></trkpt>
<trkpt lat="13.26152" lon="99.79914"><ele>25</ele><time>2018-06-17T04:00:12Z</time></trkpt>
<trkpt lat="13.26151" lon="99.79909"><ele>25</ele><time>2018-06-17T04:00:14Z</time></trkpt>
<trkpt lat="13.26150" lon="99.79904"><ele>25</ele><time>2018-06-17T04:00:16Z</time></trkpt>
<trkpt lat="13.26149" lon="99.79899"><ele>26</ele><time>2018-06-17T04:00:18Z</time></trkpt>
<trkpt lat="13.26147" lon="99.79893"><ele>26</ele><time>2018-06-17T04:00:20Z</time></trkpt>
<trkpt lat="13.26147" lon="99.79887"><ele>26</ele><time>2018-06-17T04:00:22Z</time></trkpt>
<trkpt lat="13.26152" lon="99.79882"><ele>25</ele><time>2018-06-17T04:00:24Z</time></trkpt>
<trkpt lat="13.26159" lon="99.79878"><ele>26</ele><time>2018-06-17T04:00:26Z</time></trkpt>
<trkpt lat="13.26164" lon="99.79878"><ele>25</ele><time>2018-06-17T04:00:29Z</time></trkpt>
<trkpt lat="13.26167" lon="99.79882"><ele>25</ele><time>2018-06-17T04:00:32Z</time></trkpt>
<trkpt lat="13.26167" lon="99.79888"><ele>25</ele><time>2018-06-17T04:00:35Z</time></trkpt>
<trkpt lat="13.26168" lon="99.79892"><ele>25</ele><time>2018-06-17T04:00:37Z</time></trkpt>
<trkpt lat="13.26169" lon="99.79897"><ele>25</ele><time>2018-06-17T04:00:39Z</time></trkpt>
<trkpt lat="13.26170" lon="99.79902"><ele>25</ele><time>2018-06-17T04:00:41Z</time></trkpt>
<trkpt lat="13.26172" lon="99.79906"><ele>25</ele><time>2018-06-17T04:00:43Z</time></trkpt>
<trkpt lat="13.26178" lon="99.79908"><ele>25</ele><time>2018-06-17T04:00:45Z</time></trkpt>
<trkpt lat="13.26185" lon="99.79905"><ele>25</ele><time>2018-06-17T04:00:47Z</time></trkpt>
<trkpt lat="13.26192" lon="99.79902"><ele>24</ele><time>2018-06-17T04:00:49Z</time></trkpt>
<trkpt lat="13.26201" lon="99.79899"><ele>25</ele><time>2018-06-17T04:00:51Z</time></trkpt>
<trkpt lat="13.26207" lon="99.79897"><ele>25</ele><time>2018-06-17T04:00:53Z</time></trkpt>
<trkpt lat="13.26214" lon="99.79896"><ele>25</ele><time>2018-06-17T04:00:55Z</time></trkpt>
<trkpt lat="13.26221" lon="99.79894"><ele>25</ele><time>2018-06-17T04:00:57Z</time></trkpt>
<trkpt lat="13.26225" lon="99.79891"><ele>25</ele><time>2018-06-17T04:00:59Z</time></trkpt>
<trkpt lat="13.26226" lon="99.79899"><ele>25</ele><time>2018-06-17T04:01:16Z</time></trkpt>
<trkpt lat="13.26227" lon="99.79905"><ele>25</ele><time>2018-06-17T04:01:18Z</time></trkpt>
<trkpt lat="13.26230" lon="99.79912"><ele>25</ele><time>2018-06-17T04:01:20Z</time></trkpt>
<trkpt lat="13.26232" lon="99.79920"><ele>25</ele><time>2018-06-17T04:01:22Z</time></trkpt>
<trkpt lat="13.26235" lon="99.79928"><ele>25</ele><time>2018-06-17T04:01:24Z</time></trkpt>
<trkpt lat="13.26236" lon="99.79933"><ele>25</ele><time>2018-06-17T04:01:25Z</time></trkpt>
<trkpt lat="13.26240" lon="99.79938"><ele>25</ele><time>2018-06-17T04:01:27Z</time></trkpt>
<trkpt lat="13.26246" lon="99.79939"><ele>25</ele><time>2018-06-17T04:01:30Z</time></trkpt>
<trkpt lat="13.26250" lon="99.79936"><ele>25</ele><time>2018-06-17T04:01:32Z</time></trkpt>
<trkpt lat="13.26255" lon="99.79932"><ele>25</ele><time>2018-06-17T04:01:34Z</time></trkpt>
<trkpt lat="13.26261" lon="99.79927"><ele>25</ele><time>2018-06-17T04:01:36Z</time></trkpt>
<trkpt lat="13.26266" lon="99.79922"><ele>25</ele><time>2018-06-17T04:01:38Z</time></trkpt>
<trkpt lat="13.26269" lon="99.79915"><ele>24</ele><time>2018-06-17T04:01:40Z</time></trkpt>
<trkpt lat="13.26271" lon="99.79910"><ele>24</ele><time>2018-06-17T04:01:41Z</time></trkpt>
<trkpt lat="13.26273" lon="99.79904"><ele>24</ele><time>2018-06-17T04:01:42Z</time></trkpt>
<trkpt lat="13.26276" lon="99.79899"><ele>24</ele><time>2018-06-17T04:01:43Z</time></trkpt>
<trkpt lat="13.26281" lon="99.79896"><ele>24</ele><time>2018-06-17T04:01:44Z</time></trkpt>
<trkpt lat="13.26286" lon="99.79892"><ele>24</ele><time>2018-06-17T04:01:45Z</time></trkpt>
<trkpt lat="13.26291" lon="99.79889"><ele>24</ele><time>2018-06-17T04:01:46Z</time></trkpt>
<trkpt lat="13.26296" lon="99.79887"><ele>24</ele><time>2018-06-17T04:01:47Z</time></trkpt>
<trkpt lat="13.26301" lon="99.79884"><ele>23</ele><time>2018-06-17T04:01:48Z</time></trkpt>
<trkpt lat="13.26305" lon="99.79881"><ele>22</ele><time>2018-06-17T04:01:49Z</time></trkpt>
<trkpt lat="13.26307" lon="99.79877"><ele>23</ele><time>2018-06-17T04:01:50Z</time></trkpt>
<trkpt lat="13.26309" lon="99.79873"><ele>23</ele><time>2018-06-17T04:01:51Z</time></trkpt>
<trkpt lat="13.26311" lon="99.79868"><ele>23</ele><time>2018-06-17T04:01:52Z</time></trkpt>
<trkpt lat="13.26311" lon="99.79862"><ele>22</ele><time>2018-06-17T04:01:53Z</time></trkpt>
<trkpt lat="13.26311" lon="99.79857"><ele>22</ele><time>2018-06-17T04:01:54Z</time></trkpt>
<trkpt lat="13.26310" lon="99.79851"><ele>22</ele><time>2018-06-17T04:01:55Z</time></trkpt>
<trkpt lat="13.26309" lon="99.79845"><ele>22</ele><time>2018-06-17T04:01:56Z</time></trkpt>
<trkpt lat="13.26309" lon="99.79840"><ele>21</ele><time>2018-06-17T04:01:57Z</time></trkpt>
<trkpt lat="13.26310" lon="99.79834"><ele>21</ele><time>2018-06-17T04:01:58Z</time></trkpt>
<trkpt lat="13.26310" lon="99.79828"><ele>21</ele><time>2018-06-17T04:01:59Z</time></trkpt>
<trkpt lat="13.26311" lon="99.79823"><ele>21</ele><time>2018-06-17T04:02:00Z</time></trkpt>
<trkpt lat="13.26312" lon="99.79818"><ele>21</ele><time>2018-06-17T04:02:01Z</time></trkpt>
<trkpt lat="13.26313" lon="99.79812"><ele>20</ele><time>2018-06-17T04:02:02Z</time></trkpt>
<trkpt lat="13.26314" lon="99.79806"><ele>21</ele><time>2018-06-17T04:02:03Z</time></trkpt>
<trkpt lat="13.26315" lon="99.79801"><ele>21</ele><time>2018-06-17T04:02:04Z</time></trkpt>
<trkpt lat="13.26316" lon="99.79795"><ele>22</ele><time>2018-06-17T04:02:05Z</time></trkpt>
<trkpt lat="13.26316" lon="99.79789"><ele>21</ele><time>2018-06-17T04:02:06Z</time></trkpt>
<trkpt lat="13.26315" lon="99.79784"><ele>20</ele><time>2018-06-17T04:02:07Z</time></trkpt>
<trkpt lat="13.26313" lon="99.79778"><ele>20</ele><time>2018-06-17T04:02:08Z</time></trkpt>
<trkpt lat="13.26310" lon="99.79772"><ele>20</ele><time>2018-06-17T04:02:09Z</time></trkpt>
<trkpt lat="13.26306" lon="99.79767"><ele>20</ele><time>2018-06-17T04:02:10Z</time></trkpt>
<trkpt lat="13.26301" lon="99.79762"><ele>20</ele><time>2018-06-17T04:02:11Z</time></trkpt>
<trkpt lat="13.26297" lon="99.79758"><ele>19</ele><time>2018-06-17T04:02:12Z</time></trkpt>
<trkpt lat="13.26295" lon="99.79751"><ele>19</ele><time>2018-06-17T04:02:14Z</time></trkpt>
<trkpt lat="13.26296" lon="99.79746"><ele>21</ele><time>2018-06-17T04:02:16Z</time></trkpt>
<trkpt lat="13.26299" lon="99.79741"><ele>20</ele><time>2018-06-17T04:02:18Z</time></trkpt>
<trkpt lat="13.26304" lon="99.79738"><ele>21</ele><time>2018-06-17T04:02:21Z</time></trkpt>
<trkpt lat="13.26309" lon="99.79734"><ele>20</ele><time>2018-06-17T04:02:24Z</time></trkpt>
<trkpt lat="13.26313" lon="99.79731"><ele>20</ele><time>2018-06-17T04:02:26Z</time></trkpt>
<trkpt lat="13.26316" lon="99.79727"><ele>20</ele><time>2018-06-17T04:02:28Z</time></trkpt>
<trkpt lat="13.26320" lon="99.79724"><ele>20</ele><time>2018-06-17T04:02:30Z</time></trkpt>
<trkpt lat="13.26324" lon="99.79720"><ele>20</ele><time>2018-06-17T04:02:33Z</time></trkpt>
<trkpt lat="13.26327" lon="99.79715"><ele>20</ele><time>2018-06-17T04:02:40Z</time></trkpt>
<trkpt lat="13.26330" lon="99.79711"><ele>20</ele><time>2018-06-17T04:02:43Z</time></trkpt>
<trkpt lat="13.26334" lon="99.79706"><ele>21</ele><time>2018-06-17T04:02:46Z</time></trkpt>
<trkpt lat="13.26335" lon="99.79701"><ele>20</ele><time>2018-06-17T04:02:48Z</time></trkpt>
<trkpt lat="13.26337" lon="99.79696"><ele>20</ele><time>2018-06-17T04:02:50Z</time></trkpt>
<trkpt lat="13.26339" lon="99.79689"><ele>19</ele><time>2018-06-17T04:02:52Z</time></trkpt>
<trkpt lat="13.26343" lon="99.79681"><ele>18</ele><time>2018-06-17T04:02:54Z</time></trkpt>
<trkpt lat="13.26348" lon="99.79676"><ele>19</ele><time>2018-06-17T04:02:56Z</time></trkpt>
<trkpt lat="13.26355" lon="99.79675"><ele>19</ele><time>2018-06-17T04:02:58Z</time></trkpt>
<trkpt lat="13.26362" lon="99.79676"><ele>18</ele><time>2018-06-17T04:03:00Z</time></trkpt>
<trkpt lat="13.26369" lon="99.79677"><ele>18</ele><time>2018-06-17T04:03:02Z</time></trkpt>
<trkpt lat="13.26375" lon="99.79678"><ele>17</ele><time>2018-06-17T04:03:04Z</time></trkpt>
<trkpt lat="13.26381" lon="99.79679"><ele>17</ele><time>2018-06-17T04:03:06Z</time></trkpt>
<trkpt lat="13.26388" lon="99.79680"><ele>17</ele><time>2018-06-17T04:03:08Z</time></trkpt>
<trkpt lat="13.26394" lon="99.79679"><ele>17</ele><time>2018-06-17T04:03:10Z</time></trkpt>
<trkpt lat="13.26401" lon="99.79678"><ele>17</ele><time>2018-06-17T04:03:12Z</time></trkpt>
<trkpt lat="13.26409" lon="99.79676"><ele>17</ele><time>2018-06-17T04:03:14Z</time></trkpt>
<trkpt lat="13.26417" lon="99.79674"><ele>17</ele><time>2018-06-17T04:03:16Z</time></trkpt>
<trkpt lat="13.26425" lon="99.79673"><ele>17</ele><time>2018-06-17T04:03:18Z</time></trkpt>
<trkpt lat="13.26434" lon="99.79672"><ele>17</ele><time>2018-06-17T04:03:20Z</time></trkpt>
<trkpt lat="13.26442" lon="99.79671"><ele>17</ele><time>2018-06-17T04:03:22Z</time></trkpt>
<trkpt lat="13.26450" lon="99.79671"><ele>17</ele><time>2018-06-17T04:03:24Z</time></trkpt>
<trkpt lat="13.26458" lon="99.79671"><ele>17</ele><time>2018-06-17T04:03:26Z</time></trkpt>
<trkpt lat="13.26467" lon="99.79670"><ele>17</ele><time>2018-06-17T04:03:28Z</time></trkpt>
<trkpt lat="13.26475" lon="99.79670"><ele>17</ele><time>2018-06-17T04:03:30Z</time></trkpt>
<trkpt lat="13.26483" lon="99.79674"><ele>17</ele><time>2018-06-17T04:03:32Z</time></trkpt>
<trkpt lat="13.26487" lon="99.79677"><ele>17</ele><time>2018-06-17T04:03:33Z</time></trkpt>
<trkpt lat="13.26495" lon="99.79682"><ele>17</ele><time>2018-06-17T04:03:35Z</time></trkpt>
<trkpt lat="13.26503" lon="99.79684"><ele>17</ele><time>2018-06-17T04:03:37Z</time></trkpt>
<trkpt lat="13.26508" lon="99.79685"><ele>17</ele><time>2018-06-17T04:03:38Z</time></trkpt>
<trkpt lat="13.26512" lon="99.79687"><ele>18</ele><time>2018-06-17T04:03:39Z</time></trkpt>
<trkpt lat="13.26517" lon="99.79688"><ele>17</ele><time>2018-06-17T04:03:40Z</time></trkpt>
<trkpt lat="13.26521" lon="99.79690"><ele>18</ele><time>2018-06-17T04:03:41Z</time></trkpt>
<trkpt lat="13.26526" lon="99.79692"><ele>18</ele><time>2018-06-17T04:03:42Z</time></trkpt>
<trkpt lat="13.26530" lon="99.79694"><ele>18</ele><time>2018-06-17T04:03:43Z</time></trkpt>
<trkpt lat="13.26535" lon="99.79696"><ele>19</ele><time>2018-06-17T04:03:44Z</time></trkpt>
<trkpt lat="13.26542" lon="99.79700"><ele>18</ele><time>2018-06-17T04:03:46Z</time></trkpt>
<trkpt lat="13.26549" lon="99.79704"><ele>18</ele><time>2018-06-17T04:03:48Z</time></trkpt>
<trkpt lat="13.26557" lon="99.79706"><ele>18</ele><time>2018-06-17T04:03:50Z</time></trkpt>
<trkpt lat="13.26565" lon="99.79707"><ele>17</ele><time>2018-06-17T04:03:52Z</time></trkpt>
<trkpt lat="13.26570" lon="99.79706"><ele>17</ele><time>2018-06-17T04:03:53Z</time></trkpt>
<trkpt lat="13.26575" lon="99.79704"><ele>18</ele><time>2018-06-17T04:03:54Z</time></trkpt>
<trkpt lat="13.26580" lon="99.79702"><ele>18</ele><time>2018-06-17T04:03:55Z</time></trkpt>
<trkpt lat="13.26586" lon="99.79700"><ele>17</ele><time>2018-06-17T04:03:56Z</time></trkpt>
<trkpt lat="13.26593" lon="99.79697"><ele>17</ele><time>2018-06-17T04:03:57Z</time></trkpt>
<trkpt lat="13.26598" lon="99.79695"><ele>17</ele><time>2018-06-17T04:03:58Z</time></trkpt>
<trkpt lat="13.26603" lon="99.79694"><ele>17</ele><time>2018-06-17T04:03:59Z</time></trkpt>
<trkpt lat="13.26607" lon="99.79693"><ele>17</ele><time>2018-06-17T04:04:00Z</time></trkpt>
<trkpt lat="13.26615" lon="99.79692"><ele>17</ele><time>2018-06-17T04:04:02Z</time></trkpt>
<trkpt lat="13.26623" lon="99.79690"><ele>16</ele><time>2018-06-17T04:04:04Z</time></trkpt>
<trkpt lat="13.26632" lon="99.79690"><ele>16</ele><time>2018-06-17T04:04:06Z</time></trkpt>
<trkpt lat="13.26641" lon="99.79692"><ele>16</ele><time>2018-06-17T04:04:08Z</time></trkpt>
<trkpt lat="13.26645" lon="99.79693"><ele>16</ele><time>2018-06-17T04:04:09Z</time></trkpt>
<trkpt lat="13.26650" lon="99.79694"><ele>16</ele><time>2018-06-17T04:04:10Z</time></trkpt>
<trkpt lat="13.26655" lon="99.79695"><ele>16</ele><time>2018-06-17T04:04:11Z</time></trkpt>
<trkpt lat="13.26660" lon="99.79696"><ele>16</ele><time>2018-06-17T04:04:12Z</time></trkpt>
<trkpt lat="13.26665" lon="99.79696"><ele>16</ele><time>2018-06-17T04:04:13Z</time></trkpt>
<trkpt lat="13.26670" lon="99.79697"><ele>16</ele><time>2018-06-17T04:04:14Z</time></trkpt>
<trkpt lat="13.26675" lon="99.79699"><ele>15</ele><time>2018-06-17T04:04:15Z</time></trkpt>
<trkpt lat="13.26680" lon="99.79701"><ele>15</ele><time>2018-06-17T04:04:16Z</time></trkpt>
<trkpt lat="13.26685" lon="99.79703"><ele>15</ele><time>2018-06-17T04:04:17Z</time></trkpt>
<trkpt lat="13.26691" lon="99.79705"><ele>15</ele><time>2018-06-17T04:04:18Z</time></trkpt>
<trkpt lat="13.26696" lon="99.79707"><ele>15</ele><time>2018-06-17T04:04:19Z</time></trkpt>
<trkpt lat="13.26701" lon="99.79710"><ele>15</ele><time>2018-06-17T04:04:20Z</time></trkpt>
<trkpt lat="13.26706" lon="99.79712"><ele>15</ele><time>2018-06-17T04:04:21Z</time></trkpt>
<trkpt lat="13.26710" lon="99.79714"><ele>13</ele><time>2018-06-17T04:04:23Z</time></trkpt>
<trkpt lat="13.26706" lon="99.79712"><ele>13</ele><time>2018-06-17T04:04:33Z</time></trkpt>
<trkpt lat="13.26705" lon="99.79707"><ele>13</ele><time>2018-06-17T04:04:36Z</time></trkpt>
<trkpt lat="13.26704" lon="99.79702"><ele>12</ele><time>2018-06-17T04:04:39Z</time></trkpt>
<trkpt lat="13.26707" lon="99.79698"><ele>12</ele><time>2018-06-17T04:04:44Z</time></trkpt>
<trkpt lat="13.26711" lon="99.79700"><ele>12</ele><time>2018-06-17T04:04:58Z</time></trkpt>
<trkpt lat="13.26714" lon="99.79696"><ele>12</ele><time>2018-06-17T04:05:24Z</time></trkpt>
<trkpt lat="13.26715" lon="99.79691"><ele>12</ele><time>2018-06-17T04:05:27Z</time></trkpt>
<trkpt lat="13.26715" lon="99.79687"><ele>12</ele><time>2018-06-17T04:05:32Z</time></trkpt>
<trkpt lat="13.26716" lon="99.79682"><ele>12</ele><time>2018-06-17T04:06:00Z</time></trkpt>
<trkpt lat="13.26720" lon="99.79679"><ele>14</ele><time>2018-06-17T04:06:06Z</time></trkpt>
<trkpt lat="13.26724" lon="99.79676"><ele>13</ele><time>2018-06-17T04:06:18Z</time></trkpt>
<trkpt lat="13.26728" lon="99.79673"><ele>13</ele><time>2018-06-17T04:06:21Z</time></trkpt>
<trkpt lat="13.26730" lon="99.79678"><ele>12</ele><time>2018-06-17T04:06:28Z</time></trkpt>
<trkpt lat="13.26728" lon="99.79685"><ele>12</ele><time>2018-06-17T04:06:31Z</time></trkpt>
<trkpt lat="13.26727" lon="99.79689"><ele>12</ele><time>2018-06-17T04:06:33Z</time></trkpt>
<trkpt lat="13.26725" lon="99.79695"><ele>12</ele><time>2018-06-17T04:06:36Z</time></trkpt>
<trkpt lat="13.26723" lon="99.79701"><ele>12</ele><time>2018-06-17T04:06:39Z</time></trkpt>
<trkpt lat="13.26727" lon="99.79700"><ele>13</ele><time>2018-06-17T04:06:57Z</time></trkpt>
<trkpt lat="13.26729" lon="99.79695"><ele>14</ele><time>2018-06-17T04:07:00Z</time></trkpt>
<trkpt lat="13.26731" lon="99.79689"><ele>13</ele><time>2018-06-17T04:07:03Z</time></trkpt>
<trkpt lat="13.26733" lon="99.79685"><ele>14</ele><time>2018-06-17T04:07:06Z</time></trkpt>
<trkpt lat="13.26736" lon="99.79681"><ele>10</ele><time>2018-06-17T04:10:19Z</time></trkpt>
<trkpt lat="13.26736" lon="99.79676"><ele>3</ele><time>2018-06-17T04:13:51Z</time></trkpt>
<trkpt lat="13.26737" lon="99.79671"><ele>4</ele><time>2018-06-17T04:13:53Z</time></trkpt>
<trkpt lat="13.26737" lon="99.79665"><ele>5</ele><time>2018-06-17T04:13:56Z</time></trkpt>
<trkpt lat="13.26737" lon="99.79660"><ele>7</ele><time>2018-06-17T04:14:04Z</time></trkpt>
<trkpt lat="13.26737" lon="99.79654"><ele>8</ele><time>2018-06-17T04:14:11Z</time></trkpt>
<trkpt lat="13.26736" lon="99.79649"><ele>8</ele><time>2018-06-17T04:14:15Z</time></trkpt>
<trkpt lat="13.26737" lon="99.79644"><ele>9</ele><time>2018-06-17T04:14:19Z</time></trkpt>
<trkpt lat="13.26737" lon="99.79639"><ele>9</ele><time>2018-06-17T04:14:23Z</time></trkpt>
<trkpt lat="13.26738" lon="99.79634"><ele>12</ele><time>2018-06-17T04:14:42Z</time></trkpt>
<trkpt lat="13.26738" lon="99.79629"><ele>13</ele><time>2018-06-17T04:15:01Z</time></trkpt>
<trkpt lat="13.26739" lon="99.79623"><ele>13</ele><time>2018-06-17T04:15:04Z</time></trkpt>
<trkpt lat="13.26740" lon="99.79618"><ele>12</ele><time>2018-06-17T04:15:23Z</time></trkpt>
<trkpt lat="13.26741" lon="99.79613"><ele>11</ele><time>2018-06-17T04:16:03Z</time></trkpt>
<trkpt lat="13.26742" lon="99.79608"><ele>13</ele><time>2018-06-17T04:16:19Z</time></trkpt>
<trkpt lat="13.26742" lon="99.79603"><ele>12</ele><time>2018-06-17T04:16:22Z</time></trkpt>
<trkpt lat="13.26745" lon="99.79598"><ele>13</ele><time>2018-06-17T04:16:25Z</time></trkpt>
<trkpt lat="13.26748" lon="99.79594"><ele>13</ele><time>2018-06-17T04:16:28Z</time></trkpt>
<trkpt lat="13.26750" lon="99.79589"><ele>13</ele><time>2018-06-17T04:16:31Z</time></trkpt>
<trkpt lat="13.26751" lon="99.79583"><ele>13</ele><time>2018-06-17T04:16:34Z</time></trkpt>
<trkpt lat="13.26753" lon="99.79578"><ele>13</ele><time>2018-06-17T04:16:37Z</time></trkpt>
<trkpt lat="13.26755" lon="99.79572"><ele>13</ele><time>2018-06-17T04:16:41Z</time></trkpt>
<trkpt lat="13.26757" lon="99.79568"><ele>13</ele><time>2018-06-17T04:16:44Z</time></trkpt>
<trkpt lat="13.26759" lon="99.79563"><ele>13</ele><time>2018-06-17T04:16:47Z</time></trkpt>
<trkpt lat="13.26760" lon="99.79557"><ele>14</ele><time>2018-06-17T04:16:51Z</time></trkpt>
<trkpt lat="13.26760" lon="99.79552"><ele>14</ele><time>2018-06-17T04:17:03Z</time></trkpt>
<trkpt lat="13.26757" lon="99.79547"><ele>14</ele><time>2018-06-17T04:17:08Z</time></trkpt>
<trkpt lat="13.26755" lon="99.79543"><ele>14</ele><time>2018-06-17T04:17:42Z</time></trkpt>
<trkpt lat="13.26754" lon="99.79539"><ele>13</ele><time>2018-06-17T04:18:08Z</time></trkpt>
<trkpt lat="13.26752" lon="99.79534"><ele>13</ele><time>2018-06-17T04:19:20Z</time></trkpt>
<trkpt lat="13.26753" lon="99.79530"><ele>10</ele><time>2018-06-17T04:20:17Z</time></trkpt>
<trkpt lat="13.26754" lon="99.79525"><ele>1</ele><time>2018-06-17T04:23:57Z</time></trkpt>
<trkpt lat="13.26750" lon="99.79528"><ele>0</ele><time>2018-06-17T04:26:29Z</time></trkpt>
<trkpt lat="13.26752" lon="99.79523"><ele>13</ele><time>2018-06-17T04:34:54Z</time></trkpt>
<trkpt lat="13.26753" lon="99.79518"><ele>13</ele><time>2018-06-17T04:34:57Z</time></trkpt>
<trkpt lat="13.26754" lon="99.79512"><ele>12</ele><time>2018-06-17T04:34:59Z</time></trkpt>
<trkpt lat="13.26754" lon="99.79507"><ele>11</ele><time>2018-06-17T04:35:01Z</time></trkpt>
<trkpt lat="13.26754" lon="99.79502"><ele>12</ele><time>2018-06-17T04:35:04Z</time></trkpt>
<trkpt lat="13.26754" lon="99.79496"><ele>12</ele><time>2018-06-17T04:35:08Z</time></trkpt>
<trkpt lat="13.26753" lon="99.79491"><ele>13</ele><time>2018-06-17T04:35:12Z</time></trkpt>
<trkpt lat="13.26754" lon="99.79486"><ele>13</ele><time>2018-06-17T04:35:17Z</time></trkpt>
<trkpt lat="13.26753" lon="99.79481"><ele>13</ele><time>2018-06-17T04:35:23Z</time></trkpt>
<trkpt lat="13.26752" lon="99.79476"><ele>15</ele><time>2018-06-17T04:37:23Z</time></trkpt>
<trkpt lat="13.26753" lon="99.79471"><ele>14</ele><time>2018-06-17T04:37:31Z</time></trkpt>
<trkpt lat="13.26755" lon="99.79466"><ele>14</ele><time>2018-06-17T04:37:33Z</time></trkpt>
<trkpt lat="13.26757" lon="99.79460"><ele>13</ele><time>2018-06-17T04:37:35Z</time></trkpt>
<trkpt lat="13.26759" lon="99.79454"><ele>12</ele><time>2018-06-17T04:37:37Z</time></trkpt>
<trkpt lat="13.26760" lon="99.79449"><ele>11</ele><time>2018-06-17T04:37:39Z</time></trkpt>
<trkpt lat="13.26760" lon="99.79444"><ele>11</ele><time>2018-06-17T04:37:41Z</time></trkpt>
<trkpt lat="13.26760" lon="99.79437"><ele>11</ele><time>2018-06-17T04:37:44Z</time></trkpt>
<trkpt lat="13.26760" lon="99.79433"><ele>11</ele><time>2018-06-17T04:37:47Z</time></trkpt>
<trkpt lat="13.26761" lon="99.79427"><ele>12</ele><time>2018-06-17T04:37:50Z</time></trkpt>
<trkpt lat="13.26763" lon="99.79422"><ele>11</ele><time>2018-06-17T04:37:53Z</time></trkpt>
<trkpt lat="13.26763" lon="99.79416"><ele>12</ele><time>2018-06-17T04:37:59Z</time></trkpt>
<trkpt lat="13.26761" lon="99.79411"><ele>12</ele><time>2018-06-17T04:38:03Z</time></trkpt>
<trkpt lat="13.26761" lon="99.79406"><ele>13</ele><time>2018-06-17T04:38:06Z</time></trkpt>
<trkpt lat="13.26761" lon="99.79400"><ele>12</ele><time>2018-06-17T04:38:09Z</time></trkpt>
<trkpt lat="13.26762" lon="99.79394"><ele>12</ele><time>2018-06-17T04:38:12Z</time></trkpt>
<trkpt lat="13.26763" lon="99.79388"><ele>12</ele><time>2018-06-17T04:38:15Z</time></trkpt>
<trkpt lat="13.26764" lon="99.79381"><ele>11</ele><time>2018-06-17T04:38:17Z</time></trkpt>
<trkpt lat="13.26765" lon="99.79375"><ele>11</ele><time>2018-06-17T04:38:19Z</time></trkpt>
<trkpt lat="13.26765" lon="99.79369"><ele>12</ele><time>2018-06-17T04:38:21Z</time></trkpt>
<trkpt lat="13.26766" lon="99.79362"><ele>12</ele><time>2018-06-17T04:38:23Z</time></trkpt>
<trkpt lat="13.26767" lon="99.79357"><ele>13</ele><time>2018-06-17T04:38:25Z</time></trkpt>
<trkpt lat="13.26768" lon="99.79351"><ele>13</ele><time>2018-06-17T04:38:27Z</time></trkpt>
<trkpt lat="13.26769" lon="99.79346"><ele>13</ele><time>2018-06-17T04:38:29Z</time></trkpt>
<trkpt lat="13.26770" lon="99.79340"><ele>13</ele><time>2018-06-17T04:38:31Z</time></trkpt>
<trkpt lat="13.26771" lon="99.79334"><ele>13</ele><time>2018-06-17T04:38:33Z</time></trkpt>
<trkpt lat="13.26772" lon="99.79329"><ele>13</ele><time>2018-06-17T04:38:35Z</time></trkpt>
<trkpt lat="13.26773" lon="99.79323"><ele>14</ele><time>2018-06-17T04:38:37Z</time></trkpt>
<trkpt lat="13.26774" lon="99.79317"><ele>14</ele><time>2018-06-17T04:38:39Z</time></trkpt>
<trkpt lat="13.26775" lon="99.79312"><ele>14</ele><time>2018-06-17T04:38:41Z</time></trkpt>
<trkpt lat="13.26776" lon="99.79306"><ele>13</ele><time>2018-06-17T04:38:43Z</time></trkpt>
<trkpt lat="13.26776" lon="99.79299"><ele>13</ele><time>2018-06-17T04:38:45Z</time></trkpt>
<trkpt lat="13.26777" lon="99.79292"><ele>12</ele><time>2018-06-17T04:38:47Z</time></trkpt>
<trkpt lat="13.26777" lon="99.79285"><ele>13</ele><time>2018-06-17T04:38:49Z</time></trkpt>
<trkpt lat="13.26778" lon="99.79278"><ele>13</ele><time>2018-06-17T04:38:51Z</time></trkpt>
<trkpt lat="13.26778" lon="99.79272"><ele>12</ele><time>2018-06-17T04:38:53Z</time></trkpt>
<trkpt lat="13.26779" lon="99.79266"><ele>12</ele><time>2018-06-17T04:38:55Z</time></trkpt>
<trkpt lat="13.26779" lon="99.79261"><ele>12</ele><time>2018-06-17T04:38:57Z</time></trkpt>
<trkpt lat="13.26779" lon="99.79255"><ele>12</ele><time>2018-06-17T04:38:59Z</time></trkpt>
<trkpt lat="13.26779" lon="99.79249"><ele>12</ele><time>2018-06-17T04:39:01Z</time></trkpt>
<trkpt lat="13.26779" lon="99.79243"><ele>12</ele><time>2018-06-17T04:39:03Z</time></trkpt>
<trkpt lat="13.26779" lon="99.79237"><ele>11</ele><time>2018-06-17T04:39:05Z</time></trkpt>
<trkpt lat="13.26779" lon="99.79232"><ele>11</ele><time>2018-06-17T04:39:07Z</time></trkpt>
<trkpt lat="13.26779" lon="99.79226"><ele>11</ele><time>2018-06-17T04:39:09Z</time></trkpt>
<trkpt lat="13.26778" lon="99.79221"><ele>11</ele><time>2018-06-17T04:39:11Z</time></trkpt>
<trkpt lat="13.26777" lon="99.79215"><ele>11</ele><time>2018-06-17T04:39:13Z</time></trkpt>
<trkpt lat="13.26777" lon="99.79208"><ele>11</ele><time>2018-06-17T04:39:15Z</time></trkpt>
<trkpt lat="13.26777" lon="99.79203"><ele>11</ele><time>2018-06-17T04:39:17Z</time></trkpt>
<trkpt lat="13.26777" lon="99.79197"><ele>12</ele><time>2018-06-17T04:39:19Z</time></trkpt>
<trkpt lat="13.26780" lon="99.79191"><ele>12</ele><time>2018-06-17T04:39:21Z</time></trkpt>
<trkpt lat="13.26783" lon="99.79185"><ele>12</ele><time>2018-06-17T04:39:23Z</time></trkpt>
<trkpt lat="13.26788" lon="99.79180"><ele>12</ele><time>2018-06-17T04:39:25Z</time></trkpt>
<trkpt lat="13.26794" lon="99.79175"><ele>12</ele><time>2018-06-17T04:39:27Z</time></trkpt>
<trkpt lat="13.26799" lon="99.79169"><ele>12</ele><time>2018-06-17T04:39:29Z</time></trkpt>
<trkpt lat="13.26804" lon="99.79163"><ele>13</ele><time>2018-06-17T04:39:31Z</time></trkpt>
<trkpt lat="13.26810" lon="99.79156"><ele>14</ele><time>2018-06-17T04:39:33Z</time></trkpt>
<trkpt lat="13.26813" lon="99.79153"><ele>14</ele><time>2018-06-17T04:39:34Z</time></trkpt>
<trkpt lat="13.26816" lon="99.79149"><ele>15</ele><time>2018-06-17T04:39:35Z</time></trkpt>
<trkpt lat="13.26819" lon="99.79145"><ele>15</ele><time>2018-06-17T04:39:36Z</time></trkpt>
<trkpt lat="13.26822" lon="99.79142"><ele>15</ele><time>2018-06-17T04:39:37Z</time></trkpt>
<trkpt lat="13.26825" lon="99.79138"><ele>15</ele><time>2018-06-17T04:39:38Z</time></trkpt>
<trkpt lat="13.26831" lon="99.79132"><ele>15</ele><time>2018-06-17T04:39:40Z</time></trkpt>
<trkpt lat="13.26836" lon="99.79125"><ele>16</ele><time>2018-06-17T04:39:42Z</time></trkpt>
<trkpt lat="13.26841" lon="99.79119"><ele>16</ele><time>2018-06-17T04:39:44Z</time></trkpt>
<trkpt lat="13.26843" lon="99.79112"><ele>16</ele><time>2018-06-17T04:39:46Z</time></trkpt>
<trkpt lat="13.26844" lon="99.79105"><ele>16</ele><time>2018-06-17T04:39:48Z</time></trkpt>
<trkpt lat="13.26844" lon="99.79097"><ele>16</ele><time>2018-06-17T04:39:50Z</time></trkpt>
<trkpt lat="13.26844" lon="99.79090"><ele>16</ele><time>2018-06-17T04:39:52Z</time></trkpt>
<trkpt lat="13.26843" lon="99.79083"><ele>16</ele><time>2018-06-17T04:39:54Z</time></trkpt>
<trkpt lat="13.26841" lon="99.79077"><ele>16</ele><time>2018-06-17T04:39:56Z</time></trkpt>
<trkpt lat="13.26839" lon="99.79071"><ele>16</ele><time>2018-06-17T04:39:58Z</time></trkpt>
<trkpt lat="13.26838" lon="99.79065"><ele>16</ele><time>2018-06-17T04:40:00Z</time></trkpt>
<trkpt lat="13.26838" lon="99.79060"><ele>16</ele><time>2018-06-17T04:40:02Z</time></trkpt>
<trkpt lat="13.26838" lon="99.79054"><ele>15</ele><time>2018-06-17T04:40:05Z</time></trkpt>
<trkpt lat="13.26838" lon="99.79049"><ele>14</ele><time>2018-06-17T04:40:07Z</time></trkpt>
<trkpt lat="13.26837" lon="99.79043"><ele>14</ele><time>2018-06-17T04:40:09Z</time></trkpt>
<trkpt lat="13.26835" lon="99.79036"><ele>14</ele><time>2018-06-17T04:40:11Z</time></trkpt>
<trkpt lat="13.26834" lon="99.79030"><ele>15</ele><time>2018-06-17T04:40:13Z</time></trkpt>
<trkpt lat="13.26833" lon="99.79023"><ele>14</ele><time>2018-06-17T04:40:15Z</time></trkpt>
<trkpt lat="13.26831" lon="99.79015"><ele>14</ele><time>2018-06-17T04:40:17Z</time></trkpt>
<trkpt lat="13.26831" lon="99.79007"><ele>15</ele><time>2018-06-17T04:40:19Z</time></trkpt>
<trkpt lat="13.26832" lon="99.78998"><ele>15</ele><time>2018-06-17T04:40:21Z</time></trkpt>
<trkpt lat="13.26834" lon="99.78990"><ele>15</ele><time>2018-06-17T04:40:23Z</time></trkpt>
<trkpt lat="13.26836" lon="99.78982"><ele>15</ele><time>2018-06-17T04:40:25Z</time></trkpt>
<trkpt lat="13.26837" lon="99.78977"><ele>15</ele><time>2018-06-17T04:40:26Z</time></trkpt>
<trkpt lat="13.26839" lon="99.78972"><ele>15</ele><time>2018-06-17T04:40:27Z</time></trkpt>
<trkpt lat="13.26841" lon="99.78968"><ele>15</ele><time>2018-06-17T04:40:28Z</time></trkpt>
<trkpt lat="13.26844" lon="99.78964"><ele>16</ele><time>2018-06-17T04:40:29Z</time></trkpt>
<trkpt lat="13.26849" lon="99.78957"><ele>15</ele><time>2018-06-17T04:40:31Z</time></trkpt>
<trkpt lat="13.26855" lon="99.78950"><ele>16</ele><time>2018-06-17T04:40:33Z</time></trkpt>
<trkpt lat="13.26860" lon="99.78943"><ele>16</ele><time>2018-06-17T04:40:35Z</time></trkpt>
<trkpt lat="13.26863" lon="99.78936"><ele>17</ele><time>2018-06-17T04:40:37Z</time></trkpt>
<trkpt lat="13.26866" lon="99.78929"><ele>17</ele><time>2018-06-17T04:40:39Z</time></trkpt>
<trkpt lat="13.26869" lon="99.78923"><ele>17</ele><time>2018-06-17T04:40:41Z</time></trkpt>
<trkpt lat="13.26871" lon="99.78915"><ele>17</ele><time>2018-06-17T04:40:43Z</time></trkpt>
<trkpt lat="13.26874" lon="99.78907"><ele>16</ele><time>2018-06-17T04:40:45Z</time></trkpt>
<trkpt lat="13.26877" lon="99.78898"><ele>16</ele><time>2018-06-17T04:40:47Z</time></trkpt>
<trkpt lat="13.26880" lon="99.78891"><ele>17</ele><time>2018-06-17T04:40:49Z</time></trkpt>
<trkpt lat="13.26884" lon="99.78885"><ele>17</ele><time>2018-06-17T04:40:51Z</time></trkpt>
<trkpt lat="13.26888" lon="99.78879"><ele>17</ele><time>2018-06-17T04:40:53Z</time></trkpt>
<trkpt lat="13.26893" lon="99.78875"><ele>17</ele><time>2018-06-17T04:40:55Z</time></trkpt>
<trkpt lat="13.26898" lon="99.78870"><ele>17</ele><time>2018-06-17T04:40:57Z</time></trkpt>
<trkpt lat="13.26903" lon="99.78865"><ele>17</ele><time>2018-06-17T04:40:59Z</time></trkpt>
<trkpt lat="13.26908" lon="99.78860"><ele>17</ele><time>2018-06-17T04:41:01Z</time></trkpt>
<trkpt lat="13.26912" lon="99.78854"><ele>16</ele><time>2018-06-17T04:41:03Z</time></trkpt>
<trkpt lat="13.26914" lon="99.78848"><ele>17</ele><time>2018-06-17T04:41:05Z</time></trkpt>
<trkpt lat="13.26914" lon="99.78841"><ele>16</ele><time>2018-06-17T04:41:07Z</time></trkpt>
<trkpt lat="13.26913" lon="99.78833"><ele>17</ele><time>2018-06-17T04:41:09Z</time></trkpt>
<trkpt lat="13.26912" lon="99.78826"><ele>17</ele><time>2018-06-17T04:41:11Z</time></trkpt>
<trkpt lat="13.26912" lon="99.78818"><ele>17</ele><time>2018-06-17T04:41:13Z</time></trkpt>
<trkpt lat="13.26911" lon="99.78811"><ele>16</ele><time>2018-06-17T04:41:15Z</time></trkpt>
<trkpt lat="13.26910" lon="99.78803"><ele>16</ele><time>2018-06-17T04:41:17Z</time></trkpt>
<trkpt lat="13.26908" lon="99.78795"><ele>16</ele><time>2018-06-17T04:41:19Z</time></trkpt>
<trkpt lat="13.26907" lon="99.78788"><ele>16</ele><time>2018-06-17T04:41:21Z</time></trkpt>
<trkpt lat="13.26906" lon="99.78781"><ele>16</ele><time>2018-06-17T04:41:23Z</time></trkpt>
<trkpt lat="13.26906" lon="99.78774"><ele>17</ele><time>2018-06-17T04:41:25Z</time></trkpt>
<trkpt lat="13.26905" lon="99.78768"><ele>17</ele><time>2018-06-17T04:41:27Z</time></trkpt>
<trkpt lat="13.26904" lon="99.78761"><ele>17</ele><time>2018-06-17T04:41:29Z</time></trkpt>
<trkpt lat="13.26903" lon="99.78754"><ele>17</ele><time>2018-06-17T04:41:31Z</time></trkpt>
<trkpt lat="13.26902" lon="99.78747"><ele>17</ele><time>2018-06-17T04:41:33Z</time></trkpt>
<trkpt lat="13.26901" lon="99.78739"><ele>18</ele><time>2018-06-17T04:41:35Z</time></trkpt>
<trkpt lat="13.26901" lon="99.78731"><ele>18</ele><time>2018-06-17T04:41:37Z</time></trkpt>
<trkpt lat="13.26901" lon="99.78723"><ele>19</ele><time>2018-06-17T04:41:39Z</time></trkpt>
<trkpt lat="13.26901" lon="99.78715"><ele>19</ele><time>2018-06-17T04:41:41Z</time></trkpt>
<trkpt lat="13.26901" lon="99.78707"><ele>19</ele><time>2018-06-17T04:41:43Z</time></trkpt>
<trkpt lat="13.26900" lon="99.78700"><ele>20</ele><time>2018-06-17T04:41:45Z</time></trkpt>
<trkpt lat="13.26900" lon="99.78692"><ele>20</ele><time>2018-06-17T04:41:47Z</time></trkpt>
<trkpt lat="13.26901" lon="99.78685"><ele>21</ele><time>2018-06-17T04:41:49Z</time></trkpt>
<trkpt lat="13.26901" lon="99.78677"><ele>21</ele><time>2018-06-17T04:41:51Z</time></trkpt>
<trkpt lat="13.26901" lon="99.78670"><ele>21</ele><time>2018-06-17T04:41:53Z</time></trkpt>
<trkpt lat="13.26902" lon="99.78663"><ele>21</ele><time>2018-06-17T04:41:55Z</time></trkpt>
<trkpt lat="13.26902" lon="99.78654"><ele>21</ele><time>2018-06-17T04:41:57Z</time></trkpt>
<trkpt lat="13.26901" lon="99.78646"><ele>22</ele><time>2018-06-17T04:41:59Z</time></trkpt>
<trkpt lat="13.26899" lon="99.78639"><ele>22</ele><time>2018-06-17T04:42:01Z</time></trkpt>
<trkpt lat="13.26898" lon="99.78632"><ele>22</ele><time>2018-06-17T04:42:03Z</time></trkpt>
<trkpt lat="13.26899" lon="99.78625"><ele>22</ele><time>2018-06-17T04:42:05Z</time></trkpt>
<trkpt lat="13.26899" lon="99.78617"><ele>23</ele><time>2018-06-17T04:42:07Z</time></trkpt>
<trkpt lat="13.26900" lon="99.78610"><ele>23</ele><time>2018-06-17T04:42:09Z</time></trkpt>
<trkpt lat="13.26901" lon="99.78603"><ele>23</ele><time>2018-06-17T04:42:11Z</time></trkpt>
<trkpt lat="13.26905" lon="99.78596"><ele>23</ele><time>2018-06-17T04:42:13Z</time></trkpt>
<trkpt lat="13.26907" lon="99.78589"><ele>24</ele><time>2018-06-17T04:42:15Z</time></trkpt>
<trkpt lat="13.26905" lon="99.78584"><ele>23</ele><time>2018-06-17T04:42:17Z</time></trkpt>
<trkpt lat="13.26903" lon="99.78577"><ele>23</ele><time>2018-06-17T04:42:19Z</time></trkpt>
<trkpt lat="13.26900" lon="99.78570"><ele>23</ele><time>2018-06-17T04:42:21Z</time></trkpt>
<trkpt lat="13.26896" lon="99.78563"><ele>22</ele><time>2018-06-17T04:42:23Z</time></trkpt>
<trkpt lat="13.26894" lon="99.78558"><ele>22</ele><time>2018-06-17T04:42:25Z</time></trkpt>
<trkpt lat="13.26891" lon="99.78553"><ele>22</ele><time>2018-06-17T04:42:27Z</time></trkpt>
<trkpt lat="13.26888" lon="99.78548"><ele>23</ele><time>2018-06-17T04:42:29Z</time></trkpt>
<trkpt lat="13.26884" lon="99.78543"><ele>23</ele><time>2018-06-17T04:42:31Z</time></trkpt>
<trkpt lat="13.26879" lon="99.78538"><ele>23</ele><time>2018-06-17T04:42:33Z</time></trkpt>
<trkpt lat="13.26874" lon="99.78530"><ele>23</ele><time>2018-06-17T04:42:35Z</time></trkpt>
<trkpt lat="13.26872" lon="99.78522"><ele>23</ele><time>2018-06-17T04:42:37Z</time></trkpt>
<trkpt lat="13.26870" lon="99.78515"><ele>23</ele><time>2018-06-17T04:42:39Z</time></trkpt>
<trkpt lat="13.26864" lon="99.78508"><ele>24</ele><time>2018-06-17T04:42:41Z</time></trkpt>
<trkpt lat="13.26861" lon="99.78505"><ele>24</ele><time>2018-06-17T04:42:42Z</time></trkpt>
<trkpt lat="13.26855" lon="99.78499"><ele>24</ele><time>2018-06-17T04:42:44Z</time></trkpt>
<trkpt lat="13.26850" lon="99.78492"><ele>24</ele><time>2018-06-17T04:42:46Z</time></trkpt>
<trkpt lat="13.26846" lon="99.78484"><ele>24</ele><time>2018-06-17T04:42:48Z</time></trkpt>
<trkpt lat="13.26841" lon="99.78479"><ele>24</ele><time>2018-06-17T04:42:50Z</time></trkpt>
<trkpt lat="13.26835" lon="99.78476"><ele>25</ele><time>2018-06-17T04:42:52Z</time></trkpt>
<trkpt lat="13.26829" lon="99.78476"><ele>25</ele><time>2018-06-17T04:42:54Z</time></trkpt>
<trkpt lat="13.26823" lon="99.78475"><ele>26</ele><time>2018-06-17T04:42:56Z</time></trkpt>
<trkpt lat="13.26817" lon="99.78474"><ele>26</ele><time>2018-06-17T04:42:58Z</time></trkpt>
<trkpt lat="13.26812" lon="99.78473"><ele>27</ele><time>2018-06-17T04:43:00Z</time></trkpt>
<trkpt lat="13.26807" lon="99.78472"><ele>27</ele><time>2018-06-17T04:43:02Z</time></trkpt>
<trkpt lat="13.26802" lon="99.78471"><ele>27</ele><time>2018-06-17T04:43:04Z</time></trkpt>
<trkpt lat="13.26797" lon="99.78470"><ele>28</ele><time>2018-06-17T04:43:06Z</time></trkpt>
<trkpt lat="13.26792" lon="99.78469"><ele>28</ele><time>2018-06-17T04:43:08Z</time></trkpt>
<trkpt lat="13.26786" lon="99.78468"><ele>28</ele><time>2018-06-17T04:43:10Z</time></trkpt>
<trkpt lat="13.26781" lon="99.78466"><ele>29</ele><time>2018-06-17T04:43:12Z</time></trkpt>
<trkpt lat="13.26775" lon="99.78465"><ele>29</ele><time>2018-06-17T04:43:14Z</time></trkpt>
<trkpt lat="13.26769" lon="99.78464"><ele>30</ele><time>2018-06-17T04:43:16Z</time></trkpt>
<trkpt lat="13.26763" lon="99.78464"><ele>30</ele><time>2018-06-17T04:43:18Z</time></trkpt>
<trkpt lat="13.26756" lon="99.78464"><ele>30</ele><time>2018-06-17T04:43:20Z</time></trkpt>
<trkpt lat="13.26751" lon="99.78463"><ele>31</ele><time>2018-06-17T04:43:22Z</time></trkpt>
<trkpt lat="13.26746" lon="99.78462"><ele>31</ele><time>2018-06-17T04:43:24Z</time></trkpt>
<trkpt lat="13.26739" lon="99.78461"><ele>30</ele><time>2018-06-17T04:43:27Z</time></trkpt>
<trkpt lat="13.26733" lon="99.78460"><ele>30</ele><time>2018-06-17T04:43:29Z</time></trkpt>
<trkpt lat="13.26728" lon="99.78460"><ele>30</ele><time>2018-06-17T04:43:30Z</time></trkpt>
<trkpt lat="13.26720" lon="99.78459"><ele>30</ele><time>2018-06-17T04:43:32Z</time></trkpt>
<trkpt lat="13.26713" lon="99.78458"><ele>30</ele><time>2018-06-17T04:43:34Z</time></trkpt>
<trkpt lat="13.26705" lon="99.78458"><ele>30</ele><time>2018-06-17T04:43:36Z</time></trkpt>
<trkpt lat="13.26699" lon="99.78456"><ele>30</ele><time>2018-06-17T04:43:38Z</time></trkpt>
<trkpt lat="13.26693" lon="99.78455"><ele>30</ele><time>2018-06-17T04:43:40Z</time></trkpt>
<trkpt lat="13.26686" lon="99.78452"><ele>30</ele><time>2018-06-17T04:43:42Z</time></trkpt>
<trkpt lat="13.26679" lon="99.78450"><ele>30</ele><time>2018-06-17T04:43:44Z</time></trkpt>
<trkpt lat="13.26671" lon="99.78447"><ele>30</ele><time>2018-06-17T04:43:46Z</time></trkpt>
<trkpt lat="13.26664" lon="99.78445"><ele>30</ele><time>2018-06-17T04:43:48Z</time></trkpt>
<trkpt lat="13.26658" lon="99.78443"><ele>30</ele><time>2018-06-17T04:43:50Z</time></trkpt>
<trkpt lat="13.26650" lon="99.78442"><ele>30</ele><time>2018-06-17T04:43:52Z</time></trkpt>
<trkpt lat="13.26643" lon="99.78440"><ele>30</ele><time>2018-06-17T04:43:54Z</time></trkpt>
<trkpt lat="13.26635" lon="99.78439"><ele>31</ele><time>2018-06-17T04:43:56Z</time></trkpt>
<trkpt lat="13.26628" lon="99.78439"><ele>30</ele><time>2018-06-17T04:43:58Z</time></trkpt>
<trkpt lat="13.26622" lon="99.78442"><ele>30</ele><time>2018-06-17T04:44:00Z</time></trkpt>
<trkpt lat="13.26616" lon="99.78445"><ele>31</ele><time>2018-06-17T04:44:02Z</time></trkpt>
<trkpt lat="13.26610" lon="99.78450"><ele>31</ele><time>2018-06-17T04:44:04Z</time></trkpt>
<trkpt lat="13.26605" lon="99.78455"><ele>31</ele><time>2018-06-17T04:44:06Z</time></trkpt>
<trkpt lat="13.26602" lon="99.78460"><ele>31</ele><time>2018-06-17T04:44:08Z</time></trkpt>
<trkpt lat="13.26599" lon="99.78466"><ele>30</ele><time>2018-06-17T04:44:10Z</time></trkpt>
<trkpt lat="13.26594" lon="99.78471"><ele>31</ele><time>2018-06-17T04:44:12Z</time></trkpt>
<trkpt lat="13.26589" lon="99.78476"><ele>31</ele><time>2018-06-17T04:44:14Z</time></trkpt>
<trkpt lat="13.26584" lon="99.78480"><ele>31</ele><time>2018-06-17T04:44:16Z</time></trkpt>
<trkpt lat="13.26580" lon="99.78484"><ele>31</ele><time>2018-06-17T04:44:18Z</time></trkpt>
<trkpt lat="13.26577" lon="99.78488"><ele>31</ele><time>2018-06-17T04:44:20Z</time></trkpt>
<trkpt lat="13.26574" lon="99.78492"><ele>31</ele><time>2018-06-17T04:44:22Z</time></trkpt>
<trkpt lat="13.26571" lon="99.78498"><ele>31</ele><time>2018-06-17T04:44:25Z</time></trkpt>
<trkpt lat="13.26568" lon="99.78504"><ele>30</ele><time>2018-06-17T04:44:28Z</time></trkpt>
<trkpt lat="13.26566" lon="99.78508"><ele>30</ele><time>2018-06-17T04:44:30Z</time></trkpt>
<trkpt lat="13.26564" lon="99.78514"><ele>30</ele><time>2018-06-17T04:44:33Z</time></trkpt>
<trkpt lat="13.26561" lon="99.78520"><ele>30</ele><time>2018-06-17T04:44:36Z</time></trkpt>
<trkpt lat="13.26557" lon="99.78524"><ele>30</ele><time>2018-06-17T04:44:38Z</time></trkpt>
<trkpt lat="13.26555" lon="99.78530"><ele>30</ele><time>2018-06-17T04:44:41Z</time></trkpt>
<trkpt lat="13.26556" lon="99.78536"><ele>30</ele><time>2018-06-17T04:44:44Z</time></trkpt>
<trkpt lat="13.26556" lon="99.78542"><ele>31</ele><time>2018-06-17T04:44:47Z</time></trkpt>
<trkpt lat="13.26555" lon="99.78548"><ele>31</ele><time>2018-06-17T04:44:50Z</time></trkpt>
<trkpt lat="13.26551" lon="99.78554"><ele>31</ele><time>2018-06-17T04:44:53Z</time></trkpt>
<trkpt lat="13.26549" lon="99.78558"><ele>31</ele><time>2018-06-17T04:44:55Z</time></trkpt>
<trkpt lat="13.26546" lon="99.78563"><ele>31</ele><time>2018-06-17T04:44:57Z</time></trkpt>
<trkpt lat="13.26544" lon="99.78567"><ele>31</ele><time>2018-06-17T04:44:59Z</time></trkpt>
<trkpt lat="13.26541" lon="99.78571"><ele>31</ele><time>2018-06-17T04:45:01Z</time></trkpt>
<trkpt lat="13.26540" lon="99.78576"><ele>32</ele><time>2018-06-17T04:45:03Z</time></trkpt>
<trkpt lat="13.26538" lon="99.78582"><ele>32</ele><time>2018-06-17T04:45:06Z</time></trkpt>
<trkpt lat="13.26537" lon="99.78587"><ele>32</ele><time>2018-06-17T04:45:09Z</time></trkpt>
<trkpt lat="13.26541" lon="99.78590"><ele>32</ele><time>2018-06-17T04:45:13Z</time></trkpt>
<trkpt lat="13.26546" lon="99.78590"><ele>33</ele><time>2018-06-17T04:45:16Z</time></trkpt>
<trkpt lat="13.26549" lon="99.78595"><ele>33</ele><time>2018-06-17T04:45:20Z</time></trkpt>
<trkpt lat="13.26547" lon="99.78600"><ele>33</ele><time>2018-06-17T04:45:23Z</time></trkpt>
<trkpt lat="13.26543" lon="99.78605"><ele>34</ele><time>2018-06-17T04:45:26Z</time></trkpt>
<trkpt lat="13.26539" lon="99.78610"><ele>35</ele><time>2018-06-17T04:45:29Z</time></trkpt>
<trkpt lat="13.26537" lon="99.78614"><ele>35</ele><time>2018-06-17T04:45:32Z</time></trkpt>
<trkpt lat="13.26536" lon="99.78620"><ele>36</ele><time>2018-06-17T04:45:35Z</time></trkpt>
<trkpt lat="13.26535" lon="99.78625"><ele>36</ele><time>2018-06-17T04:45:38Z</time></trkpt>
<trkpt lat="13.26533" lon="99.78629"><ele>37</ele><time>2018-06-17T04:45:41Z</time></trkpt>
<trkpt lat="13.26529" lon="99.78632"><ele>38</ele><time>2018-06-17T04:45:46Z</time></trkpt>
<trkpt lat="13.26524" lon="99.78630"><ele>42</ele><time>2018-06-17T04:46:29Z</time></trkpt>
<trkpt lat="13.26519" lon="99.78627"><ele>41</ele><time>2018-06-17T04:46:31Z</time></trkpt>
<trkpt lat="13.26515" lon="99.78624"><ele>41</ele><time>2018-06-17T04:46:34Z</time></trkpt>
<trkpt lat="13.26510" lon="99.78622"><ele>41</ele><time>2018-06-17T04:46:40Z</time></trkpt>
<trkpt lat="13.26504" lon="99.78619"><ele>41</ele><time>2018-06-17T04:46:43Z</time></trkpt>
<trkpt lat="13.26499" lon="99.78621"><ele>41</ele><time>2018-06-17T04:46:46Z</time></trkpt>
<trkpt lat="13.26494" lon="99.78623"><ele>42</ele><time>2018-06-17T04:46:48Z</time></trkpt>
<trkpt lat="13.26489" lon="99.78623"><ele>42</ele><time>2018-06-17T04:46:52Z</time></trkpt>
<trkpt lat="13.26484" lon="99.78625"><ele>41</ele><time>2018-06-17T04:47:01Z</time></trkpt>
<trkpt lat="13.26480" lon="99.78629"><ele>41</ele><time>2018-06-17T04:47:03Z</time></trkpt>
<trkpt lat="13.26477" lon="99.78634"><ele>41</ele><time>2018-06-17T04:47:05Z</time></trkpt>
<trkpt lat="13.26473" lon="99.78636"><ele>40</ele><time>2018-06-17T04:47:06Z</time></trkpt>
<trkpt lat="13.26467" lon="99.78642"><ele>40</ele><time>2018-06-17T04:47:08Z</time></trkpt>
<trkpt lat="13.26462" lon="99.78648"><ele>39</ele><time>2018-06-17T04:47:10Z</time></trkpt>
<trkpt lat="13.26458" lon="99.78652"><ele>40</ele><time>2018-06-17T04:47:12Z</time></trkpt>
<trkpt lat="13.26454" lon="99.78658"><ele>38</ele><time>2018-06-17T04:47:15Z</time></trkpt>
<trkpt lat="13.26453" lon="99.78662"><ele>38</ele><time>2018-06-17T04:47:18Z</time></trkpt>
<trkpt lat="13.26451" lon="99.78667"><ele>37</ele><time>2018-06-17T04:47:23Z</time></trkpt>
<trkpt lat="13.26448" lon="99.78672"><ele>35</ele><time>2018-06-17T04:47:45Z</time></trkpt>
<trkpt lat="13.26447" lon="99.78679"><ele>35</ele><time>2018-06-17T04:47:48Z</time></trkpt>
<trkpt lat="13.26447" lon="99.78685"><ele>34</ele><time>2018-06-17T04:47:51Z</time></trkpt>
<trkpt lat="13.26445" lon="99.78689"><ele>35</ele><time>2018-06-17T04:47:53Z</time></trkpt>
<trkpt lat="13.26441" lon="99.78695"><ele>34</ele><time>2018-06-17T04:47:55Z</time></trkpt>
<trkpt lat="13.26438" lon="99.78700"><ele>34</ele><time>2018-06-17T04:47:57Z</time></trkpt>
<trkpt lat="13.26435" lon="99.78705"><ele>33</ele><time>2018-06-17T04:47:59Z</time></trkpt>
<trkpt lat="13.26433" lon="99.78708"><ele>33</ele><time>2018-06-17T04:48:01Z</time></trkpt>
<trkpt lat="13.26426" lon="99.78710"><ele>33</ele><time>2018-06-17T04:48:04Z</time></trkpt>
<trkpt lat="13.26421" lon="99.78712"><ele>33</ele><time>2018-06-17T04:48:06Z</time></trkpt>
<trkpt lat="13.26415" lon="99.78716"><ele>33</ele><time>2018-06-17T04:48:08Z</time></trkpt>
<trkpt lat="13.26410" lon="99.78719"><ele>33</ele><time>2018-06-17T04:48:10Z</time></trkpt>
<trkpt lat="13.26405" lon="99.78720"><ele>33</ele><time>2018-06-17T04:48:12Z</time></trkpt>
<trkpt lat="13.26400" lon="99.78721"><ele>35</ele><time>2018-06-17T04:48:16Z</time></trkpt>
<trkpt lat="13.26395" lon="99.78720"><ele>32</ele><time>2018-06-17T04:51:33Z</time></trkpt>
<trkpt lat="13.26391" lon="99.78721"><ele>33</ele><time>2018-06-17T04:52:01Z</time></trkpt>
<trkpt lat="13.26386" lon="99.78722"><ele>35</ele><time>2018-06-17T04:53:32Z</time></trkpt>
<trkpt lat="13.26380" lon="99.78720"><ele>33</ele><time>2018-06-17T04:53:36Z</time></trkpt>
<trkpt lat="13.26374" lon="99.78716"><ele>34</ele><time>2018-06-17T04:53:38Z</time></trkpt>
<trkpt lat="13.26367" lon="99.78712"><ele>32</ele><time>2018-06-17T04:53:40Z</time></trkpt>
<trkpt lat="13.26362" lon="99.78711"><ele>33</ele><time>2018-06-17T04:53:41Z</time></trkpt>
<trkpt lat="13.26358" lon="99.78709"><ele>33</ele><time>2018-06-17T04:53:42Z</time></trkpt>
<trkpt lat="13.26349" lon="99.78707"><ele>32</ele><time>2018-06-17T04:53:44Z</time></trkpt>
<trkpt lat="13.26342" lon="99.78705"><ele>31</ele><time>2018-06-17T04:53:46Z</time></trkpt>
<trkpt lat="13.26334" lon="99.78704"><ele>31</ele><time>2018-06-17T04:53:48Z</time></trkpt>
<trkpt lat="13.26327" lon="99.78705"><ele>31</ele><time>2018-06-17T04:53:50Z</time></trkpt>
<trkpt lat="13.26321" lon="99.78705"><ele>32</ele><time>2018-06-17T04:53:51Z</time></trkpt>
<trkpt lat="13.26316" lon="99.78706"><ele>31</ele><time>2018-06-17T04:53:52Z</time></trkpt>
<trkpt lat="13.26307" lon="99.78705"><ele>31</ele><time>2018-06-17T04:53:53Z</time></trkpt>
<trkpt lat="13.26301" lon="99.78704"><ele>31</ele><time>2018-06-17T04:53:54Z</time></trkpt>
<trkpt lat="13.26296" lon="99.78703"><ele>32</ele><time>2018-06-17T04:53:55Z</time></trkpt>
<trkpt lat="13.26288" lon="99.78703"><ele>32</ele><time>2018-06-17T04:53:56Z</time></trkpt>
<trkpt lat="13.26281" lon="99.78702"><ele>32</ele><time>2018-06-17T04:53:57Z</time></trkpt>
<trkpt lat="13.26274" lon="99.78700"><ele>32</ele><time>2018-06-17T04:53:58Z</time></trkpt>
<trkpt lat="13.26266" lon="99.78699"><ele>32</ele><time>2018-06-17T04:53:59Z</time></trkpt>
<trkpt lat="13.26260" lon="99.78696"><ele>32</ele><time>2018-06-17T04:54:00Z</time></trkpt>
<trkpt lat="13.26253" lon="99.78694"><ele>32</ele><time>2018-06-17T04:54:01Z</time></trkpt>
<trkpt lat="13.26249" lon="99.78693"><ele>33</ele><time>2018-06-17T04:54:02Z</time></trkpt>
<trkpt lat="13.26243" lon="99.78693"><ele>32</ele><time>2018-06-17T04:54:03Z</time></trkpt>
<trkpt lat="13.26236" lon="99.78693"><ele>32</ele><time>2018-06-17T04:54:05Z</time></trkpt>
<trkpt lat="13.26232" lon="99.78694"><ele>32</ele><time>2018-06-17T04:54:14Z</time></trkpt>
<trkpt lat="13.26227" lon="99.78694"><ele>29</ele><time>2018-06-17T04:55:13Z</time></trkpt>
<trkpt lat="13.26221" lon="99.78693"><ele>28</ele><time>2018-06-17T04:55:17Z</time></trkpt>
<trkpt lat="13.26216" lon="99.78694"><ele>28</ele><time>2018-06-17T04:55:21Z</time></trkpt>
<trkpt lat="13.26211" lon="99.78695"><ele>28</ele><time>2018-06-17T04:55:30Z</time></trkpt>
<trkpt lat="13.26205" lon="99.78696"><ele>28</ele><time>2018-06-17T04:55:33Z</time></trkpt>
<trkpt lat="13.26198" lon="99.78694"><ele>26</ele><time>2018-06-17T04:55:36Z</time></trkpt>
<trkpt lat="13.26190" lon="99.78692"><ele>25</ele><time>2018-06-17T04:55:38Z</time></trkpt>
<trkpt lat="13.26183" lon="99.78692"><ele>25</ele><time>2018-06-17T04:55:39Z</time></trkpt>
<trkpt lat="13.26178" lon="99.78693"><ele>26</ele><time>2018-06-17T04:55:40Z</time></trkpt>
<trkpt lat="13.26172" lon="99.78694"><ele>26</ele><time>2018-06-17T04:55:41Z</time></trkpt>
<trkpt lat="13.26166" lon="99.78694"><ele>27</ele><time>2018-06-17T04:55:42Z</time></trkpt>
<trkpt lat="13.26159" lon="99.78692"><ele>26</ele><time>2018-06-17T04:55:43Z</time></trkpt>
<trkpt lat="13.26152" lon="99.78691"><ele>26</ele><time>2018-06-17T04:55:44Z</time></trkpt>
<trkpt lat="13.26147" lon="99.78690"><ele>26</ele><time>2018-06-17T04:55:45Z</time></trkpt>
<trkpt lat="13.26142" lon="99.78689"><ele>27</ele><time>2018-06-17T04:55:46Z</time></trkpt>
<trkpt lat="13.26134" lon="99.78691"><ele>25</ele><time>2018-06-17T04:55:48Z</time></trkpt>
<trkpt lat="13.26128" lon="99.78696"><ele>24</ele><time>2018-06-17T04:55:50Z</time></trkpt>
<trkpt lat="13.26123" lon="99.78702"><ele>24</ele><time>2018-06-17T04:55:52Z</time></trkpt>
<trkpt lat="13.26117" lon="99.78709"><ele>24</ele><time>2018-06-17T04:55:54Z</time></trkpt>
<trkpt lat="13.26111" lon="99.78716"><ele>24</ele><time>2018-06-17T04:55:56Z</time></trkpt>
<trkpt lat="13.26108" lon="99.78720"><ele>24</ele><time>2018-06-17T04:55:57Z</time></trkpt>
<trkpt lat="13.26105" lon="99.78725"><ele>23</ele><time>2018-06-17T04:55:58Z</time></trkpt>
<trkpt lat="13.26103" lon="99.78733"><ele>23</ele><time>2018-06-17T04:56:00Z</time></trkpt>
<trkpt lat="13.26102" lon="99.78741"><ele>22</ele><time>2018-06-17T04:56:02Z</time></trkpt>
<trkpt lat="13.26101" lon="99.78749"><ele>22</ele><time>2018-06-17T04:56:04Z</time></trkpt>
<trkpt lat="13.26100" lon="99.78757"><ele>22</ele><time>2018-06-17T04:56:06Z</time></trkpt>
<trkpt lat="13.26099" lon="99.78763"><ele>22</ele><time>2018-06-17T04:56:08Z</time></trkpt>
<trkpt lat="13.26102" lon="99.78768"><ele>22</ele><time>2018-06-17T04:56:10Z</time></trkpt>
<trkpt lat="13.26106" lon="99.78769"><ele>20</ele><time>2018-06-17T04:56:12Z</time></trkpt>
<trkpt lat="13.26112" lon="99.78768"><ele>20</ele><time>2018-06-17T04:56:14Z</time></trkpt>
<trkpt lat="13.26118" lon="99.78767"><ele>20</ele><time>2018-06-17T04:56:16Z</time></trkpt>
<trkpt lat="13.26125" lon="99.78766"><ele>19</ele><time>2018-06-17T04:56:18Z</time></trkpt>
<trkpt lat="13.26132" lon="99.78768"><ele>20</ele><time>2018-06-17T04:56:20Z</time></trkpt>
<trkpt lat="13.26137" lon="99.78771"><ele>21</ele><time>2018-06-17T04:56:22Z</time></trkpt>
<trkpt lat="13.26141" lon="99.78776"><ele>21</ele><time>2018-06-17T04:56:24Z</time></trkpt>
<trkpt lat="13.26144" lon="99.78781"><ele>21</ele><time>2018-06-17T04:56:26Z</time></trkpt>
<trkpt lat="13.26147" lon="99.78787"><ele>21</ele><time>2018-06-17T04:56:28Z</time></trkpt>
<trkpt lat="13.26150" lon="99.78794"><ele>21</ele><time>2018-06-17T04:56:30Z</time></trkpt>
<trkpt lat="13.26152" lon="99.78801"><ele>21</ele><time>2018-06-17T04:56:32Z</time></trkpt>
<trkpt lat="13.26155" lon="99.78809"><ele>21</ele><time>2018-06-17T04:56:34Z</time></trkpt>
<trkpt lat="13.26158" lon="99.78816"><ele>21</ele><time>2018-06-17T04:56:36Z</time></trkpt>
<trkpt lat="13.26160" lon="99.78823"><ele>21</ele><time>2018-06-17T04:56:38Z</time></trkpt>
<trkpt lat="13.26160" lon="99.78830"><ele>21</ele><time>2018-06-17T04:56:40Z</time></trkpt>
<trkpt lat="13.26160" lon="99.78836"><ele>21</ele><time>2018-06-17T04:56:42Z</time></trkpt>
<trkpt lat="13.26161" lon="99.78841"><ele>21</ele><time>2018-06-17T04:56:44Z</time></trkpt>
<trkpt lat="13.26161" lon="99.78848"><ele>21</ele><time>2018-06-17T04:56:46Z</time></trkpt>
<trkpt lat="13.26161" lon="99.78855"><ele>21</ele><time>2018-06-17T04:56:48Z</time></trkpt>
<trkpt lat="13.26161" lon="99.78862"><ele>21</ele><time>2018-06-17T04:56:50Z</time></trkpt>
<trkpt lat="13.26161" lon="99.78870"><ele>22</ele><time>2018-06-17T04:56:52Z</time></trkpt>
<trkpt lat="13.26160" lon="99.78878"><ele>22</ele><time>2018-06-17T04:56:54Z</time></trkpt>
<trkpt lat="13.26159" lon="99.78887"><ele>23</ele><time>2018-06-17T04:56:56Z</time></trkpt>
<trkpt lat="13.26159" lon="99.78892"><ele>23</ele><time>2018-06-17T04:56:57Z</time></trkpt>
<trkpt lat="13.26158" lon="99.78897"><ele>23</ele><time>2018-06-17T04:56:58Z</time></trkpt>
<trkpt lat="13.26158" lon="99.78902"><ele>24</ele><time>2018-06-17T04:56:59Z</time></trkpt>
<trkpt lat="13.26157" lon="99.78907"><ele>23</ele><time>2018-06-17T04:57:00Z</time></trkpt>
<trkpt lat="13.26156" lon="99.78911"><ele>23</ele><time>2018-06-17T04:57:01Z</time></trkpt>
<trkpt lat="13.26155" lon="99.78916"><ele>23</ele><time>2018-06-17T04:57:02Z</time></trkpt>
<trkpt lat="13.26154" lon="99.78922"><ele>23</ele><time>2018-06-17T04:57:03Z</time></trkpt>
<trkpt lat="13.26153" lon="99.78927"><ele>23</ele><time>2018-06-17T04:57:04Z</time></trkpt>
<trkpt lat="13.26151" lon="99.78932"><ele>22</ele><time>2018-06-17T04:57:05Z</time></trkpt>
<trkpt lat="13.26150" lon="99.78937"><ele>22</ele><time>2018-06-17T04:57:06Z</time></trkpt>
<trkpt lat="13.26148" lon="99.78941"><ele>22</ele><time>2018-06-17T04:57:07Z</time></trkpt>
<trkpt lat="13.26147" lon="99.78946"><ele>22</ele><time>2018-06-17T04:57:08Z</time></trkpt>
<trkpt lat="13.26145" lon="99.78951"><ele>22</ele><time>2018-06-17T04:57:09Z</time></trkpt>
<trkpt lat="13.26143" lon="99.78956"><ele>22</ele><time>2018-06-17T04:57:10Z</time></trkpt>
<trkpt lat="13.26141" lon="99.78961"><ele>23</ele><time>2018-06-17T04:57:11Z</time></trkpt>
<trkpt lat="13.26140" lon="99.78966"><ele>23</ele><time>2018-06-17T04:57:12Z</time></trkpt>
<trkpt lat="13.26139" lon="99.78971"><ele>23</ele><time>2018-06-17T04:57:13Z</time></trkpt>
<trkpt lat="13.26138" lon="99.78976"><ele>23</ele><time>2018-06-17T04:57:14Z</time></trkpt>
<trkpt lat="13.26137" lon="99.78982"><ele>22</ele><time>2018-06-17T04:57:15Z</time></trkpt>
<trkpt lat="13.26136" lon="99.78987"><ele>22</ele><time>2018-06-17T04:57:16Z</time></trkpt>
<trkpt lat="13.26136" lon="99.78993"><ele>23</ele><time>2018-06-17T04:57:17Z</time></trkpt>
<trkpt lat="13.26135" lon="99.78999"><ele>23</ele><time>2018-06-17T04:57:18Z</time></trkpt>
<trkpt lat="13.26133" lon="99.79004"><ele>24</ele><time>2018-06-17T04:57:19Z</time></trkpt>
<trkpt lat="13.26133" lon="99.79013"><ele>24</ele><time>2018-06-17T04:57:21Z</time></trkpt>
<trkpt lat="13.26136" lon="99.79021"><ele>21</ele><time>2018-06-17T04:57:23Z</time></trkpt>
<trkpt lat="13.26141" lon="99.79030"><ele>21</ele><time>2018-06-17T04:57:25Z</time></trkpt>
<trkpt lat="13.26147" lon="99.79035"><ele>21</ele><time>2018-06-17T04:57:27Z</time></trkpt>
<trkpt lat="13.26142" lon="99.79030"><ele>20</ele><time>2018-06-17T04:57:59Z</time></trkpt>
<trkpt lat="13.26139" lon="99.79022"><ele>19</ele><time>2018-06-17T04:58:01Z</time></trkpt>
<trkpt lat="13.26135" lon="99.79014"><ele>19</ele><time>2018-06-17T04:58:03Z</time></trkpt>
<trkpt lat="13.26131" lon="99.79008"><ele>18</ele><time>2018-06-17T04:58:05Z</time></trkpt>
<trkpt lat="13.26127" lon="99.79006"><ele>17</ele><time>2018-06-17T04:58:07Z</time></trkpt>
<trkpt lat="13.26121" lon="99.79006"><ele>17</ele><time>2018-06-17T04:58:09Z</time></trkpt>
<trkpt lat="13.26113" lon="99.79007"><ele>17</ele><time>2018-06-17T04:58:11Z</time></trkpt>
<trkpt lat="13.26106" lon="99.79009"><ele>16</ele><time>2018-06-17T04:58:13Z</time></trkpt>
<trkpt lat="13.26099" lon="99.79011"><ele>16</ele><time>2018-06-17T04:58:15Z</time></trkpt>
<trkpt lat="13.26092" lon="99.79012"><ele>16</ele><time>2018-06-17T04:58:17Z</time></trkpt>
<trkpt lat="13.26085" lon="99.79014"><ele>17</ele><time>2018-06-17T04:58:19Z</time></trkpt>
<trkpt lat="13.26077" lon="99.79015"><ele>17</ele><time>2018-06-17T04:58:21Z</time></trkpt>
<trkpt lat="13.26070" lon="99.79016"><ele>17</ele><time>2018-06-17T04:58:23Z</time></trkpt>
<trkpt lat="13.26061" lon="99.79017"><ele>18</ele><time>2018-06-17T04:58:25Z</time></trkpt>
<trkpt lat="13.26052" lon="99.79019"><ele>18</ele><time>2018-06-17T04:58:27Z</time></trkpt>
<trkpt lat="13.26048" lon="99.79020"><ele>17</ele><time>2018-06-17T04:58:28Z</time></trkpt>
<trkpt lat="13.26043" lon="99.79022"><ele>17</ele><time>2018-06-17T04:58:29Z</time></trkpt>
<trkpt lat="13.26038" lon="99.79029"><ele>16</ele><time>2018-06-17T04:58:31Z</time></trkpt>
<trkpt lat="13.26036" lon="99.79033"><ele>17</ele><time>2018-06-17T04:58:32Z</time></trkpt>
<trkpt lat="13.26035" lon="99.79039"><ele>17</ele><time>2018-06-17T04:58:33Z</time></trkpt>
<trkpt lat="13.26035" lon="99.79045"><ele>18</ele><time>2018-06-17T04:58:34Z</time></trkpt>
<trkpt lat="13.26035" lon="99.79051"><ele>18</ele><time>2018-06-17T04:58:35Z</time></trkpt>
<trkpt lat="13.26036" lon="99.79058"><ele>17</ele><time>2018-06-17T04:58:36Z</time></trkpt>
<trkpt lat="13.26038" lon="99.79064"><ele>17</ele><time>2018-06-17T04:58:37Z</time></trkpt>
<trkpt lat="13.26040" lon="99.79074"><ele>17</ele><time>2018-06-17T04:58:39Z</time></trkpt>
<trkpt lat="13.26041" lon="99.79081"><ele>16</ele><time>2018-06-17T04:58:40Z</time></trkpt>
<trkpt lat="13.26042" lon="99.79087"><ele>16</ele><time>2018-06-17T04:58:41Z</time></trkpt>
<trkpt lat="13.26043" lon="99.79094"><ele>16</ele><time>2018-06-17T04:58:42Z</time></trkpt>
<trkpt lat="13.26045" lon="99.79104"><ele>16</ele><time>2018-06-17T04:58:44Z</time></trkpt>
<trkpt lat="13.26046" lon="99.79110"><ele>16</ele><time>2018-06-17T04:58:45Z</time></trkpt>
<trkpt lat="13.26047" lon="99.79116"><ele>16</ele><time>2018-06-17T04:58:46Z</time></trkpt>
<trkpt lat="13.26051" lon="99.79128"><ele>17</ele><time>2018-06-17T04:58:47Z</time></trkpt>
<trkpt lat="13.26054" lon="99.79134"><ele>17</ele><time>2018-06-17T04:58:48Z</time></trkpt>
<trkpt lat="13.26056" lon="99.79140"><ele>18</ele><time>2018-06-17T04:58:49Z</time></trkpt>
<trkpt lat="13.26059" lon="99.79146"><ele>18</ele><time>2018-06-17T04:58:50Z</time></trkpt>
<trkpt lat="13.26063" lon="99.79151"><ele>18</ele><time>2018-06-17T04:58:51Z</time></trkpt>
<trkpt lat="13.26067" lon="99.79156"><ele>18</ele><time>2018-06-17T04:58:52Z</time></trkpt>
<trkpt lat="13.26071" lon="99.79161"><ele>17</ele><time>2018-06-17T04:58:54Z</time></trkpt>
<trkpt lat="13.26074" lon="99.79164"><ele>17</ele><time>2018-06-17T04:58:55Z</time></trkpt>
<trkpt lat="13.26078" lon="99.79168"><ele>17</ele><time>2018-06-17T04:58:56Z</time></trkpt>
<trkpt lat="13.26082" lon="99.79172"><ele>18</ele><time>2018-06-17T04:58:57Z</time></trkpt>
<trkpt lat="13.26085" lon="99.79177"><ele>17</ele><time>2018-06-17T04:58:58Z</time></trkpt>
<trkpt lat="13.26089" lon="99.79187"><ele>18</ele><time>2018-06-17T04:58:59Z</time></trkpt>
<trkpt lat="13.26091" lon="99.79194"><ele>17</ele><time>2018-06-17T04:59:00Z</time></trkpt>
<trkpt lat="13.26093" lon="99.79200"><ele>16</ele><time>2018-06-17T04:59:02Z</time></trkpt>
<trkpt lat="13.26094" lon="99.79209"><ele>17</ele><time>2018-06-17T04:59:04Z</time></trkpt>
<trkpt lat="13.26095" lon="99.79214"><ele>17</ele><time>2018-06-17T04:59:05Z</time></trkpt>
<trkpt lat="13.26096" lon="99.79225"><ele>18</ele><time>2018-06-17T04:59:06Z</time></trkpt>
<trkpt lat="13.26095" lon="99.79234"><ele>18</ele><time>2018-06-17T04:59:08Z</time></trkpt>
<trkpt lat="13.26091" lon="99.79242"><ele>18</ele><time>2018-06-17T04:59:10Z</time></trkpt>
<trkpt lat="13.26086" lon="99.79248"><ele>19</ele><time>2018-06-17T04:59:12Z</time></trkpt>
<trkpt lat="13.26080" lon="99.79253"><ele>20</ele><time>2018-06-17T04:59:14Z</time></trkpt>
<trkpt lat="13.26073" lon="99.79259"><ele>20</ele><time>2018-06-17T04:59:16Z</time></trkpt>
<trkpt lat="13.26066" lon="99.79265"><ele>21</ele><time>2018-06-17T04:59:18Z</time></trkpt>
<trkpt lat="13.26063" lon="99.79269"><ele>21</ele><time>2018-06-17T04:59:19Z</time></trkpt>
<trkpt lat="13.26060" lon="99.79272"><ele>21</ele><time>2018-06-17T04:59:20Z</time></trkpt>
<trkpt lat="13.26056" lon="99.79275"><ele>21</ele><time>2018-06-17T04:59:21Z</time></trkpt>
<trkpt lat="13.26053" lon="99.79279"><ele>22</ele><time>2018-06-17T04:59:22Z</time></trkpt>
<trkpt lat="13.26050" lon="99.79282"><ele>22</ele><time>2018-06-17T04:59:23Z</time></trkpt>
<trkpt lat="13.26046" lon="99.79287"><ele>22</ele><time>2018-06-17T04:59:24Z</time></trkpt>
<trkpt lat="13.26042" lon="99.79290"><ele>22</ele><time>2018-06-17T04:59:25Z</time></trkpt>
<trkpt lat="13.26039" lon="99.79294"><ele>23</ele><time>2018-06-17T04:59:26Z</time></trkpt>
<trkpt lat="13.26036" lon="99.79297"><ele>23</ele><time>2018-06-17T04:59:27Z</time></trkpt>
<trkpt lat="13.26033" lon="99.79301"><ele>23</ele><time>2018-06-17T04:59:28Z</time></trkpt>
<trkpt lat="13.26028" lon="99.79309"><ele>23</ele><time>2018-06-17T04:59:30Z</time></trkpt>
<trkpt lat="13.26023" lon="99.79316"><ele>24</ele><time>2018-06-17T04:59:32Z</time></trkpt>
<trkpt lat="13.26019" lon="99.79323"><ele>25</ele><time>2018-06-17T04:59:34Z</time></trkpt>
<trkpt lat="13.26014" lon="99.79329"><ele>25</ele><time>2018-06-17T04:59:36Z</time></trkpt>
<trkpt lat="13.26009" lon="99.79337"><ele>26</ele><time>2018-06-17T04:59:38Z</time></trkpt>
<trkpt lat="13.26004" lon="99.79343"><ele>26</ele><time>2018-06-17T04:59:40Z</time></trkpt>
<trkpt lat="13.25998" lon="99.79350"><ele>27</ele><time>2018-06-17T04:59:42Z</time></trkpt>
<trkpt lat="13.25992" lon="99.79356"><ele>28</ele><time>2018-06-17T04:59:44Z</time></trkpt>
<trkpt lat="13.25986" lon="99.79362"><ele>28</ele><time>2018-06-17T04:59:46Z</time></trkpt>
<trkpt lat="13.25979" lon="99.79368"><ele>28</ele><time>2018-06-17T04:59:48Z</time></trkpt>
<trkpt lat="13.25972" lon="99.79372"><ele>28</ele><time>2018-06-17T04:59:50Z</time></trkpt>
<trkpt lat="13.25966" lon="99.79376"><ele>28</ele><time>2018-06-17T04:59:52Z</time></trkpt>
<trkpt lat="13.25958" lon="99.79379"><ele>28</ele><time>2018-06-17T04:59:54Z</time></trkpt>
<trkpt lat="13.25950" lon="99.79381"><ele>28</ele><time>2018-06-17T04:59:56Z</time></trkpt>
<trkpt lat="13.25942" lon="99.79380"><ele>29</ele><time>2018-06-17T04:59:58Z</time></trkpt>
<trkpt lat="13.25934" lon="99.79377"><ele>29</ele><time>2018-06-17T05:00:00Z</time></trkpt>
<trkpt lat="13.25927" lon="99.79374"><ele>29</ele><time>2018-06-17T05:00:02Z</time></trkpt>
<trkpt lat="13.25923" lon="99.79372"><ele>30</ele><time>2018-06-17T05:00:03Z</time></trkpt>
<trkpt lat="13.25918" lon="99.79369"><ele>30</ele><time>2018-06-17T05:00:04Z</time></trkpt>
<trkpt lat="13.25914" lon="99.79367"><ele>30</ele><time>2018-06-17T05:00:05Z</time></trkpt>
<trkpt lat="13.25909" lon="99.79365"><ele>30</ele><time>2018-06-17T05:00:06Z</time></trkpt>
<trkpt lat="13.25905" lon="99.79362"><ele>30</ele><time>2018-06-17T05:00:07Z</time></trkpt>
<trkpt lat="13.25900" lon="99.79359"><ele>30</ele><time>2018-06-17T05:00:08Z</time></trkpt>
<trkpt lat="13.25895" lon="99.79356"><ele>30</ele><time>2018-06-17T05:00:09Z</time></trkpt>
<trkpt lat="13.25891" lon="99.79354"><ele>30</ele><time>2018-06-17T05:00:10Z</time></trkpt>
<trkpt lat="13.25886" lon="99.79351"><ele>30</ele><time>2018-06-17T05:00:11Z</time></trkpt>
<trkpt lat="13.25881" lon="99.79350"><ele>30</ele><time>2018-06-17T05:00:12Z</time></trkpt>
<trkpt lat="13.25876" lon="99.79348"><ele>30</ele><time>2018-06-17T05:00:13Z</time></trkpt>
<trkpt lat="13.25871" lon="99.79347"><ele>31</ele><time>2018-06-17T05:00:14Z</time></trkpt>
<trkpt lat="13.25865" lon="99.79347"><ele>31</ele><time>2018-06-17T05:00:15Z</time></trkpt>
<trkpt lat="13.25860" lon="99.79347"><ele>31</ele><time>2018-06-17T05:00:16Z</time></trkpt>
<trkpt lat="13.25854" lon="99.79347"><ele>31</ele><time>2018-06-17T05:00:17Z</time></trkpt>
<trkpt lat="13.25848" lon="99.79348"><ele>31</ele><time>2018-06-17T05:00:18Z</time></trkpt>
<trkpt lat="13.25842" lon="99.79349"><ele>31</ele><time>2018-06-17T05:00:19Z</time></trkpt>
<trkpt lat="13.25836" lon="99.79350"><ele>32</ele><time>2018-06-17T05:00:20Z</time></trkpt>
<trkpt lat="13.25830" lon="99.79351"><ele>32</ele><time>2018-06-17T05:00:21Z</time></trkpt>
<trkpt lat="13.25823" lon="99.79353"><ele>32</ele><time>2018-06-17T05:00:22Z</time></trkpt>
<trkpt lat="13.25817" lon="99.79354"><ele>31</ele><time>2018-06-17T05:00:23Z</time></trkpt>
<trkpt lat="13.25812" lon="99.79356"><ele>31</ele><time>2018-06-17T05:00:24Z</time></trkpt>
<trkpt lat="13.25806" lon="99.79358"><ele>32</ele><time>2018-06-17T05:00:25Z</time></trkpt>
<trkpt lat="13.25801" lon="99.79360"><ele>32</ele><time>2018-06-17T05:00:26Z</time></trkpt>
<trkpt lat="13.25796" lon="99.79362"><ele>31</ele><time>2018-06-17T05:00:27Z</time></trkpt>
<trkpt lat="13.25791" lon="99.79364"><ele>32</ele><time>2018-06-17T05:00:28Z</time></trkpt>
<trkpt lat="13.25786" lon="99.79365"><ele>32</ele><time>2018-06-17T05:00:29Z</time></trkpt>
<trkpt lat="13.25781" lon="99.79367"><ele>33</ele><time>2018-06-17T05:00:30Z</time></trkpt>
<trkpt lat="13.25776" lon="99.79368"><ele>33</ele><time>2018-06-17T05:00:31Z</time></trkpt>
<trkpt lat="13.25769" lon="99.79371"><ele>33</ele><time>2018-06-17T05:00:33Z</time></trkpt>
<trkpt lat="13.25763" lon="99.79373"><ele>32</ele><time>2018-06-17T05:00:35Z</time></trkpt>
<trkpt lat="13.25756" lon="99.79375"><ele>32</ele><time>2018-06-17T05:00:37Z</time></trkpt>
<trkpt lat="13.25749" lon="99.79376"><ele>33</ele><time>2018-06-17T05:00:39Z</time></trkpt>
<trkpt lat="13.25742" lon="99.79377"><ele>33</ele><time>2018-06-17T05:00:41Z</time></trkpt>
<trkpt lat="13.25734" lon="99.79377"><ele>33</ele><time>2018-06-17T05:00:43Z</time></trkpt>
<trkpt lat="13.25726" lon="99.79378"><ele>34</ele><time>2018-06-17T05:00:45Z</time></trkpt>
<trkpt lat="13.25718" lon="99.79378"><ele>34</ele><time>2018-06-17T05:00:47Z</time></trkpt>
<trkpt lat="13.25711" lon="99.79378"><ele>34</ele><time>2018-06-17T05:00:49Z</time></trkpt>
<trkpt lat="13.25705" lon="99.79379"><ele>35</ele><time>2018-06-17T05:00:51Z</time></trkpt>
<trkpt lat="13.25698" lon="99.79379"><ele>35</ele><time>2018-06-17T05:00:53Z</time></trkpt>
<trkpt lat="13.25692" lon="99.79378"><ele>35</ele><time>2018-06-17T05:00:55Z</time></trkpt>
<trkpt lat="13.25685" lon="99.79378"><ele>35</ele><time>2018-06-17T05:00:57Z</time></trkpt>
<trkpt lat="13.25678" lon="99.79378"><ele>35</ele><time>2018-06-17T05:00:59Z</time></trkpt>
<trkpt lat="13.25670" lon="99.79378"><ele>36</ele><time>2018-06-17T05:01:01Z</time></trkpt>
<trkpt lat="13.25663" lon="99.79379"><ele>36</ele><time>2018-06-17T05:01:03Z</time></trkpt>
<trkpt lat="13.25656" lon="99.79379"><ele>36</ele><time>2018-06-17T05:01:05Z</time></trkpt>
<trkpt lat="13.25650" lon="99.79379"><ele>36</ele><time>2018-06-17T05:01:07Z</time></trkpt>
<trkpt lat="13.25642" lon="99.79378"><ele>37</ele><time>2018-06-17T05:01:09Z</time></trkpt>
<trkpt lat="13.25636" lon="99.79378"><ele>37</ele><time>2018-06-17T05:01:11Z</time></trkpt>
<trkpt lat="13.25629" lon="99.79378"><ele>37</ele><time>2018-06-17T05:01:13Z</time></trkpt>
<trkpt lat="13.25622" lon="99.79378"><ele>37</ele><time>2018-06-17T05:01:15Z</time></trkpt>
<trkpt lat="13.25615" lon="99.79378"><ele>37</ele><time>2018-06-17T05:01:17Z</time></trkpt>
<trkpt lat="13.25609" lon="99.79377"><ele>38</ele><time>2018-06-17T05:01:19Z</time></trkpt>
<trkpt lat="13.25602" lon="99.79376"><ele>38</ele><time>2018-06-17T05:01:21Z</time></trkpt>
<trkpt lat="13.25595" lon="99.79376"><ele>38</ele><time>2018-06-17T05:01:23Z</time></trkpt>
<trkpt lat="13.25589" lon="99.79376"><ele>38</ele><time>2018-06-17T05:01:25Z</time></trkpt>
<trkpt lat="13.25582" lon="99.79376"><ele>39</ele><time>2018-06-17T05:01:27Z</time></trkpt>
<trkpt lat="13.25576" lon="99.79376"><ele>39</ele><time>2018-06-17T05:01:29Z</time></trkpt>
<trkpt lat="13.25569" lon="99.79376"><ele>39</ele><time>2018-06-17T05:01:31Z</time></trkpt>
<trkpt lat="13.25562" lon="99.79376"><ele>39</ele><time>2018-06-17T05:01:33Z</time></trkpt>
<trkpt lat="13.25555" lon="99.79375"><ele>39</ele><time>2018-06-17T05:01:35Z</time></trkpt>
<trkpt lat="13.25550" lon="99.79373"><ele>39</ele><time>2018-06-17T05:01:37Z</time></trkpt>
<trkpt lat="13.25545" lon="99.79370"><ele>39</ele><time>2018-06-17T05:01:40Z</time></trkpt>
<trkpt lat="13.25540" lon="99.79370"><ele>38</ele><time>2018-06-17T05:01:43Z</time></trkpt>
<trkpt lat="13.25535" lon="99.79371"><ele>38</ele><time>2018-06-17T05:01:47Z</time></trkpt>
<trkpt lat="13.25532" lon="99.79366"><ele>38</ele><time>2018-06-17T05:02:41Z</time></trkpt>
<trkpt lat="13.25531" lon="99.79361"><ele>38</ele><time>2018-06-17T05:02:43Z</time></trkpt>
<trkpt lat="13.25527" lon="99.79355"><ele>38</ele><time>2018-06-17T05:02:45Z</time></trkpt>
<trkpt lat="13.25521" lon="99.79348"><ele>38</ele><time>2018-06-17T05:02:47Z</time></trkpt>
<trkpt lat="13.25516" lon="99.79341"><ele>37</ele><time>2018-06-17T05:02:49Z</time></trkpt>
<trkpt lat="13.25514" lon="99.79337"><ele>37</ele><time>2018-06-17T05:02:50Z</time></trkpt>
<trkpt lat="13.25510" lon="99.79333"><ele>38</ele><time>2018-06-17T05:02:51Z</time></trkpt>
<trkpt lat="13.25507" lon="99.79329"><ele>38</ele><time>2018-06-17T05:02:52Z</time></trkpt>
<trkpt lat="13.25504" lon="99.79326"><ele>37</ele><time>2018-06-17T05:02:53Z</time></trkpt>
<trkpt lat="13.25500" lon="99.79322"><ele>37</ele><time>2018-06-17T05:02:54Z</time></trkpt>
<trkpt lat="13.25497" lon="99.79319"><ele>37</ele><time>2018-06-17T05:02:55Z</time></trkpt>
<trkpt lat="13.25495" lon="99.79314"><ele>36</ele><time>2018-06-17T05:02:56Z</time></trkpt>
<trkpt lat="13.25494" lon="99.79310"><ele>36</ele><time>2018-06-17T05:02:57Z</time></trkpt>
<trkpt lat="13.25492" lon="99.79305"><ele>36</ele><time>2018-06-17T05:02:58Z</time></trkpt>
<trkpt lat="13.25491" lon="99.79299"><ele>36</ele><time>2018-06-17T05:02:59Z</time></trkpt>
<trkpt lat="13.25489" lon="99.79294"><ele>36</ele><time>2018-06-17T05:03:00Z</time></trkpt>
<trkpt lat="13.25486" lon="99.79288"><ele>36</ele><time>2018-06-17T05:03:01Z</time></trkpt>
<trkpt lat="13.25483" lon="99.79283"><ele>36</ele><time>2018-06-17T05:03:02Z</time></trkpt>
<trkpt lat="13.25480" lon="99.79278"><ele>36</ele><time>2018-06-17T05:03:03Z</time></trkpt>
<trkpt lat="13.25476" lon="99.79273"><ele>36</ele><time>2018-06-17T05:03:04Z</time></trkpt>
<trkpt lat="13.25472" lon="99.79270"><ele>36</ele><time>2018-06-17T05:03:05Z</time></trkpt>
<trkpt lat="13.25467" lon="99.79266"><ele>36</ele><time>2018-06-17T05:03:06Z</time></trkpt>
<trkpt lat="13.25462" lon="99.79263"><ele>36</ele><time>2018-06-17T05:03:07Z</time></trkpt>
<trkpt lat="13.25457" lon="99.79260"><ele>36</ele><time>2018-06-17T05:03:08Z</time></trkpt>
<trkpt lat="13.25452" lon="99.79257"><ele>36</ele><time>2018-06-17T05:03:09Z</time></trkpt>
<trkpt lat="13.25448" lon="99.79253"><ele>36</ele><time>2018-06-17T05:03:10Z</time></trkpt>
<trkpt lat="13.25443" lon="99.79249"><ele>36</ele><time>2018-06-17T05:03:11Z</time></trkpt>
<trkpt lat="13.25441" lon="99.79244"><ele>37</ele><time>2018-06-17T05:03:12Z</time></trkpt>
<trkpt lat="13.25440" lon="99.79239"><ele>36</ele><time>2018-06-17T05:03:13Z</time></trkpt>
<trkpt lat="13.25440" lon="99.79229"><ele>35</ele><time>2018-06-17T05:03:15Z</time></trkpt>
<trkpt lat="13.25440" lon="99.79224"><ele>35</ele><time>2018-06-17T05:03:16Z</time></trkpt>
<trkpt lat="13.25439" lon="99.79219"><ele>35</ele><time>2018-06-17T05:03:17Z</time></trkpt>
<trkpt lat="13.25439" lon="99.79214"><ele>34</ele><time>2018-06-17T05:03:18Z</time></trkpt>
<trkpt lat="13.25439" lon="99.79209"><ele>34</ele><time>2018-06-17T05:03:19Z</time></trkpt>
<trkpt lat="13.25439" lon="99.79201"><ele>34</ele><time>2018-06-17T05:03:21Z</time></trkpt>
<trkpt lat="13.25439" lon="99.79192"><ele>33</ele><time>2018-06-17T05:03:23Z</time></trkpt>
<trkpt lat="13.25440" lon="99.79184"><ele>33</ele><time>2018-06-17T05:03:25Z</time></trkpt>
<trkpt lat="13.25440" lon="99.79177"><ele>32</ele><time>2018-06-17T05:03:27Z</time></trkpt>
<trkpt lat="13.25437" lon="99.79171"><ele>32</ele><time>2018-06-17T05:03:29Z</time></trkpt>
<trkpt lat="13.25431" lon="99.79167"><ele>32</ele><time>2018-06-17T05:03:31Z</time></trkpt>
<trkpt lat="13.25424" lon="99.79164"><ele>31</ele><time>2018-06-17T05:03:33Z</time></trkpt>
<trkpt lat="13.25416" lon="99.79163"><ele>32</ele><time>2018-06-17T05:03:35Z</time></trkpt>
<trkpt lat="13.25408" lon="99.79163"><ele>31</ele><time>2018-06-17T05:03:37Z</time></trkpt>
<trkpt lat="13.25401" lon="99.79161"><ele>30</ele><time>2018-06-17T05:03:39Z</time></trkpt>
<trkpt lat="13.25397" lon="99.79158"><ele>30</ele><time>2018-06-17T05:03:40Z</time></trkpt>
<trkpt lat="13.25394" lon="99.79155"><ele>30</ele><time>2018-06-17T05:03:41Z</time></trkpt>
<trkpt lat="13.25390" lon="99.79152"><ele>31</ele><time>2018-06-17T05:03:42Z</time></trkpt>
<trkpt lat="13.25386" lon="99.79148"><ele>31</ele><time>2018-06-17T05:03:43Z</time></trkpt>
<trkpt lat="13.25383" lon="99.79145"><ele>31</ele><time>2018-06-17T05:03:44Z</time></trkpt>
<trkpt lat="13.25379" lon="99.79141"><ele>31</ele><time>2018-06-17T05:03:45Z</time></trkpt>
<trkpt lat="13.25376" lon="99.79138"><ele>31</ele><time>2018-06-17T05:03:46Z</time></trkpt>
<trkpt lat="13.25373" lon="99.79131"><ele>30</ele><time>2018-06-17T05:03:48Z</time></trkpt>
<trkpt lat="13.25373" lon="99.79123"><ele>30</ele><time>2018-06-17T05:03:50Z</time></trkpt>
<trkpt lat="13.25373" lon="99.79115"><ele>30</ele><time>2018-06-17T05:03:52Z</time></trkpt>
<trkpt lat="13.25372" lon="99.79108"><ele>30</ele><time>2018-06-17T05:03:54Z</time></trkpt>
<trkpt lat="13.25372" lon="99.79101"><ele>30</ele><time>2018-06-17T05:03:56Z</time></trkpt>
<trkpt lat="13.25371" lon="99.79094"><ele>29</ele><time>2018-06-17T05:03:58Z</time></trkpt>
<trkpt lat="13.25370" lon="99.79089"><ele>30</ele><time>2018-06-17T05:04:00Z</time></trkpt>
<trkpt lat="13.25369" lon="99.79083"><ele>30</ele><time>2018-06-17T05:04:02Z</time></trkpt>
<trkpt lat="13.25368" lon="99.79079"><ele>30</ele><time>2018-06-17T05:04:04Z</time></trkpt>
<trkpt lat="13.25367" lon="99.79073"><ele>30</ele><time>2018-06-17T05:04:06Z</time></trkpt>
<trkpt lat="13.25367" lon="99.79068"><ele>30</ele><time>2018-06-17T05:04:08Z</time></trkpt>
<trkpt lat="13.25367" lon="99.79062"><ele>30</ele><time>2018-06-17T05:04:10Z</time></trkpt>
<trkpt lat="13.25367" lon="99.79056"><ele>31</ele><time>2018-06-17T05:04:12Z</time></trkpt>
<trkpt lat="13.25367" lon="99.79051"><ele>30</ele><time>2018-06-17T05:04:14Z</time></trkpt>
<trkpt lat="13.25367" lon="99.79045"><ele>31</ele><time>2018-06-17T05:04:17Z</time></trkpt>
<trkpt lat="13.25366" lon="99.79039"><ele>31</ele><time>2018-06-17T05:04:20Z</time></trkpt>
<trkpt lat="13.25367" lon="99.79034"><ele>31</ele><time>2018-06-17T05:04:23Z</time></trkpt>
<trkpt lat="13.25364" lon="99.79028"><ele>31</ele><time>2018-06-17T05:04:26Z</time></trkpt>
<trkpt lat="13.25362" lon="99.79023"><ele>31</ele><time>2018-06-17T05:04:28Z</time></trkpt>
<trkpt lat="13.25360" lon="99.79016"><ele>31</ele><time>2018-06-17T05:04:30Z</time></trkpt>
<trkpt lat="13.25359" lon="99.79010"><ele>31</ele><time>2018-06-17T05:04:32Z</time></trkpt>
<trkpt lat="13.25359" lon="99.79005"><ele>31</ele><time>2018-06-17T05:04:34Z</time></trkpt>
<trkpt lat="13.25362" lon="99.79000"><ele>32</ele><time>2018-06-17T05:04:36Z</time></trkpt>
<trkpt lat="13.25367" lon="99.78996"><ele>32</ele><time>2018-06-17T05:04:38Z</time></trkpt>
<trkpt lat="13.25372" lon="99.78992"><ele>32</ele><time>2018-06-17T05:04:40Z</time></trkpt>
<trkpt lat="13.25379" lon="99.78988"><ele>32</ele><time>2018-06-17T05:04:42Z</time></trkpt>
<trkpt lat="13.25385" lon="99.78984"><ele>32</ele><time>2018-06-17T05:04:44Z</time></trkpt>
<trkpt lat="13.25391" lon="99.78981"><ele>32</ele><time>2018-06-17T05:04:46Z</time></trkpt>
<trkpt lat="13.25397" lon="99.78977"><ele>32</ele><time>2018-06-17T05:04:48Z</time></trkpt>
<trkpt lat="13.25402" lon="99.78974"><ele>33</ele><time>2018-06-17T05:04:50Z</time></trkpt>
<trkpt lat="13.25407" lon="99.78969"><ele>32</ele><time>2018-06-17T05:04:52Z</time></trkpt>
<trkpt lat="13.25411" lon="99.78965"><ele>33</ele><time>2018-06-17T05:04:54Z</time></trkpt>
<trkpt lat="13.25416" lon="99.78960"><ele>32</ele><time>2018-06-17T05:04:56Z</time></trkpt>
<trkpt lat="13.25419" lon="99.78956"><ele>33</ele><time>2018-06-17T05:04:58Z</time></trkpt>
<trkpt lat="13.25424" lon="99.78952"><ele>33</ele><time>2018-06-17T05:05:00Z</time></trkpt>
<trkpt lat="13.25429" lon="99.78948"><ele>33</ele><time>2018-06-17T05:05:02Z</time></trkpt>
<trkpt lat="13.25434" lon="99.78944"><ele>33</ele><time>2018-06-17T05:05:04Z</time></trkpt>
<trkpt lat="13.25439" lon="99.78941"><ele>33</ele><time>2018-06-17T05:05:06Z</time></trkpt>
<trkpt lat="13.25445" lon="99.78937"><ele>33</ele><time>2018-06-17T05:05:08Z</time></trkpt>
<trkpt lat="13.25450" lon="99.78933"><ele>33</ele><time>2018-06-17T05:05:10Z</time></trkpt>
<trkpt lat="13.25454" lon="99.78928"><ele>33</ele><time>2018-06-17T05:05:12Z</time></trkpt>
<trkpt lat="13.25460" lon="99.78922"><ele>33</ele><time>2018-06-17T05:05:14Z</time></trkpt>
<trkpt lat="13.25465" lon="99.78917"><ele>33</ele><time>2018-06-17T05:05:16Z</time></trkpt>
<trkpt lat="13.25472" lon="99.78913"><ele>33</ele><time>2018-06-17T05:05:18Z</time></trkpt>
<trkpt lat="13.25479" lon="99.78909"><ele>33</ele><time>2018-06-17T05:05:20Z</time></trkpt>
<trkpt lat="13.25486" lon="99.78907"><ele>33</ele><time>2018-06-17T05:05:22Z</time></trkpt>
<trkpt lat="13.25494" lon="99.78905"><ele>34</ele><time>2018-06-17T05:05:24Z</time></trkpt>
<trkpt lat="13.25501" lon="99.78904"><ele>33</ele><time>2018-06-17T05:05:26Z</time></trkpt>
<trkpt lat="13.25508" lon="99.78903"><ele>33</ele><time>2018-06-17T05:05:28Z</time></trkpt>
<trkpt lat="13.25515" lon="99.78903"><ele>33</ele><time>2018-06-17T05:05:30Z</time></trkpt>
<trkpt lat="13.25522" lon="99.78904"><ele>33</ele><time>2018-06-17T05:05:32Z</time></trkpt>
<trkpt lat="13.25528" lon="99.78904"><ele>33</ele><time>2018-06-17T05:05:34Z</time></trkpt>
<trkpt lat="13.25534" lon="99.78906"><ele>33</ele><time>2018-06-17T05:05:36Z</time></trkpt>
<trkpt lat="13.25540" lon="99.78908"><ele>33</ele><time>2018-06-17T05:05:38Z</time></trkpt>
<trkpt lat="13.25546" lon="99.78911"><ele>32</ele><time>2018-06-17T05:05:40Z</time></trkpt>
<trkpt lat="13.25552" lon="99.78913"><ele>32</ele><time>2018-06-17T05:05:42Z</time></trkpt>
<trkpt lat="13.25557" lon="99.78913"><ele>32</ele><time>2018-06-17T05:05:44Z</time></trkpt>
<trkpt lat="13.25562" lon="99.78911"><ele>32</ele><time>2018-06-17T05:05:46Z</time></trkpt>
<trkpt lat="13.25568" lon="99.78907"><ele>31</ele><time>2018-06-17T05:05:48Z</time></trkpt>
<trkpt lat="13.25574" lon="99.78902"><ele>32</ele><time>2018-06-17T05:05:50Z</time></trkpt>
<trkpt lat="13.25582" lon="99.78896"><ele>32</ele><time>2018-06-17T05:05:52Z</time></trkpt>
<trkpt lat="13.25588" lon="99.78890"><ele>32</ele><time>2018-06-17T05:05:54Z</time></trkpt>
<trkpt lat="13.25593" lon="99.78884"><ele>32</ele><time>2018-06-17T05:05:56Z</time></trkpt>
<trkpt lat="13.25596" lon="99.78877"><ele>32</ele><time>2018-06-17T05:05:58Z</time></trkpt>
<trkpt lat="13.25601" lon="99.78870"><ele>32</ele><time>2018-06-17T05:06:00Z</time></trkpt>
<trkpt lat="13.25604" lon="99.78862"><ele>32</ele><time>2018-06-17T05:06:02Z</time></trkpt>
<trkpt lat="13.25608" lon="99.78855"><ele>33</ele><time>2018-06-17T05:06:04Z</time></trkpt>
<trkpt lat="13.25612" lon="99.78847"><ele>33</ele><time>2018-06-17T05:06:06Z</time></trkpt>
<trkpt lat="13.25615" lon="99.78840"><ele>33</ele><time>2018-06-17T05:06:08Z</time></trkpt>
<trkpt lat="13.25618" lon="99.78835"><ele>33</ele><time>2018-06-17T05:06:09Z</time></trkpt>
<trkpt lat="13.25620" lon="99.78831"><ele>33</ele><time>2018-06-17T05:06:10Z</time></trkpt>
<trkpt lat="13.25622" lon="99.78826"><ele>33</ele><time>2018-06-17T05:06:11Z</time></trkpt>
<trkpt lat="13.25623" lon="99.78822"><ele>33</ele><time>2018-06-17T05:06:12Z</time></trkpt>
<trkpt lat="13.25625" lon="99.78817"><ele>33</ele><time>2018-06-17T05:06:13Z</time></trkpt>
<trkpt lat="13.25626" lon="99.78812"><ele>33</ele><time>2018-06-17T05:06:14Z</time></trkpt>
<trkpt lat="13.25628" lon="99.78807"><ele>33</ele><time>2018-06-17T05:06:15Z</time></trkpt>
<trkpt lat="13.25629" lon="99.78801"><ele>33</ele><time>2018-06-17T05:06:16Z</time></trkpt>
<trkpt lat="13.25630" lon="99.78796"><ele>33</ele><time>2018-06-17T05:06:17Z</time></trkpt>
<trkpt lat="13.25632" lon="99.78790"><ele>33</ele><time>2018-06-17T05:06:18Z</time></trkpt>
<trkpt lat="13.25633" lon="99.78786"><ele>32</ele><time>2018-06-17T05:06:19Z</time></trkpt>
<trkpt lat="13.25636" lon="99.78778"><ele>32</ele><time>2018-06-17T05:06:21Z</time></trkpt>
<trkpt lat="13.25641" lon="99.78770"><ele>32</ele><time>2018-06-17T05:06:23Z</time></trkpt>
<trkpt lat="13.25646" lon="99.78763"><ele>32</ele><time>2018-06-17T05:06:25Z</time></trkpt>
<trkpt lat="13.25650" lon="99.78755"><ele>31</ele><time>2018-06-17T05:06:27Z</time></trkpt>
<trkpt lat="13.25654" lon="99.78749"><ele>31</ele><time>2018-06-17T05:06:29Z</time></trkpt>
<trkpt lat="13.25659" lon="99.78742"><ele>31</ele><time>2018-06-17T05:06:31Z</time></trkpt>
<trkpt lat="13.25663" lon="99.78736"><ele>31</ele><time>2018-06-17T05:06:33Z</time></trkpt>
<trkpt lat="13.25666" lon="99.78729"><ele>31</ele><time>2018-06-17T05:06:35Z</time></trkpt>
<trkpt lat="13.25671" lon="99.78723"><ele>31</ele><time>2018-06-17T05:06:37Z</time></trkpt>
<trkpt lat="13.25676" lon="99.78717"><ele>31</ele><time>2018-06-17T05:06:39Z</time></trkpt>
<trkpt lat="13.25680" lon="99.78712"><ele>31</ele><time>2018-06-17T05:06:41Z</time></trkpt>
<trkpt lat="13.25685" lon="99.78707"><ele>31</ele><time>2018-06-17T05:06:43Z</time></trkpt>
<trkpt lat="13.25689" lon="99.78703"><ele>30</ele><time>2018-06-17T05:06:45Z</time></trkpt>
<trkpt lat="13.25694" lon="99.78700"><ele>30</ele><time>2018-06-17T05:06:47Z</time></trkpt>
<trkpt lat="13.25700" lon="99.78699"><ele>30</ele><time>2018-06-17T05:06:49Z</time></trkpt>
<trkpt lat="13.25705" lon="99.78697"><ele>29</ele><time>2018-06-17T05:06:51Z</time></trkpt>
<trkpt lat="13.25707" lon="99.78695"><ele>30</ele><time>2018-06-17T05:06:55Z</time></trkpt>
</trkseg>
</trk>
</gpx>
<!-- Summary -->
<!-- Creator: Ultra GPS Logger 3.146c -->
<!-- Name: Khao_Yoi_Sunday_17 -->
<!-- Duration: 03:30:27 -->
<!-- Length: 21210.82 -->
<!-- Speed: 6.05 -->
<!-- POI: 0 -->
<!-- Category: Car -->
<!-- From: 13.25776; 99.78696 To: 13.25707; 99.78695 -->
<!-- FromCity: Khao Yoi ToCity: Khao Yoi -->
<!-- FromUTC: 2018-06-17T01:36:30Z [7.0] ToUTC: 2018-06-17T05:06:55Z [7.0] -->
<!-- Trigger: 5 TimeTrigger: 1000 DistTrigger: 0 -->
<!-- MaxSpeed: 25.03 -->
<!-- Stopped: 00:00:00 (0) -->
<!-- AvgMovSpeed: 6.05 -->
<!-- DeviceName: Samsung SM-G965F -->
